<?xml version="1.0" encoding="UTF-8" standalone="no" ?>
<gpx xmlns="http://www.topografix.com/GPX/1/1" xmlns:xsi="http://www.w3.org/2001/XMLSchema-instance" xsi:schemaLocation="http://www.topografix.com/GPX/1/1 http://www.topografix.com/GPX/1/1/gpx.xsd" version="1.1" creator="VisuGPX - https://www.visugpx.com">
  <metadata>
    <name>Barèges-Crête de la Pègue</name>
    <desc><![CDATA[Barèges-Crête de la Pègue
Départ au virage en épingle à cheveux au dessus du parking de la station
(Jean-Ghislain, Edouard, Yves et ..... le chien)
Très belle sortie par beau temps.
Neige bien dure dans le bas, couteaux de Super-Barèges jusqu au sommet.
]]></desc>
  </metadata>
  <trk>
    <name><![CDATA[Barèges-Crête de la Pègue_1]]></name>
    <trkseg>
      <trkpt lat="42.90767" lon="0.11639">
        <ele>1638</ele>
        <time>2012-12-16T09:13:18Z</time>
      </trkpt>
      <trkpt lat="42.90747" lon="0.11665">
        <ele>1637</ele>
        <time>2012-12-16T09:14:24Z</time>
      </trkpt>
      <trkpt lat="42.90746" lon="0.11666">
        <ele>1637</ele>
        <time>2012-12-16T09:14:26Z</time>
      </trkpt>
      <trkpt lat="42.90745" lon="0.11668">
        <ele>1637</ele>
        <time>2012-12-16T09:14:28Z</time>
      </trkpt>
      <trkpt lat="42.90744" lon="0.11669">
        <ele>1637</ele>
        <time>2012-12-16T09:14:30Z</time>
      </trkpt>
      <trkpt lat="42.90742" lon="0.11671">
        <ele>1637</ele>
        <time>2012-12-16T09:14:32Z</time>
      </trkpt>
      <trkpt lat="42.90741" lon="0.11673">
        <ele>1637</ele>
        <time>2012-12-16T09:14:34Z</time>
      </trkpt>
      <trkpt lat="42.90739" lon="0.11674">
        <ele>1637</ele>
        <time>2012-12-16T09:14:36Z</time>
      </trkpt>
      <trkpt lat="42.90737" lon="0.11676">
        <ele>1637</ele>
        <time>2012-12-16T09:14:39Z</time>
      </trkpt>
      <trkpt lat="42.90736" lon="0.11678">
        <ele>1637</ele>
        <time>2012-12-16T09:14:41Z</time>
      </trkpt>
      <trkpt lat="42.90736" lon="0.1168">
        <ele>1637</ele>
        <time>2012-12-16T09:14:43Z</time>
      </trkpt>
      <trkpt lat="42.90735" lon="0.11682">
        <ele>1637</ele>
        <time>2012-12-16T09:14:45Z</time>
      </trkpt>
      <trkpt lat="42.90735" lon="0.11684">
        <ele>1637</ele>
        <time>2012-12-16T09:14:47Z</time>
      </trkpt>
      <trkpt lat="42.90735" lon="0.11686">
        <ele>1637</ele>
        <time>2012-12-16T09:14:49Z</time>
      </trkpt>
      <trkpt lat="42.90735" lon="0.11688">
        <ele>1637</ele>
        <time>2012-12-16T09:14:51Z</time>
      </trkpt>
      <trkpt lat="42.90735" lon="0.1169">
        <ele>1637</ele>
        <time>2012-12-16T09:14:53Z</time>
      </trkpt>
      <trkpt lat="42.90735" lon="0.11692">
        <ele>1637</ele>
        <time>2012-12-16T09:14:55Z</time>
      </trkpt>
      <trkpt lat="42.90735" lon="0.11694">
        <ele>1637</ele>
        <time>2012-12-16T09:14:57Z</time>
      </trkpt>
      <trkpt lat="42.90735" lon="0.11696">
        <ele>1637</ele>
        <time>2012-12-16T09:14:59Z</time>
      </trkpt>
      <trkpt lat="42.90735" lon="0.11698">
        <ele>1637</ele>
        <time>2012-12-16T09:15:01Z</time>
      </trkpt>
      <trkpt lat="42.90735" lon="0.117">
        <ele>1637</ele>
        <time>2012-12-16T09:15:03Z</time>
      </trkpt>
      <trkpt lat="42.90735" lon="0.11702">
        <ele>1637</ele>
        <time>2012-12-16T09:15:05Z</time>
      </trkpt>
      <trkpt lat="42.90735" lon="0.11704">
        <ele>1637</ele>
        <time>2012-12-16T09:15:07Z</time>
      </trkpt>
      <trkpt lat="42.90734" lon="0.11706">
        <ele>1637</ele>
        <time>2012-12-16T09:15:09Z</time>
      </trkpt>
      <trkpt lat="42.90734" lon="0.11709">
        <ele>1637</ele>
        <time>2012-12-16T09:15:11Z</time>
      </trkpt>
      <trkpt lat="42.90734" lon="0.11711">
        <ele>1637</ele>
        <time>2012-12-16T09:15:13Z</time>
      </trkpt>
      <trkpt lat="42.90733" lon="0.11713">
        <ele>1637</ele>
        <time>2012-12-16T09:15:15Z</time>
      </trkpt>
      <trkpt lat="42.90733" lon="0.11715">
        <ele>1637</ele>
        <time>2012-12-16T09:15:17Z</time>
      </trkpt>
      <trkpt lat="42.90733" lon="0.11717">
        <ele>1637</ele>
        <time>2012-12-16T09:15:19Z</time>
      </trkpt>
      <trkpt lat="42.90733" lon="0.1172">
        <ele>1637</ele>
        <time>2012-12-16T09:15:21Z</time>
      </trkpt>
      <trkpt lat="42.90733" lon="0.11722">
        <ele>1637</ele>
        <time>2012-12-16T09:15:23Z</time>
      </trkpt>
      <trkpt lat="42.90732" lon="0.11724">
        <ele>1637</ele>
        <time>2012-12-16T09:15:25Z</time>
      </trkpt>
      <trkpt lat="42.90731" lon="0.11726">
        <ele>1637</ele>
        <time>2012-12-16T09:15:27Z</time>
      </trkpt>
      <trkpt lat="42.90731" lon="0.11728">
        <ele>1637</ele>
        <time>2012-12-16T09:15:28Z</time>
      </trkpt>
      <trkpt lat="42.90731" lon="0.11729">
        <ele>1637</ele>
        <time>2012-12-16T09:15:29Z</time>
      </trkpt>
      <trkpt lat="42.9073" lon="0.11731">
        <ele>1637</ele>
        <time>2012-12-16T09:15:31Z</time>
      </trkpt>
      <trkpt lat="42.90729" lon="0.11733">
        <ele>1637</ele>
        <time>2012-12-16T09:15:33Z</time>
      </trkpt>
      <trkpt lat="42.90729" lon="0.11736">
        <ele>1637</ele>
        <time>2012-12-16T09:15:35Z</time>
      </trkpt>
      <trkpt lat="42.90728" lon="0.11738">
        <ele>1637</ele>
        <time>2012-12-16T09:15:37Z</time>
      </trkpt>
      <trkpt lat="42.90728" lon="0.1174">
        <ele>1637</ele>
        <time>2012-12-16T09:15:39Z</time>
      </trkpt>
      <trkpt lat="42.90728" lon="0.11742">
        <ele>1637</ele>
        <time>2012-12-16T09:15:41Z</time>
      </trkpt>
      <trkpt lat="42.90728" lon="0.11744">
        <ele>1637</ele>
        <time>2012-12-16T09:15:43Z</time>
      </trkpt>
      <trkpt lat="42.90727" lon="0.11746">
        <ele>1637</ele>
        <time>2012-12-16T09:15:45Z</time>
      </trkpt>
      <trkpt lat="42.90727" lon="0.11748">
        <ele>1637</ele>
        <time>2012-12-16T09:15:47Z</time>
      </trkpt>
      <trkpt lat="42.90726" lon="0.1175">
        <ele>1637</ele>
        <time>2012-12-16T09:15:49Z</time>
      </trkpt>
      <trkpt lat="42.90726" lon="0.11753">
        <ele>1637</ele>
        <time>2012-12-16T09:15:51Z</time>
      </trkpt>
      <trkpt lat="42.90725" lon="0.11755">
        <ele>1637</ele>
        <time>2012-12-16T09:15:53Z</time>
      </trkpt>
      <trkpt lat="42.90725" lon="0.11758">
        <ele>1637</ele>
        <time>2012-12-16T09:15:55Z</time>
      </trkpt>
      <trkpt lat="42.90725" lon="0.1176">
        <ele>1637</ele>
        <time>2012-12-16T09:15:57Z</time>
      </trkpt>
      <trkpt lat="42.90724" lon="0.11762">
        <ele>1637</ele>
        <time>2012-12-16T09:15:59Z</time>
      </trkpt>
      <trkpt lat="42.90723" lon="0.11765">
        <ele>1637</ele>
        <time>2012-12-16T09:16:01Z</time>
      </trkpt>
      <trkpt lat="42.90723" lon="0.11767">
        <ele>1637</ele>
        <time>2012-12-16T09:16:03Z</time>
      </trkpt>
      <trkpt lat="42.90723" lon="0.11769">
        <ele>1637</ele>
        <time>2012-12-16T09:16:05Z</time>
      </trkpt>
      <trkpt lat="42.90722" lon="0.11771">
        <ele>1637</ele>
        <time>2012-12-16T09:16:07Z</time>
      </trkpt>
      <trkpt lat="42.90722" lon="0.11773">
        <ele>1637</ele>
        <time>2012-12-16T09:16:09Z</time>
      </trkpt>
      <trkpt lat="42.90722" lon="0.11776">
        <ele>1638</ele>
        <time>2012-12-16T09:16:11Z</time>
      </trkpt>
      <trkpt lat="42.90721" lon="0.11778">
        <ele>1639</ele>
        <time>2012-12-16T09:16:13Z</time>
      </trkpt>
      <trkpt lat="42.90721" lon="0.11779">
        <ele>1639</ele>
        <time>2012-12-16T09:16:14Z</time>
      </trkpt>
      <trkpt lat="42.9072" lon="0.11781">
        <ele>1639</ele>
        <time>2012-12-16T09:16:15Z</time>
      </trkpt>
      <trkpt lat="42.9072" lon="0.11783">
        <ele>1640</ele>
        <time>2012-12-16T09:16:17Z</time>
      </trkpt>
      <trkpt lat="42.90719" lon="0.11785">
        <ele>1641</ele>
        <time>2012-12-16T09:16:19Z</time>
      </trkpt>
      <trkpt lat="42.90719" lon="0.11788">
        <ele>1641</ele>
        <time>2012-12-16T09:16:21Z</time>
      </trkpt>
      <trkpt lat="42.90718" lon="0.11789">
        <ele>1641</ele>
        <time>2012-12-16T09:16:22Z</time>
      </trkpt>
      <trkpt lat="42.90718" lon="0.11791">
        <ele>1641</ele>
        <time>2012-12-16T09:16:24Z</time>
      </trkpt>
      <trkpt lat="42.90717" lon="0.11794">
        <ele>1642</ele>
        <time>2012-12-16T09:16:26Z</time>
      </trkpt>
      <trkpt lat="42.90717" lon="0.11796">
        <ele>1642</ele>
        <time>2012-12-16T09:16:28Z</time>
      </trkpt>
      <trkpt lat="42.90716" lon="0.11799">
        <ele>1642</ele>
        <time>2012-12-16T09:16:30Z</time>
      </trkpt>
      <trkpt lat="42.90716" lon="0.118">
        <ele>1642</ele>
        <time>2012-12-16T09:16:31Z</time>
      </trkpt>
      <trkpt lat="42.90715" lon="0.11802">
        <ele>1642</ele>
        <time>2012-12-16T09:16:33Z</time>
      </trkpt>
      <trkpt lat="42.90715" lon="0.11804">
        <ele>1642</ele>
        <time>2012-12-16T09:16:34Z</time>
      </trkpt>
      <trkpt lat="42.90715" lon="0.11806">
        <ele>1642</ele>
        <time>2012-12-16T09:16:36Z</time>
      </trkpt>
      <trkpt lat="42.90714" lon="0.11809">
        <ele>1642</ele>
        <time>2012-12-16T09:16:38Z</time>
      </trkpt>
      <trkpt lat="42.90714" lon="0.11811">
        <ele>1642</ele>
        <time>2012-12-16T09:16:40Z</time>
      </trkpt>
      <trkpt lat="42.90713" lon="0.11813">
        <ele>1643</ele>
        <time>2012-12-16T09:16:42Z</time>
      </trkpt>
      <trkpt lat="42.90713" lon="0.11816">
        <ele>1643</ele>
        <time>2012-12-16T09:16:44Z</time>
      </trkpt>
      <trkpt lat="42.90713" lon="0.11818">
        <ele>1643</ele>
        <time>2012-12-16T09:16:46Z</time>
      </trkpt>
      <trkpt lat="42.90712" lon="0.1182">
        <ele>1643</ele>
        <time>2012-12-16T09:16:48Z</time>
      </trkpt>
      <trkpt lat="42.90712" lon="0.11823">
        <ele>1643</ele>
        <time>2012-12-16T09:16:50Z</time>
      </trkpt>
      <trkpt lat="42.90712" lon="0.11825">
        <ele>1643</ele>
        <time>2012-12-16T09:16:52Z</time>
      </trkpt>
      <trkpt lat="42.90712" lon="0.11826">
        <ele>1643</ele>
        <time>2012-12-16T09:16:53Z</time>
      </trkpt>
      <trkpt lat="42.90712" lon="0.11829">
        <ele>1643</ele>
        <time>2012-12-16T09:16:55Z</time>
      </trkpt>
      <trkpt lat="42.90712" lon="0.1183">
        <ele>1643</ele>
        <time>2012-12-16T09:16:56Z</time>
      </trkpt>
      <trkpt lat="42.90711" lon="0.11832">
        <ele>1643</ele>
        <time>2012-12-16T09:16:58Z</time>
      </trkpt>
      <trkpt lat="42.90711" lon="0.11834">
        <ele>1643</ele>
        <time>2012-12-16T09:16:59Z</time>
      </trkpt>
      <trkpt lat="42.90711" lon="0.11836">
        <ele>1643</ele>
        <time>2012-12-16T09:17:01Z</time>
      </trkpt>
      <trkpt lat="42.9071" lon="0.11838">
        <ele>1643</ele>
        <time>2012-12-16T09:17:03Z</time>
      </trkpt>
      <trkpt lat="42.9071" lon="0.1184">
        <ele>1644</ele>
        <time>2012-12-16T09:17:05Z</time>
      </trkpt>
      <trkpt lat="42.9071" lon="0.11842">
        <ele>1644</ele>
        <time>2012-12-16T09:17:06Z</time>
      </trkpt>
      <trkpt lat="42.9071" lon="0.11844">
        <ele>1644</ele>
        <time>2012-12-16T09:17:07Z</time>
      </trkpt>
      <trkpt lat="42.9071" lon="0.11846">
        <ele>1644</ele>
        <time>2012-12-16T09:17:10Z</time>
      </trkpt>
      <trkpt lat="42.9071" lon="0.11849">
        <ele>1644</ele>
        <time>2012-12-16T09:17:12Z</time>
      </trkpt>
      <trkpt lat="42.9071" lon="0.11851">
        <ele>1644</ele>
        <time>2012-12-16T09:17:14Z</time>
      </trkpt>
      <trkpt lat="42.9071" lon="0.11853">
        <ele>1644</ele>
        <time>2012-12-16T09:17:16Z</time>
      </trkpt>
      <trkpt lat="42.90709" lon="0.11855">
        <ele>1644</ele>
        <time>2012-12-16T09:17:18Z</time>
      </trkpt>
      <trkpt lat="42.90709" lon="0.11857">
        <ele>1644</ele>
        <time>2012-12-16T09:17:20Z</time>
      </trkpt>
      <trkpt lat="42.90709" lon="0.1186">
        <ele>1644</ele>
        <time>2012-12-16T09:17:22Z</time>
      </trkpt>
      <trkpt lat="42.90709" lon="0.11862">
        <ele>1644</ele>
        <time>2012-12-16T09:17:24Z</time>
      </trkpt>
      <trkpt lat="42.90708" lon="0.11865">
        <ele>1644</ele>
        <time>2012-12-16T09:17:26Z</time>
      </trkpt>
      <trkpt lat="42.90708" lon="0.11868">
        <ele>1645</ele>
        <time>2012-12-16T09:17:28Z</time>
      </trkpt>
      <trkpt lat="42.90708" lon="0.1187">
        <ele>1645</ele>
        <time>2012-12-16T09:17:30Z</time>
      </trkpt>
      <trkpt lat="42.90707" lon="0.11872">
        <ele>1646</ele>
        <time>2012-12-16T09:17:32Z</time>
      </trkpt>
      <trkpt lat="42.90707" lon="0.11875">
        <ele>1646</ele>
        <time>2012-12-16T09:17:34Z</time>
      </trkpt>
      <trkpt lat="42.90707" lon="0.11877">
        <ele>1646</ele>
        <time>2012-12-16T09:17:36Z</time>
      </trkpt>
      <trkpt lat="42.90707" lon="0.11879">
        <ele>1646</ele>
        <time>2012-12-16T09:17:38Z</time>
      </trkpt>
      <trkpt lat="42.90707" lon="0.11882">
        <ele>1646</ele>
        <time>2012-12-16T09:17:40Z</time>
      </trkpt>
      <trkpt lat="42.90706" lon="0.11884">
        <ele>1646</ele>
        <time>2012-12-16T09:17:42Z</time>
      </trkpt>
      <trkpt lat="42.90706" lon="0.11887">
        <ele>1647</ele>
        <time>2012-12-16T09:17:44Z</time>
      </trkpt>
      <trkpt lat="42.90706" lon="0.11889">
        <ele>1647</ele>
        <time>2012-12-16T09:17:46Z</time>
      </trkpt>
      <trkpt lat="42.90705" lon="0.11891">
        <ele>1647</ele>
        <time>2012-12-16T09:17:48Z</time>
      </trkpt>
      <trkpt lat="42.90705" lon="0.11893">
        <ele>1647</ele>
        <time>2012-12-16T09:17:50Z</time>
      </trkpt>
      <trkpt lat="42.90705" lon="0.11895">
        <ele>1647</ele>
        <time>2012-12-16T09:17:52Z</time>
      </trkpt>
      <trkpt lat="42.90705" lon="0.11897">
        <ele>1647</ele>
        <time>2012-12-16T09:17:53Z</time>
      </trkpt>
      <trkpt lat="42.90705" lon="0.11899">
        <ele>1647</ele>
        <time>2012-12-16T09:17:55Z</time>
      </trkpt>
      <trkpt lat="42.90705" lon="0.11901">
        <ele>1647</ele>
        <time>2012-12-16T09:17:57Z</time>
      </trkpt>
      <trkpt lat="42.90704" lon="0.11903">
        <ele>1647</ele>
        <time>2012-12-16T09:17:59Z</time>
      </trkpt>
      <trkpt lat="42.90705" lon="0.11905">
        <ele>1648</ele>
        <time>2012-12-16T09:18:01Z</time>
      </trkpt>
      <trkpt lat="42.90704" lon="0.11907">
        <ele>1648</ele>
        <time>2012-12-16T09:18:03Z</time>
      </trkpt>
      <trkpt lat="42.90704" lon="0.11909">
        <ele>1648</ele>
        <time>2012-12-16T09:18:05Z</time>
      </trkpt>
      <trkpt lat="42.90704" lon="0.11912">
        <ele>1648</ele>
        <time>2012-12-16T09:18:07Z</time>
      </trkpt>
      <trkpt lat="42.90704" lon="0.11913">
        <ele>1648</ele>
        <time>2012-12-16T09:18:09Z</time>
      </trkpt>
      <trkpt lat="42.90704" lon="0.11915">
        <ele>1648</ele>
        <time>2012-12-16T09:18:11Z</time>
      </trkpt>
      <trkpt lat="42.90704" lon="0.11918">
        <ele>1648</ele>
        <time>2012-12-16T09:18:13Z</time>
      </trkpt>
      <trkpt lat="42.90704" lon="0.1192">
        <ele>1648</ele>
        <time>2012-12-16T09:18:15Z</time>
      </trkpt>
      <trkpt lat="42.90704" lon="0.11921">
        <ele>1648</ele>
        <time>2012-12-16T09:18:16Z</time>
      </trkpt>
      <trkpt lat="42.90703" lon="0.11924">
        <ele>1648</ele>
        <time>2012-12-16T09:18:18Z</time>
      </trkpt>
      <trkpt lat="42.90703" lon="0.11926">
        <ele>1648</ele>
        <time>2012-12-16T09:18:20Z</time>
      </trkpt>
      <trkpt lat="42.90703" lon="0.11927">
        <ele>1648</ele>
        <time>2012-12-16T09:18:21Z</time>
      </trkpt>
      <trkpt lat="42.90703" lon="0.1193">
        <ele>1648</ele>
        <time>2012-12-16T09:18:23Z</time>
      </trkpt>
      <trkpt lat="42.90702" lon="0.11932">
        <ele>1648</ele>
        <time>2012-12-16T09:18:25Z</time>
      </trkpt>
      <trkpt lat="42.90702" lon="0.11934">
        <ele>1648</ele>
        <time>2012-12-16T09:18:26Z</time>
      </trkpt>
      <trkpt lat="42.90702" lon="0.11936">
        <ele>1648</ele>
        <time>2012-12-16T09:18:28Z</time>
      </trkpt>
      <trkpt lat="42.90702" lon="0.11938">
        <ele>1648</ele>
        <time>2012-12-16T09:18:29Z</time>
      </trkpt>
      <trkpt lat="42.90702" lon="0.11939">
        <ele>1648</ele>
        <time>2012-12-16T09:18:30Z</time>
      </trkpt>
      <trkpt lat="42.90702" lon="0.11941">
        <ele>1649</ele>
        <time>2012-12-16T09:18:31Z</time>
      </trkpt>
      <trkpt lat="42.90702" lon="0.11943">
        <ele>1649</ele>
        <time>2012-12-16T09:18:33Z</time>
      </trkpt>
      <trkpt lat="42.90702" lon="0.11946">
        <ele>1649</ele>
        <time>2012-12-16T09:18:35Z</time>
      </trkpt>
      <trkpt lat="42.90702" lon="0.11948">
        <ele>1650</ele>
        <time>2012-12-16T09:18:37Z</time>
      </trkpt>
      <trkpt lat="42.90702" lon="0.1195">
        <ele>1650</ele>
        <time>2012-12-16T09:18:39Z</time>
      </trkpt>
      <trkpt lat="42.90702" lon="0.11953">
        <ele>1651</ele>
        <time>2012-12-16T09:18:41Z</time>
      </trkpt>
      <trkpt lat="42.90702" lon="0.11955">
        <ele>1651</ele>
        <time>2012-12-16T09:18:43Z</time>
      </trkpt>
      <trkpt lat="42.90701" lon="0.11958">
        <ele>1651</ele>
        <time>2012-12-16T09:18:45Z</time>
      </trkpt>
      <trkpt lat="42.90701" lon="0.1196">
        <ele>1651</ele>
        <time>2012-12-16T09:18:47Z</time>
      </trkpt>
      <trkpt lat="42.90701" lon="0.11962">
        <ele>1651</ele>
        <time>2012-12-16T09:18:49Z</time>
      </trkpt>
      <trkpt lat="42.90701" lon="0.11964">
        <ele>1651</ele>
        <time>2012-12-16T09:18:51Z</time>
      </trkpt>
      <trkpt lat="42.90701" lon="0.11966">
        <ele>1651</ele>
        <time>2012-12-16T09:18:53Z</time>
      </trkpt>
      <trkpt lat="42.90701" lon="0.11969">
        <ele>1651</ele>
        <time>2012-12-16T09:18:55Z</time>
      </trkpt>
      <trkpt lat="42.907" lon="0.11972">
        <ele>1651</ele>
        <time>2012-12-16T09:18:57Z</time>
      </trkpt>
      <trkpt lat="42.907" lon="0.11974">
        <ele>1652</ele>
        <time>2012-12-16T09:18:59Z</time>
      </trkpt>
      <trkpt lat="42.907" lon="0.11976">
        <ele>1652</ele>
        <time>2012-12-16T09:19:01Z</time>
      </trkpt>
      <trkpt lat="42.907" lon="0.11979">
        <ele>1653</ele>
        <time>2012-12-16T09:19:03Z</time>
      </trkpt>
      <trkpt lat="42.907" lon="0.11981">
        <ele>1653</ele>
        <time>2012-12-16T09:19:05Z</time>
      </trkpt>
      <trkpt lat="42.90699" lon="0.11983">
        <ele>1653</ele>
        <time>2012-12-16T09:19:07Z</time>
      </trkpt>
      <trkpt lat="42.90699" lon="0.11986">
        <ele>1653</ele>
        <time>2012-12-16T09:19:09Z</time>
      </trkpt>
      <trkpt lat="42.90699" lon="0.11988">
        <ele>1653</ele>
        <time>2012-12-16T09:19:11Z</time>
      </trkpt>
      <trkpt lat="42.90699" lon="0.1199">
        <ele>1653</ele>
        <time>2012-12-16T09:19:13Z</time>
      </trkpt>
      <trkpt lat="42.90699" lon="0.11992">
        <ele>1653</ele>
        <time>2012-12-16T09:19:15Z</time>
      </trkpt>
      <trkpt lat="42.90698" lon="0.11995">
        <ele>1653</ele>
        <time>2012-12-16T09:19:17Z</time>
      </trkpt>
      <trkpt lat="42.90698" lon="0.11997">
        <ele>1653</ele>
        <time>2012-12-16T09:19:18Z</time>
      </trkpt>
      <trkpt lat="42.90698" lon="0.12">
        <ele>1654</ele>
        <time>2012-12-16T09:19:20Z</time>
      </trkpt>
      <trkpt lat="42.90697" lon="0.12002">
        <ele>1656</ele>
        <time>2012-12-16T09:19:22Z</time>
      </trkpt>
      <trkpt lat="42.90697" lon="0.12004">
        <ele>1657</ele>
        <time>2012-12-16T09:19:24Z</time>
      </trkpt>
      <trkpt lat="42.90697" lon="0.12006">
        <ele>1657</ele>
        <time>2012-12-16T09:19:26Z</time>
      </trkpt>
      <trkpt lat="42.90697" lon="0.12008">
        <ele>1657</ele>
        <time>2012-12-16T09:19:28Z</time>
      </trkpt>
      <trkpt lat="42.90697" lon="0.12011">
        <ele>1657</ele>
        <time>2012-12-16T09:19:30Z</time>
      </trkpt>
      <trkpt lat="42.90696" lon="0.12013">
        <ele>1657</ele>
        <time>2012-12-16T09:19:32Z</time>
      </trkpt>
      <trkpt lat="42.90696" lon="0.12015">
        <ele>1657</ele>
        <time>2012-12-16T09:19:34Z</time>
      </trkpt>
      <trkpt lat="42.90696" lon="0.12017">
        <ele>1657</ele>
        <time>2012-12-16T09:19:36Z</time>
      </trkpt>
      <trkpt lat="42.90696" lon="0.12019">
        <ele>1657</ele>
        <time>2012-12-16T09:19:38Z</time>
      </trkpt>
      <trkpt lat="42.90696" lon="0.12021">
        <ele>1657</ele>
        <time>2012-12-16T09:19:40Z</time>
      </trkpt>
      <trkpt lat="42.90695" lon="0.12023">
        <ele>1658</ele>
        <time>2012-12-16T09:19:42Z</time>
      </trkpt>
      <trkpt lat="42.90695" lon="0.12025">
        <ele>1658</ele>
        <time>2012-12-16T09:19:44Z</time>
      </trkpt>
      <trkpt lat="42.90695" lon="0.12027">
        <ele>1658</ele>
        <time>2012-12-16T09:19:46Z</time>
      </trkpt>
      <trkpt lat="42.90694" lon="0.1203">
        <ele>1658</ele>
        <time>2012-12-16T09:19:48Z</time>
      </trkpt>
      <trkpt lat="42.90694" lon="0.12032">
        <ele>1658</ele>
        <time>2012-12-16T09:19:50Z</time>
      </trkpt>
      <trkpt lat="42.90694" lon="0.12034">
        <ele>1659</ele>
        <time>2012-12-16T09:19:52Z</time>
      </trkpt>
      <trkpt lat="42.90694" lon="0.12036">
        <ele>1659</ele>
        <time>2012-12-16T09:19:54Z</time>
      </trkpt>
      <trkpt lat="42.90693" lon="0.12038">
        <ele>1659</ele>
        <time>2012-12-16T09:19:56Z</time>
      </trkpt>
      <trkpt lat="42.90693" lon="0.12042">
        <ele>1660</ele>
        <time>2012-12-16T09:19:58Z</time>
      </trkpt>
      <trkpt lat="42.90692" lon="0.12044">
        <ele>1662</ele>
        <time>2012-12-16T09:20:00Z</time>
      </trkpt>
      <trkpt lat="42.90692" lon="0.12045">
        <ele>1662</ele>
        <time>2012-12-16T09:20:01Z</time>
      </trkpt>
      <trkpt lat="42.90692" lon="0.12048">
        <ele>1663</ele>
        <time>2012-12-16T09:20:03Z</time>
      </trkpt>
      <trkpt lat="42.90692" lon="0.12049">
        <ele>1663</ele>
        <time>2012-12-16T09:20:04Z</time>
      </trkpt>
      <trkpt lat="42.90691" lon="0.12051">
        <ele>1663</ele>
        <time>2012-12-16T09:20:05Z</time>
      </trkpt>
      <trkpt lat="42.90691" lon="0.12054">
        <ele>1663</ele>
        <time>2012-12-16T09:20:07Z</time>
      </trkpt>
      <trkpt lat="42.90691" lon="0.12055">
        <ele>1663</ele>
        <time>2012-12-16T09:20:08Z</time>
      </trkpt>
      <trkpt lat="42.90691" lon="0.12058">
        <ele>1663</ele>
        <time>2012-12-16T09:20:10Z</time>
      </trkpt>
      <trkpt lat="42.9069" lon="0.12059">
        <ele>1663</ele>
        <time>2012-12-16T09:20:11Z</time>
      </trkpt>
      <trkpt lat="42.9069" lon="0.12061">
        <ele>1663</ele>
        <time>2012-12-16T09:20:12Z</time>
      </trkpt>
      <trkpt lat="42.9069" lon="0.12063">
        <ele>1663</ele>
        <time>2012-12-16T09:20:14Z</time>
      </trkpt>
      <trkpt lat="42.9069" lon="0.12064">
        <ele>1663</ele>
        <time>2012-12-16T09:20:15Z</time>
      </trkpt>
      <trkpt lat="42.90689" lon="0.12066">
        <ele>1663</ele>
        <time>2012-12-16T09:20:17Z</time>
      </trkpt>
      <trkpt lat="42.90689" lon="0.12069">
        <ele>1663</ele>
        <time>2012-12-16T09:20:19Z</time>
      </trkpt>
      <trkpt lat="42.90689" lon="0.12071">
        <ele>1663</ele>
        <time>2012-12-16T09:20:21Z</time>
      </trkpt>
      <trkpt lat="42.90689" lon="0.12073">
        <ele>1663</ele>
        <time>2012-12-16T09:20:22Z</time>
      </trkpt>
      <trkpt lat="42.90689" lon="0.12075">
        <ele>1663</ele>
        <time>2012-12-16T09:20:24Z</time>
      </trkpt>
      <trkpt lat="42.90688" lon="0.12077">
        <ele>1663</ele>
        <time>2012-12-16T09:20:25Z</time>
      </trkpt>
      <trkpt lat="42.90688" lon="0.12079">
        <ele>1664</ele>
        <time>2012-12-16T09:20:27Z</time>
      </trkpt>
      <trkpt lat="42.90688" lon="0.1208">
        <ele>1664</ele>
        <time>2012-12-16T09:20:28Z</time>
      </trkpt>
      <trkpt lat="42.90688" lon="0.12082">
        <ele>1664</ele>
        <time>2012-12-16T09:20:30Z</time>
      </trkpt>
      <trkpt lat="42.90688" lon="0.12084">
        <ele>1664</ele>
        <time>2012-12-16T09:20:31Z</time>
      </trkpt>
      <trkpt lat="42.90688" lon="0.12086">
        <ele>1664</ele>
        <time>2012-12-16T09:20:33Z</time>
      </trkpt>
      <trkpt lat="42.90688" lon="0.12088">
        <ele>1665</ele>
        <time>2012-12-16T09:20:35Z</time>
      </trkpt>
      <trkpt lat="42.90688" lon="0.12091">
        <ele>1665</ele>
        <time>2012-12-16T09:20:37Z</time>
      </trkpt>
      <trkpt lat="42.90688" lon="0.12093">
        <ele>1665</ele>
        <time>2012-12-16T09:20:38Z</time>
      </trkpt>
      <trkpt lat="42.90688" lon="0.12095">
        <ele>1665</ele>
        <time>2012-12-16T09:20:40Z</time>
      </trkpt>
      <trkpt lat="42.90688" lon="0.12098">
        <ele>1666</ele>
        <time>2012-12-16T09:20:42Z</time>
      </trkpt>
      <trkpt lat="42.90688" lon="0.121">
        <ele>1666</ele>
        <time>2012-12-16T09:20:44Z</time>
      </trkpt>
      <trkpt lat="42.90688" lon="0.12103">
        <ele>1666</ele>
        <time>2012-12-16T09:20:46Z</time>
      </trkpt>
      <trkpt lat="42.90688" lon="0.12105">
        <ele>1666</ele>
        <time>2012-12-16T09:20:47Z</time>
      </trkpt>
      <trkpt lat="42.90687" lon="0.12107">
        <ele>1666</ele>
        <time>2012-12-16T09:20:49Z</time>
      </trkpt>
      <trkpt lat="42.90687" lon="0.1211">
        <ele>1667</ele>
        <time>2012-12-16T09:20:51Z</time>
      </trkpt>
      <trkpt lat="42.90687" lon="0.12112">
        <ele>1667</ele>
        <time>2012-12-16T09:20:53Z</time>
      </trkpt>
      <trkpt lat="42.90687" lon="0.12114">
        <ele>1668</ele>
        <time>2012-12-16T09:20:55Z</time>
      </trkpt>
      <trkpt lat="42.90687" lon="0.12116">
        <ele>1668</ele>
        <time>2012-12-16T09:20:56Z</time>
      </trkpt>
      <trkpt lat="42.90687" lon="0.12118">
        <ele>1668</ele>
        <time>2012-12-16T09:20:58Z</time>
      </trkpt>
      <trkpt lat="42.90687" lon="0.12121">
        <ele>1669</ele>
        <time>2012-12-16T09:21:00Z</time>
      </trkpt>
      <trkpt lat="42.90687" lon="0.12123">
        <ele>1669</ele>
        <time>2012-12-16T09:21:02Z</time>
      </trkpt>
      <trkpt lat="42.90687" lon="0.12126">
        <ele>1669</ele>
        <time>2012-12-16T09:21:04Z</time>
      </trkpt>
      <trkpt lat="42.90686" lon="0.12128">
        <ele>1669</ele>
        <time>2012-12-16T09:21:06Z</time>
      </trkpt>
      <trkpt lat="42.90686" lon="0.12131">
        <ele>1669</ele>
        <time>2012-12-16T09:21:08Z</time>
      </trkpt>
      <trkpt lat="42.90686" lon="0.12132">
        <ele>1669</ele>
        <time>2012-12-16T09:21:09Z</time>
      </trkpt>
      <trkpt lat="42.90686" lon="0.12134">
        <ele>1669</ele>
        <time>2012-12-16T09:21:11Z</time>
      </trkpt>
      <trkpt lat="42.90686" lon="0.12137">
        <ele>1669</ele>
        <time>2012-12-16T09:21:13Z</time>
      </trkpt>
      <trkpt lat="42.90686" lon="0.12138">
        <ele>1669</ele>
        <time>2012-12-16T09:21:14Z</time>
      </trkpt>
      <trkpt lat="42.90686" lon="0.12141">
        <ele>1669</ele>
        <time>2012-12-16T09:21:16Z</time>
      </trkpt>
      <trkpt lat="42.90685" lon="0.12144">
        <ele>1669</ele>
        <time>2012-12-16T09:21:18Z</time>
      </trkpt>
      <trkpt lat="42.90685" lon="0.12145">
        <ele>1669</ele>
        <time>2012-12-16T09:21:20Z</time>
      </trkpt>
      <trkpt lat="42.90685" lon="0.12148">
        <ele>1669</ele>
        <time>2012-12-16T09:21:21Z</time>
      </trkpt>
      <trkpt lat="42.90685" lon="0.12151">
        <ele>1669</ele>
        <time>2012-12-16T09:21:24Z</time>
      </trkpt>
      <trkpt lat="42.90685" lon="0.12152">
        <ele>1670</ele>
        <time>2012-12-16T09:21:25Z</time>
      </trkpt>
      <trkpt lat="42.90685" lon="0.12155">
        <ele>1670</ele>
        <time>2012-12-16T09:21:26Z</time>
      </trkpt>
      <trkpt lat="42.90685" lon="0.12157">
        <ele>1671</ele>
        <time>2012-12-16T09:21:28Z</time>
      </trkpt>
      <trkpt lat="42.90685" lon="0.12159">
        <ele>1672</ele>
        <time>2012-12-16T09:21:30Z</time>
      </trkpt>
      <trkpt lat="42.90685" lon="0.12162">
        <ele>1672</ele>
        <time>2012-12-16T09:21:32Z</time>
      </trkpt>
      <trkpt lat="42.90685" lon="0.12164">
        <ele>1672</ele>
        <time>2012-12-16T09:21:34Z</time>
      </trkpt>
      <trkpt lat="42.90685" lon="0.12167">
        <ele>1672</ele>
        <time>2012-12-16T09:21:36Z</time>
      </trkpt>
      <trkpt lat="42.90685" lon="0.12169">
        <ele>1673</ele>
        <time>2012-12-16T09:21:38Z</time>
      </trkpt>
      <trkpt lat="42.90685" lon="0.12171">
        <ele>1673</ele>
        <time>2012-12-16T09:21:40Z</time>
      </trkpt>
      <trkpt lat="42.90685" lon="0.12173">
        <ele>1673</ele>
        <time>2012-12-16T09:21:41Z</time>
      </trkpt>
      <trkpt lat="42.90685" lon="0.12175">
        <ele>1673</ele>
        <time>2012-12-16T09:21:43Z</time>
      </trkpt>
      <trkpt lat="42.90685" lon="0.12177">
        <ele>1673</ele>
        <time>2012-12-16T09:21:45Z</time>
      </trkpt>
      <trkpt lat="42.90685" lon="0.1218">
        <ele>1673</ele>
        <time>2012-12-16T09:21:47Z</time>
      </trkpt>
      <trkpt lat="42.90685" lon="0.12182">
        <ele>1673</ele>
        <time>2012-12-16T09:21:49Z</time>
      </trkpt>
      <trkpt lat="42.90685" lon="0.12184">
        <ele>1673</ele>
        <time>2012-12-16T09:21:51Z</time>
      </trkpt>
      <trkpt lat="42.90685" lon="0.12186">
        <ele>1673</ele>
        <time>2012-12-16T09:21:53Z</time>
      </trkpt>
      <trkpt lat="42.90685" lon="0.12189">
        <ele>1673</ele>
        <time>2012-12-16T09:21:55Z</time>
      </trkpt>
      <trkpt lat="42.90685" lon="0.1219">
        <ele>1673</ele>
        <time>2012-12-16T09:21:56Z</time>
      </trkpt>
      <trkpt lat="42.90685" lon="0.12192">
        <ele>1673</ele>
        <time>2012-12-16T09:21:57Z</time>
      </trkpt>
      <trkpt lat="42.90684" lon="0.12194">
        <ele>1673</ele>
        <time>2012-12-16T09:21:59Z</time>
      </trkpt>
      <trkpt lat="42.90684" lon="0.12196">
        <ele>1673</ele>
        <time>2012-12-16T09:22:01Z</time>
      </trkpt>
      <trkpt lat="42.90684" lon="0.12198">
        <ele>1673</ele>
        <time>2012-12-16T09:22:02Z</time>
      </trkpt>
      <trkpt lat="42.90684" lon="0.122">
        <ele>1673</ele>
        <time>2012-12-16T09:22:03Z</time>
      </trkpt>
      <trkpt lat="42.90684" lon="0.12202">
        <ele>1673</ele>
        <time>2012-12-16T09:22:05Z</time>
      </trkpt>
      <trkpt lat="42.90684" lon="0.12203">
        <ele>1673</ele>
        <time>2012-12-16T09:22:06Z</time>
      </trkpt>
      <trkpt lat="42.90684" lon="0.12206">
        <ele>1673</ele>
        <time>2012-12-16T09:22:08Z</time>
      </trkpt>
      <trkpt lat="42.90683" lon="0.12208">
        <ele>1673</ele>
        <time>2012-12-16T09:22:09Z</time>
      </trkpt>
      <trkpt lat="42.90683" lon="0.12209">
        <ele>1673</ele>
        <time>2012-12-16T09:22:10Z</time>
      </trkpt>
      <trkpt lat="42.90683" lon="0.12212">
        <ele>1673</ele>
        <time>2012-12-16T09:22:12Z</time>
      </trkpt>
      <trkpt lat="42.90683" lon="0.12213">
        <ele>1673</ele>
        <time>2012-12-16T09:22:13Z</time>
      </trkpt>
      <trkpt lat="42.90683" lon="0.12216">
        <ele>1673</ele>
        <time>2012-12-16T09:22:15Z</time>
      </trkpt>
      <trkpt lat="42.90682" lon="0.12218">
        <ele>1673</ele>
        <time>2012-12-16T09:22:17Z</time>
      </trkpt>
      <trkpt lat="42.90682" lon="0.1222">
        <ele>1673</ele>
        <time>2012-12-16T09:22:19Z</time>
      </trkpt>
      <trkpt lat="42.90682" lon="0.12222">
        <ele>1673</ele>
        <time>2012-12-16T09:22:20Z</time>
      </trkpt>
      <trkpt lat="42.90681" lon="0.12224">
        <ele>1673</ele>
        <time>2012-12-16T09:22:22Z</time>
      </trkpt>
      <trkpt lat="42.9068" lon="0.12226">
        <ele>1673</ele>
        <time>2012-12-16T09:22:24Z</time>
      </trkpt>
      <trkpt lat="42.9068" lon="0.12229">
        <ele>1673</ele>
        <time>2012-12-16T09:22:26Z</time>
      </trkpt>
      <trkpt lat="42.90679" lon="0.12231">
        <ele>1673</ele>
        <time>2012-12-16T09:22:28Z</time>
      </trkpt>
      <trkpt lat="42.90679" lon="0.12233">
        <ele>1673</ele>
        <time>2012-12-16T09:22:29Z</time>
      </trkpt>
      <trkpt lat="42.90678" lon="0.12235">
        <ele>1673</ele>
        <time>2012-12-16T09:22:31Z</time>
      </trkpt>
      <trkpt lat="42.90677" lon="0.12238">
        <ele>1673</ele>
        <time>2012-12-16T09:22:33Z</time>
      </trkpt>
      <trkpt lat="42.90676" lon="0.1224">
        <ele>1673</ele>
        <time>2012-12-16T09:22:34Z</time>
      </trkpt>
      <trkpt lat="42.90675" lon="0.12242">
        <ele>1673</ele>
        <time>2012-12-16T09:22:36Z</time>
      </trkpt>
      <trkpt lat="42.90675" lon="0.12245">
        <ele>1673</ele>
        <time>2012-12-16T09:22:38Z</time>
      </trkpt>
      <trkpt lat="42.90674" lon="0.12247">
        <ele>1673</ele>
        <time>2012-12-16T09:22:40Z</time>
      </trkpt>
      <trkpt lat="42.90673" lon="0.1225">
        <ele>1673</ele>
        <time>2012-12-16T09:22:42Z</time>
      </trkpt>
      <trkpt lat="42.90672" lon="0.12252">
        <ele>1673</ele>
        <time>2012-12-16T09:22:44Z</time>
      </trkpt>
      <trkpt lat="42.90671" lon="0.12255">
        <ele>1673</ele>
        <time>2012-12-16T09:22:45Z</time>
      </trkpt>
      <trkpt lat="42.9067" lon="0.12257">
        <ele>1673</ele>
        <time>2012-12-16T09:22:48Z</time>
      </trkpt>
      <trkpt lat="42.90669" lon="0.1226">
        <ele>1673</ele>
        <time>2012-12-16T09:22:49Z</time>
      </trkpt>
      <trkpt lat="42.90668" lon="0.12262">
        <ele>1673</ele>
        <time>2012-12-16T09:22:52Z</time>
      </trkpt>
      <trkpt lat="42.90667" lon="0.12264">
        <ele>1673</ele>
        <time>2012-12-16T09:22:53Z</time>
      </trkpt>
      <trkpt lat="42.90667" lon="0.12265">
        <ele>1673</ele>
        <time>2012-12-16T09:22:53Z</time>
      </trkpt>
      <trkpt lat="42.90665" lon="0.12268">
        <ele>1673</ele>
        <time>2012-12-16T09:22:56Z</time>
      </trkpt>
      <trkpt lat="42.90664" lon="0.1227">
        <ele>1673</ele>
        <time>2012-12-16T09:22:57Z</time>
      </trkpt>
      <trkpt lat="42.90664" lon="0.12272">
        <ele>1673</ele>
        <time>2012-12-16T09:22:59Z</time>
      </trkpt>
      <trkpt lat="42.90662" lon="0.12274">
        <ele>1673</ele>
        <time>2012-12-16T09:23:01Z</time>
      </trkpt>
      <trkpt lat="42.90662" lon="0.12275">
        <ele>1673</ele>
        <time>2012-12-16T09:23:02Z</time>
      </trkpt>
      <trkpt lat="42.90661" lon="0.12277">
        <ele>1673</ele>
        <time>2012-12-16T09:23:03Z</time>
      </trkpt>
      <trkpt lat="42.9066" lon="0.12279">
        <ele>1673</ele>
        <time>2012-12-16T09:23:05Z</time>
      </trkpt>
      <trkpt lat="42.90659" lon="0.12281">
        <ele>1673</ele>
        <time>2012-12-16T09:23:05Z</time>
      </trkpt>
      <trkpt lat="42.90658" lon="0.12282">
        <ele>1673</ele>
        <time>2012-12-16T09:23:07Z</time>
      </trkpt>
      <trkpt lat="42.90657" lon="0.12285">
        <ele>1673</ele>
        <time>2012-12-16T09:23:09Z</time>
      </trkpt>
      <trkpt lat="42.90656" lon="0.12287">
        <ele>1673</ele>
        <time>2012-12-16T09:23:11Z</time>
      </trkpt>
      <trkpt lat="42.90655" lon="0.12289">
        <ele>1673</ele>
        <time>2012-12-16T09:23:12Z</time>
      </trkpt>
      <trkpt lat="42.90654" lon="0.12291">
        <ele>1673</ele>
        <time>2012-12-16T09:23:13Z</time>
      </trkpt>
      <trkpt lat="42.90652" lon="0.12294">
        <ele>1673</ele>
        <time>2012-12-16T09:23:16Z</time>
      </trkpt>
      <trkpt lat="42.90651" lon="0.12297">
        <ele>1673</ele>
        <time>2012-12-16T09:23:17Z</time>
      </trkpt>
      <trkpt lat="42.9065" lon="0.12298">
        <ele>1673</ele>
        <time>2012-12-16T09:23:19Z</time>
      </trkpt>
      <trkpt lat="42.90649" lon="0.12299">
        <ele>1673</ele>
        <time>2012-12-16T09:23:20Z</time>
      </trkpt>
      <trkpt lat="42.90648" lon="0.12301">
        <ele>1673</ele>
        <time>2012-12-16T09:23:21Z</time>
      </trkpt>
      <trkpt lat="42.90647" lon="0.12303">
        <ele>1673</ele>
        <time>2012-12-16T09:23:22Z</time>
      </trkpt>
      <trkpt lat="42.90646" lon="0.12305">
        <ele>1673</ele>
        <time>2012-12-16T09:23:24Z</time>
      </trkpt>
      <trkpt lat="42.90645" lon="0.12307">
        <ele>1673</ele>
        <time>2012-12-16T09:23:25Z</time>
      </trkpt>
      <trkpt lat="42.90644" lon="0.12309">
        <ele>1673</ele>
        <time>2012-12-16T09:23:28Z</time>
      </trkpt>
      <trkpt lat="42.90644" lon="0.12311">
        <ele>1673</ele>
        <time>2012-12-16T09:23:29Z</time>
      </trkpt>
      <trkpt lat="42.90643" lon="0.12313">
        <ele>1673</ele>
        <time>2012-12-16T09:23:29Z</time>
      </trkpt>
      <trkpt lat="42.90643" lon="0.12315">
        <ele>1673</ele>
        <time>2012-12-16T09:23:32Z</time>
      </trkpt>
      <trkpt lat="42.90642" lon="0.12317">
        <ele>1673</ele>
        <time>2012-12-16T09:23:33Z</time>
      </trkpt>
      <trkpt lat="42.90642" lon="0.12319">
        <ele>1673</ele>
        <time>2012-12-16T09:23:35Z</time>
      </trkpt>
      <trkpt lat="42.90642" lon="0.12322">
        <ele>1673</ele>
        <time>2012-12-16T09:23:37Z</time>
      </trkpt>
      <trkpt lat="42.90642" lon="0.12325">
        <ele>1673</ele>
        <time>2012-12-16T09:23:39Z</time>
      </trkpt>
      <trkpt lat="42.90642" lon="0.12327">
        <ele>1673</ele>
        <time>2012-12-16T09:23:41Z</time>
      </trkpt>
      <trkpt lat="42.90642" lon="0.12329">
        <ele>1673</ele>
        <time>2012-12-16T09:23:41Z</time>
      </trkpt>
      <trkpt lat="42.90642" lon="0.1233">
        <ele>1673</ele>
        <time>2012-12-16T09:23:43Z</time>
      </trkpt>
      <trkpt lat="42.90642" lon="0.12333">
        <ele>1673</ele>
        <time>2012-12-16T09:23:45Z</time>
      </trkpt>
      <trkpt lat="42.90642" lon="0.12334">
        <ele>1673</ele>
        <time>2012-12-16T09:23:45Z</time>
      </trkpt>
      <trkpt lat="42.90642" lon="0.12336">
        <ele>1673</ele>
        <time>2012-12-16T09:23:47Z</time>
      </trkpt>
      <trkpt lat="42.90642" lon="0.12338">
        <ele>1673</ele>
        <time>2012-12-16T09:23:49Z</time>
      </trkpt>
      <trkpt lat="42.90642" lon="0.1234">
        <ele>1673</ele>
        <time>2012-12-16T09:23:50Z</time>
      </trkpt>
      <trkpt lat="42.90642" lon="0.12343">
        <ele>1673</ele>
        <time>2012-12-16T09:23:52Z</time>
      </trkpt>
      <trkpt lat="42.90643" lon="0.12346">
        <ele>1673</ele>
        <time>2012-12-16T09:23:53Z</time>
      </trkpt>
      <trkpt lat="42.90643" lon="0.12348">
        <ele>1673</ele>
        <time>2012-12-16T09:23:56Z</time>
      </trkpt>
      <trkpt lat="42.90643" lon="0.12349">
        <ele>1673</ele>
        <time>2012-12-16T09:23:57Z</time>
      </trkpt>
      <trkpt lat="42.90643" lon="0.12352">
        <ele>1673</ele>
        <time>2012-12-16T09:23:58Z</time>
      </trkpt>
      <trkpt lat="42.90643" lon="0.12354">
        <ele>1673</ele>
        <time>2012-12-16T09:24:00Z</time>
      </trkpt>
      <trkpt lat="42.90644" lon="0.12357">
        <ele>1673</ele>
        <time>2012-12-16T09:24:03Z</time>
      </trkpt>
      <trkpt lat="42.90644" lon="0.12359">
        <ele>1673</ele>
        <time>2012-12-16T09:24:05Z</time>
      </trkpt>
      <trkpt lat="42.90644" lon="0.12362">
        <ele>1673</ele>
        <time>2012-12-16T09:24:07Z</time>
      </trkpt>
      <trkpt lat="42.90644" lon="0.12364">
        <ele>1674</ele>
        <time>2012-12-16T09:24:09Z</time>
      </trkpt>
      <trkpt lat="42.90644" lon="0.12367">
        <ele>1674</ele>
        <time>2012-12-16T09:24:11Z</time>
      </trkpt>
      <trkpt lat="42.90645" lon="0.12369">
        <ele>1674</ele>
        <time>2012-12-16T09:24:13Z</time>
      </trkpt>
      <trkpt lat="42.90645" lon="0.12372">
        <ele>1674</ele>
        <time>2012-12-16T09:24:15Z</time>
      </trkpt>
      <trkpt lat="42.90645" lon="0.12374">
        <ele>1674</ele>
        <time>2012-12-16T09:24:17Z</time>
      </trkpt>
      <trkpt lat="42.90645" lon="0.12377">
        <ele>1674</ele>
        <time>2012-12-16T09:24:19Z</time>
      </trkpt>
      <trkpt lat="42.90645" lon="0.12379">
        <ele>1674</ele>
        <time>2012-12-16T09:24:21Z</time>
      </trkpt>
      <trkpt lat="42.90646" lon="0.12382">
        <ele>1674</ele>
        <time>2012-12-16T09:24:23Z</time>
      </trkpt>
      <trkpt lat="42.90646" lon="0.12384">
        <ele>1674</ele>
        <time>2012-12-16T09:24:25Z</time>
      </trkpt>
      <trkpt lat="42.90646" lon="0.12387">
        <ele>1675</ele>
        <time>2012-12-16T09:24:27Z</time>
      </trkpt>
      <trkpt lat="42.90646" lon="0.12389">
        <ele>1675</ele>
        <time>2012-12-16T09:24:29Z</time>
      </trkpt>
      <trkpt lat="42.90646" lon="0.12392">
        <ele>1675</ele>
        <time>2012-12-16T09:24:31Z</time>
      </trkpt>
      <trkpt lat="42.90647" lon="0.12394">
        <ele>1675</ele>
        <time>2012-12-16T09:24:33Z</time>
      </trkpt>
      <trkpt lat="42.90647" lon="0.12396">
        <ele>1675</ele>
        <time>2012-12-16T09:24:35Z</time>
      </trkpt>
      <trkpt lat="42.90647" lon="0.12398">
        <ele>1676</ele>
        <time>2012-12-16T09:24:37Z</time>
      </trkpt>
      <trkpt lat="42.90647" lon="0.124">
        <ele>1676</ele>
        <time>2012-12-16T09:24:39Z</time>
      </trkpt>
      <trkpt lat="42.90648" lon="0.12403">
        <ele>1676</ele>
        <time>2012-12-16T09:24:41Z</time>
      </trkpt>
      <trkpt lat="42.90648" lon="0.12405">
        <ele>1676</ele>
        <time>2012-12-16T09:24:43Z</time>
      </trkpt>
      <trkpt lat="42.90648" lon="0.12407">
        <ele>1676</ele>
        <time>2012-12-16T09:24:45Z</time>
      </trkpt>
      <trkpt lat="42.90648" lon="0.1241">
        <ele>1676</ele>
        <time>2012-12-16T09:24:47Z</time>
      </trkpt>
      <trkpt lat="42.90648" lon="0.12412">
        <ele>1676</ele>
        <time>2012-12-16T09:24:49Z</time>
      </trkpt>
      <trkpt lat="42.90649" lon="0.12415">
        <ele>1676</ele>
        <time>2012-12-16T09:24:50Z</time>
      </trkpt>
      <trkpt lat="42.90649" lon="0.12418">
        <ele>1676</ele>
        <time>2012-12-16T09:24:53Z</time>
      </trkpt>
      <trkpt lat="42.90649" lon="0.12419">
        <ele>1676</ele>
        <time>2012-12-16T09:24:54Z</time>
      </trkpt>
      <trkpt lat="42.90649" lon="0.12422">
        <ele>1676</ele>
        <time>2012-12-16T09:24:56Z</time>
      </trkpt>
      <trkpt lat="42.90649" lon="0.12424">
        <ele>1676</ele>
        <time>2012-12-16T09:24:58Z</time>
      </trkpt>
      <trkpt lat="42.9065" lon="0.12427">
        <ele>1676</ele>
        <time>2012-12-16T09:25:00Z</time>
      </trkpt>
      <trkpt lat="42.9065" lon="0.12429">
        <ele>1676</ele>
        <time>2012-12-16T09:25:02Z</time>
      </trkpt>
      <trkpt lat="42.9065" lon="0.12431">
        <ele>1676</ele>
        <time>2012-12-16T09:25:04Z</time>
      </trkpt>
      <trkpt lat="42.90651" lon="0.12433">
        <ele>1676</ele>
        <time>2012-12-16T09:25:05Z</time>
      </trkpt>
      <trkpt lat="42.90651" lon="0.12435">
        <ele>1676</ele>
        <time>2012-12-16T09:25:07Z</time>
      </trkpt>
      <trkpt lat="42.90651" lon="0.12436">
        <ele>1676</ele>
        <time>2012-12-16T09:25:08Z</time>
      </trkpt>
      <trkpt lat="42.90651" lon="0.12439">
        <ele>1676</ele>
        <time>2012-12-16T09:25:10Z</time>
      </trkpt>
      <trkpt lat="42.90651" lon="0.1244">
        <ele>1676</ele>
        <time>2012-12-16T09:25:11Z</time>
      </trkpt>
      <trkpt lat="42.90652" lon="0.12443">
        <ele>1676</ele>
        <time>2012-12-16T09:25:13Z</time>
      </trkpt>
      <trkpt lat="42.90652" lon="0.12445">
        <ele>1676</ele>
        <time>2012-12-16T09:25:15Z</time>
      </trkpt>
      <trkpt lat="42.90652" lon="0.12448">
        <ele>1676</ele>
        <time>2012-12-16T09:25:17Z</time>
      </trkpt>
      <trkpt lat="42.90653" lon="0.1245">
        <ele>1676</ele>
        <time>2012-12-16T09:25:19Z</time>
      </trkpt>
      <trkpt lat="42.90653" lon="0.12453">
        <ele>1677</ele>
        <time>2012-12-16T09:25:21Z</time>
      </trkpt>
      <trkpt lat="42.90653" lon="0.12455">
        <ele>1677</ele>
        <time>2012-12-16T09:25:23Z</time>
      </trkpt>
      <trkpt lat="42.90654" lon="0.12456">
        <ele>1677</ele>
        <time>2012-12-16T09:25:24Z</time>
      </trkpt>
      <trkpt lat="42.90654" lon="0.12458">
        <ele>1677</ele>
        <time>2012-12-16T09:25:25Z</time>
      </trkpt>
      <trkpt lat="42.90654" lon="0.1246">
        <ele>1678</ele>
        <time>2012-12-16T09:25:27Z</time>
      </trkpt>
      <trkpt lat="42.90654" lon="0.12462">
        <ele>1678</ele>
        <time>2012-12-16T09:25:29Z</time>
      </trkpt>
      <trkpt lat="42.90655" lon="0.12464">
        <ele>1678</ele>
        <time>2012-12-16T09:25:31Z</time>
      </trkpt>
      <trkpt lat="42.90655" lon="0.12467">
        <ele>1678</ele>
        <time>2012-12-16T09:25:33Z</time>
      </trkpt>
      <trkpt lat="42.90656" lon="0.12469">
        <ele>1678</ele>
        <time>2012-12-16T09:25:35Z</time>
      </trkpt>
      <trkpt lat="42.90657" lon="0.12472">
        <ele>1678</ele>
        <time>2012-12-16T09:25:37Z</time>
      </trkpt>
      <trkpt lat="42.90657" lon="0.12474">
        <ele>1678</ele>
        <time>2012-12-16T09:25:39Z</time>
      </trkpt>
      <trkpt lat="42.90657" lon="0.12476">
        <ele>1678</ele>
        <time>2012-12-16T09:25:40Z</time>
      </trkpt>
      <trkpt lat="42.90657" lon="0.12477">
        <ele>1678</ele>
        <time>2012-12-16T09:25:43Z</time>
      </trkpt>
      <trkpt lat="42.90657" lon="0.12479">
        <ele>1679</ele>
        <time>2012-12-16T09:25:45Z</time>
      </trkpt>
      <trkpt lat="42.90658" lon="0.12481">
        <ele>1679</ele>
        <time>2012-12-16T09:25:47Z</time>
      </trkpt>
      <trkpt lat="42.90658" lon="0.12483">
        <ele>1679</ele>
        <time>2012-12-16T09:25:49Z</time>
      </trkpt>
      <trkpt lat="42.90659" lon="0.12485">
        <ele>1679</ele>
        <time>2012-12-16T09:25:51Z</time>
      </trkpt>
      <trkpt lat="42.90659" lon="0.12488">
        <ele>1679</ele>
        <time>2012-12-16T09:25:53Z</time>
      </trkpt>
      <trkpt lat="42.9066" lon="0.1249">
        <ele>1679</ele>
        <time>2012-12-16T09:25:55Z</time>
      </trkpt>
      <trkpt lat="42.9066" lon="0.12492">
        <ele>1679</ele>
        <time>2012-12-16T09:25:57Z</time>
      </trkpt>
      <trkpt lat="42.9066" lon="0.12494">
        <ele>1679</ele>
        <time>2012-12-16T09:25:58Z</time>
      </trkpt>
      <trkpt lat="42.90661" lon="0.12496">
        <ele>1679</ele>
        <time>2012-12-16T09:26:00Z</time>
      </trkpt>
      <trkpt lat="42.90662" lon="0.12499">
        <ele>1679</ele>
        <time>2012-12-16T09:26:02Z</time>
      </trkpt>
      <trkpt lat="42.90662" lon="0.12501">
        <ele>1679</ele>
        <time>2012-12-16T09:26:04Z</time>
      </trkpt>
      <trkpt lat="42.90663" lon="0.12504">
        <ele>1679</ele>
        <time>2012-12-16T09:26:06Z</time>
      </trkpt>
      <trkpt lat="42.90664" lon="0.12506">
        <ele>1679</ele>
        <time>2012-12-16T09:26:08Z</time>
      </trkpt>
      <trkpt lat="42.90664" lon="0.12508">
        <ele>1679</ele>
        <time>2012-12-16T09:26:10Z</time>
      </trkpt>
      <trkpt lat="42.90664" lon="0.1251">
        <ele>1679</ele>
        <time>2012-12-16T09:26:11Z</time>
      </trkpt>
      <trkpt lat="42.90665" lon="0.12512">
        <ele>1680</ele>
        <time>2012-12-16T09:26:13Z</time>
      </trkpt>
      <trkpt lat="42.90665" lon="0.12515">
        <ele>1680</ele>
        <time>2012-12-16T09:26:15Z</time>
      </trkpt>
      <trkpt lat="42.90666" lon="0.12517">
        <ele>1680</ele>
        <time>2012-12-16T09:26:17Z</time>
      </trkpt>
      <trkpt lat="42.90666" lon="0.12519">
        <ele>1681</ele>
        <time>2012-12-16T09:26:18Z</time>
      </trkpt>
      <trkpt lat="42.90667" lon="0.12521">
        <ele>1681</ele>
        <time>2012-12-16T09:26:20Z</time>
      </trkpt>
      <trkpt lat="42.90667" lon="0.12524">
        <ele>1681</ele>
        <time>2012-12-16T09:26:22Z</time>
      </trkpt>
      <trkpt lat="42.90668" lon="0.12526">
        <ele>1682</ele>
        <time>2012-12-16T09:26:24Z</time>
      </trkpt>
      <trkpt lat="42.90668" lon="0.12528">
        <ele>1682</ele>
        <time>2012-12-16T09:26:25Z</time>
      </trkpt>
      <trkpt lat="42.90668" lon="0.1253">
        <ele>1682</ele>
        <time>2012-12-16T09:26:27Z</time>
      </trkpt>
      <trkpt lat="42.90669" lon="0.12532">
        <ele>1682</ele>
        <time>2012-12-16T09:26:29Z</time>
      </trkpt>
      <trkpt lat="42.9067" lon="0.12534">
        <ele>1683</ele>
        <time>2012-12-16T09:26:31Z</time>
      </trkpt>
      <trkpt lat="42.9067" lon="0.12536">
        <ele>1683</ele>
        <time>2012-12-16T09:26:33Z</time>
      </trkpt>
      <trkpt lat="42.9067" lon="0.12538">
        <ele>1683</ele>
        <time>2012-12-16T09:26:33Z</time>
      </trkpt>
      <trkpt lat="42.90671" lon="0.1254">
        <ele>1683</ele>
        <time>2012-12-16T09:26:36Z</time>
      </trkpt>
      <trkpt lat="42.90672" lon="0.12542">
        <ele>1683</ele>
        <time>2012-12-16T09:26:38Z</time>
      </trkpt>
      <trkpt lat="42.90672" lon="0.12545">
        <ele>1683</ele>
        <time>2012-12-16T09:26:40Z</time>
      </trkpt>
      <trkpt lat="42.90673" lon="0.12547">
        <ele>1683</ele>
        <time>2012-12-16T09:26:42Z</time>
      </trkpt>
      <trkpt lat="42.90673" lon="0.12549">
        <ele>1684</ele>
        <time>2012-12-16T09:26:44Z</time>
      </trkpt>
      <trkpt lat="42.90674" lon="0.12551">
        <ele>1684</ele>
        <time>2012-12-16T09:26:46Z</time>
      </trkpt>
      <trkpt lat="42.90674" lon="0.12553">
        <ele>1684</ele>
        <time>2012-12-16T09:26:48Z</time>
      </trkpt>
      <trkpt lat="42.90675" lon="0.12555">
        <ele>1684</ele>
        <time>2012-12-16T09:26:49Z</time>
      </trkpt>
      <trkpt lat="42.90675" lon="0.12557">
        <ele>1684</ele>
        <time>2012-12-16T09:26:51Z</time>
      </trkpt>
      <trkpt lat="42.90676" lon="0.12559">
        <ele>1684</ele>
        <time>2012-12-16T09:26:53Z</time>
      </trkpt>
      <trkpt lat="42.90676" lon="0.12561">
        <ele>1684</ele>
        <time>2012-12-16T09:26:55Z</time>
      </trkpt>
      <trkpt lat="42.90677" lon="0.12563">
        <ele>1684</ele>
        <time>2012-12-16T09:26:57Z</time>
      </trkpt>
      <trkpt lat="42.90677" lon="0.12565">
        <ele>1685</ele>
        <time>2012-12-16T09:26:59Z</time>
      </trkpt>
      <trkpt lat="42.90678" lon="0.12567">
        <ele>1685</ele>
        <time>2012-12-16T09:27:01Z</time>
      </trkpt>
      <trkpt lat="42.90678" lon="0.1257">
        <ele>1685</ele>
        <time>2012-12-16T09:27:03Z</time>
      </trkpt>
      <trkpt lat="42.90679" lon="0.12572">
        <ele>1685</ele>
        <time>2012-12-16T09:27:05Z</time>
      </trkpt>
      <trkpt lat="42.9068" lon="0.12574">
        <ele>1685</ele>
        <time>2012-12-16T09:27:07Z</time>
      </trkpt>
      <trkpt lat="42.9068" lon="0.12576">
        <ele>1685</ele>
        <time>2012-12-16T09:27:09Z</time>
      </trkpt>
      <trkpt lat="42.90681" lon="0.12578">
        <ele>1686</ele>
        <time>2012-12-16T09:27:11Z</time>
      </trkpt>
      <trkpt lat="42.90681" lon="0.1258">
        <ele>1686</ele>
        <time>2012-12-16T09:27:13Z</time>
      </trkpt>
      <trkpt lat="42.90681" lon="0.12583">
        <ele>1686</ele>
        <time>2012-12-16T09:27:15Z</time>
      </trkpt>
      <trkpt lat="42.90682" lon="0.12585">
        <ele>1687</ele>
        <time>2012-12-16T09:27:17Z</time>
      </trkpt>
      <trkpt lat="42.90682" lon="0.12587">
        <ele>1687</ele>
        <time>2012-12-16T09:27:19Z</time>
      </trkpt>
      <trkpt lat="42.90683" lon="0.12589">
        <ele>1687</ele>
        <time>2012-12-16T09:27:21Z</time>
      </trkpt>
      <trkpt lat="42.90683" lon="0.12592">
        <ele>1687</ele>
        <time>2012-12-16T09:27:23Z</time>
      </trkpt>
      <trkpt lat="42.90683" lon="0.12594">
        <ele>1687</ele>
        <time>2012-12-16T09:27:25Z</time>
      </trkpt>
      <trkpt lat="42.90683" lon="0.12596">
        <ele>1687</ele>
        <time>2012-12-16T09:27:27Z</time>
      </trkpt>
      <trkpt lat="42.90683" lon="0.12599">
        <ele>1687</ele>
        <time>2012-12-16T09:27:29Z</time>
      </trkpt>
      <trkpt lat="42.90683" lon="0.12601">
        <ele>1687</ele>
        <time>2012-12-16T09:27:31Z</time>
      </trkpt>
      <trkpt lat="42.90683" lon="0.12603">
        <ele>1687</ele>
        <time>2012-12-16T09:27:33Z</time>
      </trkpt>
      <trkpt lat="42.90683" lon="0.12605">
        <ele>1687</ele>
        <time>2012-12-16T09:27:35Z</time>
      </trkpt>
      <trkpt lat="42.90683" lon="0.12607">
        <ele>1687</ele>
        <time>2012-12-16T09:27:37Z</time>
      </trkpt>
      <trkpt lat="42.90683" lon="0.1261">
        <ele>1687</ele>
        <time>2012-12-16T09:27:39Z</time>
      </trkpt>
      <trkpt lat="42.90683" lon="0.12612">
        <ele>1687</ele>
        <time>2012-12-16T09:27:41Z</time>
      </trkpt>
      <trkpt lat="42.90683" lon="0.12615">
        <ele>1687</ele>
        <time>2012-12-16T09:27:43Z</time>
      </trkpt>
      <trkpt lat="42.90683" lon="0.12616">
        <ele>1687</ele>
        <time>2012-12-16T09:27:44Z</time>
      </trkpt>
      <trkpt lat="42.90683" lon="0.12618">
        <ele>1687</ele>
        <time>2012-12-16T09:27:46Z</time>
      </trkpt>
      <trkpt lat="42.90683" lon="0.1262">
        <ele>1687</ele>
        <time>2012-12-16T09:27:47Z</time>
      </trkpt>
      <trkpt lat="42.90684" lon="0.12623">
        <ele>1687</ele>
        <time>2012-12-16T09:27:49Z</time>
      </trkpt>
      <trkpt lat="42.90684" lon="0.12624">
        <ele>1687</ele>
        <time>2012-12-16T09:27:49Z</time>
      </trkpt>
      <trkpt lat="42.90684" lon="0.12626">
        <ele>1687</ele>
        <time>2012-12-16T09:27:51Z</time>
      </trkpt>
      <trkpt lat="42.90683" lon="0.12628">
        <ele>1687</ele>
        <time>2012-12-16T09:27:53Z</time>
      </trkpt>
      <trkpt lat="42.90683" lon="0.1263">
        <ele>1688</ele>
        <time>2012-12-16T09:27:55Z</time>
      </trkpt>
      <trkpt lat="42.90683" lon="0.12632">
        <ele>1688</ele>
        <time>2012-12-16T09:27:57Z</time>
      </trkpt>
      <trkpt lat="42.90683" lon="0.12635">
        <ele>1688</ele>
        <time>2012-12-16T09:27:58Z</time>
      </trkpt>
      <trkpt lat="42.90683" lon="0.12637">
        <ele>1688</ele>
        <time>2012-12-16T09:28:01Z</time>
      </trkpt>
      <trkpt lat="42.90683" lon="0.12639">
        <ele>1688</ele>
        <time>2012-12-16T09:28:03Z</time>
      </trkpt>
      <trkpt lat="42.90683" lon="0.12641">
        <ele>1688</ele>
        <time>2012-12-16T09:28:05Z</time>
      </trkpt>
      <trkpt lat="42.90683" lon="0.12644">
        <ele>1689</ele>
        <time>2012-12-16T09:28:07Z</time>
      </trkpt>
      <trkpt lat="42.90683" lon="0.12646">
        <ele>1689</ele>
        <time>2012-12-16T09:28:09Z</time>
      </trkpt>
      <trkpt lat="42.90683" lon="0.12648">
        <ele>1689</ele>
        <time>2012-12-16T09:28:11Z</time>
      </trkpt>
      <trkpt lat="42.90683" lon="0.1265">
        <ele>1689</ele>
        <time>2012-12-16T09:28:13Z</time>
      </trkpt>
      <trkpt lat="42.90683" lon="0.12652">
        <ele>1689</ele>
        <time>2012-12-16T09:28:15Z</time>
      </trkpt>
      <trkpt lat="42.90683" lon="0.12655">
        <ele>1689</ele>
        <time>2012-12-16T09:28:17Z</time>
      </trkpt>
      <trkpt lat="42.90683" lon="0.12657">
        <ele>1689</ele>
        <time>2012-12-16T09:28:19Z</time>
      </trkpt>
      <trkpt lat="42.90683" lon="0.12659">
        <ele>1689</ele>
        <time>2012-12-16T09:28:21Z</time>
      </trkpt>
      <trkpt lat="42.90683" lon="0.12661">
        <ele>1689</ele>
        <time>2012-12-16T09:28:23Z</time>
      </trkpt>
      <trkpt lat="42.90682" lon="0.12663">
        <ele>1689</ele>
        <time>2012-12-16T09:28:25Z</time>
      </trkpt>
      <trkpt lat="42.90682" lon="0.12665">
        <ele>1689</ele>
        <time>2012-12-16T09:28:27Z</time>
      </trkpt>
      <trkpt lat="42.90682" lon="0.12667">
        <ele>1689</ele>
        <time>2012-12-16T09:28:29Z</time>
      </trkpt>
      <trkpt lat="42.90682" lon="0.1267">
        <ele>1690</ele>
        <time>2012-12-16T09:28:31Z</time>
      </trkpt>
      <trkpt lat="42.90682" lon="0.12672">
        <ele>1690</ele>
        <time>2012-12-16T09:28:33Z</time>
      </trkpt>
      <trkpt lat="42.90681" lon="0.12674">
        <ele>1690</ele>
        <time>2012-12-16T09:28:35Z</time>
      </trkpt>
      <trkpt lat="42.90681" lon="0.12676">
        <ele>1690</ele>
        <time>2012-12-16T09:28:37Z</time>
      </trkpt>
      <trkpt lat="42.90681" lon="0.12678">
        <ele>1690</ele>
        <time>2012-12-16T09:28:39Z</time>
      </trkpt>
      <trkpt lat="42.90681" lon="0.1268">
        <ele>1690</ele>
        <time>2012-12-16T09:28:41Z</time>
      </trkpt>
      <trkpt lat="42.9068" lon="0.12683">
        <ele>1690</ele>
        <time>2012-12-16T09:28:43Z</time>
      </trkpt>
      <trkpt lat="42.9068" lon="0.12685">
        <ele>1691</ele>
        <time>2012-12-16T09:28:45Z</time>
      </trkpt>
      <trkpt lat="42.9068" lon="0.12687">
        <ele>1691</ele>
        <time>2012-12-16T09:28:47Z</time>
      </trkpt>
      <trkpt lat="42.9068" lon="0.1269">
        <ele>1691</ele>
        <time>2012-12-16T09:28:49Z</time>
      </trkpt>
      <trkpt lat="42.90679" lon="0.12692">
        <ele>1691</ele>
        <time>2012-12-16T09:28:51Z</time>
      </trkpt>
      <trkpt lat="42.90679" lon="0.12693">
        <ele>1691</ele>
        <time>2012-12-16T09:28:52Z</time>
      </trkpt>
      <trkpt lat="42.90679" lon="0.12695">
        <ele>1692</ele>
        <time>2012-12-16T09:28:53Z</time>
      </trkpt>
      <trkpt lat="42.90679" lon="0.12698">
        <ele>1692</ele>
        <time>2012-12-16T09:28:56Z</time>
      </trkpt>
      <trkpt lat="42.90678" lon="0.127">
        <ele>1692</ele>
        <time>2012-12-16T09:28:57Z</time>
      </trkpt>
      <trkpt lat="42.90678" lon="0.12702">
        <ele>1693</ele>
        <time>2012-12-16T09:29:00Z</time>
      </trkpt>
      <trkpt lat="42.90678" lon="0.12704">
        <ele>1693</ele>
        <time>2012-12-16T09:29:02Z</time>
      </trkpt>
      <trkpt lat="42.90678" lon="0.12706">
        <ele>1693</ele>
        <time>2012-12-16T09:29:04Z</time>
      </trkpt>
      <trkpt lat="42.90678" lon="0.12708">
        <ele>1693</ele>
        <time>2012-12-16T09:29:05Z</time>
      </trkpt>
      <trkpt lat="42.90677" lon="0.1271">
        <ele>1693</ele>
        <time>2012-12-16T09:29:08Z</time>
      </trkpt>
      <trkpt lat="42.90677" lon="0.12713">
        <ele>1693</ele>
        <time>2012-12-16T09:29:09Z</time>
      </trkpt>
      <trkpt lat="42.90677" lon="0.12715">
        <ele>1693</ele>
        <time>2012-12-16T09:29:12Z</time>
      </trkpt>
      <trkpt lat="42.90676" lon="0.12717">
        <ele>1693</ele>
        <time>2012-12-16T09:29:14Z</time>
      </trkpt>
      <trkpt lat="42.90676" lon="0.12719">
        <ele>1693</ele>
        <time>2012-12-16T09:29:16Z</time>
      </trkpt>
      <trkpt lat="42.90676" lon="0.12721">
        <ele>1693</ele>
        <time>2012-12-16T09:29:17Z</time>
      </trkpt>
      <trkpt lat="42.90676" lon="0.12723">
        <ele>1693</ele>
        <time>2012-12-16T09:29:20Z</time>
      </trkpt>
      <trkpt lat="42.90676" lon="0.12726">
        <ele>1693</ele>
        <time>2012-12-16T09:29:21Z</time>
      </trkpt>
      <trkpt lat="42.90675" lon="0.12728">
        <ele>1693</ele>
        <time>2012-12-16T09:29:24Z</time>
      </trkpt>
      <trkpt lat="42.90675" lon="0.1273">
        <ele>1693</ele>
        <time>2012-12-16T09:29:26Z</time>
      </trkpt>
      <trkpt lat="42.90675" lon="0.12732">
        <ele>1693</ele>
        <time>2012-12-16T09:29:28Z</time>
      </trkpt>
      <trkpt lat="42.90675" lon="0.12735">
        <ele>1693</ele>
        <time>2012-12-16T09:29:29Z</time>
      </trkpt>
      <trkpt lat="42.90675" lon="0.12737">
        <ele>1694</ele>
        <time>2012-12-16T09:29:32Z</time>
      </trkpt>
      <trkpt lat="42.90674" lon="0.12739">
        <ele>1694</ele>
        <time>2012-12-16T09:29:33Z</time>
      </trkpt>
      <trkpt lat="42.90674" lon="0.12741">
        <ele>1694</ele>
        <time>2012-12-16T09:29:35Z</time>
      </trkpt>
      <trkpt lat="42.90674" lon="0.12742">
        <ele>1695</ele>
        <time>2012-12-16T09:29:36Z</time>
      </trkpt>
      <trkpt lat="42.90674" lon="0.12744">
        <ele>1695</ele>
        <time>2012-12-16T09:29:38Z</time>
      </trkpt>
      <trkpt lat="42.90674" lon="0.12746">
        <ele>1695</ele>
        <time>2012-12-16T09:29:39Z</time>
      </trkpt>
      <trkpt lat="42.90673" lon="0.12749">
        <ele>1695</ele>
        <time>2012-12-16T09:29:41Z</time>
      </trkpt>
      <trkpt lat="42.90673" lon="0.12751">
        <ele>1695</ele>
        <time>2012-12-16T09:29:44Z</time>
      </trkpt>
      <trkpt lat="42.90673" lon="0.12753">
        <ele>1695</ele>
        <time>2012-12-16T09:29:45Z</time>
      </trkpt>
      <trkpt lat="42.90673" lon="0.12756">
        <ele>1695</ele>
        <time>2012-12-16T09:29:48Z</time>
      </trkpt>
      <trkpt lat="42.90672" lon="0.12758">
        <ele>1695</ele>
        <time>2012-12-16T09:29:50Z</time>
      </trkpt>
      <trkpt lat="42.90672" lon="0.12759">
        <ele>1695</ele>
        <time>2012-12-16T09:29:50Z</time>
      </trkpt>
      <trkpt lat="42.90672" lon="0.12762">
        <ele>1695</ele>
        <time>2012-12-16T09:29:52Z</time>
      </trkpt>
      <trkpt lat="42.90672" lon="0.12764">
        <ele>1695</ele>
        <time>2012-12-16T09:29:55Z</time>
      </trkpt>
      <trkpt lat="42.90671" lon="0.12766">
        <ele>1695</ele>
        <time>2012-12-16T09:29:56Z</time>
      </trkpt>
      <trkpt lat="42.90671" lon="0.12768">
        <ele>1695</ele>
        <time>2012-12-16T09:29:58Z</time>
      </trkpt>
      <trkpt lat="42.9067" lon="0.12771">
        <ele>1696</ele>
        <time>2012-12-16T09:30:01Z</time>
      </trkpt>
      <trkpt lat="42.9067" lon="0.12773">
        <ele>1696</ele>
        <time>2012-12-16T09:30:03Z</time>
      </trkpt>
      <trkpt lat="42.9067" lon="0.12775">
        <ele>1696</ele>
        <time>2012-12-16T09:30:04Z</time>
      </trkpt>
      <trkpt lat="42.9067" lon="0.12777">
        <ele>1696</ele>
        <time>2012-12-16T09:30:07Z</time>
      </trkpt>
      <trkpt lat="42.90669" lon="0.1278">
        <ele>1696</ele>
        <time>2012-12-16T09:30:09Z</time>
      </trkpt>
      <trkpt lat="42.90669" lon="0.12782">
        <ele>1696</ele>
        <time>2012-12-16T09:30:10Z</time>
      </trkpt>
      <trkpt lat="42.90669" lon="0.12784">
        <ele>1696</ele>
        <time>2012-12-16T09:30:13Z</time>
      </trkpt>
      <trkpt lat="42.90668" lon="0.12786">
        <ele>1696</ele>
        <time>2012-12-16T09:30:13Z</time>
      </trkpt>
      <trkpt lat="42.90668" lon="0.12788">
        <ele>1696</ele>
        <time>2012-12-16T09:30:15Z</time>
      </trkpt>
      <trkpt lat="42.90668" lon="0.1279">
        <ele>1696</ele>
        <time>2012-12-16T09:30:18Z</time>
      </trkpt>
      <trkpt lat="42.90667" lon="0.12792">
        <ele>1696</ele>
        <time>2012-12-16T09:30:19Z</time>
      </trkpt>
      <trkpt lat="42.90667" lon="0.12794">
        <ele>1696</ele>
        <time>2012-12-16T09:30:22Z</time>
      </trkpt>
      <trkpt lat="42.90667" lon="0.12796">
        <ele>1696</ele>
        <time>2012-12-16T09:30:24Z</time>
      </trkpt>
      <trkpt lat="42.90666" lon="0.12799">
        <ele>1696</ele>
        <time>2012-12-16T09:30:25Z</time>
      </trkpt>
      <trkpt lat="42.90666" lon="0.12801">
        <ele>1696</ele>
        <time>2012-12-16T09:30:28Z</time>
      </trkpt>
      <trkpt lat="42.90665" lon="0.12803">
        <ele>1696</ele>
        <time>2012-12-16T09:30:29Z</time>
      </trkpt>
      <trkpt lat="42.90665" lon="0.12805">
        <ele>1696</ele>
        <time>2012-12-16T09:30:31Z</time>
      </trkpt>
      <trkpt lat="42.90665" lon="0.12807">
        <ele>1697</ele>
        <time>2012-12-16T09:30:32Z</time>
      </trkpt>
      <trkpt lat="42.90664" lon="0.12809">
        <ele>1698</ele>
        <time>2012-12-16T09:30:35Z</time>
      </trkpt>
      <trkpt lat="42.90664" lon="0.12811">
        <ele>1698</ele>
        <time>2012-12-16T09:30:36Z</time>
      </trkpt>
      <trkpt lat="42.90664" lon="0.12814">
        <ele>1698</ele>
        <time>2012-12-16T09:30:38Z</time>
      </trkpt>
      <trkpt lat="42.90663" lon="0.12815">
        <ele>1698</ele>
        <time>2012-12-16T09:30:40Z</time>
      </trkpt>
      <trkpt lat="42.90663" lon="0.12818">
        <ele>1698</ele>
        <time>2012-12-16T09:30:41Z</time>
      </trkpt>
      <trkpt lat="42.90663" lon="0.1282">
        <ele>1698</ele>
        <time>2012-12-16T09:30:43Z</time>
      </trkpt>
      <trkpt lat="42.90662" lon="0.12822">
        <ele>1699</ele>
        <time>2012-12-16T09:30:46Z</time>
      </trkpt>
      <trkpt lat="42.90662" lon="0.12824">
        <ele>1699</ele>
        <time>2012-12-16T09:30:47Z</time>
      </trkpt>
      <trkpt lat="42.90662" lon="0.12826">
        <ele>1699</ele>
        <time>2012-12-16T09:30:49Z</time>
      </trkpt>
      <trkpt lat="42.90662" lon="0.12828">
        <ele>1699</ele>
        <time>2012-12-16T09:30:52Z</time>
      </trkpt>
      <trkpt lat="42.90662" lon="0.12831">
        <ele>1699</ele>
        <time>2012-12-16T09:30:54Z</time>
      </trkpt>
      <trkpt lat="42.90661" lon="0.12833">
        <ele>1699</ele>
        <time>2012-12-16T09:30:55Z</time>
      </trkpt>
      <trkpt lat="42.90661" lon="0.12835">
        <ele>1700</ele>
        <time>2012-12-16T09:30:58Z</time>
      </trkpt>
      <trkpt lat="42.90661" lon="0.12837">
        <ele>1700</ele>
        <time>2012-12-16T09:30:59Z</time>
      </trkpt>
      <trkpt lat="42.90661" lon="0.1284">
        <ele>1701</ele>
        <time>2012-12-16T09:31:01Z</time>
      </trkpt>
      <trkpt lat="42.90661" lon="0.12842">
        <ele>1701</ele>
        <time>2012-12-16T09:31:04Z</time>
      </trkpt>
      <trkpt lat="42.90661" lon="0.12844">
        <ele>1701</ele>
        <time>2012-12-16T09:31:05Z</time>
      </trkpt>
      <trkpt lat="42.9066" lon="0.12846">
        <ele>1701</ele>
        <time>2012-12-16T09:31:07Z</time>
      </trkpt>
      <trkpt lat="42.9066" lon="0.12848">
        <ele>1701</ele>
        <time>2012-12-16T09:31:09Z</time>
      </trkpt>
      <trkpt lat="42.9066" lon="0.1285">
        <ele>1701</ele>
        <time>2012-12-16T09:31:11Z</time>
      </trkpt>
      <trkpt lat="42.9066" lon="0.12852">
        <ele>1701</ele>
        <time>2012-12-16T09:31:13Z</time>
      </trkpt>
      <trkpt lat="42.9066" lon="0.12854">
        <ele>1701</ele>
        <time>2012-12-16T09:31:16Z</time>
      </trkpt>
      <trkpt lat="42.9066" lon="0.12856">
        <ele>1701</ele>
        <time>2012-12-16T09:31:17Z</time>
      </trkpt>
      <trkpt lat="42.90661" lon="0.12859">
        <ele>1701</ele>
        <time>2012-12-16T09:31:19Z</time>
      </trkpt>
      <trkpt lat="42.90661" lon="0.12861">
        <ele>1701</ele>
        <time>2012-12-16T09:31:22Z</time>
      </trkpt>
      <trkpt lat="42.90661" lon="0.12863">
        <ele>1701</ele>
        <time>2012-12-16T09:31:23Z</time>
      </trkpt>
      <trkpt lat="42.90661" lon="0.12866">
        <ele>1701</ele>
        <time>2012-12-16T09:31:25Z</time>
      </trkpt>
      <trkpt lat="42.90661" lon="0.12867">
        <ele>1701</ele>
        <time>2012-12-16T09:31:28Z</time>
      </trkpt>
      <trkpt lat="42.90661" lon="0.12869">
        <ele>1701</ele>
        <time>2012-12-16T09:31:28Z</time>
      </trkpt>
      <trkpt lat="42.90662" lon="0.12871">
        <ele>1701</ele>
        <time>2012-12-16T09:31:30Z</time>
      </trkpt>
      <trkpt lat="42.90662" lon="0.12873">
        <ele>1701</ele>
        <time>2012-12-16T09:31:33Z</time>
      </trkpt>
      <trkpt lat="42.90662" lon="0.12875">
        <ele>1702</ele>
        <time>2012-12-16T09:31:35Z</time>
      </trkpt>
      <trkpt lat="42.90662" lon="0.12877">
        <ele>1702</ele>
        <time>2012-12-16T09:31:36Z</time>
      </trkpt>
      <trkpt lat="42.90662" lon="0.12879">
        <ele>1702</ele>
        <time>2012-12-16T09:31:39Z</time>
      </trkpt>
      <trkpt lat="42.90662" lon="0.12881">
        <ele>1702</ele>
        <time>2012-12-16T09:31:40Z</time>
      </trkpt>
      <trkpt lat="42.90662" lon="0.12883">
        <ele>1702</ele>
        <time>2012-12-16T09:31:42Z</time>
      </trkpt>
      <trkpt lat="42.90663" lon="0.12886">
        <ele>1702</ele>
        <time>2012-12-16T09:31:45Z</time>
      </trkpt>
      <trkpt lat="42.90663" lon="0.12888">
        <ele>1702</ele>
        <time>2012-12-16T09:31:46Z</time>
      </trkpt>
      <trkpt lat="42.90663" lon="0.1289">
        <ele>1702</ele>
        <time>2012-12-16T09:31:48Z</time>
      </trkpt>
      <trkpt lat="42.90664" lon="0.12892">
        <ele>1702</ele>
        <time>2012-12-16T09:31:51Z</time>
      </trkpt>
      <trkpt lat="42.90664" lon="0.12894">
        <ele>1703</ele>
        <time>2012-12-16T09:31:52Z</time>
      </trkpt>
      <trkpt lat="42.90664" lon="0.12896">
        <ele>1703</ele>
        <time>2012-12-16T09:31:54Z</time>
      </trkpt>
      <trkpt lat="42.90664" lon="0.12898">
        <ele>1703</ele>
        <time>2012-12-16T09:31:57Z</time>
      </trkpt>
      <trkpt lat="42.90664" lon="0.129">
        <ele>1703</ele>
        <time>2012-12-16T09:31:58Z</time>
      </trkpt>
      <trkpt lat="42.90665" lon="0.12902">
        <ele>1704</ele>
        <time>2012-12-16T09:32:00Z</time>
      </trkpt>
      <trkpt lat="42.90665" lon="0.12904">
        <ele>1704</ele>
        <time>2012-12-16T09:32:03Z</time>
      </trkpt>
      <trkpt lat="42.90665" lon="0.12907">
        <ele>1704</ele>
        <time>2012-12-16T09:32:04Z</time>
      </trkpt>
      <trkpt lat="42.90665" lon="0.12909">
        <ele>1704</ele>
        <time>2012-12-16T09:32:06Z</time>
      </trkpt>
      <trkpt lat="42.90665" lon="0.12911">
        <ele>1705</ele>
        <time>2012-12-16T09:32:09Z</time>
      </trkpt>
      <trkpt lat="42.90665" lon="0.12913">
        <ele>1705</ele>
        <time>2012-12-16T09:32:10Z</time>
      </trkpt>
      <trkpt lat="42.90666" lon="0.12915">
        <ele>1705</ele>
        <time>2012-12-16T09:32:12Z</time>
      </trkpt>
      <trkpt lat="42.90666" lon="0.12918">
        <ele>1705</ele>
        <time>2012-12-16T09:32:15Z</time>
      </trkpt>
      <trkpt lat="42.90666" lon="0.1292">
        <ele>1706</ele>
        <time>2012-12-16T09:32:16Z</time>
      </trkpt>
      <trkpt lat="42.90666" lon="0.12922">
        <ele>1706</ele>
        <time>2012-12-16T09:32:18Z</time>
      </trkpt>
      <trkpt lat="42.90666" lon="0.12925">
        <ele>1707</ele>
        <time>2012-12-16T09:32:21Z</time>
      </trkpt>
      <trkpt lat="42.90666" lon="0.12927">
        <ele>1707</ele>
        <time>2012-12-16T09:32:22Z</time>
      </trkpt>
      <trkpt lat="42.90667" lon="0.12929">
        <ele>1707</ele>
        <time>2012-12-16T09:32:24Z</time>
      </trkpt>
      <trkpt lat="42.90667" lon="0.12931">
        <ele>1708</ele>
        <time>2012-12-16T09:32:27Z</time>
      </trkpt>
      <trkpt lat="42.90667" lon="0.12933">
        <ele>1708</ele>
        <time>2012-12-16T09:32:28Z</time>
      </trkpt>
      <trkpt lat="42.90667" lon="0.12935">
        <ele>1708</ele>
        <time>2012-12-16T09:32:30Z</time>
      </trkpt>
      <trkpt lat="42.90667" lon="0.12937">
        <ele>1708</ele>
        <time>2012-12-16T09:32:33Z</time>
      </trkpt>
      <trkpt lat="42.90667" lon="0.1294">
        <ele>1708</ele>
        <time>2012-12-16T09:32:34Z</time>
      </trkpt>
      <trkpt lat="42.90667" lon="0.12942">
        <ele>1709</ele>
        <time>2012-12-16T09:32:36Z</time>
      </trkpt>
      <trkpt lat="42.90667" lon="0.12945">
        <ele>1709</ele>
        <time>2012-12-16T09:32:39Z</time>
      </trkpt>
      <trkpt lat="42.90667" lon="0.12946">
        <ele>1709</ele>
        <time>2012-12-16T09:32:40Z</time>
      </trkpt>
      <trkpt lat="42.90667" lon="0.12949">
        <ele>1709</ele>
        <time>2012-12-16T09:32:42Z</time>
      </trkpt>
      <trkpt lat="42.90667" lon="0.12951">
        <ele>1709</ele>
        <time>2012-12-16T09:32:45Z</time>
      </trkpt>
      <trkpt lat="42.90666" lon="0.12954">
        <ele>1709</ele>
        <time>2012-12-16T09:32:46Z</time>
      </trkpt>
      <trkpt lat="42.90666" lon="0.12955">
        <ele>1709</ele>
        <time>2012-12-16T09:32:47Z</time>
      </trkpt>
      <trkpt lat="42.90666" lon="0.12957">
        <ele>1709</ele>
        <time>2012-12-16T09:32:50Z</time>
      </trkpt>
      <trkpt lat="42.90666" lon="0.12959">
        <ele>1709</ele>
        <time>2012-12-16T09:32:51Z</time>
      </trkpt>
      <trkpt lat="42.90665" lon="0.12961">
        <ele>1709</ele>
        <time>2012-12-16T09:32:53Z</time>
      </trkpt>
      <trkpt lat="42.90665" lon="0.12963">
        <ele>1709</ele>
        <time>2012-12-16T09:32:56Z</time>
      </trkpt>
      <trkpt lat="42.90665" lon="0.12965">
        <ele>1709</ele>
        <time>2012-12-16T09:32:57Z</time>
      </trkpt>
      <trkpt lat="42.90664" lon="0.12968">
        <ele>1709</ele>
        <time>2012-12-16T09:32:59Z</time>
      </trkpt>
      <trkpt lat="42.90664" lon="0.1297">
        <ele>1709</ele>
        <time>2012-12-16T09:33:02Z</time>
      </trkpt>
      <trkpt lat="42.90663" lon="0.12972">
        <ele>1709</ele>
        <time>2012-12-16T09:33:03Z</time>
      </trkpt>
      <trkpt lat="42.90663" lon="0.12973">
        <ele>1709</ele>
        <time>2012-12-16T09:33:04Z</time>
      </trkpt>
      <trkpt lat="42.90662" lon="0.12976">
        <ele>1709</ele>
        <time>2012-12-16T09:33:07Z</time>
      </trkpt>
      <trkpt lat="42.90662" lon="0.12977">
        <ele>1709</ele>
        <time>2012-12-16T09:33:07Z</time>
      </trkpt>
      <trkpt lat="42.90661" lon="0.12979">
        <ele>1709</ele>
        <time>2012-12-16T09:33:09Z</time>
      </trkpt>
      <trkpt lat="42.9066" lon="0.12982">
        <ele>1709</ele>
        <time>2012-12-16T09:33:12Z</time>
      </trkpt>
      <trkpt lat="42.9066" lon="0.12984">
        <ele>1710</ele>
        <time>2012-12-16T09:33:13Z</time>
      </trkpt>
      <trkpt lat="42.90659" lon="0.12987">
        <ele>1710</ele>
        <time>2012-12-16T09:33:15Z</time>
      </trkpt>
      <trkpt lat="42.90658" lon="0.12989">
        <ele>1710</ele>
        <time>2012-12-16T09:33:18Z</time>
      </trkpt>
      <trkpt lat="42.90657" lon="0.12991">
        <ele>1710</ele>
        <time>2012-12-16T09:33:19Z</time>
      </trkpt>
      <trkpt lat="42.90657" lon="0.12993">
        <ele>1711</ele>
        <time>2012-12-16T09:33:21Z</time>
      </trkpt>
      <trkpt lat="42.90656" lon="0.12995">
        <ele>1711</ele>
        <time>2012-12-16T09:33:24Z</time>
      </trkpt>
      <trkpt lat="42.90655" lon="0.12998">
        <ele>1711</ele>
        <time>2012-12-16T09:33:25Z</time>
      </trkpt>
      <trkpt lat="42.90654" lon="0.13">
        <ele>1712</ele>
        <time>2012-12-16T09:33:27Z</time>
      </trkpt>
      <trkpt lat="42.90653" lon="0.13002">
        <ele>1712</ele>
        <time>2012-12-16T09:33:30Z</time>
      </trkpt>
      <trkpt lat="42.90652" lon="0.13003">
        <ele>1713</ele>
        <time>2012-12-16T09:33:30Z</time>
      </trkpt>
      <trkpt lat="42.90652" lon="0.13005">
        <ele>1713</ele>
        <time>2012-12-16T09:33:32Z</time>
      </trkpt>
      <trkpt lat="42.90651" lon="0.13007">
        <ele>1714</ele>
        <time>2012-12-16T09:33:35Z</time>
      </trkpt>
      <trkpt lat="42.9065" lon="0.13009">
        <ele>1714</ele>
        <time>2012-12-16T09:33:36Z</time>
      </trkpt>
      <trkpt lat="42.90649" lon="0.13011">
        <ele>1714</ele>
        <time>2012-12-16T09:33:38Z</time>
      </trkpt>
      <trkpt lat="42.90648" lon="0.13013">
        <ele>1715</ele>
        <time>2012-12-16T09:33:41Z</time>
      </trkpt>
      <trkpt lat="42.90647" lon="0.13015">
        <ele>1715</ele>
        <time>2012-12-16T09:33:42Z</time>
      </trkpt>
      <trkpt lat="42.90646" lon="0.13017">
        <ele>1716</ele>
        <time>2012-12-16T09:33:44Z</time>
      </trkpt>
      <trkpt lat="42.90646" lon="0.13019">
        <ele>1716</ele>
        <time>2012-12-16T09:33:47Z</time>
      </trkpt>
      <trkpt lat="42.90644" lon="0.13021">
        <ele>1716</ele>
        <time>2012-12-16T09:33:48Z</time>
      </trkpt>
      <trkpt lat="42.90644" lon="0.13023">
        <ele>1716</ele>
        <time>2012-12-16T09:33:50Z</time>
      </trkpt>
      <trkpt lat="42.90643" lon="0.13024">
        <ele>1716</ele>
        <time>2012-12-16T09:33:53Z</time>
      </trkpt>
      <trkpt lat="42.90642" lon="0.13026">
        <ele>1716</ele>
        <time>2012-12-16T09:33:54Z</time>
      </trkpt>
      <trkpt lat="42.90641" lon="0.13028">
        <ele>1716</ele>
        <time>2012-12-16T09:33:56Z</time>
      </trkpt>
      <trkpt lat="42.9064" lon="0.1303">
        <ele>1716</ele>
        <time>2012-12-16T09:33:59Z</time>
      </trkpt>
      <trkpt lat="42.90639" lon="0.13032">
        <ele>1716</ele>
        <time>2012-12-16T09:34:00Z</time>
      </trkpt>
      <trkpt lat="42.90638" lon="0.13034">
        <ele>1716</ele>
        <time>2012-12-16T09:34:02Z</time>
      </trkpt>
      <trkpt lat="42.90637" lon="0.13036">
        <ele>1716</ele>
        <time>2012-12-16T09:34:05Z</time>
      </trkpt>
      <trkpt lat="42.90636" lon="0.13037">
        <ele>1717</ele>
        <time>2012-12-16T09:34:06Z</time>
      </trkpt>
      <trkpt lat="42.90635" lon="0.13039">
        <ele>1717</ele>
        <time>2012-12-16T09:34:08Z</time>
      </trkpt>
      <trkpt lat="42.90634" lon="0.13042">
        <ele>1717</ele>
        <time>2012-12-16T09:34:11Z</time>
      </trkpt>
      <trkpt lat="42.90633" lon="0.13044">
        <ele>1718</ele>
        <time>2012-12-16T09:34:12Z</time>
      </trkpt>
      <trkpt lat="42.90632" lon="0.13045">
        <ele>1718</ele>
        <time>2012-12-16T09:34:14Z</time>
      </trkpt>
      <trkpt lat="42.90631" lon="0.13047">
        <ele>1718</ele>
        <time>2012-12-16T09:34:17Z</time>
      </trkpt>
      <trkpt lat="42.9063" lon="0.13049">
        <ele>1719</ele>
        <time>2012-12-16T09:34:19Z</time>
      </trkpt>
      <trkpt lat="42.9063" lon="0.13051">
        <ele>1719</ele>
        <time>2012-12-16T09:34:20Z</time>
      </trkpt>
      <trkpt lat="42.90629" lon="0.13054">
        <ele>1719</ele>
        <time>2012-12-16T09:34:23Z</time>
      </trkpt>
      <trkpt lat="42.90628" lon="0.13056">
        <ele>1719</ele>
        <time>2012-12-16T09:34:24Z</time>
      </trkpt>
      <trkpt lat="42.90627" lon="0.13058">
        <ele>1719</ele>
        <time>2012-12-16T09:34:26Z</time>
      </trkpt>
      <trkpt lat="42.90626" lon="0.1306">
        <ele>1719</ele>
        <time>2012-12-16T09:34:29Z</time>
      </trkpt>
      <trkpt lat="42.90626" lon="0.13062">
        <ele>1719</ele>
        <time>2012-12-16T09:34:30Z</time>
      </trkpt>
      <trkpt lat="42.90625" lon="0.13064">
        <ele>1720</ele>
        <time>2012-12-16T09:34:32Z</time>
      </trkpt>
      <trkpt lat="42.90624" lon="0.13066">
        <ele>1720</ele>
        <time>2012-12-16T09:34:34Z</time>
      </trkpt>
      <trkpt lat="42.90623" lon="0.13069">
        <ele>1720</ele>
        <time>2012-12-16T09:34:36Z</time>
      </trkpt>
      <trkpt lat="42.90622" lon="0.1307">
        <ele>1720</ele>
        <time>2012-12-16T09:34:38Z</time>
      </trkpt>
      <trkpt lat="42.90621" lon="0.13072">
        <ele>1720</ele>
        <time>2012-12-16T09:34:41Z</time>
      </trkpt>
      <trkpt lat="42.90621" lon="0.13074">
        <ele>1720</ele>
        <time>2012-12-16T09:34:42Z</time>
      </trkpt>
      <trkpt lat="42.9062" lon="0.13076">
        <ele>1720</ele>
        <time>2012-12-16T09:34:44Z</time>
      </trkpt>
      <trkpt lat="42.90619" lon="0.13078">
        <ele>1720</ele>
        <time>2012-12-16T09:34:46Z</time>
      </trkpt>
      <trkpt lat="42.90618" lon="0.1308">
        <ele>1720</ele>
        <time>2012-12-16T09:34:48Z</time>
      </trkpt>
      <trkpt lat="42.90617" lon="0.13082">
        <ele>1720</ele>
        <time>2012-12-16T09:34:50Z</time>
      </trkpt>
      <trkpt lat="42.90617" lon="0.13083">
        <ele>1720</ele>
        <time>2012-12-16T09:34:53Z</time>
      </trkpt>
      <trkpt lat="42.90616" lon="0.13085">
        <ele>1720</ele>
        <time>2012-12-16T09:34:54Z</time>
      </trkpt>
      <trkpt lat="42.90615" lon="0.13088">
        <ele>1720</ele>
        <time>2012-12-16T09:34:56Z</time>
      </trkpt>
      <trkpt lat="42.90614" lon="0.1309">
        <ele>1720</ele>
        <time>2012-12-16T09:34:58Z</time>
      </trkpt>
      <trkpt lat="42.90613" lon="0.13092">
        <ele>1720</ele>
        <time>2012-12-16T09:35:00Z</time>
      </trkpt>
      <trkpt lat="42.90612" lon="0.13094">
        <ele>1720</ele>
        <time>2012-12-16T09:35:02Z</time>
      </trkpt>
      <trkpt lat="42.90612" lon="0.13097">
        <ele>1720</ele>
        <time>2012-12-16T09:35:05Z</time>
      </trkpt>
      <trkpt lat="42.9061" lon="0.13099">
        <ele>1720</ele>
        <time>2012-12-16T09:35:06Z</time>
      </trkpt>
      <trkpt lat="42.90609" lon="0.13101">
        <ele>1721</ele>
        <time>2012-12-16T09:35:08Z</time>
      </trkpt>
      <trkpt lat="42.90609" lon="0.13103">
        <ele>1721</ele>
        <time>2012-12-16T09:35:11Z</time>
      </trkpt>
      <trkpt lat="42.90608" lon="0.13105">
        <ele>1721</ele>
        <time>2012-12-16T09:35:12Z</time>
      </trkpt>
      <trkpt lat="42.90607" lon="0.13107">
        <ele>1721</ele>
        <time>2012-12-16T09:35:14Z</time>
      </trkpt>
      <trkpt lat="42.90606" lon="0.13109">
        <ele>1721</ele>
        <time>2012-12-16T09:35:17Z</time>
      </trkpt>
      <trkpt lat="42.90605" lon="0.13111">
        <ele>1722</ele>
        <time>2012-12-16T09:35:18Z</time>
      </trkpt>
      <trkpt lat="42.90604" lon="0.13113">
        <ele>1722</ele>
        <time>2012-12-16T09:35:20Z</time>
      </trkpt>
      <trkpt lat="42.90604" lon="0.13115">
        <ele>1723</ele>
        <time>2012-12-16T09:35:22Z</time>
      </trkpt>
      <trkpt lat="42.90602" lon="0.13117">
        <ele>1723</ele>
        <time>2012-12-16T09:35:24Z</time>
      </trkpt>
      <trkpt lat="42.90601" lon="0.13118">
        <ele>1723</ele>
        <time>2012-12-16T09:35:26Z</time>
      </trkpt>
      <trkpt lat="42.906" lon="0.1312">
        <ele>1724</ele>
        <time>2012-12-16T09:35:28Z</time>
      </trkpt>
      <trkpt lat="42.90599" lon="0.13122">
        <ele>1724</ele>
        <time>2012-12-16T09:35:30Z</time>
      </trkpt>
      <trkpt lat="42.90597" lon="0.13124">
        <ele>1724</ele>
        <time>2012-12-16T09:35:32Z</time>
      </trkpt>
      <trkpt lat="42.90596" lon="0.13125">
        <ele>1724</ele>
        <time>2012-12-16T09:35:34Z</time>
      </trkpt>
      <trkpt lat="42.90594" lon="0.13127">
        <ele>1725</ele>
        <time>2012-12-16T09:35:36Z</time>
      </trkpt>
      <trkpt lat="42.90593" lon="0.13128">
        <ele>1725</ele>
        <time>2012-12-16T09:35:38Z</time>
      </trkpt>
      <trkpt lat="42.90592" lon="0.1313">
        <ele>1725</ele>
        <time>2012-12-16T09:35:40Z</time>
      </trkpt>
      <trkpt lat="42.90591" lon="0.13131">
        <ele>1725</ele>
        <time>2012-12-16T09:35:42Z</time>
      </trkpt>
      <trkpt lat="42.90589" lon="0.13132">
        <ele>1726</ele>
        <time>2012-12-16T09:35:44Z</time>
      </trkpt>
      <trkpt lat="42.90588" lon="0.13134">
        <ele>1726</ele>
        <time>2012-12-16T09:35:46Z</time>
      </trkpt>
      <trkpt lat="42.90587" lon="0.13135">
        <ele>1726</ele>
        <time>2012-12-16T09:35:48Z</time>
      </trkpt>
      <trkpt lat="42.90585" lon="0.13136">
        <ele>1726</ele>
        <time>2012-12-16T09:35:50Z</time>
      </trkpt>
      <trkpt lat="42.90584" lon="0.13136">
        <ele>1727</ele>
        <time>2012-12-16T09:35:52Z</time>
      </trkpt>
      <trkpt lat="42.90582" lon="0.13137">
        <ele>1727</ele>
        <time>2012-12-16T09:35:54Z</time>
      </trkpt>
      <trkpt lat="42.90581" lon="0.13138">
        <ele>1728</ele>
        <time>2012-12-16T09:35:56Z</time>
      </trkpt>
      <trkpt lat="42.90579" lon="0.13139">
        <ele>1728</ele>
        <time>2012-12-16T09:35:58Z</time>
      </trkpt>
      <trkpt lat="42.90577" lon="0.1314">
        <ele>1728</ele>
        <time>2012-12-16T09:36:00Z</time>
      </trkpt>
      <trkpt lat="42.90576" lon="0.1314">
        <ele>1729</ele>
        <time>2012-12-16T09:36:02Z</time>
      </trkpt>
      <trkpt lat="42.90574" lon="0.13141">
        <ele>1729</ele>
        <time>2012-12-16T09:36:04Z</time>
      </trkpt>
      <trkpt lat="42.90565" lon="0.13165">
        <ele>1729</ele>
        <time>2012-12-16T09:36:22Z</time>
      </trkpt>
      <trkpt lat="42.90567" lon="0.13157">
        <ele>1729</ele>
        <time>2012-12-16T09:36:23Z</time>
      </trkpt>
      <trkpt lat="42.90566" lon="0.13157">
        <ele>1729</ele>
        <time>2012-12-16T09:36:24Z</time>
      </trkpt>
      <trkpt lat="42.90563" lon="0.13161">
        <ele>1729</ele>
        <time>2012-12-16T09:36:25Z</time>
      </trkpt>
      <trkpt lat="42.90561" lon="0.13162">
        <ele>1732</ele>
        <time>2012-12-16T09:36:28Z</time>
      </trkpt>
      <trkpt lat="42.90559" lon="0.13163">
        <ele>1734</ele>
        <time>2012-12-16T09:36:30Z</time>
      </trkpt>
      <trkpt lat="42.90558" lon="0.13163">
        <ele>1734</ele>
        <time>2012-12-16T09:36:31Z</time>
      </trkpt>
      <trkpt lat="42.90557" lon="0.13164">
        <ele>1734</ele>
        <time>2012-12-16T09:36:33Z</time>
      </trkpt>
      <trkpt lat="42.90555" lon="0.13165">
        <ele>1734</ele>
        <time>2012-12-16T09:36:35Z</time>
      </trkpt>
      <trkpt lat="42.90554" lon="0.13168">
        <ele>1735</ele>
        <time>2012-12-16T09:36:37Z</time>
      </trkpt>
      <trkpt lat="42.90553" lon="0.13169">
        <ele>1735</ele>
        <time>2012-12-16T09:36:39Z</time>
      </trkpt>
      <trkpt lat="42.90551" lon="0.13171">
        <ele>1735</ele>
        <time>2012-12-16T09:36:41Z</time>
      </trkpt>
      <trkpt lat="42.9055" lon="0.13172">
        <ele>1735</ele>
        <time>2012-12-16T09:36:43Z</time>
      </trkpt>
      <trkpt lat="42.90548" lon="0.13174">
        <ele>1735</ele>
        <time>2012-12-16T09:36:45Z</time>
      </trkpt>
      <trkpt lat="42.90547" lon="0.13175">
        <ele>1735</ele>
        <time>2012-12-16T09:36:47Z</time>
      </trkpt>
      <trkpt lat="42.90545" lon="0.13176">
        <ele>1735</ele>
        <time>2012-12-16T09:36:49Z</time>
      </trkpt>
      <trkpt lat="42.90543" lon="0.13177">
        <ele>1735</ele>
        <time>2012-12-16T09:36:51Z</time>
      </trkpt>
      <trkpt lat="42.90542" lon="0.13177">
        <ele>1735</ele>
        <time>2012-12-16T09:36:53Z</time>
      </trkpt>
      <trkpt lat="42.90541" lon="0.13176">
        <ele>1735</ele>
        <time>2012-12-16T09:37:14Z</time>
      </trkpt>
      <trkpt lat="42.9054" lon="0.13174">
        <ele>1736</ele>
        <time>2012-12-16T09:37:29Z</time>
      </trkpt>
      <trkpt lat="42.90542" lon="0.13175">
        <ele>1736</ele>
        <time>2012-12-16T09:39:58Z</time>
      </trkpt>
      <trkpt lat="42.90543" lon="0.13175">
        <ele>1736</ele>
        <time>2012-12-16T09:40:37Z</time>
      </trkpt>
      <trkpt lat="42.90543" lon="0.13177">
        <ele>1736</ele>
        <time>2012-12-16T09:40:59Z</time>
      </trkpt>
      <trkpt lat="42.90542" lon="0.13177">
        <ele>1736</ele>
        <time>2012-12-16T09:41:03Z</time>
      </trkpt>
      <trkpt lat="42.9054" lon="0.13179">
        <ele>1736</ele>
        <time>2012-12-16T09:41:05Z</time>
      </trkpt>
      <trkpt lat="42.90539" lon="0.1318">
        <ele>1736</ele>
        <time>2012-12-16T09:41:07Z</time>
      </trkpt>
      <trkpt lat="42.90537" lon="0.1318">
        <ele>1736</ele>
        <time>2012-12-16T09:41:09Z</time>
      </trkpt>
      <trkpt lat="42.90535" lon="0.1318">
        <ele>1736</ele>
        <time>2012-12-16T09:41:11Z</time>
      </trkpt>
      <trkpt lat="42.90533" lon="0.13181">
        <ele>1736</ele>
        <time>2012-12-16T09:41:13Z</time>
      </trkpt>
      <trkpt lat="42.90532" lon="0.13181">
        <ele>1736</ele>
        <time>2012-12-16T09:41:14Z</time>
      </trkpt>
      <trkpt lat="42.9053" lon="0.13182">
        <ele>1736</ele>
        <time>2012-12-16T09:41:16Z</time>
      </trkpt>
      <trkpt lat="42.90528" lon="0.13182">
        <ele>1736</ele>
        <time>2012-12-16T09:41:17Z</time>
      </trkpt>
      <trkpt lat="42.90527" lon="0.13183">
        <ele>1736</ele>
        <time>2012-12-16T09:41:19Z</time>
      </trkpt>
      <trkpt lat="42.90525" lon="0.13183">
        <ele>1736</ele>
        <time>2012-12-16T09:41:20Z</time>
      </trkpt>
      <trkpt lat="42.90524" lon="0.13183">
        <ele>1736</ele>
        <time>2012-12-16T09:41:21Z</time>
      </trkpt>
      <trkpt lat="42.90522" lon="0.13184">
        <ele>1736</ele>
        <time>2012-12-16T09:41:23Z</time>
      </trkpt>
      <trkpt lat="42.9052" lon="0.13184">
        <ele>1736</ele>
        <time>2012-12-16T09:41:25Z</time>
      </trkpt>
      <trkpt lat="42.90518" lon="0.13185">
        <ele>1736</ele>
        <time>2012-12-16T09:41:27Z</time>
      </trkpt>
      <trkpt lat="42.90517" lon="0.13185">
        <ele>1736</ele>
        <time>2012-12-16T09:41:28Z</time>
      </trkpt>
      <trkpt lat="42.90515" lon="0.13186">
        <ele>1736</ele>
        <time>2012-12-16T09:41:30Z</time>
      </trkpt>
      <trkpt lat="42.90514" lon="0.13186">
        <ele>1736</ele>
        <time>2012-12-16T09:41:31Z</time>
      </trkpt>
      <trkpt lat="42.90513" lon="0.13186">
        <ele>1736</ele>
        <time>2012-12-16T09:41:32Z</time>
      </trkpt>
      <trkpt lat="42.90511" lon="0.13186">
        <ele>1736</ele>
        <time>2012-12-16T09:41:34Z</time>
      </trkpt>
      <trkpt lat="42.90509" lon="0.13186">
        <ele>1736</ele>
        <time>2012-12-16T09:41:36Z</time>
      </trkpt>
      <trkpt lat="42.90506" lon="0.13187">
        <ele>1736</ele>
        <time>2012-12-16T09:41:38Z</time>
      </trkpt>
      <trkpt lat="42.90505" lon="0.13187">
        <ele>1736</ele>
        <time>2012-12-16T09:41:40Z</time>
      </trkpt>
      <trkpt lat="42.90504" lon="0.13187">
        <ele>1736</ele>
        <time>2012-12-16T09:41:41Z</time>
      </trkpt>
      <trkpt lat="42.90503" lon="0.13187">
        <ele>1736</ele>
        <time>2012-12-16T09:41:42Z</time>
      </trkpt>
      <trkpt lat="42.90501" lon="0.13187">
        <ele>1736</ele>
        <time>2012-12-16T09:41:44Z</time>
      </trkpt>
      <trkpt lat="42.90499" lon="0.13188">
        <ele>1736</ele>
        <time>2012-12-16T09:41:46Z</time>
      </trkpt>
      <trkpt lat="42.90497" lon="0.13188">
        <ele>1737</ele>
        <time>2012-12-16T09:41:48Z</time>
      </trkpt>
      <trkpt lat="42.90495" lon="0.13188">
        <ele>1737</ele>
        <time>2012-12-16T09:41:50Z</time>
      </trkpt>
      <trkpt lat="42.90493" lon="0.13189">
        <ele>1737</ele>
        <time>2012-12-16T09:41:52Z</time>
      </trkpt>
      <trkpt lat="42.90492" lon="0.13189">
        <ele>1737</ele>
        <time>2012-12-16T09:41:54Z</time>
      </trkpt>
      <trkpt lat="42.9049" lon="0.13189">
        <ele>1738</ele>
        <time>2012-12-16T09:41:56Z</time>
      </trkpt>
      <trkpt lat="42.90489" lon="0.13189">
        <ele>1738</ele>
        <time>2012-12-16T09:41:58Z</time>
      </trkpt>
      <trkpt lat="42.90487" lon="0.13189">
        <ele>1738</ele>
        <time>2012-12-16T09:42:00Z</time>
      </trkpt>
      <trkpt lat="42.90486" lon="0.1319">
        <ele>1738</ele>
        <time>2012-12-16T09:42:15Z</time>
      </trkpt>
      <trkpt lat="42.90484" lon="0.1319">
        <ele>1738</ele>
        <time>2012-12-16T09:42:17Z</time>
      </trkpt>
      <trkpt lat="42.90483" lon="0.13191">
        <ele>1738</ele>
        <time>2012-12-16T09:42:19Z</time>
      </trkpt>
      <trkpt lat="42.90481" lon="0.13191">
        <ele>1738</ele>
        <time>2012-12-16T09:42:21Z</time>
      </trkpt>
      <trkpt lat="42.90479" lon="0.13191">
        <ele>1738</ele>
        <time>2012-12-16T09:42:23Z</time>
      </trkpt>
      <trkpt lat="42.90477" lon="0.13191">
        <ele>1738</ele>
        <time>2012-12-16T09:42:25Z</time>
      </trkpt>
      <trkpt lat="42.90476" lon="0.13191">
        <ele>1738</ele>
        <time>2012-12-16T09:42:27Z</time>
      </trkpt>
      <trkpt lat="42.90475" lon="0.1319">
        <ele>1738</ele>
        <time>2012-12-16T09:42:29Z</time>
      </trkpt>
      <trkpt lat="42.90474" lon="0.1319">
        <ele>1739</ele>
        <time>2012-12-16T09:42:31Z</time>
      </trkpt>
      <trkpt lat="42.90472" lon="0.13189">
        <ele>1739</ele>
        <time>2012-12-16T09:42:34Z</time>
      </trkpt>
      <trkpt lat="42.90471" lon="0.13187">
        <ele>1740</ele>
        <time>2012-12-16T09:42:37Z</time>
      </trkpt>
      <trkpt lat="42.9047" lon="0.13186">
        <ele>1740</ele>
        <time>2012-12-16T09:42:39Z</time>
      </trkpt>
      <trkpt lat="42.90468" lon="0.13185">
        <ele>1741</ele>
        <time>2012-12-16T09:42:42Z</time>
      </trkpt>
      <trkpt lat="42.90467" lon="0.13185">
        <ele>1741</ele>
        <time>2012-12-16T09:42:45Z</time>
      </trkpt>
      <trkpt lat="42.90466" lon="0.13184">
        <ele>1742</ele>
        <time>2012-12-16T09:42:48Z</time>
      </trkpt>
      <trkpt lat="42.90464" lon="0.13184">
        <ele>1742</ele>
        <time>2012-12-16T09:42:51Z</time>
      </trkpt>
      <trkpt lat="42.90463" lon="0.13183">
        <ele>1743</ele>
        <time>2012-12-16T09:43:04Z</time>
      </trkpt>
      <trkpt lat="42.90461" lon="0.13183">
        <ele>1743</ele>
        <time>2012-12-16T09:43:06Z</time>
      </trkpt>
      <trkpt lat="42.9046" lon="0.13183">
        <ele>1743</ele>
        <time>2012-12-16T09:43:08Z</time>
      </trkpt>
      <trkpt lat="42.90459" lon="0.13182">
        <ele>1743</ele>
        <time>2012-12-16T09:43:11Z</time>
      </trkpt>
      <trkpt lat="42.90458" lon="0.13183">
        <ele>1743</ele>
        <time>2012-12-16T09:43:15Z</time>
      </trkpt>
      <trkpt lat="42.90456" lon="0.13182">
        <ele>1744</ele>
        <time>2012-12-16T09:43:19Z</time>
      </trkpt>
      <trkpt lat="42.90455" lon="0.13182">
        <ele>1744</ele>
        <time>2012-12-16T09:43:21Z</time>
      </trkpt>
      <trkpt lat="42.90453" lon="0.1318">
        <ele>1744</ele>
        <time>2012-12-16T09:43:24Z</time>
      </trkpt>
      <trkpt lat="42.90452" lon="0.13179">
        <ele>1744</ele>
        <time>2012-12-16T09:43:27Z</time>
      </trkpt>
      <trkpt lat="42.90451" lon="0.13178">
        <ele>1744</ele>
        <time>2012-12-16T09:43:30Z</time>
      </trkpt>
      <trkpt lat="42.9045" lon="0.13176">
        <ele>1744</ele>
        <time>2012-12-16T09:43:33Z</time>
      </trkpt>
      <trkpt lat="42.9045" lon="0.13174">
        <ele>1744</ele>
        <time>2012-12-16T09:43:36Z</time>
      </trkpt>
      <trkpt lat="42.9045" lon="0.13173">
        <ele>1744</ele>
        <time>2012-12-16T09:43:40Z</time>
      </trkpt>
      <trkpt lat="42.9045" lon="0.13171">
        <ele>1744</ele>
        <time>2012-12-16T09:43:43Z</time>
      </trkpt>
      <trkpt lat="42.90451" lon="0.13169">
        <ele>1744</ele>
        <time>2012-12-16T09:43:46Z</time>
      </trkpt>
      <trkpt lat="42.9045" lon="0.13168">
        <ele>1744</ele>
        <time>2012-12-16T09:43:49Z</time>
      </trkpt>
      <trkpt lat="42.9045" lon="0.13166">
        <ele>1744</ele>
        <time>2012-12-16T09:43:51Z</time>
      </trkpt>
      <trkpt lat="42.90449" lon="0.13165">
        <ele>1745</ele>
        <time>2012-12-16T09:43:54Z</time>
      </trkpt>
      <trkpt lat="42.90448" lon="0.13166">
        <ele>1745</ele>
        <time>2012-12-16T09:43:56Z</time>
      </trkpt>
      <trkpt lat="42.90447" lon="0.13167">
        <ele>1745</ele>
        <time>2012-12-16T09:43:58Z</time>
      </trkpt>
      <trkpt lat="42.90445" lon="0.13168">
        <ele>1745</ele>
        <time>2012-12-16T09:44:01Z</time>
      </trkpt>
      <trkpt lat="42.90444" lon="0.13168">
        <ele>1745</ele>
        <time>2012-12-16T09:44:04Z</time>
      </trkpt>
      <trkpt lat="42.90443" lon="0.13169">
        <ele>1746</ele>
        <time>2012-12-16T09:44:06Z</time>
      </trkpt>
      <trkpt lat="42.90442" lon="0.13169">
        <ele>1746</ele>
        <time>2012-12-16T09:44:08Z</time>
      </trkpt>
      <trkpt lat="42.9044" lon="0.13169">
        <ele>1747</ele>
        <time>2012-12-16T09:44:10Z</time>
      </trkpt>
      <trkpt lat="42.90439" lon="0.1317">
        <ele>1747</ele>
        <time>2012-12-16T09:44:13Z</time>
      </trkpt>
      <trkpt lat="42.90438" lon="0.1317">
        <ele>1748</ele>
        <time>2012-12-16T09:44:16Z</time>
      </trkpt>
      <trkpt lat="42.90436" lon="0.1317">
        <ele>1748</ele>
        <time>2012-12-16T09:44:19Z</time>
      </trkpt>
      <trkpt lat="42.90435" lon="0.1317">
        <ele>1749</ele>
        <time>2012-12-16T09:44:22Z</time>
      </trkpt>
      <trkpt lat="42.90434" lon="0.13169">
        <ele>1749</ele>
        <time>2012-12-16T09:44:25Z</time>
      </trkpt>
      <trkpt lat="42.90432" lon="0.13168">
        <ele>1750</ele>
        <time>2012-12-16T09:44:28Z</time>
      </trkpt>
      <trkpt lat="42.90431" lon="0.13167">
        <ele>1750</ele>
        <time>2012-12-16T09:44:31Z</time>
      </trkpt>
      <trkpt lat="42.9043" lon="0.13165">
        <ele>1751</ele>
        <time>2012-12-16T09:44:34Z</time>
      </trkpt>
      <trkpt lat="42.90429" lon="0.13164">
        <ele>1751</ele>
        <time>2012-12-16T09:44:36Z</time>
      </trkpt>
      <trkpt lat="42.90427" lon="0.13163">
        <ele>1752</ele>
        <time>2012-12-16T09:44:39Z</time>
      </trkpt>
      <trkpt lat="42.90426" lon="0.13162">
        <ele>1753</ele>
        <time>2012-12-16T09:44:43Z</time>
      </trkpt>
      <trkpt lat="42.90424" lon="0.13161">
        <ele>1754</ele>
        <time>2012-12-16T09:44:47Z</time>
      </trkpt>
      <trkpt lat="42.90422" lon="0.1316">
        <ele>1754</ele>
        <time>2012-12-16T09:44:52Z</time>
      </trkpt>
      <trkpt lat="42.90421" lon="0.1316">
        <ele>1755</ele>
        <time>2012-12-16T09:44:53Z</time>
      </trkpt>
      <trkpt lat="42.9042" lon="0.1316">
        <ele>1755</ele>
        <time>2012-12-16T09:44:55Z</time>
      </trkpt>
      <trkpt lat="42.90418" lon="0.13159">
        <ele>1756</ele>
        <time>2012-12-16T09:44:58Z</time>
      </trkpt>
      <trkpt lat="42.90417" lon="0.13159">
        <ele>1757</ele>
        <time>2012-12-16T09:45:03Z</time>
      </trkpt>
      <trkpt lat="42.90416" lon="0.13158">
        <ele>1757</ele>
        <time>2012-12-16T09:45:05Z</time>
      </trkpt>
      <trkpt lat="42.90414" lon="0.13157">
        <ele>1758</ele>
        <time>2012-12-16T09:45:10Z</time>
      </trkpt>
      <trkpt lat="42.90413" lon="0.13156">
        <ele>1758</ele>
        <time>2012-12-16T09:45:12Z</time>
      </trkpt>
      <trkpt lat="42.90411" lon="0.13155">
        <ele>1759</ele>
        <time>2012-12-16T09:45:16Z</time>
      </trkpt>
      <trkpt lat="42.9041" lon="0.13155">
        <ele>1760</ele>
        <time>2012-12-16T09:45:17Z</time>
      </trkpt>
      <trkpt lat="42.90409" lon="0.13155">
        <ele>1760</ele>
        <time>2012-12-16T09:45:21Z</time>
      </trkpt>
      <trkpt lat="42.90407" lon="0.13155">
        <ele>1761</ele>
        <time>2012-12-16T09:45:24Z</time>
      </trkpt>
      <trkpt lat="42.90406" lon="0.13155">
        <ele>1762</ele>
        <time>2012-12-16T09:45:28Z</time>
      </trkpt>
      <trkpt lat="42.90404" lon="0.13156">
        <ele>1762</ele>
        <time>2012-12-16T09:45:33Z</time>
      </trkpt>
      <trkpt lat="42.90403" lon="0.13156">
        <ele>1762</ele>
        <time>2012-12-16T09:45:35Z</time>
      </trkpt>
      <trkpt lat="42.90401" lon="0.13157">
        <ele>1763</ele>
        <time>2012-12-16T09:45:40Z</time>
      </trkpt>
      <trkpt lat="42.90399" lon="0.13157">
        <ele>1764</ele>
        <time>2012-12-16T09:45:45Z</time>
      </trkpt>
      <trkpt lat="42.90398" lon="0.13157">
        <ele>1765</ele>
        <time>2012-12-16T09:45:46Z</time>
      </trkpt>
      <trkpt lat="42.90397" lon="0.13159">
        <ele>1765</ele>
        <time>2012-12-16T09:45:52Z</time>
      </trkpt>
      <trkpt lat="42.90395" lon="0.1316">
        <ele>1766</ele>
        <time>2012-12-16T09:46:00Z</time>
      </trkpt>
      <trkpt lat="42.90394" lon="0.1316">
        <ele>1766</ele>
        <time>2012-12-16T09:46:05Z</time>
      </trkpt>
      <trkpt lat="42.90395" lon="0.13162">
        <ele>1766</ele>
        <time>2012-12-16T09:46:09Z</time>
      </trkpt>
      <trkpt lat="42.90395" lon="0.1316">
        <ele>1766</ele>
        <time>2012-12-16T09:46:28Z</time>
      </trkpt>
      <trkpt lat="42.90396" lon="0.1316">
        <ele>1766</ele>
        <time>2012-12-16T09:46:51Z</time>
      </trkpt>
      <trkpt lat="42.90395" lon="0.1316">
        <ele>1766</ele>
        <time>2012-12-16T09:47:34Z</time>
      </trkpt>
      <trkpt lat="42.90394" lon="0.13161">
        <ele>1766</ele>
        <time>2012-12-16T09:47:40Z</time>
      </trkpt>
      <trkpt lat="42.90393" lon="0.13162">
        <ele>1766</ele>
        <time>2012-12-16T09:47:45Z</time>
      </trkpt>
      <trkpt lat="42.90392" lon="0.13163">
        <ele>1766</ele>
        <time>2012-12-16T09:47:47Z</time>
      </trkpt>
      <trkpt lat="42.9039" lon="0.13165">
        <ele>1766</ele>
        <time>2012-12-16T09:47:51Z</time>
      </trkpt>
      <trkpt lat="42.90388" lon="0.13166">
        <ele>1766</ele>
        <time>2012-12-16T09:47:55Z</time>
      </trkpt>
      <trkpt lat="42.90387" lon="0.13168">
        <ele>1766</ele>
        <time>2012-12-16T09:47:56Z</time>
      </trkpt>
      <trkpt lat="42.90385" lon="0.13169">
        <ele>1766</ele>
        <time>2012-12-16T09:48:00Z</time>
      </trkpt>
      <trkpt lat="42.90384" lon="0.1317">
        <ele>1766</ele>
        <time>2012-12-16T09:48:01Z</time>
      </trkpt>
      <trkpt lat="42.90382" lon="0.13171">
        <ele>1767</ele>
        <time>2012-12-16T09:48:06Z</time>
      </trkpt>
      <trkpt lat="42.9038" lon="0.13171">
        <ele>1767</ele>
        <time>2012-12-16T09:48:06Z</time>
      </trkpt>
      <trkpt lat="42.90379" lon="0.13172">
        <ele>1767</ele>
        <time>2012-12-16T09:48:10Z</time>
      </trkpt>
      <trkpt lat="42.90377" lon="0.13173">
        <ele>1768</ele>
        <time>2012-12-16T09:48:15Z</time>
      </trkpt>
      <trkpt lat="42.90376" lon="0.13174">
        <ele>1768</ele>
        <time>2012-12-16T09:48:16Z</time>
      </trkpt>
      <trkpt lat="42.90374" lon="0.13175">
        <ele>1768</ele>
        <time>2012-12-16T09:48:19Z</time>
      </trkpt>
      <trkpt lat="42.90372" lon="0.13175">
        <ele>1769</ele>
        <time>2012-12-16T09:48:21Z</time>
      </trkpt>
      <trkpt lat="42.90371" lon="0.13175">
        <ele>1769</ele>
        <time>2012-12-16T09:48:23Z</time>
      </trkpt>
      <trkpt lat="42.9037" lon="0.13176">
        <ele>1769</ele>
        <time>2012-12-16T09:48:27Z</time>
      </trkpt>
      <trkpt lat="42.90368" lon="0.13176">
        <ele>1770</ele>
        <time>2012-12-16T09:48:28Z</time>
      </trkpt>
      <trkpt lat="42.90366" lon="0.13177">
        <ele>1770</ele>
        <time>2012-12-16T09:48:32Z</time>
      </trkpt>
      <trkpt lat="42.90364" lon="0.13177">
        <ele>1770</ele>
        <time>2012-12-16T09:48:33Z</time>
      </trkpt>
      <trkpt lat="42.90363" lon="0.13178">
        <ele>1771</ele>
        <time>2012-12-16T09:48:38Z</time>
      </trkpt>
      <trkpt lat="42.90362" lon="0.13178">
        <ele>1771</ele>
        <time>2012-12-16T09:48:40Z</time>
      </trkpt>
      <trkpt lat="42.9036" lon="0.13179">
        <ele>1771</ele>
        <time>2012-12-16T09:48:44Z</time>
      </trkpt>
      <trkpt lat="42.90358" lon="0.1318">
        <ele>1772</ele>
        <time>2012-12-16T09:48:47Z</time>
      </trkpt>
      <trkpt lat="42.90357" lon="0.13181">
        <ele>1773</ele>
        <time>2012-12-16T09:48:51Z</time>
      </trkpt>
      <trkpt lat="42.90356" lon="0.13182">
        <ele>1773</ele>
        <time>2012-12-16T09:49:02Z</time>
      </trkpt>
      <trkpt lat="42.90355" lon="0.13184">
        <ele>1773</ele>
        <time>2012-12-16T09:49:14Z</time>
      </trkpt>
      <trkpt lat="42.90354" lon="0.13186">
        <ele>1773</ele>
        <time>2012-12-16T09:49:15Z</time>
      </trkpt>
      <trkpt lat="42.90356" lon="0.13187">
        <ele>1773</ele>
        <time>2012-12-16T09:49:43Z</time>
      </trkpt>
      <trkpt lat="42.90355" lon="0.13189">
        <ele>1773</ele>
        <time>2012-12-16T09:49:55Z</time>
      </trkpt>
      <trkpt lat="42.90353" lon="0.1319">
        <ele>1774</ele>
        <time>2012-12-16T09:50:01Z</time>
      </trkpt>
      <trkpt lat="42.90352" lon="0.13189">
        <ele>1774</ele>
        <time>2012-12-16T09:50:07Z</time>
      </trkpt>
      <trkpt lat="42.9035" lon="0.13188">
        <ele>1775</ele>
        <time>2012-12-16T09:50:09Z</time>
      </trkpt>
      <trkpt lat="42.90349" lon="0.13188">
        <ele>1775</ele>
        <time>2012-12-16T09:50:13Z</time>
      </trkpt>
      <trkpt lat="42.90348" lon="0.1319">
        <ele>1776</ele>
        <time>2012-12-16T09:50:15Z</time>
      </trkpt>
      <trkpt lat="42.90347" lon="0.1319">
        <ele>1777</ele>
        <time>2012-12-16T09:50:22Z</time>
      </trkpt>
      <trkpt lat="42.90345" lon="0.13191">
        <ele>1777</ele>
        <time>2012-12-16T09:50:25Z</time>
      </trkpt>
      <trkpt lat="42.90344" lon="0.13192">
        <ele>1778</ele>
        <time>2012-12-16T09:50:26Z</time>
      </trkpt>
      <trkpt lat="42.90343" lon="0.13193">
        <ele>1778</ele>
        <time>2012-12-16T09:50:28Z</time>
      </trkpt>
      <trkpt lat="42.90342" lon="0.13194">
        <ele>1779</ele>
        <time>2012-12-16T09:50:31Z</time>
      </trkpt>
      <trkpt lat="42.90341" lon="0.13196">
        <ele>1780</ele>
        <time>2012-12-16T09:50:37Z</time>
      </trkpt>
      <trkpt lat="42.9034" lon="0.13197">
        <ele>1780</ele>
        <time>2012-12-16T09:50:38Z</time>
      </trkpt>
      <trkpt lat="42.90341" lon="0.13199">
        <ele>1780</ele>
        <time>2012-12-16T09:50:56Z</time>
      </trkpt>
      <trkpt lat="42.90341" lon="0.13201">
        <ele>1780</ele>
        <time>2012-12-16T09:52:03Z</time>
      </trkpt>
      <trkpt lat="42.9034" lon="0.13201">
        <ele>1780</ele>
        <time>2012-12-16T09:52:29Z</time>
      </trkpt>
      <trkpt lat="42.90339" lon="0.13202">
        <ele>1780</ele>
        <time>2012-12-16T09:52:36Z</time>
      </trkpt>
      <trkpt lat="42.9034" lon="0.13201">
        <ele>1781</ele>
        <time>2012-12-16T09:52:47Z</time>
      </trkpt>
      <trkpt lat="42.90341" lon="0.132">
        <ele>1781</ele>
        <time>2012-12-16T09:53:06Z</time>
      </trkpt>
      <trkpt lat="42.9034" lon="0.13198">
        <ele>1781</ele>
        <time>2012-12-16T09:53:12Z</time>
      </trkpt>
      <trkpt lat="42.90339" lon="0.13196">
        <ele>1783</ele>
        <time>2012-12-16T09:53:19Z</time>
      </trkpt>
      <trkpt lat="42.9034" lon="0.13198">
        <ele>1784</ele>
        <time>2012-12-16T09:53:31Z</time>
      </trkpt>
      <trkpt lat="42.9034" lon="0.13199">
        <ele>1784</ele>
        <time>2012-12-16T09:53:40Z</time>
      </trkpt>
      <trkpt lat="42.9034" lon="0.13201">
        <ele>1784</ele>
        <time>2012-12-16T09:53:49Z</time>
      </trkpt>
      <trkpt lat="42.9034" lon="0.13198">
        <ele>1784</ele>
        <time>2012-12-16T09:54:31Z</time>
      </trkpt>
      <trkpt lat="42.9034" lon="0.132">
        <ele>1784</ele>
        <time>2012-12-16T09:57:49Z</time>
      </trkpt>
      <trkpt lat="42.9034" lon="0.13198">
        <ele>1784</ele>
        <time>2012-12-16T09:57:56Z</time>
      </trkpt>
      <trkpt lat="42.90341" lon="0.13198">
        <ele>1784</ele>
        <time>2012-12-16T09:58:26Z</time>
      </trkpt>
      <trkpt lat="42.90341" lon="0.13196">
        <ele>1784</ele>
        <time>2012-12-16T09:58:38Z</time>
      </trkpt>
      <trkpt lat="42.9034" lon="0.13198">
        <ele>1784</ele>
        <time>2012-12-16T09:59:20Z</time>
      </trkpt>
      <trkpt lat="42.90339" lon="0.13199">
        <ele>1784</ele>
        <time>2012-12-16T09:59:30Z</time>
      </trkpt>
      <trkpt lat="42.90337" lon="0.13198">
        <ele>1784</ele>
        <time>2012-12-16T09:59:39Z</time>
      </trkpt>
      <trkpt lat="42.90335" lon="0.13199">
        <ele>1784</ele>
        <time>2012-12-16T09:59:41Z</time>
      </trkpt>
      <trkpt lat="42.90334" lon="0.132">
        <ele>1784</ele>
        <time>2012-12-16T09:59:46Z</time>
      </trkpt>
      <trkpt lat="42.90333" lon="0.13202">
        <ele>1784</ele>
        <time>2012-12-16T09:59:53Z</time>
      </trkpt>
      <trkpt lat="42.90332" lon="0.13203">
        <ele>1784</ele>
        <time>2012-12-16T09:59:59Z</time>
      </trkpt>
      <trkpt lat="42.9033" lon="0.13203">
        <ele>1784</ele>
        <time>2012-12-16T10:00:02Z</time>
      </trkpt>
      <trkpt lat="42.90328" lon="0.13204">
        <ele>1784</ele>
        <time>2012-12-16T10:00:07Z</time>
      </trkpt>
      <trkpt lat="42.90327" lon="0.13204">
        <ele>1785</ele>
        <time>2012-12-16T10:00:09Z</time>
      </trkpt>
      <trkpt lat="42.90326" lon="0.13207">
        <ele>1785</ele>
        <time>2012-12-16T10:00:13Z</time>
      </trkpt>
      <trkpt lat="42.90324" lon="0.13208">
        <ele>1785</ele>
        <time>2012-12-16T10:00:20Z</time>
      </trkpt>
      <trkpt lat="42.90323" lon="0.1321">
        <ele>1786</ele>
        <time>2012-12-16T10:00:21Z</time>
      </trkpt>
      <trkpt lat="42.90322" lon="0.13211">
        <ele>1786</ele>
        <time>2012-12-16T10:00:23Z</time>
      </trkpt>
      <trkpt lat="42.9032" lon="0.13213">
        <ele>1787</ele>
        <time>2012-12-16T10:00:28Z</time>
      </trkpt>
      <trkpt lat="42.90319" lon="0.13214">
        <ele>1787</ele>
        <time>2012-12-16T10:00:30Z</time>
      </trkpt>
      <trkpt lat="42.90317" lon="0.13215">
        <ele>1789</ele>
        <time>2012-12-16T10:00:35Z</time>
      </trkpt>
      <trkpt lat="42.90316" lon="0.13214">
        <ele>1790</ele>
        <time>2012-12-16T10:00:41Z</time>
      </trkpt>
      <trkpt lat="42.90315" lon="0.13214">
        <ele>1790</ele>
        <time>2012-12-16T10:01:12Z</time>
      </trkpt>
      <trkpt lat="42.90315" lon="0.13212">
        <ele>1791</ele>
        <time>2012-12-16T10:01:26Z</time>
      </trkpt>
      <trkpt lat="42.90315" lon="0.13211">
        <ele>1792</ele>
        <time>2012-12-16T10:01:45Z</time>
      </trkpt>
      <trkpt lat="42.90315" lon="0.13209">
        <ele>1793</ele>
        <time>2012-12-16T10:02:19Z</time>
      </trkpt>
      <trkpt lat="42.90315" lon="0.13211">
        <ele>1793</ele>
        <time>2012-12-16T10:02:25Z</time>
      </trkpt>
      <trkpt lat="42.90315" lon="0.13212">
        <ele>1793</ele>
        <time>2012-12-16T10:02:28Z</time>
      </trkpt>
      <trkpt lat="42.90315" lon="0.13214">
        <ele>1793</ele>
        <time>2012-12-16T10:02:41Z</time>
      </trkpt>
      <trkpt lat="42.90314" lon="0.13212">
        <ele>1793</ele>
        <time>2012-12-16T10:02:48Z</time>
      </trkpt>
      <trkpt lat="42.90314" lon="0.13214">
        <ele>1793</ele>
        <time>2012-12-16T10:03:17Z</time>
      </trkpt>
      <trkpt lat="42.90314" lon="0.13215">
        <ele>1790</ele>
        <time>2012-12-16T10:03:44Z</time>
      </trkpt>
      <trkpt lat="42.90313" lon="0.13214">
        <ele>1790</ele>
        <time>2012-12-16T10:03:53Z</time>
      </trkpt>
      <trkpt lat="42.9031" lon="0.13214">
        <ele>1790</ele>
        <time>2012-12-16T10:03:57Z</time>
      </trkpt>
      <trkpt lat="42.90309" lon="0.13214">
        <ele>1790</ele>
        <time>2012-12-16T10:03:59Z</time>
      </trkpt>
      <trkpt lat="42.90308" lon="0.13216">
        <ele>1790</ele>
        <time>2012-12-16T10:04:03Z</time>
      </trkpt>
      <trkpt lat="42.90306" lon="0.13217">
        <ele>1790</ele>
        <time>2012-12-16T10:04:05Z</time>
      </trkpt>
      <trkpt lat="42.90305" lon="0.1322">
        <ele>1790</ele>
        <time>2012-12-16T10:04:09Z</time>
      </trkpt>
      <trkpt lat="42.90304" lon="0.13221">
        <ele>1790</ele>
        <time>2012-12-16T10:04:12Z</time>
      </trkpt>
      <trkpt lat="42.90302" lon="0.13223">
        <ele>1790</ele>
        <time>2012-12-16T10:04:16Z</time>
      </trkpt>
      <trkpt lat="42.90301" lon="0.13225">
        <ele>1791</ele>
        <time>2012-12-16T10:04:21Z</time>
      </trkpt>
      <trkpt lat="42.90301" lon="0.13226">
        <ele>1791</ele>
        <time>2012-12-16T10:04:24Z</time>
      </trkpt>
      <trkpt lat="42.903" lon="0.13228">
        <ele>1792</ele>
        <time>2012-12-16T10:04:29Z</time>
      </trkpt>
      <trkpt lat="42.90299" lon="0.1323">
        <ele>1793</ele>
        <time>2012-12-16T10:04:43Z</time>
      </trkpt>
      <trkpt lat="42.90299" lon="0.13232">
        <ele>1793</ele>
        <time>2012-12-16T10:04:45Z</time>
      </trkpt>
      <trkpt lat="42.90298" lon="0.13233">
        <ele>1794</ele>
        <time>2012-12-16T10:04:50Z</time>
      </trkpt>
      <trkpt lat="42.90297" lon="0.13235">
        <ele>1794</ele>
        <time>2012-12-16T10:04:51Z</time>
      </trkpt>
      <trkpt lat="42.90296" lon="0.13237">
        <ele>1795</ele>
        <time>2012-12-16T10:04:56Z</time>
      </trkpt>
      <trkpt lat="42.90297" lon="0.13238">
        <ele>1799</ele>
        <time>2012-12-16T10:05:50Z</time>
      </trkpt>
      <trkpt lat="42.90296" lon="0.13238">
        <ele>1800</ele>
        <time>2012-12-16T10:07:00Z</time>
      </trkpt>
      <trkpt lat="42.90295" lon="0.13237">
        <ele>1800</ele>
        <time>2012-12-16T10:07:01Z</time>
      </trkpt>
      <trkpt lat="42.90295" lon="0.13235">
        <ele>1800</ele>
        <time>2012-12-16T10:07:03Z</time>
      </trkpt>
      <trkpt lat="42.90295" lon="0.13233">
        <ele>1801</ele>
        <time>2012-12-16T10:07:07Z</time>
      </trkpt>
      <trkpt lat="42.90295" lon="0.13232">
        <ele>1801</ele>
        <time>2012-12-16T10:07:08Z</time>
      </trkpt>
      <trkpt lat="42.90295" lon="0.13229">
        <ele>1802</ele>
        <time>2012-12-16T10:07:12Z</time>
      </trkpt>
      <trkpt lat="42.90295" lon="0.13227">
        <ele>1802</ele>
        <time>2012-12-16T10:07:12Z</time>
      </trkpt>
      <trkpt lat="42.90295" lon="0.13226">
        <ele>1803</ele>
        <time>2012-12-16T10:07:15Z</time>
      </trkpt>
      <trkpt lat="42.90294" lon="0.13223">
        <ele>1803</ele>
        <time>2012-12-16T10:07:19Z</time>
      </trkpt>
      <trkpt lat="42.90293" lon="0.13221">
        <ele>1803</ele>
        <time>2012-12-16T10:07:21Z</time>
      </trkpt>
      <trkpt lat="42.90292" lon="0.13222">
        <ele>1803</ele>
        <time>2012-12-16T10:07:35Z</time>
      </trkpt>
      <trkpt lat="42.90291" lon="0.13224">
        <ele>1803</ele>
        <time>2012-12-16T10:07:39Z</time>
      </trkpt>
      <trkpt lat="42.90291" lon="0.13226">
        <ele>1803</ele>
        <time>2012-12-16T10:07:41Z</time>
      </trkpt>
      <trkpt lat="42.9029" lon="0.13228">
        <ele>1803</ele>
        <time>2012-12-16T10:07:45Z</time>
      </trkpt>
      <trkpt lat="42.90288" lon="0.13228">
        <ele>1804</ele>
        <time>2012-12-16T10:07:47Z</time>
      </trkpt>
      <trkpt lat="42.90287" lon="0.13229">
        <ele>1805</ele>
        <time>2012-12-16T10:07:52Z</time>
      </trkpt>
      <trkpt lat="42.90284" lon="0.13229">
        <ele>1805</ele>
        <time>2012-12-16T10:07:53Z</time>
      </trkpt>
      <trkpt lat="42.90283" lon="0.1323">
        <ele>1805</ele>
        <time>2012-12-16T10:07:55Z</time>
      </trkpt>
      <trkpt lat="42.90282" lon="0.1323">
        <ele>1806</ele>
        <time>2012-12-16T10:07:57Z</time>
      </trkpt>
      <trkpt lat="42.9028" lon="0.13231">
        <ele>1806</ele>
        <time>2012-12-16T10:08:01Z</time>
      </trkpt>
      <trkpt lat="42.90279" lon="0.13232">
        <ele>1806</ele>
        <time>2012-12-16T10:08:02Z</time>
      </trkpt>
      <trkpt lat="42.90277" lon="0.13233">
        <ele>1807</ele>
        <time>2012-12-16T10:08:06Z</time>
      </trkpt>
      <trkpt lat="42.90276" lon="0.13233">
        <ele>1807</ele>
        <time>2012-12-16T10:08:07Z</time>
      </trkpt>
      <trkpt lat="42.90274" lon="0.13234">
        <ele>1808</ele>
        <time>2012-12-16T10:08:11Z</time>
      </trkpt>
      <trkpt lat="42.90273" lon="0.13234">
        <ele>1808</ele>
        <time>2012-12-16T10:08:12Z</time>
      </trkpt>
      <trkpt lat="42.90271" lon="0.13234">
        <ele>1809</ele>
        <time>2012-12-16T10:08:16Z</time>
      </trkpt>
      <trkpt lat="42.90269" lon="0.13234">
        <ele>1809</ele>
        <time>2012-12-16T10:08:16Z</time>
      </trkpt>
      <trkpt lat="42.90266" lon="0.13235">
        <ele>1810</ele>
        <time>2012-12-16T10:08:20Z</time>
      </trkpt>
      <trkpt lat="42.90265" lon="0.13235">
        <ele>1810</ele>
        <time>2012-12-16T10:08:23Z</time>
      </trkpt>
      <trkpt lat="42.90264" lon="0.13235">
        <ele>1811</ele>
        <time>2012-12-16T10:08:26Z</time>
      </trkpt>
      <trkpt lat="42.90263" lon="0.13235">
        <ele>1811</ele>
        <time>2012-12-16T10:08:26Z</time>
      </trkpt>
      <trkpt lat="42.90261" lon="0.13235">
        <ele>1812</ele>
        <time>2012-12-16T10:08:29Z</time>
      </trkpt>
      <trkpt lat="42.9026" lon="0.13236">
        <ele>1813</ele>
        <time>2012-12-16T10:08:44Z</time>
      </trkpt>
      <trkpt lat="42.90259" lon="0.13236">
        <ele>1813</ele>
        <time>2012-12-16T10:08:47Z</time>
      </trkpt>
      <trkpt lat="42.90257" lon="0.13236">
        <ele>1813</ele>
        <time>2012-12-16T10:08:54Z</time>
      </trkpt>
      <trkpt lat="42.90255" lon="0.13236">
        <ele>1813</ele>
        <time>2012-12-16T10:08:55Z</time>
      </trkpt>
      <trkpt lat="42.90253" lon="0.13236">
        <ele>1813</ele>
        <time>2012-12-16T10:08:57Z</time>
      </trkpt>
      <trkpt lat="42.90252" lon="0.13236">
        <ele>1813</ele>
        <time>2012-12-16T10:09:01Z</time>
      </trkpt>
      <trkpt lat="42.90251" lon="0.13237">
        <ele>1813</ele>
        <time>2012-12-16T10:09:03Z</time>
      </trkpt>
      <trkpt lat="42.9025" lon="0.13237">
        <ele>1813</ele>
        <time>2012-12-16T10:09:05Z</time>
      </trkpt>
      <trkpt lat="42.90248" lon="0.13237">
        <ele>1813</ele>
        <time>2012-12-16T10:09:08Z</time>
      </trkpt>
      <trkpt lat="42.90246" lon="0.13237">
        <ele>1813</ele>
        <time>2012-12-16T10:09:09Z</time>
      </trkpt>
      <trkpt lat="42.90245" lon="0.13237">
        <ele>1813</ele>
        <time>2012-12-16T10:09:11Z</time>
      </trkpt>
      <trkpt lat="42.90244" lon="0.13238">
        <ele>1814</ele>
        <time>2012-12-16T10:09:14Z</time>
      </trkpt>
      <trkpt lat="42.90242" lon="0.13238">
        <ele>1814</ele>
        <time>2012-12-16T10:09:16Z</time>
      </trkpt>
      <trkpt lat="42.9024" lon="0.13238">
        <ele>1814</ele>
        <time>2012-12-16T10:09:21Z</time>
      </trkpt>
      <trkpt lat="42.90239" lon="0.13238">
        <ele>1814</ele>
        <time>2012-12-16T10:09:22Z</time>
      </trkpt>
      <trkpt lat="42.90237" lon="0.13239">
        <ele>1815</ele>
        <time>2012-12-16T10:09:28Z</time>
      </trkpt>
      <trkpt lat="42.90235" lon="0.13239">
        <ele>1815</ele>
        <time>2012-12-16T10:09:29Z</time>
      </trkpt>
      <trkpt lat="42.90234" lon="0.13239">
        <ele>1816</ele>
        <time>2012-12-16T10:09:32Z</time>
      </trkpt>
      <trkpt lat="42.90232" lon="0.1324">
        <ele>1816</ele>
        <time>2012-12-16T10:09:33Z</time>
      </trkpt>
      <trkpt lat="42.90231" lon="0.1324">
        <ele>1816</ele>
        <time>2012-12-16T10:09:35Z</time>
      </trkpt>
      <trkpt lat="42.90229" lon="0.1324">
        <ele>1817</ele>
        <time>2012-12-16T10:09:39Z</time>
      </trkpt>
      <trkpt lat="42.90227" lon="0.13239">
        <ele>1817</ele>
        <time>2012-12-16T10:09:39Z</time>
      </trkpt>
      <trkpt lat="42.90225" lon="0.1324">
        <ele>1817</ele>
        <time>2012-12-16T10:09:43Z</time>
      </trkpt>
      <trkpt lat="42.90223" lon="0.1324">
        <ele>1818</ele>
        <time>2012-12-16T10:10:29Z</time>
      </trkpt>
      <trkpt lat="42.90221" lon="0.13241">
        <ele>1818</ele>
        <time>2012-12-16T10:10:33Z</time>
      </trkpt>
      <trkpt lat="42.90219" lon="0.13241">
        <ele>1818</ele>
        <time>2012-12-16T10:10:38Z</time>
      </trkpt>
      <trkpt lat="42.90217" lon="0.13243">
        <ele>1818</ele>
        <time>2012-12-16T10:10:53Z</time>
      </trkpt>
      <trkpt lat="42.90216" lon="0.13244">
        <ele>1818</ele>
        <time>2012-12-16T10:11:12Z</time>
      </trkpt>
      <trkpt lat="42.90213" lon="0.13246">
        <ele>1818</ele>
        <time>2012-12-16T10:11:18Z</time>
      </trkpt>
      <trkpt lat="42.90211" lon="0.13247">
        <ele>1818</ele>
        <time>2012-12-16T10:11:20Z</time>
      </trkpt>
      <trkpt lat="42.90209" lon="0.13247">
        <ele>1818</ele>
        <time>2012-12-16T10:11:23Z</time>
      </trkpt>
      <trkpt lat="42.90208" lon="0.13248">
        <ele>1818</ele>
        <time>2012-12-16T10:11:23Z</time>
      </trkpt>
      <trkpt lat="42.90205" lon="0.1325">
        <ele>1818</ele>
        <time>2012-12-16T10:11:27Z</time>
      </trkpt>
      <trkpt lat="42.90204" lon="0.13251">
        <ele>1818</ele>
        <time>2012-12-16T10:11:28Z</time>
      </trkpt>
      <trkpt lat="42.90201" lon="0.13253">
        <ele>1818</ele>
        <time>2012-12-16T10:11:32Z</time>
      </trkpt>
      <trkpt lat="42.90199" lon="0.13254">
        <ele>1818</ele>
        <time>2012-12-16T10:11:37Z</time>
      </trkpt>
      <trkpt lat="42.90197" lon="0.13255">
        <ele>1818</ele>
        <time>2012-12-16T10:11:37Z</time>
      </trkpt>
      <trkpt lat="42.90195" lon="0.13257">
        <ele>1818</ele>
        <time>2012-12-16T10:11:42Z</time>
      </trkpt>
      <trkpt lat="42.90194" lon="0.13258">
        <ele>1818</ele>
        <time>2012-12-16T10:11:42Z</time>
      </trkpt>
      <trkpt lat="42.90192" lon="0.13259">
        <ele>1818</ele>
        <time>2012-12-16T10:11:46Z</time>
      </trkpt>
      <trkpt lat="42.90191" lon="0.13261">
        <ele>1819</ele>
        <time>2012-12-16T10:11:47Z</time>
      </trkpt>
      <trkpt lat="42.90187" lon="0.13263">
        <ele>1819</ele>
        <time>2012-12-16T10:11:53Z</time>
      </trkpt>
      <trkpt lat="42.90186" lon="0.13263">
        <ele>1820</ele>
        <time>2012-12-16T10:12:00Z</time>
      </trkpt>
      <trkpt lat="42.90184" lon="0.13266">
        <ele>1820</ele>
        <time>2012-12-16T10:12:05Z</time>
      </trkpt>
      <trkpt lat="42.90183" lon="0.13267">
        <ele>1822</ele>
        <time>2012-12-16T10:12:57Z</time>
      </trkpt>
      <trkpt lat="42.90182" lon="0.13268">
        <ele>1822</ele>
        <time>2012-12-16T10:12:59Z</time>
      </trkpt>
      <trkpt lat="42.90181" lon="0.1327">
        <ele>1823</ele>
        <time>2012-12-16T10:13:03Z</time>
      </trkpt>
      <trkpt lat="42.90181" lon="0.13272">
        <ele>1823</ele>
        <time>2012-12-16T10:13:05Z</time>
      </trkpt>
      <trkpt lat="42.90181" lon="0.13277">
        <ele>1824</ele>
        <time>2012-12-16T10:13:09Z</time>
      </trkpt>
      <trkpt lat="42.90181" lon="0.13278">
        <ele>1824</ele>
        <time>2012-12-16T10:13:11Z</time>
      </trkpt>
      <trkpt lat="42.90181" lon="0.13281">
        <ele>1825</ele>
        <time>2012-12-16T10:13:16Z</time>
      </trkpt>
      <trkpt lat="42.90181" lon="0.13282">
        <ele>1826</ele>
        <time>2012-12-16T10:13:17Z</time>
      </trkpt>
      <trkpt lat="42.90181" lon="0.13284">
        <ele>1826</ele>
        <time>2012-12-16T10:13:21Z</time>
      </trkpt>
      <trkpt lat="42.90179" lon="0.13284">
        <ele>1827</ele>
        <time>2012-12-16T10:13:24Z</time>
      </trkpt>
      <trkpt lat="42.90178" lon="0.13283">
        <ele>1828</ele>
        <time>2012-12-16T10:13:28Z</time>
      </trkpt>
      <trkpt lat="42.90176" lon="0.13282">
        <ele>1828</ele>
        <time>2012-12-16T10:13:30Z</time>
      </trkpt>
      <trkpt lat="42.90174" lon="0.13281">
        <ele>1828</ele>
        <time>2012-12-16T10:13:34Z</time>
      </trkpt>
      <trkpt lat="42.90173" lon="0.13281">
        <ele>1828</ele>
        <time>2012-12-16T10:13:34Z</time>
      </trkpt>
      <trkpt lat="42.90172" lon="0.13282">
        <ele>1828</ele>
        <time>2012-12-16T10:13:37Z</time>
      </trkpt>
      <trkpt lat="42.90172" lon="0.13284">
        <ele>1828</ele>
        <time>2012-12-16T10:13:42Z</time>
      </trkpt>
      <trkpt lat="42.90173" lon="0.13286">
        <ele>1828</ele>
        <time>2012-12-16T10:13:42Z</time>
      </trkpt>
      <trkpt lat="42.90173" lon="0.13288">
        <ele>1828</ele>
        <time>2012-12-16T10:13:44Z</time>
      </trkpt>
      <trkpt lat="42.90172" lon="0.1329">
        <ele>1829</ele>
        <time>2012-12-16T10:13:49Z</time>
      </trkpt>
      <trkpt lat="42.9017" lon="0.1329">
        <ele>1830</ele>
        <time>2012-12-16T10:13:56Z</time>
      </trkpt>
      <trkpt lat="42.90168" lon="0.13288">
        <ele>1830</ele>
        <time>2012-12-16T10:14:01Z</time>
      </trkpt>
      <trkpt lat="42.90167" lon="0.13287">
        <ele>1831</ele>
        <time>2012-12-16T10:14:02Z</time>
      </trkpt>
      <trkpt lat="42.90165" lon="0.13285">
        <ele>1831</ele>
        <time>2012-12-16T10:14:08Z</time>
      </trkpt>
      <trkpt lat="42.90163" lon="0.13284">
        <ele>1831</ele>
        <time>2012-12-16T10:14:09Z</time>
      </trkpt>
      <trkpt lat="42.90162" lon="0.13282">
        <ele>1832</ele>
        <time>2012-12-16T10:14:14Z</time>
      </trkpt>
      <trkpt lat="42.9016" lon="0.13281">
        <ele>1832</ele>
        <time>2012-12-16T10:14:15Z</time>
      </trkpt>
      <trkpt lat="42.90159" lon="0.13281">
        <ele>1833</ele>
        <time>2012-12-16T10:14:18Z</time>
      </trkpt>
      <trkpt lat="42.90157" lon="0.1328">
        <ele>1833</ele>
        <time>2012-12-16T10:14:23Z</time>
      </trkpt>
      <trkpt lat="42.90156" lon="0.13279">
        <ele>1833</ele>
        <time>2012-12-16T10:14:24Z</time>
      </trkpt>
      <trkpt lat="42.90154" lon="0.13279">
        <ele>1834</ele>
        <time>2012-12-16T10:14:26Z</time>
      </trkpt>
      <trkpt lat="42.90153" lon="0.13278">
        <ele>1834</ele>
        <time>2012-12-16T10:14:30Z</time>
      </trkpt>
      <trkpt lat="42.90151" lon="0.13278">
        <ele>1834</ele>
        <time>2012-12-16T10:14:31Z</time>
      </trkpt>
      <trkpt lat="42.9015" lon="0.13278">
        <ele>1835</ele>
        <time>2012-12-16T10:14:32Z</time>
      </trkpt>
      <trkpt lat="42.9015" lon="0.13281">
        <ele>1836</ele>
        <time>2012-12-16T10:14:37Z</time>
      </trkpt>
      <trkpt lat="42.90151" lon="0.13283">
        <ele>1837</ele>
        <time>2012-12-16T10:14:39Z</time>
      </trkpt>
      <trkpt lat="42.90151" lon="0.13284">
        <ele>1838</ele>
        <time>2012-12-16T10:14:45Z</time>
      </trkpt>
      <trkpt lat="42.90151" lon="0.13286">
        <ele>1838</ele>
        <time>2012-12-16T10:14:46Z</time>
      </trkpt>
      <trkpt lat="42.90151" lon="0.13288">
        <ele>1839</ele>
        <time>2012-12-16T10:14:47Z</time>
      </trkpt>
      <trkpt lat="42.90151" lon="0.1329">
        <ele>1839</ele>
        <time>2012-12-16T10:14:52Z</time>
      </trkpt>
      <trkpt lat="42.90151" lon="0.13292">
        <ele>1839</ele>
        <time>2012-12-16T10:14:53Z</time>
      </trkpt>
      <trkpt lat="42.90151" lon="0.13294">
        <ele>1839</ele>
        <time>2012-12-16T10:14:59Z</time>
      </trkpt>
      <trkpt lat="42.90151" lon="0.13296">
        <ele>1839</ele>
        <time>2012-12-16T10:15:00Z</time>
      </trkpt>
      <trkpt lat="42.90151" lon="0.13298">
        <ele>1840</ele>
        <time>2012-12-16T10:15:03Z</time>
      </trkpt>
      <trkpt lat="42.90151" lon="0.13299">
        <ele>1840</ele>
        <time>2012-12-16T10:15:07Z</time>
      </trkpt>
      <trkpt lat="42.90151" lon="0.13302">
        <ele>1840</ele>
        <time>2012-12-16T10:15:08Z</time>
      </trkpt>
      <trkpt lat="42.90151" lon="0.13304">
        <ele>1841</ele>
        <time>2012-12-16T10:15:13Z</time>
      </trkpt>
      <trkpt lat="42.90151" lon="0.13306">
        <ele>1841</ele>
        <time>2012-12-16T10:15:14Z</time>
      </trkpt>
      <trkpt lat="42.90151" lon="0.13308">
        <ele>1842</ele>
        <time>2012-12-16T10:15:16Z</time>
      </trkpt>
      <trkpt lat="42.90151" lon="0.13311">
        <ele>1842</ele>
        <time>2012-12-16T10:15:22Z</time>
      </trkpt>
      <trkpt lat="42.90152" lon="0.13312">
        <ele>1843</ele>
        <time>2012-12-16T10:15:24Z</time>
      </trkpt>
      <trkpt lat="42.90152" lon="0.13314">
        <ele>1843</ele>
        <time>2012-12-16T10:15:28Z</time>
      </trkpt>
      <trkpt lat="42.90152" lon="0.13316">
        <ele>1843</ele>
        <time>2012-12-16T10:15:29Z</time>
      </trkpt>
      <trkpt lat="42.90152" lon="0.13319">
        <ele>1844</ele>
        <time>2012-12-16T10:15:33Z</time>
      </trkpt>
      <trkpt lat="42.90152" lon="0.13322">
        <ele>1845</ele>
        <time>2012-12-16T10:15:37Z</time>
      </trkpt>
      <trkpt lat="42.90152" lon="0.13325">
        <ele>1846</ele>
        <time>2012-12-16T10:15:41Z</time>
      </trkpt>
      <trkpt lat="42.90152" lon="0.13326">
        <ele>1846</ele>
        <time>2012-12-16T10:15:45Z</time>
      </trkpt>
      <trkpt lat="42.90152" lon="0.13328">
        <ele>1846</ele>
        <time>2012-12-16T10:15:45Z</time>
      </trkpt>
      <trkpt lat="42.90152" lon="0.1333">
        <ele>1847</ele>
        <time>2012-12-16T10:15:47Z</time>
      </trkpt>
      <trkpt lat="42.90152" lon="0.13331">
        <ele>1847</ele>
        <time>2012-12-16T10:15:52Z</time>
      </trkpt>
      <trkpt lat="42.90152" lon="0.13334">
        <ele>1848</ele>
        <time>2012-12-16T10:15:53Z</time>
      </trkpt>
      <trkpt lat="42.90152" lon="0.13336">
        <ele>1848</ele>
        <time>2012-12-16T10:15:55Z</time>
      </trkpt>
      <trkpt lat="42.90153" lon="0.13338">
        <ele>1849</ele>
        <time>2012-12-16T10:16:00Z</time>
      </trkpt>
      <trkpt lat="42.90153" lon="0.1334">
        <ele>1849</ele>
        <time>2012-12-16T10:16:00Z</time>
      </trkpt>
      <trkpt lat="42.90153" lon="0.13342">
        <ele>1850</ele>
        <time>2012-12-16T10:16:06Z</time>
      </trkpt>
      <trkpt lat="42.90153" lon="0.13344">
        <ele>1850</ele>
        <time>2012-12-16T10:16:07Z</time>
      </trkpt>
      <trkpt lat="42.90153" lon="0.13346">
        <ele>1851</ele>
        <time>2012-12-16T10:16:09Z</time>
      </trkpt>
      <trkpt lat="42.90152" lon="0.13346">
        <ele>1852</ele>
        <time>2012-12-16T10:16:17Z</time>
      </trkpt>
      <trkpt lat="42.9015" lon="0.13343">
        <ele>1852</ele>
        <time>2012-12-16T10:16:22Z</time>
      </trkpt>
      <trkpt lat="42.90149" lon="0.13342">
        <ele>1853</ele>
        <time>2012-12-16T10:16:24Z</time>
      </trkpt>
      <trkpt lat="42.90148" lon="0.13341">
        <ele>1854</ele>
        <time>2012-12-16T10:16:28Z</time>
      </trkpt>
      <trkpt lat="42.90146" lon="0.1334">
        <ele>1854</ele>
        <time>2012-12-16T10:16:29Z</time>
      </trkpt>
      <trkpt lat="42.90144" lon="0.13338">
        <ele>1855</ele>
        <time>2012-12-16T10:16:32Z</time>
      </trkpt>
      <trkpt lat="42.90143" lon="0.13337">
        <ele>1856</ele>
        <time>2012-12-16T10:16:33Z</time>
      </trkpt>
      <trkpt lat="42.9014" lon="0.13337">
        <ele>1857</ele>
        <time>2012-12-16T10:16:39Z</time>
      </trkpt>
      <trkpt lat="42.90138" lon="0.13337">
        <ele>1858</ele>
        <time>2012-12-16T10:16:46Z</time>
      </trkpt>
      <trkpt lat="42.90137" lon="0.13336">
        <ele>1858</ele>
        <time>2012-12-16T10:16:46Z</time>
      </trkpt>
      <trkpt lat="42.90136" lon="0.13336">
        <ele>1859</ele>
        <time>2012-12-16T10:16:52Z</time>
      </trkpt>
      <trkpt lat="42.90134" lon="0.13336">
        <ele>1860</ele>
        <time>2012-12-16T10:16:53Z</time>
      </trkpt>
      <trkpt lat="42.90133" lon="0.13335">
        <ele>1861</ele>
        <time>2012-12-16T10:16:59Z</time>
      </trkpt>
      <trkpt lat="42.90131" lon="0.13335">
        <ele>1861</ele>
        <time>2012-12-16T10:17:00Z</time>
      </trkpt>
      <trkpt lat="42.9013" lon="0.13335">
        <ele>1862</ele>
        <time>2012-12-16T10:17:05Z</time>
      </trkpt>
      <trkpt lat="42.90129" lon="0.13335">
        <ele>1862</ele>
        <time>2012-12-16T10:17:06Z</time>
      </trkpt>
      <trkpt lat="42.90128" lon="0.13334">
        <ele>1863</ele>
        <time>2012-12-16T10:17:09Z</time>
      </trkpt>
      <trkpt lat="42.90126" lon="0.13334">
        <ele>1863</ele>
        <time>2012-12-16T10:17:12Z</time>
      </trkpt>
      <trkpt lat="42.90124" lon="0.13333">
        <ele>1863</ele>
        <time>2012-12-16T10:17:16Z</time>
      </trkpt>
      <trkpt lat="42.90123" lon="0.13333">
        <ele>1864</ele>
        <time>2012-12-16T10:17:21Z</time>
      </trkpt>
      <trkpt lat="42.90121" lon="0.13332">
        <ele>1864</ele>
        <time>2012-12-16T10:17:27Z</time>
      </trkpt>
      <trkpt lat="42.90119" lon="0.13332">
        <ele>1865</ele>
        <time>2012-12-16T10:17:28Z</time>
      </trkpt>
      <trkpt lat="42.90117" lon="0.13331">
        <ele>1865</ele>
        <time>2012-12-16T10:17:33Z</time>
      </trkpt>
      <trkpt lat="42.90115" lon="0.13331">
        <ele>1866</ele>
        <time>2012-12-16T10:17:37Z</time>
      </trkpt>
      <trkpt lat="42.90113" lon="0.1333">
        <ele>1867</ele>
        <time>2012-12-16T10:17:42Z</time>
      </trkpt>
      <trkpt lat="42.90112" lon="0.13329">
        <ele>1867</ele>
        <time>2012-12-16T10:17:47Z</time>
      </trkpt>
      <trkpt lat="42.9011" lon="0.13329">
        <ele>1867</ele>
        <time>2012-12-16T10:17:50Z</time>
      </trkpt>
      <trkpt lat="42.90108" lon="0.13328">
        <ele>1868</ele>
        <time>2012-12-16T10:17:55Z</time>
      </trkpt>
      <trkpt lat="42.90106" lon="0.13327">
        <ele>1869</ele>
        <time>2012-12-16T10:18:02Z</time>
      </trkpt>
      <trkpt lat="42.90105" lon="0.13326">
        <ele>1869</ele>
        <time>2012-12-16T10:18:03Z</time>
      </trkpt>
      <trkpt lat="42.90103" lon="0.13325">
        <ele>1870</ele>
        <time>2012-12-16T10:18:08Z</time>
      </trkpt>
      <trkpt lat="42.90102" lon="0.13324">
        <ele>1870</ele>
        <time>2012-12-16T10:18:10Z</time>
      </trkpt>
      <trkpt lat="42.901" lon="0.13323">
        <ele>1870</ele>
        <time>2012-12-16T10:18:15Z</time>
      </trkpt>
      <trkpt lat="42.90099" lon="0.13323">
        <ele>1870</ele>
        <time>2012-12-16T10:18:18Z</time>
      </trkpt>
      <trkpt lat="42.90097" lon="0.13322">
        <ele>1871</ele>
        <time>2012-12-16T10:18:21Z</time>
      </trkpt>
      <trkpt lat="42.90096" lon="0.13321">
        <ele>1871</ele>
        <time>2012-12-16T10:18:23Z</time>
      </trkpt>
      <trkpt lat="42.90096" lon="0.13323">
        <ele>1872</ele>
        <time>2012-12-16T10:18:28Z</time>
      </trkpt>
      <trkpt lat="42.90096" lon="0.13325">
        <ele>1872</ele>
        <time>2012-12-16T10:18:28Z</time>
      </trkpt>
      <trkpt lat="42.90096" lon="0.13326">
        <ele>1873</ele>
        <time>2012-12-16T10:18:30Z</time>
      </trkpt>
      <trkpt lat="42.90096" lon="0.13329">
        <ele>1873</ele>
        <time>2012-12-16T10:18:34Z</time>
      </trkpt>
      <trkpt lat="42.90097" lon="0.1333">
        <ele>1873</ele>
        <time>2012-12-16T10:18:37Z</time>
      </trkpt>
      <trkpt lat="42.90097" lon="0.13333">
        <ele>1873</ele>
        <time>2012-12-16T10:18:40Z</time>
      </trkpt>
      <trkpt lat="42.90097" lon="0.13335">
        <ele>1873</ele>
        <time>2012-12-16T10:18:43Z</time>
      </trkpt>
      <trkpt lat="42.90097" lon="0.13337">
        <ele>1873</ele>
        <time>2012-12-16T10:18:47Z</time>
      </trkpt>
      <trkpt lat="42.90098" lon="0.13339">
        <ele>1874</ele>
        <time>2012-12-16T10:18:47Z</time>
      </trkpt>
      <trkpt lat="42.90098" lon="0.1334">
        <ele>1874</ele>
        <time>2012-12-16T10:18:50Z</time>
      </trkpt>
      <trkpt lat="42.90098" lon="0.13343">
        <ele>1874</ele>
        <time>2012-12-16T10:18:54Z</time>
      </trkpt>
      <trkpt lat="42.90099" lon="0.13345">
        <ele>1874</ele>
        <time>2012-12-16T10:18:57Z</time>
      </trkpt>
      <trkpt lat="42.90099" lon="0.13346">
        <ele>1874</ele>
        <time>2012-12-16T10:18:58Z</time>
      </trkpt>
      <trkpt lat="42.90099" lon="0.13349">
        <ele>1874</ele>
        <time>2012-12-16T10:19:03Z</time>
      </trkpt>
      <trkpt lat="42.90099" lon="0.1335">
        <ele>1874</ele>
        <time>2012-12-16T10:19:05Z</time>
      </trkpt>
      <trkpt lat="42.90099" lon="0.13352">
        <ele>1875</ele>
        <time>2012-12-16T10:19:06Z</time>
      </trkpt>
      <trkpt lat="42.90099" lon="0.13354">
        <ele>1875</ele>
        <time>2012-12-16T10:19:09Z</time>
      </trkpt>
      <trkpt lat="42.90099" lon="0.13357">
        <ele>1875</ele>
        <time>2012-12-16T10:19:14Z</time>
      </trkpt>
      <trkpt lat="42.901" lon="0.13359">
        <ele>1876</ele>
        <time>2012-12-16T10:19:16Z</time>
      </trkpt>
      <trkpt lat="42.901" lon="0.13361">
        <ele>1876</ele>
        <time>2012-12-16T10:19:21Z</time>
      </trkpt>
      <trkpt lat="42.901" lon="0.13362">
        <ele>1876</ele>
        <time>2012-12-16T10:19:22Z</time>
      </trkpt>
      <trkpt lat="42.90101" lon="0.13364">
        <ele>1876</ele>
        <time>2012-12-16T10:19:26Z</time>
      </trkpt>
      <trkpt lat="42.90101" lon="0.13366">
        <ele>1877</ele>
        <time>2012-12-16T10:19:27Z</time>
      </trkpt>
      <trkpt lat="42.90101" lon="0.13367">
        <ele>1877</ele>
        <time>2012-12-16T10:19:29Z</time>
      </trkpt>
      <trkpt lat="42.90101" lon="0.13371">
        <ele>1877</ele>
        <time>2012-12-16T10:19:32Z</time>
      </trkpt>
      <trkpt lat="42.90102" lon="0.13373">
        <ele>1878</ele>
        <time>2012-12-16T10:19:35Z</time>
      </trkpt>
      <trkpt lat="42.90102" lon="0.13375">
        <ele>1879</ele>
        <time>2012-12-16T10:19:39Z</time>
      </trkpt>
      <trkpt lat="42.90102" lon="0.13377">
        <ele>1879</ele>
        <time>2012-12-16T10:19:42Z</time>
      </trkpt>
      <trkpt lat="42.90101" lon="0.13379">
        <ele>1879</ele>
        <time>2012-12-16T10:19:46Z</time>
      </trkpt>
      <trkpt lat="42.901" lon="0.13381">
        <ele>1880</ele>
        <time>2012-12-16T10:19:50Z</time>
      </trkpt>
      <trkpt lat="42.90099" lon="0.13383">
        <ele>1880</ele>
        <time>2012-12-16T10:19:56Z</time>
      </trkpt>
      <trkpt lat="42.90098" lon="0.13384">
        <ele>1881</ele>
        <time>2012-12-16T10:20:01Z</time>
      </trkpt>
      <trkpt lat="42.90097" lon="0.13383">
        <ele>1881</ele>
        <time>2012-12-16T10:20:02Z</time>
      </trkpt>
      <trkpt lat="42.90094" lon="0.13382">
        <ele>1882</ele>
        <time>2012-12-16T10:20:07Z</time>
      </trkpt>
      <trkpt lat="42.90093" lon="0.1338">
        <ele>1882</ele>
        <time>2012-12-16T10:20:13Z</time>
      </trkpt>
      <trkpt lat="42.90091" lon="0.13379">
        <ele>1882</ele>
        <time>2012-12-16T10:20:15Z</time>
      </trkpt>
      <trkpt lat="42.9009" lon="0.13378">
        <ele>1883</ele>
        <time>2012-12-16T10:20:18Z</time>
      </trkpt>
      <trkpt lat="42.90089" lon="0.13377">
        <ele>1884</ele>
        <time>2012-12-16T10:20:21Z</time>
      </trkpt>
      <trkpt lat="42.90087" lon="0.13376">
        <ele>1884</ele>
        <time>2012-12-16T10:20:23Z</time>
      </trkpt>
      <trkpt lat="42.90086" lon="0.13375">
        <ele>1885</ele>
        <time>2012-12-16T10:20:27Z</time>
      </trkpt>
      <trkpt lat="42.90085" lon="0.13374">
        <ele>1885</ele>
        <time>2012-12-16T10:20:30Z</time>
      </trkpt>
      <trkpt lat="42.90083" lon="0.13374">
        <ele>1886</ele>
        <time>2012-12-16T10:20:32Z</time>
      </trkpt>
      <trkpt lat="42.90082" lon="0.13372">
        <ele>1886</ele>
        <time>2012-12-16T10:20:36Z</time>
      </trkpt>
      <trkpt lat="42.9008" lon="0.1337">
        <ele>1887</ele>
        <time>2012-12-16T10:20:42Z</time>
      </trkpt>
      <trkpt lat="42.90079" lon="0.13369">
        <ele>1887</ele>
        <time>2012-12-16T10:20:43Z</time>
      </trkpt>
      <trkpt lat="42.90077" lon="0.13367">
        <ele>1888</ele>
        <time>2012-12-16T10:20:48Z</time>
      </trkpt>
      <trkpt lat="42.90076" lon="0.13365">
        <ele>1889</ele>
        <time>2012-12-16T10:20:50Z</time>
      </trkpt>
      <trkpt lat="42.90075" lon="0.13364">
        <ele>1889</ele>
        <time>2012-12-16T10:20:55Z</time>
      </trkpt>
      <trkpt lat="42.90073" lon="0.13363">
        <ele>1889</ele>
        <time>2012-12-16T10:21:00Z</time>
      </trkpt>
      <trkpt lat="42.90072" lon="0.13362">
        <ele>1889</ele>
        <time>2012-12-16T10:21:01Z</time>
      </trkpt>
      <trkpt lat="42.90071" lon="0.13361">
        <ele>1890</ele>
        <time>2012-12-16T10:21:06Z</time>
      </trkpt>
      <trkpt lat="42.9007" lon="0.1336">
        <ele>1891</ele>
        <time>2012-12-16T10:21:08Z</time>
      </trkpt>
      <trkpt lat="42.90068" lon="0.13359">
        <ele>1891</ele>
        <time>2012-12-16T10:21:11Z</time>
      </trkpt>
      <trkpt lat="42.90067" lon="0.13358">
        <ele>1891</ele>
        <time>2012-12-16T10:21:13Z</time>
      </trkpt>
      <trkpt lat="42.90065" lon="0.13356">
        <ele>1892</ele>
        <time>2012-12-16T10:21:17Z</time>
      </trkpt>
      <trkpt lat="42.90063" lon="0.13355">
        <ele>1892</ele>
        <time>2012-12-16T10:21:22Z</time>
      </trkpt>
      <trkpt lat="42.90062" lon="0.13354">
        <ele>1893</ele>
        <time>2012-12-16T10:21:25Z</time>
      </trkpt>
      <trkpt lat="42.9006" lon="0.13353">
        <ele>1893</ele>
        <time>2012-12-16T10:21:30Z</time>
      </trkpt>
      <trkpt lat="42.90059" lon="0.13352">
        <ele>1894</ele>
        <time>2012-12-16T10:21:32Z</time>
      </trkpt>
      <trkpt lat="42.90057" lon="0.13351">
        <ele>1894</ele>
        <time>2012-12-16T10:21:35Z</time>
      </trkpt>
      <trkpt lat="42.90056" lon="0.1335">
        <ele>1894</ele>
        <time>2012-12-16T10:21:38Z</time>
      </trkpt>
      <trkpt lat="42.90054" lon="0.13349">
        <ele>1895</ele>
        <time>2012-12-16T10:21:42Z</time>
      </trkpt>
      <trkpt lat="42.90053" lon="0.13348">
        <ele>1895</ele>
        <time>2012-12-16T10:21:44Z</time>
      </trkpt>
      <trkpt lat="42.90052" lon="0.13347">
        <ele>1896</ele>
        <time>2012-12-16T10:21:48Z</time>
      </trkpt>
      <trkpt lat="42.90051" lon="0.13347">
        <ele>1896</ele>
        <time>2012-12-16T10:21:49Z</time>
      </trkpt>
      <trkpt lat="42.90051" lon="0.1335">
        <ele>1897</ele>
        <time>2012-12-16T10:21:55Z</time>
      </trkpt>
      <trkpt lat="42.90051" lon="0.13352">
        <ele>1897</ele>
        <time>2012-12-16T10:21:57Z</time>
      </trkpt>
      <trkpt lat="42.90051" lon="0.13353">
        <ele>1898</ele>
        <time>2012-12-16T10:22:01Z</time>
      </trkpt>
      <trkpt lat="42.90051" lon="0.13355">
        <ele>1898</ele>
        <time>2012-12-16T10:22:03Z</time>
      </trkpt>
      <trkpt lat="42.90051" lon="0.13357">
        <ele>1899</ele>
        <time>2012-12-16T10:22:07Z</time>
      </trkpt>
      <trkpt lat="42.90052" lon="0.13359">
        <ele>1899</ele>
        <time>2012-12-16T10:22:09Z</time>
      </trkpt>
      <trkpt lat="42.90052" lon="0.13361">
        <ele>1900</ele>
        <time>2012-12-16T10:22:13Z</time>
      </trkpt>
      <trkpt lat="42.90052" lon="0.13362">
        <ele>1900</ele>
        <time>2012-12-16T10:22:14Z</time>
      </trkpt>
      <trkpt lat="42.90052" lon="0.13365">
        <ele>1900</ele>
        <time>2012-12-16T10:22:19Z</time>
      </trkpt>
      <trkpt lat="42.90052" lon="0.13366">
        <ele>1901</ele>
        <time>2012-12-16T10:22:21Z</time>
      </trkpt>
      <trkpt lat="42.90052" lon="0.13369">
        <ele>1901</ele>
        <time>2012-12-16T10:22:25Z</time>
      </trkpt>
      <trkpt lat="42.90053" lon="0.13371">
        <ele>1902</ele>
        <time>2012-12-16T10:22:31Z</time>
      </trkpt>
      <trkpt lat="42.90053" lon="0.13373">
        <ele>1902</ele>
        <time>2012-12-16T10:22:33Z</time>
      </trkpt>
      <trkpt lat="42.90053" lon="0.13376">
        <ele>1903</ele>
        <time>2012-12-16T10:22:38Z</time>
      </trkpt>
      <trkpt lat="42.90053" lon="0.13377">
        <ele>1903</ele>
        <time>2012-12-16T10:22:40Z</time>
      </trkpt>
      <trkpt lat="42.90053" lon="0.1338">
        <ele>1903</ele>
        <time>2012-12-16T10:22:43Z</time>
      </trkpt>
      <trkpt lat="42.90053" lon="0.13382">
        <ele>1904</ele>
        <time>2012-12-16T10:22:46Z</time>
      </trkpt>
      <trkpt lat="42.90052" lon="0.13384">
        <ele>1904</ele>
        <time>2012-12-16T10:22:50Z</time>
      </trkpt>
      <trkpt lat="42.90052" lon="0.13385">
        <ele>1905</ele>
        <time>2012-12-16T10:22:53Z</time>
      </trkpt>
      <trkpt lat="42.90052" lon="0.13388">
        <ele>1905</ele>
        <time>2012-12-16T10:22:57Z</time>
      </trkpt>
      <trkpt lat="42.90052" lon="0.13389">
        <ele>1906</ele>
        <time>2012-12-16T10:22:58Z</time>
      </trkpt>
      <trkpt lat="42.90052" lon="0.13391">
        <ele>1906</ele>
        <time>2012-12-16T10:23:01Z</time>
      </trkpt>
      <trkpt lat="42.90052" lon="0.13393">
        <ele>1906</ele>
        <time>2012-12-16T10:23:04Z</time>
      </trkpt>
      <trkpt lat="42.90051" lon="0.13395">
        <ele>1907</ele>
        <time>2012-12-16T10:23:08Z</time>
      </trkpt>
      <trkpt lat="42.90051" lon="0.13397">
        <ele>1907</ele>
        <time>2012-12-16T10:23:10Z</time>
      </trkpt>
      <trkpt lat="42.90051" lon="0.134">
        <ele>1908</ele>
        <time>2012-12-16T10:23:13Z</time>
      </trkpt>
      <trkpt lat="42.90051" lon="0.13401">
        <ele>1908</ele>
        <time>2012-12-16T10:23:15Z</time>
      </trkpt>
      <trkpt lat="42.90051" lon="0.13404">
        <ele>1909</ele>
        <time>2012-12-16T10:23:20Z</time>
      </trkpt>
      <trkpt lat="42.90051" lon="0.13406">
        <ele>1909</ele>
        <time>2012-12-16T10:23:23Z</time>
      </trkpt>
      <trkpt lat="42.90051" lon="0.13408">
        <ele>1909</ele>
        <time>2012-12-16T10:23:26Z</time>
      </trkpt>
      <trkpt lat="42.90051" lon="0.13409">
        <ele>1910</ele>
        <time>2012-12-16T10:23:28Z</time>
      </trkpt>
      <trkpt lat="42.9005" lon="0.13411">
        <ele>1911</ele>
        <time>2012-12-16T10:23:35Z</time>
      </trkpt>
      <trkpt lat="42.90049" lon="0.13409">
        <ele>1911</ele>
        <time>2012-12-16T10:23:48Z</time>
      </trkpt>
      <trkpt lat="42.90048" lon="0.13408">
        <ele>1911</ele>
        <time>2012-12-16T10:23:51Z</time>
      </trkpt>
      <trkpt lat="42.90047" lon="0.13406">
        <ele>1911</ele>
        <time>2012-12-16T10:23:54Z</time>
      </trkpt>
      <trkpt lat="42.90045" lon="0.13404">
        <ele>1911</ele>
        <time>2012-12-16T10:23:58Z</time>
      </trkpt>
      <trkpt lat="42.90044" lon="0.13404">
        <ele>1911</ele>
        <time>2012-12-16T10:24:01Z</time>
      </trkpt>
      <trkpt lat="42.90043" lon="0.13402">
        <ele>1911</ele>
        <time>2012-12-16T10:24:05Z</time>
      </trkpt>
      <trkpt lat="42.90041" lon="0.134">
        <ele>1911</ele>
        <time>2012-12-16T10:24:10Z</time>
      </trkpt>
      <trkpt lat="42.9004" lon="0.13398">
        <ele>1911</ele>
        <time>2012-12-16T10:24:16Z</time>
      </trkpt>
      <trkpt lat="42.90039" lon="0.13396">
        <ele>1911</ele>
        <time>2012-12-16T10:24:17Z</time>
      </trkpt>
      <trkpt lat="42.90037" lon="0.13395">
        <ele>1911</ele>
        <time>2012-12-16T10:24:22Z</time>
      </trkpt>
      <trkpt lat="42.90036" lon="0.13393">
        <ele>1911</ele>
        <time>2012-12-16T10:24:24Z</time>
      </trkpt>
      <trkpt lat="42.90034" lon="0.1339">
        <ele>1912</ele>
        <time>2012-12-16T10:24:28Z</time>
      </trkpt>
      <trkpt lat="42.90032" lon="0.13388">
        <ele>1912</ele>
        <time>2012-12-16T10:24:32Z</time>
      </trkpt>
      <trkpt lat="42.90031" lon="0.13386">
        <ele>1912</ele>
        <time>2012-12-16T10:24:34Z</time>
      </trkpt>
      <trkpt lat="42.9003" lon="0.13384">
        <ele>1913</ele>
        <time>2012-12-16T10:24:37Z</time>
      </trkpt>
      <trkpt lat="42.9003" lon="0.13383">
        <ele>1913</ele>
        <time>2012-12-16T10:24:39Z</time>
      </trkpt>
      <trkpt lat="42.90029" lon="0.13381">
        <ele>1913</ele>
        <time>2012-12-16T10:24:43Z</time>
      </trkpt>
      <trkpt lat="42.90028" lon="0.13379">
        <ele>1914</ele>
        <time>2012-12-16T10:24:45Z</time>
      </trkpt>
      <trkpt lat="42.90026" lon="0.13377">
        <ele>1915</ele>
        <time>2012-12-16T10:24:49Z</time>
      </trkpt>
      <trkpt lat="42.90024" lon="0.13376">
        <ele>1915</ele>
        <time>2012-12-16T10:24:51Z</time>
      </trkpt>
      <trkpt lat="42.90023" lon="0.13375">
        <ele>1916</ele>
        <time>2012-12-16T10:24:56Z</time>
      </trkpt>
      <trkpt lat="42.90022" lon="0.13374">
        <ele>1916</ele>
        <time>2012-12-16T10:24:57Z</time>
      </trkpt>
      <trkpt lat="42.9002" lon="0.13374">
        <ele>1917</ele>
        <time>2012-12-16T10:24:59Z</time>
      </trkpt>
      <trkpt lat="42.90018" lon="0.13373">
        <ele>1918</ele>
        <time>2012-12-16T10:25:03Z</time>
      </trkpt>
      <trkpt lat="42.90017" lon="0.13373">
        <ele>1918</ele>
        <time>2012-12-16T10:25:05Z</time>
      </trkpt>
      <trkpt lat="42.90016" lon="0.13372">
        <ele>1919</ele>
        <time>2012-12-16T10:25:09Z</time>
      </trkpt>
      <trkpt lat="42.90015" lon="0.13371">
        <ele>1919</ele>
        <time>2012-12-16T10:25:11Z</time>
      </trkpt>
      <trkpt lat="42.90013" lon="0.1337">
        <ele>1920</ele>
        <time>2012-12-16T10:25:13Z</time>
      </trkpt>
      <trkpt lat="42.90011" lon="0.13369">
        <ele>1921</ele>
        <time>2012-12-16T10:25:17Z</time>
      </trkpt>
      <trkpt lat="42.9001" lon="0.13369">
        <ele>1921</ele>
        <time>2012-12-16T10:25:19Z</time>
      </trkpt>
      <trkpt lat="42.90009" lon="0.13368">
        <ele>1921</ele>
        <time>2012-12-16T10:25:20Z</time>
      </trkpt>
      <trkpt lat="42.90008" lon="0.13368">
        <ele>1922</ele>
        <time>2012-12-16T10:25:23Z</time>
      </trkpt>
      <trkpt lat="42.90006" lon="0.13367">
        <ele>1922</ele>
        <time>2012-12-16T10:25:26Z</time>
      </trkpt>
      <trkpt lat="42.90005" lon="0.13367">
        <ele>1923</ele>
        <time>2012-12-16T10:25:29Z</time>
      </trkpt>
      <trkpt lat="42.90003" lon="0.13366">
        <ele>1923</ele>
        <time>2012-12-16T10:25:31Z</time>
      </trkpt>
      <trkpt lat="42.90001" lon="0.13365">
        <ele>1924</ele>
        <time>2012-12-16T10:25:35Z</time>
      </trkpt>
      <trkpt lat="42.89999" lon="0.13363">
        <ele>1924</ele>
        <time>2012-12-16T10:25:40Z</time>
      </trkpt>
      <trkpt lat="42.89998" lon="0.13361">
        <ele>1924</ele>
        <time>2012-12-16T10:25:46Z</time>
      </trkpt>
      <trkpt lat="42.89997" lon="0.13359">
        <ele>1924</ele>
        <time>2012-12-16T10:25:48Z</time>
      </trkpt>
      <trkpt lat="42.89997" lon="0.13357">
        <ele>1925</ele>
        <time>2012-12-16T10:25:50Z</time>
      </trkpt>
      <trkpt lat="42.89996" lon="0.13355">
        <ele>1925</ele>
        <time>2012-12-16T10:25:53Z</time>
      </trkpt>
      <trkpt lat="42.89996" lon="0.13354">
        <ele>1925</ele>
        <time>2012-12-16T10:25:54Z</time>
      </trkpt>
      <trkpt lat="42.89996" lon="0.13352">
        <ele>1925</ele>
        <time>2012-12-16T10:25:56Z</time>
      </trkpt>
      <trkpt lat="42.89996" lon="0.1335">
        <ele>1926</ele>
        <time>2012-12-16T10:25:57Z</time>
      </trkpt>
      <trkpt lat="42.89996" lon="0.13348">
        <ele>1927</ele>
        <time>2012-12-16T10:26:00Z</time>
      </trkpt>
      <trkpt lat="42.89996" lon="0.13346">
        <ele>1928</ele>
        <time>2012-12-16T10:26:02Z</time>
      </trkpt>
      <trkpt lat="42.89996" lon="0.13344">
        <ele>1928</ele>
        <time>2012-12-16T10:26:04Z</time>
      </trkpt>
      <trkpt lat="42.89996" lon="0.13342">
        <ele>1928</ele>
        <time>2012-12-16T10:26:06Z</time>
      </trkpt>
      <trkpt lat="42.89996" lon="0.13341">
        <ele>1929</ele>
        <time>2012-12-16T10:26:07Z</time>
      </trkpt>
      <trkpt lat="42.89997" lon="0.13339">
        <ele>1929</ele>
        <time>2012-12-16T10:26:09Z</time>
      </trkpt>
      <trkpt lat="42.89997" lon="0.13337">
        <ele>1930</ele>
        <time>2012-12-16T10:26:14Z</time>
      </trkpt>
      <trkpt lat="42.89997" lon="0.13334">
        <ele>1930</ele>
        <time>2012-12-16T10:26:16Z</time>
      </trkpt>
      <trkpt lat="42.89998" lon="0.13332">
        <ele>1930</ele>
        <time>2012-12-16T10:26:19Z</time>
      </trkpt>
      <trkpt lat="42.89998" lon="0.1333">
        <ele>1930</ele>
        <time>2012-12-16T10:26:22Z</time>
      </trkpt>
      <trkpt lat="42.89998" lon="0.13329">
        <ele>1930</ele>
        <time>2012-12-16T10:26:25Z</time>
      </trkpt>
      <trkpt lat="42.89999" lon="0.13326">
        <ele>1930</ele>
        <time>2012-12-16T10:26:27Z</time>
      </trkpt>
      <trkpt lat="42.89999" lon="0.13323">
        <ele>1931</ele>
        <time>2012-12-16T10:26:31Z</time>
      </trkpt>
      <trkpt lat="42.89999" lon="0.13321">
        <ele>1931</ele>
        <time>2012-12-16T10:26:34Z</time>
      </trkpt>
      <trkpt lat="42.89999" lon="0.13319">
        <ele>1931</ele>
        <time>2012-12-16T10:26:36Z</time>
      </trkpt>
      <trkpt lat="42.89999" lon="0.13318">
        <ele>1932</ele>
        <time>2012-12-16T10:26:38Z</time>
      </trkpt>
      <trkpt lat="42.89999" lon="0.13316">
        <ele>1932</ele>
        <time>2012-12-16T10:26:39Z</time>
      </trkpt>
      <trkpt lat="42.89999" lon="0.13315">
        <ele>1932</ele>
        <time>2012-12-16T10:26:41Z</time>
      </trkpt>
      <trkpt lat="42.89998" lon="0.13313">
        <ele>1932</ele>
        <time>2012-12-16T10:26:44Z</time>
      </trkpt>
      <trkpt lat="42.89997" lon="0.13313">
        <ele>1932</ele>
        <time>2012-12-16T10:26:48Z</time>
      </trkpt>
      <trkpt lat="42.89996" lon="0.13314">
        <ele>1932</ele>
        <time>2012-12-16T10:26:51Z</time>
      </trkpt>
      <trkpt lat="42.89996" lon="0.13316">
        <ele>1932</ele>
        <time>2012-12-16T10:26:54Z</time>
      </trkpt>
      <trkpt lat="42.89995" lon="0.13318">
        <ele>1932</ele>
        <time>2012-12-16T10:26:56Z</time>
      </trkpt>
      <trkpt lat="42.89994" lon="0.1332">
        <ele>1932</ele>
        <time>2012-12-16T10:27:00Z</time>
      </trkpt>
      <trkpt lat="42.89993" lon="0.13322">
        <ele>1933</ele>
        <time>2012-12-16T10:27:01Z</time>
      </trkpt>
      <trkpt lat="42.89992" lon="0.13323">
        <ele>1933</ele>
        <time>2012-12-16T10:27:05Z</time>
      </trkpt>
      <trkpt lat="42.8999" lon="0.13326">
        <ele>1934</ele>
        <time>2012-12-16T10:27:09Z</time>
      </trkpt>
      <trkpt lat="42.89989" lon="0.13328">
        <ele>1935</ele>
        <time>2012-12-16T10:27:11Z</time>
      </trkpt>
      <trkpt lat="42.89988" lon="0.13329">
        <ele>1936</ele>
        <time>2012-12-16T10:27:14Z</time>
      </trkpt>
      <trkpt lat="42.89987" lon="0.13331">
        <ele>1936</ele>
        <time>2012-12-16T10:27:18Z</time>
      </trkpt>
      <trkpt lat="42.89986" lon="0.13333">
        <ele>1937</ele>
        <time>2012-12-16T10:27:35Z</time>
      </trkpt>
      <trkpt lat="42.89986" lon="0.13331">
        <ele>1937</ele>
        <time>2012-12-16T10:27:45Z</time>
      </trkpt>
      <trkpt lat="42.89986" lon="0.13328">
        <ele>1937</ele>
        <time>2012-12-16T10:27:49Z</time>
      </trkpt>
      <trkpt lat="42.89986" lon="0.13326">
        <ele>1937</ele>
        <time>2012-12-16T10:27:53Z</time>
      </trkpt>
      <trkpt lat="42.89985" lon="0.13324">
        <ele>1937</ele>
        <time>2012-12-16T10:27:55Z</time>
      </trkpt>
      <trkpt lat="42.89984" lon="0.13322">
        <ele>1937</ele>
        <time>2012-12-16T10:27:58Z</time>
      </trkpt>
      <trkpt lat="42.89982" lon="0.1332">
        <ele>1938</ele>
        <time>2012-12-16T10:28:03Z</time>
      </trkpt>
      <trkpt lat="42.8998" lon="0.1332">
        <ele>1938</ele>
        <time>2012-12-16T10:28:05Z</time>
      </trkpt>
      <trkpt lat="42.89979" lon="0.1332">
        <ele>1938</ele>
        <time>2012-12-16T10:28:08Z</time>
      </trkpt>
      <trkpt lat="42.89978" lon="0.1332">
        <ele>1939</ele>
        <time>2012-12-16T10:28:08Z</time>
      </trkpt>
      <trkpt lat="42.89976" lon="0.1332">
        <ele>1939</ele>
        <time>2012-12-16T10:28:10Z</time>
      </trkpt>
      <trkpt lat="42.89975" lon="0.1332">
        <ele>1939</ele>
        <time>2012-12-16T10:28:12Z</time>
      </trkpt>
      <trkpt lat="42.89973" lon="0.13321">
        <ele>1939</ele>
        <time>2012-12-16T10:28:14Z</time>
      </trkpt>
      <trkpt lat="42.89972" lon="0.13321">
        <ele>1939</ele>
        <time>2012-12-16T10:28:16Z</time>
      </trkpt>
      <trkpt lat="42.89971" lon="0.13321">
        <ele>1939</ele>
        <time>2012-12-16T10:28:19Z</time>
      </trkpt>
      <trkpt lat="42.89969" lon="0.13321">
        <ele>1939</ele>
        <time>2012-12-16T10:28:21Z</time>
      </trkpt>
      <trkpt lat="42.89968" lon="0.13322">
        <ele>1940</ele>
        <time>2012-12-16T10:28:22Z</time>
      </trkpt>
      <trkpt lat="42.89966" lon="0.13322">
        <ele>1940</ele>
        <time>2012-12-16T10:28:26Z</time>
      </trkpt>
      <trkpt lat="42.89965" lon="0.13322">
        <ele>1940</ele>
        <time>2012-12-16T10:28:28Z</time>
      </trkpt>
      <trkpt lat="42.89963" lon="0.13322">
        <ele>1940</ele>
        <time>2012-12-16T10:28:33Z</time>
      </trkpt>
      <trkpt lat="42.89961" lon="0.13321">
        <ele>1940</ele>
        <time>2012-12-16T10:28:35Z</time>
      </trkpt>
      <trkpt lat="42.89959" lon="0.1332">
        <ele>1941</ele>
        <time>2012-12-16T10:28:39Z</time>
      </trkpt>
      <trkpt lat="42.89958" lon="0.13318">
        <ele>1941</ele>
        <time>2012-12-16T10:28:44Z</time>
      </trkpt>
      <trkpt lat="42.89957" lon="0.13317">
        <ele>1942</ele>
        <time>2012-12-16T10:28:46Z</time>
      </trkpt>
      <trkpt lat="42.89956" lon="0.13313">
        <ele>1942</ele>
        <time>2012-12-16T10:28:51Z</time>
      </trkpt>
      <trkpt lat="42.89955" lon="0.13311">
        <ele>1943</ele>
        <time>2012-12-16T10:28:57Z</time>
      </trkpt>
      <trkpt lat="42.89954" lon="0.13309">
        <ele>1943</ele>
        <time>2012-12-16T10:28:59Z</time>
      </trkpt>
      <trkpt lat="42.89953" lon="0.13308">
        <ele>1944</ele>
        <time>2012-12-16T10:29:03Z</time>
      </trkpt>
      <trkpt lat="42.89951" lon="0.13306">
        <ele>1944</ele>
        <time>2012-12-16T10:29:06Z</time>
      </trkpt>
      <trkpt lat="42.8995" lon="0.13306">
        <ele>1945</ele>
        <time>2012-12-16T10:29:07Z</time>
      </trkpt>
      <trkpt lat="42.89949" lon="0.13307">
        <ele>1945</ele>
        <time>2012-12-16T10:29:10Z</time>
      </trkpt>
      <trkpt lat="42.89948" lon="0.13307">
        <ele>1945</ele>
        <time>2012-12-16T10:29:11Z</time>
      </trkpt>
      <trkpt lat="42.89945" lon="0.13308">
        <ele>1946</ele>
        <time>2012-12-16T10:29:15Z</time>
      </trkpt>
      <trkpt lat="42.89944" lon="0.13309">
        <ele>1947</ele>
        <time>2012-12-16T10:29:17Z</time>
      </trkpt>
      <trkpt lat="42.89942" lon="0.13309">
        <ele>1948</ele>
        <time>2012-12-16T10:29:23Z</time>
      </trkpt>
      <trkpt lat="42.89941" lon="0.13307">
        <ele>1949</ele>
        <time>2012-12-16T10:29:25Z</time>
      </trkpt>
      <trkpt lat="42.89941" lon="0.13306">
        <ele>1949</ele>
        <time>2012-12-16T10:29:29Z</time>
      </trkpt>
      <trkpt lat="42.89942" lon="0.13304">
        <ele>1949</ele>
        <time>2012-12-16T10:29:30Z</time>
      </trkpt>
      <trkpt lat="42.89943" lon="0.13302">
        <ele>1950</ele>
        <time>2012-12-16T10:29:31Z</time>
      </trkpt>
      <trkpt lat="42.89943" lon="0.13299">
        <ele>1950</ele>
        <time>2012-12-16T10:29:35Z</time>
      </trkpt>
      <trkpt lat="42.89943" lon="0.13298">
        <ele>1951</ele>
        <time>2012-12-16T10:29:37Z</time>
      </trkpt>
      <trkpt lat="42.89944" lon="0.13296">
        <ele>1951</ele>
        <time>2012-12-16T10:29:41Z</time>
      </trkpt>
      <trkpt lat="42.89944" lon="0.13295">
        <ele>1951</ele>
        <time>2012-12-16T10:29:42Z</time>
      </trkpt>
      <trkpt lat="42.89943" lon="0.13293">
        <ele>1952</ele>
        <time>2012-12-16T10:29:44Z</time>
      </trkpt>
      <trkpt lat="42.89943" lon="0.13291">
        <ele>1952</ele>
        <time>2012-12-16T10:29:47Z</time>
      </trkpt>
      <trkpt lat="42.89942" lon="0.13289">
        <ele>1953</ele>
        <time>2012-12-16T10:29:49Z</time>
      </trkpt>
      <trkpt lat="42.89941" lon="0.13287">
        <ele>1954</ele>
        <time>2012-12-16T10:29:54Z</time>
      </trkpt>
      <trkpt lat="42.89939" lon="0.13286">
        <ele>1954</ele>
        <time>2012-12-16T10:29:56Z</time>
      </trkpt>
      <trkpt lat="42.89938" lon="0.13284">
        <ele>1954</ele>
        <time>2012-12-16T10:30:00Z</time>
      </trkpt>
      <trkpt lat="42.89936" lon="0.13283">
        <ele>1955</ele>
        <time>2012-12-16T10:30:05Z</time>
      </trkpt>
      <trkpt lat="42.89934" lon="0.13282">
        <ele>1955</ele>
        <time>2012-12-16T10:30:08Z</time>
      </trkpt>
      <trkpt lat="42.89933" lon="0.1328">
        <ele>1955</ele>
        <time>2012-12-16T10:30:12Z</time>
      </trkpt>
      <trkpt lat="42.89931" lon="0.1328">
        <ele>1955</ele>
        <time>2012-12-16T10:30:18Z</time>
      </trkpt>
      <trkpt lat="42.89931" lon="0.13281">
        <ele>1956</ele>
        <time>2012-12-16T10:30:19Z</time>
      </trkpt>
      <trkpt lat="42.8993" lon="0.13283">
        <ele>1956</ele>
        <time>2012-12-16T10:30:21Z</time>
      </trkpt>
      <trkpt lat="42.8993" lon="0.13286">
        <ele>1957</ele>
        <time>2012-12-16T10:30:25Z</time>
      </trkpt>
      <trkpt lat="42.8993" lon="0.13287">
        <ele>1957</ele>
        <time>2012-12-16T10:30:26Z</time>
      </trkpt>
      <trkpt lat="42.89929" lon="0.13289">
        <ele>1957</ele>
        <time>2012-12-16T10:30:28Z</time>
      </trkpt>
      <trkpt lat="42.89928" lon="0.13291">
        <ele>1957</ele>
        <time>2012-12-16T10:30:30Z</time>
      </trkpt>
      <trkpt lat="42.89927" lon="0.13292">
        <ele>1958</ele>
        <time>2012-12-16T10:30:33Z</time>
      </trkpt>
      <trkpt lat="42.89926" lon="0.13293">
        <ele>1959</ele>
        <time>2012-12-16T10:30:36Z</time>
      </trkpt>
      <trkpt lat="42.89924" lon="0.13294">
        <ele>1959</ele>
        <time>2012-12-16T10:30:39Z</time>
      </trkpt>
      <trkpt lat="42.89922" lon="0.13294">
        <ele>1960</ele>
        <time>2012-12-16T10:30:43Z</time>
      </trkpt>
      <trkpt lat="42.8992" lon="0.13293">
        <ele>1960</ele>
        <time>2012-12-16T10:30:48Z</time>
      </trkpt>
      <trkpt lat="42.89919" lon="0.13292">
        <ele>1960</ele>
        <time>2012-12-16T10:30:51Z</time>
      </trkpt>
      <trkpt lat="42.89917" lon="0.13291">
        <ele>1960</ele>
        <time>2012-12-16T10:30:56Z</time>
      </trkpt>
      <trkpt lat="42.89916" lon="0.1329">
        <ele>1960</ele>
        <time>2012-12-16T10:30:57Z</time>
      </trkpt>
      <trkpt lat="42.89914" lon="0.13288">
        <ele>1960</ele>
        <time>2012-12-16T10:31:00Z</time>
      </trkpt>
      <trkpt lat="42.89912" lon="0.13287">
        <ele>1961</ele>
        <time>2012-12-16T10:31:03Z</time>
      </trkpt>
      <trkpt lat="42.89911" lon="0.13286">
        <ele>1961</ele>
        <time>2012-12-16T10:31:07Z</time>
      </trkpt>
      <trkpt lat="42.8991" lon="0.13285">
        <ele>1962</ele>
        <time>2012-12-16T10:31:10Z</time>
      </trkpt>
      <trkpt lat="42.89908" lon="0.13285">
        <ele>1963</ele>
        <time>2012-12-16T10:31:15Z</time>
      </trkpt>
      <trkpt lat="42.89907" lon="0.13284">
        <ele>1963</ele>
        <time>2012-12-16T10:31:19Z</time>
      </trkpt>
      <trkpt lat="42.89906" lon="0.13283">
        <ele>1963</ele>
        <time>2012-12-16T10:31:21Z</time>
      </trkpt>
      <trkpt lat="42.89904" lon="0.1328">
        <ele>1964</ele>
        <time>2012-12-16T10:31:25Z</time>
      </trkpt>
      <trkpt lat="42.89902" lon="0.13278">
        <ele>1965</ele>
        <time>2012-12-16T10:31:27Z</time>
      </trkpt>
      <trkpt lat="42.89901" lon="0.13276">
        <ele>1966</ele>
        <time>2012-12-16T10:31:31Z</time>
      </trkpt>
      <trkpt lat="42.89899" lon="0.13275">
        <ele>1967</ele>
        <time>2012-12-16T10:31:33Z</time>
      </trkpt>
      <trkpt lat="42.89898" lon="0.13274">
        <ele>1968</ele>
        <time>2012-12-16T10:31:39Z</time>
      </trkpt>
      <trkpt lat="42.89896" lon="0.13273">
        <ele>1968</ele>
        <time>2012-12-16T10:31:42Z</time>
      </trkpt>
      <trkpt lat="42.89894" lon="0.13274">
        <ele>1969</ele>
        <time>2012-12-16T10:31:45Z</time>
      </trkpt>
      <trkpt lat="42.89893" lon="0.13274">
        <ele>1969</ele>
        <time>2012-12-16T10:31:48Z</time>
      </trkpt>
      <trkpt lat="42.89892" lon="0.13274">
        <ele>1969</ele>
        <time>2012-12-16T10:31:51Z</time>
      </trkpt>
      <trkpt lat="42.89891" lon="0.13274">
        <ele>1969</ele>
        <time>2012-12-16T10:31:52Z</time>
      </trkpt>
      <trkpt lat="42.89888" lon="0.13275">
        <ele>1970</ele>
        <time>2012-12-16T10:31:57Z</time>
      </trkpt>
      <trkpt lat="42.89887" lon="0.13277">
        <ele>1970</ele>
        <time>2012-12-16T10:31:59Z</time>
      </trkpt>
      <trkpt lat="42.89886" lon="0.13279">
        <ele>1971</ele>
        <time>2012-12-16T10:32:04Z</time>
      </trkpt>
      <trkpt lat="42.89886" lon="0.13281">
        <ele>1971</ele>
        <time>2012-12-16T10:32:05Z</time>
      </trkpt>
      <trkpt lat="42.89885" lon="0.13283">
        <ele>1972</ele>
        <time>2012-12-16T10:32:09Z</time>
      </trkpt>
      <trkpt lat="42.89885" lon="0.13285">
        <ele>1972</ele>
        <time>2012-12-16T10:32:10Z</time>
      </trkpt>
      <trkpt lat="42.89884" lon="0.13287">
        <ele>1972</ele>
        <time>2012-12-16T10:32:13Z</time>
      </trkpt>
      <trkpt lat="42.89884" lon="0.13289">
        <ele>1972</ele>
        <time>2012-12-16T10:32:15Z</time>
      </trkpt>
      <trkpt lat="42.89883" lon="0.13291">
        <ele>1972</ele>
        <time>2012-12-16T10:32:17Z</time>
      </trkpt>
      <trkpt lat="42.89883" lon="0.13292">
        <ele>1972</ele>
        <time>2012-12-16T10:32:19Z</time>
      </trkpt>
      <trkpt lat="42.89883" lon="0.13294">
        <ele>1972</ele>
        <time>2012-12-16T10:32:20Z</time>
      </trkpt>
      <trkpt lat="42.89882" lon="0.13296">
        <ele>1973</ele>
        <time>2012-12-16T10:32:24Z</time>
      </trkpt>
      <trkpt lat="42.89881" lon="0.13298">
        <ele>1974</ele>
        <time>2012-12-16T10:32:28Z</time>
      </trkpt>
      <trkpt lat="42.8988" lon="0.133">
        <ele>1974</ele>
        <time>2012-12-16T10:32:30Z</time>
      </trkpt>
      <trkpt lat="42.89879" lon="0.13302">
        <ele>1974</ele>
        <time>2012-12-16T10:32:35Z</time>
      </trkpt>
      <trkpt lat="42.89878" lon="0.13304">
        <ele>1975</ele>
        <time>2012-12-16T10:32:39Z</time>
      </trkpt>
      <trkpt lat="42.89876" lon="0.13306">
        <ele>1976</ele>
        <time>2012-12-16T10:32:43Z</time>
      </trkpt>
      <trkpt lat="42.89875" lon="0.13308">
        <ele>1976</ele>
        <time>2012-12-16T10:32:47Z</time>
      </trkpt>
      <trkpt lat="42.89875" lon="0.1331">
        <ele>1977</ele>
        <time>2012-12-16T10:32:49Z</time>
      </trkpt>
      <trkpt lat="42.89874" lon="0.13312">
        <ele>1977</ele>
        <time>2012-12-16T10:32:54Z</time>
      </trkpt>
      <trkpt lat="42.89873" lon="0.13313">
        <ele>1978</ele>
        <time>2012-12-16T10:32:57Z</time>
      </trkpt>
      <trkpt lat="42.89871" lon="0.13314">
        <ele>1978</ele>
        <time>2012-12-16T10:33:01Z</time>
      </trkpt>
      <trkpt lat="42.8987" lon="0.13315">
        <ele>1979</ele>
        <time>2012-12-16T10:33:02Z</time>
      </trkpt>
      <trkpt lat="42.89868" lon="0.13316">
        <ele>1980</ele>
        <time>2012-12-16T10:33:07Z</time>
      </trkpt>
      <trkpt lat="42.89867" lon="0.13318">
        <ele>1980</ele>
        <time>2012-12-16T10:33:10Z</time>
      </trkpt>
      <trkpt lat="42.89867" lon="0.13319">
        <ele>1981</ele>
        <time>2012-12-16T10:33:15Z</time>
      </trkpt>
      <trkpt lat="42.89866" lon="0.13322">
        <ele>1982</ele>
        <time>2012-12-16T10:33:19Z</time>
      </trkpt>
      <trkpt lat="42.89866" lon="0.13324">
        <ele>1982</ele>
        <time>2012-12-16T10:33:21Z</time>
      </trkpt>
      <trkpt lat="42.89866" lon="0.13326">
        <ele>1982</ele>
        <time>2012-12-16T10:33:25Z</time>
      </trkpt>
      <trkpt lat="42.89865" lon="0.13327">
        <ele>1982</ele>
        <time>2012-12-16T10:33:27Z</time>
      </trkpt>
      <trkpt lat="42.89865" lon="0.1333">
        <ele>1982</ele>
        <time>2012-12-16T10:33:31Z</time>
      </trkpt>
      <trkpt lat="42.89864" lon="0.13332">
        <ele>1983</ele>
        <time>2012-12-16T10:33:39Z</time>
      </trkpt>
      <trkpt lat="42.89864" lon="0.13334">
        <ele>1983</ele>
        <time>2012-12-16T10:33:43Z</time>
      </trkpt>
      <trkpt lat="42.89863" lon="0.13335">
        <ele>1984</ele>
        <time>2012-12-16T10:33:45Z</time>
      </trkpt>
      <trkpt lat="42.89862" lon="0.13338">
        <ele>1984</ele>
        <time>2012-12-16T10:33:50Z</time>
      </trkpt>
      <trkpt lat="42.89862" lon="0.13339">
        <ele>1984</ele>
        <time>2012-12-16T10:33:52Z</time>
      </trkpt>
      <trkpt lat="42.89862" lon="0.13341">
        <ele>1985</ele>
        <time>2012-12-16T10:33:57Z</time>
      </trkpt>
      <trkpt lat="42.89861" lon="0.13343">
        <ele>1985</ele>
        <time>2012-12-16T10:33:59Z</time>
      </trkpt>
      <trkpt lat="42.89861" lon="0.13344">
        <ele>1986</ele>
        <time>2012-12-16T10:34:02Z</time>
      </trkpt>
      <trkpt lat="42.89861" lon="0.13347">
        <ele>1987</ele>
        <time>2012-12-16T10:34:05Z</time>
      </trkpt>
      <trkpt lat="42.89861" lon="0.13348">
        <ele>1987</ele>
        <time>2012-12-16T10:34:09Z</time>
      </trkpt>
      <trkpt lat="42.8986" lon="0.13346">
        <ele>1988</ele>
        <time>2012-12-16T10:34:34Z</time>
      </trkpt>
      <trkpt lat="42.89859" lon="0.13345">
        <ele>1988</ele>
        <time>2012-12-16T10:34:37Z</time>
      </trkpt>
      <trkpt lat="42.89858" lon="0.13343">
        <ele>1989</ele>
        <time>2012-12-16T10:34:42Z</time>
      </trkpt>
      <trkpt lat="42.89857" lon="0.13341">
        <ele>1989</ele>
        <time>2012-12-16T10:34:48Z</time>
      </trkpt>
      <trkpt lat="42.89855" lon="0.13339">
        <ele>1989</ele>
        <time>2012-12-16T10:34:54Z</time>
      </trkpt>
      <trkpt lat="42.89854" lon="0.13338">
        <ele>1989</ele>
        <time>2012-12-16T10:34:56Z</time>
      </trkpt>
      <trkpt lat="42.89851" lon="0.13338">
        <ele>1989</ele>
        <time>2012-12-16T10:35:01Z</time>
      </trkpt>
      <trkpt lat="42.8985" lon="0.13339">
        <ele>1991</ele>
        <time>2012-12-16T10:35:03Z</time>
      </trkpt>
      <trkpt lat="42.8985" lon="0.13341">
        <ele>1991</ele>
        <time>2012-12-16T10:35:07Z</time>
      </trkpt>
      <trkpt lat="42.8985" lon="0.13342">
        <ele>1991</ele>
        <time>2012-12-16T10:35:08Z</time>
      </trkpt>
      <trkpt lat="42.89849" lon="0.13344">
        <ele>1992</ele>
        <time>2012-12-16T10:35:09Z</time>
      </trkpt>
      <trkpt lat="42.89849" lon="0.13345">
        <ele>1992</ele>
        <time>2012-12-16T10:35:12Z</time>
      </trkpt>
      <trkpt lat="42.89849" lon="0.13347">
        <ele>1992</ele>
        <time>2012-12-16T10:35:13Z</time>
      </trkpt>
      <trkpt lat="42.89848" lon="0.1335">
        <ele>1992</ele>
        <time>2012-12-16T10:35:19Z</time>
      </trkpt>
      <trkpt lat="42.89848" lon="0.13351">
        <ele>1992</ele>
        <time>2012-12-16T10:35:20Z</time>
      </trkpt>
      <trkpt lat="42.89846" lon="0.13351">
        <ele>1992</ele>
        <time>2012-12-16T10:35:25Z</time>
      </trkpt>
      <trkpt lat="42.89844" lon="0.13351">
        <ele>1992</ele>
        <time>2012-12-16T10:35:27Z</time>
      </trkpt>
      <trkpt lat="42.89843" lon="0.1335">
        <ele>1993</ele>
        <time>2012-12-16T10:35:31Z</time>
      </trkpt>
      <trkpt lat="42.89841" lon="0.13348">
        <ele>1993</ele>
        <time>2012-12-16T10:35:33Z</time>
      </trkpt>
      <trkpt lat="42.8984" lon="0.13347">
        <ele>1993</ele>
        <time>2012-12-16T10:35:37Z</time>
      </trkpt>
      <trkpt lat="42.89839" lon="0.13346">
        <ele>1993</ele>
        <time>2012-12-16T10:35:40Z</time>
      </trkpt>
      <trkpt lat="42.89837" lon="0.13344">
        <ele>1993</ele>
        <time>2012-12-16T10:35:45Z</time>
      </trkpt>
      <trkpt lat="42.89836" lon="0.13342">
        <ele>1993</ele>
        <time>2012-12-16T10:35:48Z</time>
      </trkpt>
      <trkpt lat="42.89834" lon="0.13342">
        <ele>1993</ele>
        <time>2012-12-16T10:35:51Z</time>
      </trkpt>
      <trkpt lat="42.89832" lon="0.13343">
        <ele>1994</ele>
        <time>2012-12-16T10:35:55Z</time>
      </trkpt>
      <trkpt lat="42.8983" lon="0.13344">
        <ele>1994</ele>
        <time>2012-12-16T10:35:58Z</time>
      </trkpt>
      <trkpt lat="42.89829" lon="0.13345">
        <ele>1995</ele>
        <time>2012-12-16T10:36:01Z</time>
      </trkpt>
      <trkpt lat="42.89827" lon="0.13347">
        <ele>1996</ele>
        <time>2012-12-16T10:36:06Z</time>
      </trkpt>
      <trkpt lat="42.89825" lon="0.13348">
        <ele>1998</ele>
        <time>2012-12-16T10:36:11Z</time>
      </trkpt>
      <trkpt lat="42.89824" lon="0.13348">
        <ele>1999</ele>
        <time>2012-12-16T10:36:13Z</time>
      </trkpt>
      <trkpt lat="42.89822" lon="0.13349">
        <ele>2001</ele>
        <time>2012-12-16T10:36:18Z</time>
      </trkpt>
      <trkpt lat="42.8982" lon="0.13349">
        <ele>2002</ele>
        <time>2012-12-16T10:36:24Z</time>
      </trkpt>
      <trkpt lat="42.89819" lon="0.13349">
        <ele>2002</ele>
        <time>2012-12-16T10:36:26Z</time>
      </trkpt>
      <trkpt lat="42.89817" lon="0.13348">
        <ele>2003</ele>
        <time>2012-12-16T10:36:30Z</time>
      </trkpt>
      <trkpt lat="42.89816" lon="0.13346">
        <ele>2003</ele>
        <time>2012-12-16T10:36:36Z</time>
      </trkpt>
      <trkpt lat="42.89815" lon="0.13345">
        <ele>2004</ele>
        <time>2012-12-16T10:36:38Z</time>
      </trkpt>
      <trkpt lat="42.89813" lon="0.13344">
        <ele>2005</ele>
        <time>2012-12-16T10:36:43Z</time>
      </trkpt>
      <trkpt lat="42.89812" lon="0.13343">
        <ele>2006</ele>
        <time>2012-12-16T10:36:48Z</time>
      </trkpt>
      <trkpt lat="42.8981" lon="0.13342">
        <ele>2007</ele>
        <time>2012-12-16T10:36:51Z</time>
      </trkpt>
      <trkpt lat="42.89809" lon="0.13339">
        <ele>2007</ele>
        <time>2012-12-16T10:36:55Z</time>
      </trkpt>
      <trkpt lat="42.89807" lon="0.13337">
        <ele>2008</ele>
        <time>2012-12-16T10:37:01Z</time>
      </trkpt>
      <trkpt lat="42.89805" lon="0.13336">
        <ele>2009</ele>
        <time>2012-12-16T10:37:06Z</time>
      </trkpt>
      <trkpt lat="42.89804" lon="0.13335">
        <ele>2009</ele>
        <time>2012-12-16T10:37:07Z</time>
      </trkpt>
      <trkpt lat="42.89801" lon="0.13333">
        <ele>2010</ele>
        <time>2012-12-16T10:37:12Z</time>
      </trkpt>
      <trkpt lat="42.89799" lon="0.13333">
        <ele>2012</ele>
        <time>2012-12-16T10:37:18Z</time>
      </trkpt>
      <trkpt lat="42.89799" lon="0.13335">
        <ele>2013</ele>
        <time>2012-12-16T10:37:26Z</time>
      </trkpt>
      <trkpt lat="42.898" lon="0.13336">
        <ele>2013</ele>
        <time>2012-12-16T10:37:48Z</time>
      </trkpt>
      <trkpt lat="42.89798" lon="0.13337">
        <ele>2013</ele>
        <time>2012-12-16T10:38:08Z</time>
      </trkpt>
      <trkpt lat="42.89797" lon="0.13339">
        <ele>2013</ele>
        <time>2012-12-16T10:38:10Z</time>
      </trkpt>
      <trkpt lat="42.89795" lon="0.13342">
        <ele>2013</ele>
        <time>2012-12-16T10:38:14Z</time>
      </trkpt>
      <trkpt lat="42.89794" lon="0.13343">
        <ele>2013</ele>
        <time>2012-12-16T10:38:16Z</time>
      </trkpt>
      <trkpt lat="42.89793" lon="0.13345">
        <ele>2013</ele>
        <time>2012-12-16T10:38:18Z</time>
      </trkpt>
      <trkpt lat="42.89793" lon="0.13346">
        <ele>2013</ele>
        <time>2012-12-16T10:38:21Z</time>
      </trkpt>
      <trkpt lat="42.89793" lon="0.13348">
        <ele>2013</ele>
        <time>2012-12-16T10:38:22Z</time>
      </trkpt>
      <trkpt lat="42.89792" lon="0.13351">
        <ele>2013</ele>
        <time>2012-12-16T10:38:28Z</time>
      </trkpt>
      <trkpt lat="42.89792" lon="0.13352">
        <ele>2013</ele>
        <time>2012-12-16T10:38:29Z</time>
      </trkpt>
      <trkpt lat="42.89792" lon="0.13355">
        <ele>2013</ele>
        <time>2012-12-16T10:38:31Z</time>
      </trkpt>
      <trkpt lat="42.89792" lon="0.13356">
        <ele>2013</ele>
        <time>2012-12-16T10:38:33Z</time>
      </trkpt>
      <trkpt lat="42.89792" lon="0.13359">
        <ele>2013</ele>
        <time>2012-12-16T10:38:36Z</time>
      </trkpt>
      <trkpt lat="42.89791" lon="0.1336">
        <ele>2013</ele>
        <time>2012-12-16T10:38:38Z</time>
      </trkpt>
      <trkpt lat="42.89791" lon="0.13362">
        <ele>2013</ele>
        <time>2012-12-16T10:38:42Z</time>
      </trkpt>
      <trkpt lat="42.89791" lon="0.13364">
        <ele>2014</ele>
        <time>2012-12-16T10:38:44Z</time>
      </trkpt>
      <trkpt lat="42.89792" lon="0.13367">
        <ele>2014</ele>
        <time>2012-12-16T10:38:49Z</time>
      </trkpt>
      <trkpt lat="42.89792" lon="0.13368">
        <ele>2014</ele>
        <time>2012-12-16T10:38:50Z</time>
      </trkpt>
      <trkpt lat="42.89793" lon="0.13371">
        <ele>2015</ele>
        <time>2012-12-16T10:38:52Z</time>
      </trkpt>
      <trkpt lat="42.89793" lon="0.13373">
        <ele>2015</ele>
        <time>2012-12-16T10:38:55Z</time>
      </trkpt>
      <trkpt lat="42.89793" lon="0.13375">
        <ele>2015</ele>
        <time>2012-12-16T10:38:57Z</time>
      </trkpt>
      <trkpt lat="42.89793" lon="0.13377">
        <ele>2016</ele>
        <time>2012-12-16T10:39:01Z</time>
      </trkpt>
      <trkpt lat="42.89793" lon="0.13378">
        <ele>2016</ele>
        <time>2012-12-16T10:39:02Z</time>
      </trkpt>
      <trkpt lat="42.89793" lon="0.13381">
        <ele>2017</ele>
        <time>2012-12-16T10:39:06Z</time>
      </trkpt>
      <trkpt lat="42.89793" lon="0.13384">
        <ele>2017</ele>
        <time>2012-12-16T10:39:12Z</time>
      </trkpt>
      <trkpt lat="42.89793" lon="0.13385">
        <ele>2017</ele>
        <time>2012-12-16T10:39:13Z</time>
      </trkpt>
      <trkpt lat="42.89793" lon="0.13387">
        <ele>2018</ele>
        <time>2012-12-16T10:39:14Z</time>
      </trkpt>
      <trkpt lat="42.89794" lon="0.13389">
        <ele>2018</ele>
        <time>2012-12-16T10:39:19Z</time>
      </trkpt>
      <trkpt lat="42.89794" lon="0.13391">
        <ele>2018</ele>
        <time>2012-12-16T10:39:21Z</time>
      </trkpt>
      <trkpt lat="42.89795" lon="0.13392">
        <ele>2019</ele>
        <time>2012-12-16T10:39:25Z</time>
      </trkpt>
      <trkpt lat="42.89795" lon="0.13394">
        <ele>2019</ele>
        <time>2012-12-16T10:39:26Z</time>
      </trkpt>
      <trkpt lat="42.89795" lon="0.13396">
        <ele>2020</ele>
        <time>2012-12-16T10:39:31Z</time>
      </trkpt>
      <trkpt lat="42.89796" lon="0.13398">
        <ele>2020</ele>
        <time>2012-12-16T10:39:33Z</time>
      </trkpt>
      <trkpt lat="42.89796" lon="0.13401">
        <ele>2020</ele>
        <time>2012-12-16T10:39:37Z</time>
      </trkpt>
      <trkpt lat="42.89796" lon="0.13402">
        <ele>2020</ele>
        <time>2012-12-16T10:39:39Z</time>
      </trkpt>
      <trkpt lat="42.89796" lon="0.13404">
        <ele>2020</ele>
        <time>2012-12-16T10:39:42Z</time>
      </trkpt>
      <trkpt lat="42.89796" lon="0.13406">
        <ele>2021</ele>
        <time>2012-12-16T10:39:43Z</time>
      </trkpt>
      <trkpt lat="42.89795" lon="0.13404">
        <ele>2022</ele>
        <time>2012-12-16T10:39:57Z</time>
      </trkpt>
      <trkpt lat="42.89793" lon="0.13401">
        <ele>2022</ele>
        <time>2012-12-16T10:40:01Z</time>
      </trkpt>
      <trkpt lat="42.89792" lon="0.134">
        <ele>2022</ele>
        <time>2012-12-16T10:40:05Z</time>
      </trkpt>
      <trkpt lat="42.8979" lon="0.13399">
        <ele>2023</ele>
        <time>2012-12-16T10:40:08Z</time>
      </trkpt>
      <trkpt lat="42.89788" lon="0.13398">
        <ele>2023</ele>
        <time>2012-12-16T10:40:11Z</time>
      </trkpt>
      <trkpt lat="42.89787" lon="0.13397">
        <ele>2023</ele>
        <time>2012-12-16T10:40:14Z</time>
      </trkpt>
      <trkpt lat="42.89784" lon="0.13396">
        <ele>2024</ele>
        <time>2012-12-16T10:40:18Z</time>
      </trkpt>
      <trkpt lat="42.89782" lon="0.13394">
        <ele>2025</ele>
        <time>2012-12-16T10:40:22Z</time>
      </trkpt>
      <trkpt lat="42.89781" lon="0.13394">
        <ele>2025</ele>
        <time>2012-12-16T10:40:26Z</time>
      </trkpt>
      <trkpt lat="42.8978" lon="0.13393">
        <ele>2025</ele>
        <time>2012-12-16T10:40:27Z</time>
      </trkpt>
      <trkpt lat="42.89779" lon="0.13394">
        <ele>2026</ele>
        <time>2012-12-16T10:40:32Z</time>
      </trkpt>
      <trkpt lat="42.89777" lon="0.13393">
        <ele>2027</ele>
        <time>2012-12-16T10:40:35Z</time>
      </trkpt>
      <trkpt lat="42.89774" lon="0.13393">
        <ele>2027</ele>
        <time>2012-12-16T10:40:39Z</time>
      </trkpt>
      <trkpt lat="42.89773" lon="0.13393">
        <ele>2027</ele>
        <time>2012-12-16T10:40:41Z</time>
      </trkpt>
      <trkpt lat="42.89772" lon="0.13394">
        <ele>2027</ele>
        <time>2012-12-16T10:40:44Z</time>
      </trkpt>
      <trkpt lat="42.89771" lon="0.13395">
        <ele>2027</ele>
        <time>2012-12-16T10:40:47Z</time>
      </trkpt>
      <trkpt lat="42.89771" lon="0.13397">
        <ele>2027</ele>
        <time>2012-12-16T10:40:50Z</time>
      </trkpt>
      <trkpt lat="42.89771" lon="0.13399">
        <ele>2027</ele>
        <time>2012-12-16T10:40:51Z</time>
      </trkpt>
      <trkpt lat="42.89771" lon="0.13401">
        <ele>2028</ele>
        <time>2012-12-16T10:40:57Z</time>
      </trkpt>
      <trkpt lat="42.89771" lon="0.13403">
        <ele>2028</ele>
        <time>2012-12-16T10:40:58Z</time>
      </trkpt>
      <trkpt lat="42.89771" lon="0.13404">
        <ele>2028</ele>
        <time>2012-12-16T10:40:59Z</time>
      </trkpt>
      <trkpt lat="42.89771" lon="0.13406">
        <ele>2029</ele>
        <time>2012-12-16T10:41:03Z</time>
      </trkpt>
      <trkpt lat="42.89771" lon="0.13408">
        <ele>2029</ele>
        <time>2012-12-16T10:41:05Z</time>
      </trkpt>
      <trkpt lat="42.89771" lon="0.13409">
        <ele>2030</ele>
        <time>2012-12-16T10:41:07Z</time>
      </trkpt>
      <trkpt lat="42.8977" lon="0.13411">
        <ele>2030</ele>
        <time>2012-12-16T10:41:10Z</time>
      </trkpt>
      <trkpt lat="42.8977" lon="0.13412">
        <ele>2030</ele>
        <time>2012-12-16T10:41:11Z</time>
      </trkpt>
      <trkpt lat="42.8977" lon="0.13415">
        <ele>2030</ele>
        <time>2012-12-16T10:41:15Z</time>
      </trkpt>
      <trkpt lat="42.89769" lon="0.13417">
        <ele>2031</ele>
        <time>2012-12-16T10:41:17Z</time>
      </trkpt>
      <trkpt lat="42.89769" lon="0.1342">
        <ele>2031</ele>
        <time>2012-12-16T10:41:22Z</time>
      </trkpt>
      <trkpt lat="42.89769" lon="0.13422">
        <ele>2032</ele>
        <time>2012-12-16T10:41:27Z</time>
      </trkpt>
      <trkpt lat="42.89769" lon="0.13424">
        <ele>2032</ele>
        <time>2012-12-16T10:41:29Z</time>
      </trkpt>
      <trkpt lat="42.89768" lon="0.13426">
        <ele>2033</ele>
        <time>2012-12-16T10:41:33Z</time>
      </trkpt>
      <trkpt lat="42.89768" lon="0.13428">
        <ele>2033</ele>
        <time>2012-12-16T10:41:36Z</time>
      </trkpt>
      <trkpt lat="42.89768" lon="0.1343">
        <ele>2034</ele>
        <time>2012-12-16T10:41:40Z</time>
      </trkpt>
      <trkpt lat="42.89768" lon="0.13431">
        <ele>2034</ele>
        <time>2012-12-16T10:41:41Z</time>
      </trkpt>
      <trkpt lat="42.89768" lon="0.13433">
        <ele>2034</ele>
        <time>2012-12-16T10:41:44Z</time>
      </trkpt>
      <trkpt lat="42.89767" lon="0.13435">
        <ele>2034</ele>
        <time>2012-12-16T10:41:48Z</time>
      </trkpt>
      <trkpt lat="42.89765" lon="0.13437">
        <ele>2036</ele>
        <time>2012-12-16T10:41:54Z</time>
      </trkpt>
      <trkpt lat="42.89764" lon="0.13436">
        <ele>2037</ele>
        <time>2012-12-16T10:42:03Z</time>
      </trkpt>
      <trkpt lat="42.89762" lon="0.13436">
        <ele>2037</ele>
        <time>2012-12-16T10:42:08Z</time>
      </trkpt>
      <trkpt lat="42.89761" lon="0.13436">
        <ele>2037</ele>
        <time>2012-12-16T10:42:08Z</time>
      </trkpt>
      <trkpt lat="42.89759" lon="0.13437">
        <ele>2038</ele>
        <time>2012-12-16T10:42:13Z</time>
      </trkpt>
      <trkpt lat="42.89757" lon="0.13438">
        <ele>2038</ele>
        <time>2012-12-16T10:42:15Z</time>
      </trkpt>
      <trkpt lat="42.89755" lon="0.13439">
        <ele>2039</ele>
        <time>2012-12-16T10:42:20Z</time>
      </trkpt>
      <trkpt lat="42.89754" lon="0.1344">
        <ele>2039</ele>
        <time>2012-12-16T10:42:21Z</time>
      </trkpt>
      <trkpt lat="42.89753" lon="0.13441">
        <ele>2039</ele>
        <time>2012-12-16T10:42:23Z</time>
      </trkpt>
      <trkpt lat="42.89751" lon="0.13442">
        <ele>2040</ele>
        <time>2012-12-16T10:42:27Z</time>
      </trkpt>
      <trkpt lat="42.89749" lon="0.13443">
        <ele>2040</ele>
        <time>2012-12-16T10:42:30Z</time>
      </trkpt>
      <trkpt lat="42.89747" lon="0.13445">
        <ele>2040</ele>
        <time>2012-12-16T10:42:35Z</time>
      </trkpt>
      <trkpt lat="42.89746" lon="0.13446">
        <ele>2041</ele>
        <time>2012-12-16T10:42:37Z</time>
      </trkpt>
      <trkpt lat="42.89744" lon="0.13447">
        <ele>2041</ele>
        <time>2012-12-16T10:42:41Z</time>
      </trkpt>
      <trkpt lat="42.89742" lon="0.13448">
        <ele>2042</ele>
        <time>2012-12-16T10:42:44Z</time>
      </trkpt>
      <trkpt lat="42.8974" lon="0.13449">
        <ele>2043</ele>
        <time>2012-12-16T10:42:49Z</time>
      </trkpt>
      <trkpt lat="42.89738" lon="0.1345">
        <ele>2044</ele>
        <time>2012-12-16T10:42:51Z</time>
      </trkpt>
      <trkpt lat="42.89736" lon="0.13451">
        <ele>2045</ele>
        <time>2012-12-16T10:42:56Z</time>
      </trkpt>
      <trkpt lat="42.89735" lon="0.13451">
        <ele>2045</ele>
        <time>2012-12-16T10:42:58Z</time>
      </trkpt>
      <trkpt lat="42.89733" lon="0.13452">
        <ele>2046</ele>
        <time>2012-12-16T10:43:01Z</time>
      </trkpt>
      <trkpt lat="42.89731" lon="0.13453">
        <ele>2047</ele>
        <time>2012-12-16T10:43:06Z</time>
      </trkpt>
      <trkpt lat="42.8973" lon="0.13453">
        <ele>2048</ele>
        <time>2012-12-16T10:43:07Z</time>
      </trkpt>
      <trkpt lat="42.89729" lon="0.13454">
        <ele>2049</ele>
        <time>2012-12-16T10:43:09Z</time>
      </trkpt>
      <trkpt lat="42.89727" lon="0.13455">
        <ele>2050</ele>
        <time>2012-12-16T10:43:12Z</time>
      </trkpt>
      <trkpt lat="42.89726" lon="0.13456">
        <ele>2050</ele>
        <time>2012-12-16T10:43:13Z</time>
      </trkpt>
      <trkpt lat="42.89724" lon="0.13457">
        <ele>2050</ele>
        <time>2012-12-16T10:43:19Z</time>
      </trkpt>
      <trkpt lat="42.89723" lon="0.13458">
        <ele>2051</ele>
        <time>2012-12-16T10:43:21Z</time>
      </trkpt>
      <trkpt lat="42.89722" lon="0.13459">
        <ele>2051</ele>
        <time>2012-12-16T10:43:25Z</time>
      </trkpt>
      <trkpt lat="42.8972" lon="0.1346">
        <ele>2051</ele>
        <time>2012-12-16T10:43:26Z</time>
      </trkpt>
      <trkpt lat="42.89719" lon="0.13461">
        <ele>2051</ele>
        <time>2012-12-16T10:43:27Z</time>
      </trkpt>
      <trkpt lat="42.89718" lon="0.13462">
        <ele>2051</ele>
        <time>2012-12-16T10:43:29Z</time>
      </trkpt>
      <trkpt lat="42.89716" lon="0.13462">
        <ele>2051</ele>
        <time>2012-12-16T10:43:31Z</time>
      </trkpt>
      <trkpt lat="42.89715" lon="0.13463">
        <ele>2052</ele>
        <time>2012-12-16T10:43:34Z</time>
      </trkpt>
      <trkpt lat="42.89714" lon="0.13464">
        <ele>2052</ele>
        <time>2012-12-16T10:43:35Z</time>
      </trkpt>
      <trkpt lat="42.89713" lon="0.13464">
        <ele>2052</ele>
        <time>2012-12-16T10:43:38Z</time>
      </trkpt>
      <trkpt lat="42.89711" lon="0.13464">
        <ele>2053</ele>
        <time>2012-12-16T10:43:39Z</time>
      </trkpt>
      <trkpt lat="42.89709" lon="0.13465">
        <ele>2053</ele>
        <time>2012-12-16T10:43:42Z</time>
      </trkpt>
      <trkpt lat="42.89708" lon="0.13465">
        <ele>2053</ele>
        <time>2012-12-16T10:43:44Z</time>
      </trkpt>
      <trkpt lat="42.89706" lon="0.13465">
        <ele>2053</ele>
        <time>2012-12-16T10:43:47Z</time>
      </trkpt>
      <trkpt lat="42.89705" lon="0.13466">
        <ele>2054</ele>
        <time>2012-12-16T10:43:48Z</time>
      </trkpt>
      <trkpt lat="42.89703" lon="0.13466">
        <ele>2054</ele>
        <time>2012-12-16T10:43:51Z</time>
      </trkpt>
      <trkpt lat="42.89702" lon="0.13466">
        <ele>2055</ele>
        <time>2012-12-16T10:43:52Z</time>
      </trkpt>
      <trkpt lat="42.89701" lon="0.13467">
        <ele>2055</ele>
        <time>2012-12-16T10:43:55Z</time>
      </trkpt>
      <trkpt lat="42.89699" lon="0.13467">
        <ele>2055</ele>
        <time>2012-12-16T10:43:56Z</time>
      </trkpt>
      <trkpt lat="42.89698" lon="0.13468">
        <ele>2055</ele>
        <time>2012-12-16T10:43:59Z</time>
      </trkpt>
      <trkpt lat="42.89697" lon="0.13468">
        <ele>2056</ele>
        <time>2012-12-16T10:44:00Z</time>
      </trkpt>
      <trkpt lat="42.89695" lon="0.13469">
        <ele>2056</ele>
        <time>2012-12-16T10:44:05Z</time>
      </trkpt>
      <trkpt lat="42.89693" lon="0.13471">
        <ele>2056</ele>
        <time>2012-12-16T10:44:06Z</time>
      </trkpt>
      <trkpt lat="42.89692" lon="0.13472">
        <ele>2056</ele>
        <time>2012-12-16T10:44:08Z</time>
      </trkpt>
      <trkpt lat="42.89691" lon="0.13472">
        <ele>2056</ele>
        <time>2012-12-16T10:44:12Z</time>
      </trkpt>
      <trkpt lat="42.89688" lon="0.13474">
        <ele>2056</ele>
        <time>2012-12-16T10:44:19Z</time>
      </trkpt>
      <trkpt lat="42.89687" lon="0.13474">
        <ele>2056</ele>
        <time>2012-12-16T10:44:21Z</time>
      </trkpt>
      <trkpt lat="42.89685" lon="0.13474">
        <ele>2056</ele>
        <time>2012-12-16T10:44:24Z</time>
      </trkpt>
      <trkpt lat="42.89684" lon="0.13475">
        <ele>2056</ele>
        <time>2012-12-16T10:44:25Z</time>
      </trkpt>
      <trkpt lat="42.89681" lon="0.13474">
        <ele>2056</ele>
        <time>2012-12-16T10:44:29Z</time>
      </trkpt>
      <trkpt lat="42.8968" lon="0.13474">
        <ele>2057</ele>
        <time>2012-12-16T10:44:31Z</time>
      </trkpt>
      <trkpt lat="42.89678" lon="0.13474">
        <ele>2057</ele>
        <time>2012-12-16T10:44:36Z</time>
      </trkpt>
      <trkpt lat="42.89677" lon="0.13474">
        <ele>2057</ele>
        <time>2012-12-16T10:44:37Z</time>
      </trkpt>
      <trkpt lat="42.89675" lon="0.13475">
        <ele>2058</ele>
        <time>2012-12-16T10:44:41Z</time>
      </trkpt>
      <trkpt lat="42.89673" lon="0.13475">
        <ele>2059</ele>
        <time>2012-12-16T10:44:43Z</time>
      </trkpt>
      <trkpt lat="42.89672" lon="0.13475">
        <ele>2059</ele>
        <time>2012-12-16T10:44:47Z</time>
      </trkpt>
      <trkpt lat="42.89671" lon="0.13475">
        <ele>2060</ele>
        <time>2012-12-16T10:44:49Z</time>
      </trkpt>
      <trkpt lat="42.89669" lon="0.13475">
        <ele>2060</ele>
        <time>2012-12-16T10:44:52Z</time>
      </trkpt>
      <trkpt lat="42.89667" lon="0.13474">
        <ele>2062</ele>
        <time>2012-12-16T10:45:05Z</time>
      </trkpt>
      <trkpt lat="42.89664" lon="0.13474">
        <ele>2062</ele>
        <time>2012-12-16T10:45:06Z</time>
      </trkpt>
      <trkpt lat="42.89662" lon="0.13473">
        <ele>2062</ele>
        <time>2012-12-16T10:45:10Z</time>
      </trkpt>
      <trkpt lat="42.89661" lon="0.13472">
        <ele>2062</ele>
        <time>2012-12-16T10:45:12Z</time>
      </trkpt>
      <trkpt lat="42.8966" lon="0.13472">
        <ele>2062</ele>
        <time>2012-12-16T10:45:15Z</time>
      </trkpt>
      <trkpt lat="42.89658" lon="0.13471">
        <ele>2062</ele>
        <time>2012-12-16T10:45:17Z</time>
      </trkpt>
      <trkpt lat="42.89656" lon="0.13469">
        <ele>2063</ele>
        <time>2012-12-16T10:45:21Z</time>
      </trkpt>
      <trkpt lat="42.89655" lon="0.13468">
        <ele>2063</ele>
        <time>2012-12-16T10:45:22Z</time>
      </trkpt>
      <trkpt lat="42.89653" lon="0.13466">
        <ele>2063</ele>
        <time>2012-12-16T10:45:26Z</time>
      </trkpt>
      <trkpt lat="42.89651" lon="0.13465">
        <ele>2063</ele>
        <time>2012-12-16T10:45:28Z</time>
      </trkpt>
      <trkpt lat="42.89651" lon="0.13463">
        <ele>2065</ele>
        <time>2012-12-16T10:45:38Z</time>
      </trkpt>
      <trkpt lat="42.8965" lon="0.1346">
        <ele>2065</ele>
        <time>2012-12-16T10:45:40Z</time>
      </trkpt>
      <trkpt lat="42.89649" lon="0.13457">
        <ele>2065</ele>
        <time>2012-12-16T10:45:45Z</time>
      </trkpt>
      <trkpt lat="42.89648" lon="0.13456">
        <ele>2065</ele>
        <time>2012-12-16T10:45:46Z</time>
      </trkpt>
      <trkpt lat="42.89648" lon="0.13454">
        <ele>2065</ele>
        <time>2012-12-16T10:45:50Z</time>
      </trkpt>
      <trkpt lat="42.89647" lon="0.13452">
        <ele>2066</ele>
        <time>2012-12-16T10:45:51Z</time>
      </trkpt>
      <trkpt lat="42.89647" lon="0.1345">
        <ele>2066</ele>
        <time>2012-12-16T10:45:54Z</time>
      </trkpt>
      <trkpt lat="42.89646" lon="0.13448">
        <ele>2066</ele>
        <time>2012-12-16T10:45:56Z</time>
      </trkpt>
      <trkpt lat="42.89645" lon="0.13446">
        <ele>2066</ele>
        <time>2012-12-16T10:45:58Z</time>
      </trkpt>
      <trkpt lat="42.89644" lon="0.13445">
        <ele>2066</ele>
        <time>2012-12-16T10:46:02Z</time>
      </trkpt>
      <trkpt lat="42.89644" lon="0.13442">
        <ele>2067</ele>
        <time>2012-12-16T10:46:16Z</time>
      </trkpt>
      <trkpt lat="42.89642" lon="0.13442">
        <ele>2067</ele>
        <time>2012-12-16T10:46:19Z</time>
      </trkpt>
      <trkpt lat="42.89642" lon="0.13441">
        <ele>2069</ele>
        <time>2012-12-16T10:46:24Z</time>
      </trkpt>
      <trkpt lat="42.89642" lon="0.13443">
        <ele>2069</ele>
        <time>2012-12-16T10:46:27Z</time>
      </trkpt>
      <trkpt lat="42.89641" lon="0.13441">
        <ele>2071</ele>
        <time>2012-12-16T10:46:29Z</time>
      </trkpt>
      <trkpt lat="42.89641" lon="0.1344">
        <ele>2072</ele>
        <time>2012-12-16T10:46:39Z</time>
      </trkpt>
      <trkpt lat="42.8964" lon="0.13438">
        <ele>2073</ele>
        <time>2012-12-16T10:46:42Z</time>
      </trkpt>
      <trkpt lat="42.8964" lon="0.13437">
        <ele>2074</ele>
        <time>2012-12-16T10:46:44Z</time>
      </trkpt>
      <trkpt lat="42.8964" lon="0.13435">
        <ele>2075</ele>
        <time>2012-12-16T10:46:46Z</time>
      </trkpt>
      <trkpt lat="42.89639" lon="0.13433">
        <ele>2076</ele>
        <time>2012-12-16T10:46:48Z</time>
      </trkpt>
      <trkpt lat="42.89639" lon="0.13431">
        <ele>2078</ele>
        <time>2012-12-16T10:46:50Z</time>
      </trkpt>
      <trkpt lat="42.89638" lon="0.13431">
        <ele>2080</ele>
        <time>2012-12-16T10:46:55Z</time>
      </trkpt>
      <trkpt lat="42.89637" lon="0.13432">
        <ele>2080</ele>
        <time>2012-12-16T10:47:01Z</time>
      </trkpt>
      <trkpt lat="42.89639" lon="0.13434">
        <ele>2080</ele>
        <time>2012-12-16T10:47:04Z</time>
      </trkpt>
      <trkpt lat="42.8964" lon="0.13435">
        <ele>2080</ele>
        <time>2012-12-16T10:47:18Z</time>
      </trkpt>
      <trkpt lat="42.89641" lon="0.13437">
        <ele>2080</ele>
        <time>2012-12-16T10:47:21Z</time>
      </trkpt>
      <trkpt lat="42.89642" lon="0.13439">
        <ele>2080</ele>
        <time>2012-12-16T10:47:24Z</time>
      </trkpt>
      <trkpt lat="42.89643" lon="0.1344">
        <ele>2079</ele>
        <time>2012-12-16T10:47:32Z</time>
      </trkpt>
      <trkpt lat="42.89644" lon="0.13442">
        <ele>2077</ele>
        <time>2012-12-16T10:47:35Z</time>
      </trkpt>
      <trkpt lat="42.89645" lon="0.13443">
        <ele>2074</ele>
        <time>2012-12-16T10:47:49Z</time>
      </trkpt>
      <trkpt lat="42.89646" lon="0.13442">
        <ele>2074</ele>
        <time>2012-12-16T10:48:19Z</time>
      </trkpt>
      <trkpt lat="42.89645" lon="0.13441">
        <ele>2074</ele>
        <time>2012-12-16T10:48:21Z</time>
      </trkpt>
      <trkpt lat="42.89645" lon="0.13439">
        <ele>2074</ele>
        <time>2012-12-16T10:48:23Z</time>
      </trkpt>
      <trkpt lat="42.89644" lon="0.13438">
        <ele>2074</ele>
        <time>2012-12-16T10:48:25Z</time>
      </trkpt>
      <trkpt lat="42.89643" lon="0.1344">
        <ele>2074</ele>
        <time>2012-12-16T10:48:36Z</time>
      </trkpt>
      <trkpt lat="42.89644" lon="0.13442">
        <ele>2074</ele>
        <time>2012-12-16T10:48:40Z</time>
      </trkpt>
      <trkpt lat="42.89645" lon="0.13443">
        <ele>2074</ele>
        <time>2012-12-16T10:48:42Z</time>
      </trkpt>
      <trkpt lat="42.89645" lon="0.13445">
        <ele>2072</ele>
        <time>2012-12-16T10:48:45Z</time>
      </trkpt>
      <trkpt lat="42.89647" lon="0.13444">
        <ele>2071</ele>
        <time>2012-12-16T10:48:58Z</time>
      </trkpt>
      <trkpt lat="42.89648" lon="0.13444">
        <ele>2071</ele>
        <time>2012-12-16T10:49:06Z</time>
      </trkpt>
      <trkpt lat="42.89647" lon="0.13445">
        <ele>2071</ele>
        <time>2012-12-16T10:49:19Z</time>
      </trkpt>
      <trkpt lat="42.89647" lon="0.13447">
        <ele>2070</ele>
        <time>2012-12-16T10:49:24Z</time>
      </trkpt>
      <trkpt lat="42.89648" lon="0.13449">
        <ele>2069</ele>
        <time>2012-12-16T10:49:28Z</time>
      </trkpt>
      <trkpt lat="42.89648" lon="0.1345">
        <ele>2064</ele>
        <time>2012-12-16T10:49:40Z</time>
      </trkpt>
      <trkpt lat="42.89647" lon="0.13448">
        <ele>2063</ele>
        <time>2012-12-16T10:49:57Z</time>
      </trkpt>
      <trkpt lat="42.89647" lon="0.13446">
        <ele>2063</ele>
        <time>2012-12-16T10:50:01Z</time>
      </trkpt>
      <trkpt lat="42.89646" lon="0.13444">
        <ele>2063</ele>
        <time>2012-12-16T10:50:05Z</time>
      </trkpt>
      <trkpt lat="42.89645" lon="0.13442">
        <ele>2063</ele>
        <time>2012-12-16T10:50:08Z</time>
      </trkpt>
      <trkpt lat="42.89645" lon="0.13441">
        <ele>2064</ele>
        <time>2012-12-16T10:50:10Z</time>
      </trkpt>
      <trkpt lat="42.89645" lon="0.13443">
        <ele>2068</ele>
        <time>2012-12-16T10:50:19Z</time>
      </trkpt>
      <trkpt lat="42.89645" lon="0.13444">
        <ele>2068</ele>
        <time>2012-12-16T10:50:24Z</time>
      </trkpt>
      <trkpt lat="42.89646" lon="0.13446">
        <ele>2068</ele>
        <time>2012-12-16T10:50:32Z</time>
      </trkpt>
      <trkpt lat="42.89645" lon="0.13446">
        <ele>2068</ele>
        <time>2012-12-16T10:52:03Z</time>
      </trkpt>
      <trkpt lat="42.89646" lon="0.13447">
        <ele>2068</ele>
        <time>2012-12-16T10:52:14Z</time>
      </trkpt>
      <trkpt lat="42.89647" lon="0.13449">
        <ele>2068</ele>
        <time>2012-12-16T10:52:35Z</time>
      </trkpt>
      <trkpt lat="42.89646" lon="0.13447">
        <ele>2068</ele>
        <time>2012-12-16T10:52:40Z</time>
      </trkpt>
      <trkpt lat="42.89644" lon="0.13447">
        <ele>2068</ele>
        <time>2012-12-16T10:52:46Z</time>
      </trkpt>
      <trkpt lat="42.89643" lon="0.13445">
        <ele>2068</ele>
        <time>2012-12-16T10:52:49Z</time>
      </trkpt>
      <trkpt lat="42.89642" lon="0.13444">
        <ele>2067</ele>
        <time>2012-12-16T10:52:57Z</time>
      </trkpt>
      <trkpt lat="42.89641" lon="0.13442">
        <ele>2067</ele>
        <time>2012-12-16T10:52:59Z</time>
      </trkpt>
      <trkpt lat="42.8964" lon="0.13441">
        <ele>2067</ele>
        <time>2012-12-16T10:53:01Z</time>
      </trkpt>
      <trkpt lat="42.8964" lon="0.13443">
        <ele>2066</ele>
        <time>2012-12-16T10:53:04Z</time>
      </trkpt>
      <trkpt lat="42.89639" lon="0.13442">
        <ele>2063</ele>
        <time>2012-12-16T10:53:09Z</time>
      </trkpt>
      <trkpt lat="42.8964" lon="0.13443">
        <ele>2063</ele>
        <time>2012-12-16T10:53:13Z</time>
      </trkpt>
      <trkpt lat="42.89641" lon="0.13444">
        <ele>2063</ele>
        <time>2012-12-16T10:53:15Z</time>
      </trkpt>
      <trkpt lat="42.89642" lon="0.13445">
        <ele>2063</ele>
        <time>2012-12-16T10:53:18Z</time>
      </trkpt>
      <trkpt lat="42.89644" lon="0.13447">
        <ele>2063</ele>
        <time>2012-12-16T10:53:22Z</time>
      </trkpt>
      <trkpt lat="42.89643" lon="0.13445">
        <ele>2063</ele>
        <time>2012-12-16T10:53:28Z</time>
      </trkpt>
      <trkpt lat="42.89645" lon="0.13446">
        <ele>2063</ele>
        <time>2012-12-16T10:53:33Z</time>
      </trkpt>
      <trkpt lat="42.89644" lon="0.13444">
        <ele>2063</ele>
        <time>2012-12-16T10:53:40Z</time>
      </trkpt>
      <trkpt lat="42.89645" lon="0.13446">
        <ele>2063</ele>
        <time>2012-12-16T10:53:51Z</time>
      </trkpt>
      <trkpt lat="42.89645" lon="0.13447">
        <ele>2063</ele>
        <time>2012-12-16T10:53:55Z</time>
      </trkpt>
      <trkpt lat="42.89645" lon="0.13449">
        <ele>2063</ele>
        <time>2012-12-16T10:53:57Z</time>
      </trkpt>
      <trkpt lat="42.89644" lon="0.13451">
        <ele>2063</ele>
        <time>2012-12-16T10:53:59Z</time>
      </trkpt>
      <trkpt lat="42.89644" lon="0.13453">
        <ele>2063</ele>
        <time>2012-12-16T10:54:01Z</time>
      </trkpt>
      <trkpt lat="42.89642" lon="0.13453">
        <ele>2063</ele>
        <time>2012-12-16T10:54:10Z</time>
      </trkpt>
      <trkpt lat="42.89641" lon="0.13454">
        <ele>2063</ele>
        <time>2012-12-16T10:54:16Z</time>
      </trkpt>
      <trkpt lat="42.89641" lon="0.13456">
        <ele>2062</ele>
        <time>2012-12-16T10:54:18Z</time>
      </trkpt>
      <trkpt lat="42.8964" lon="0.13457">
        <ele>2059</ele>
        <time>2012-12-16T10:54:21Z</time>
      </trkpt>
      <trkpt lat="42.89641" lon="0.13455">
        <ele>2056</ele>
        <time>2012-12-16T10:54:31Z</time>
      </trkpt>
      <trkpt lat="42.89641" lon="0.13453">
        <ele>2057</ele>
        <time>2012-12-16T10:54:43Z</time>
      </trkpt>
      <trkpt lat="42.89641" lon="0.13454">
        <ele>2057</ele>
        <time>2012-12-16T10:54:44Z</time>
      </trkpt>
      <trkpt lat="42.89641" lon="0.13453">
        <ele>2058</ele>
        <time>2012-12-16T10:54:47Z</time>
      </trkpt>
      <trkpt lat="42.8964" lon="0.13451">
        <ele>2061</ele>
        <time>2012-12-16T10:54:50Z</time>
      </trkpt>
      <trkpt lat="42.8964" lon="0.1345">
        <ele>2063</ele>
        <time>2012-12-16T10:54:52Z</time>
      </trkpt>
      <trkpt lat="42.8964" lon="0.13451">
        <ele>2066</ele>
        <time>2012-12-16T10:55:05Z</time>
      </trkpt>
      <trkpt lat="42.8964" lon="0.1345">
        <ele>2063</ele>
        <time>2012-12-16T10:55:19Z</time>
      </trkpt>
      <trkpt lat="42.8964" lon="0.13448">
        <ele>2063</ele>
        <time>2012-12-16T10:55:22Z</time>
      </trkpt>
      <trkpt lat="42.89641" lon="0.13447">
        <ele>2063</ele>
        <time>2012-12-16T10:55:25Z</time>
      </trkpt>
      <trkpt lat="42.89642" lon="0.13448">
        <ele>2063</ele>
        <time>2012-12-16T10:55:32Z</time>
      </trkpt>
      <trkpt lat="42.89643" lon="0.13449">
        <ele>2063</ele>
        <time>2012-12-16T10:55:39Z</time>
      </trkpt>
      <trkpt lat="42.89644" lon="0.1345">
        <ele>2063</ele>
        <time>2012-12-16T10:55:49Z</time>
      </trkpt>
      <trkpt lat="42.89645" lon="0.13451">
        <ele>2063</ele>
        <time>2012-12-16T10:55:58Z</time>
      </trkpt>
      <trkpt lat="42.89646" lon="0.13451">
        <ele>2063</ele>
        <time>2012-12-16T10:56:02Z</time>
      </trkpt>
      <trkpt lat="42.89648" lon="0.13451">
        <ele>2063</ele>
        <time>2012-12-16T10:56:06Z</time>
      </trkpt>
      <trkpt lat="42.89649" lon="0.13451">
        <ele>2063</ele>
        <time>2012-12-16T10:56:13Z</time>
      </trkpt>
      <trkpt lat="42.89649" lon="0.13449">
        <ele>2063</ele>
        <time>2012-12-16T10:56:25Z</time>
      </trkpt>
      <trkpt lat="42.89649" lon="0.13447">
        <ele>2063</ele>
        <time>2012-12-16T10:56:27Z</time>
      </trkpt>
      <trkpt lat="42.89649" lon="0.13446">
        <ele>2063</ele>
        <time>2012-12-16T10:56:29Z</time>
      </trkpt>
      <trkpt lat="42.89648" lon="0.13444">
        <ele>2063</ele>
        <time>2012-12-16T10:56:32Z</time>
      </trkpt>
      <trkpt lat="42.89647" lon="0.13442">
        <ele>2063</ele>
        <time>2012-12-16T10:56:34Z</time>
      </trkpt>
      <trkpt lat="42.89645" lon="0.13441">
        <ele>2063</ele>
        <time>2012-12-16T10:56:36Z</time>
      </trkpt>
      <trkpt lat="42.89644" lon="0.13439">
        <ele>2063</ele>
        <time>2012-12-16T10:56:38Z</time>
      </trkpt>
      <trkpt lat="42.89643" lon="0.13437">
        <ele>2063</ele>
        <time>2012-12-16T10:56:40Z</time>
      </trkpt>
      <trkpt lat="42.89642" lon="0.13435">
        <ele>2063</ele>
        <time>2012-12-16T10:56:42Z</time>
      </trkpt>
      <trkpt lat="42.89641" lon="0.13433">
        <ele>2063</ele>
        <time>2012-12-16T10:56:43Z</time>
      </trkpt>
      <trkpt lat="42.8964" lon="0.13431">
        <ele>2063</ele>
        <time>2012-12-16T10:56:45Z</time>
      </trkpt>
      <trkpt lat="42.89639" lon="0.1343">
        <ele>2064</ele>
        <time>2012-12-16T10:56:47Z</time>
      </trkpt>
      <trkpt lat="42.89638" lon="0.13429">
        <ele>2065</ele>
        <time>2012-12-16T10:56:49Z</time>
      </trkpt>
      <trkpt lat="42.89636" lon="0.13427">
        <ele>2065</ele>
        <time>2012-12-16T10:56:51Z</time>
      </trkpt>
      <trkpt lat="42.89634" lon="0.13426">
        <ele>2065</ele>
        <time>2012-12-16T10:56:53Z</time>
      </trkpt>
      <trkpt lat="42.89632" lon="0.13426">
        <ele>2065</ele>
        <time>2012-12-16T10:56:55Z</time>
      </trkpt>
      <trkpt lat="42.89631" lon="0.13426">
        <ele>2066</ele>
        <time>2012-12-16T10:56:56Z</time>
      </trkpt>
      <trkpt lat="42.89629" lon="0.13425">
        <ele>2066</ele>
        <time>2012-12-16T10:56:58Z</time>
      </trkpt>
      <trkpt lat="42.89627" lon="0.13425">
        <ele>2067</ele>
        <time>2012-12-16T10:57:00Z</time>
      </trkpt>
      <trkpt lat="42.89626" lon="0.13425">
        <ele>2067</ele>
        <time>2012-12-16T10:57:02Z</time>
      </trkpt>
      <trkpt lat="42.89624" lon="0.13425">
        <ele>2068</ele>
        <time>2012-12-16T10:57:04Z</time>
      </trkpt>
      <trkpt lat="42.89623" lon="0.13426">
        <ele>2068</ele>
        <time>2012-12-16T10:57:06Z</time>
      </trkpt>
      <trkpt lat="42.89621" lon="0.13426">
        <ele>2068</ele>
        <time>2012-12-16T10:57:08Z</time>
      </trkpt>
      <trkpt lat="42.8962" lon="0.13427">
        <ele>2068</ele>
        <time>2012-12-16T10:57:10Z</time>
      </trkpt>
      <trkpt lat="42.89619" lon="0.13428">
        <ele>2069</ele>
        <time>2012-12-16T10:57:12Z</time>
      </trkpt>
      <trkpt lat="42.89618" lon="0.13427">
        <ele>2069</ele>
        <time>2012-12-16T10:57:14Z</time>
      </trkpt>
      <trkpt lat="42.89616" lon="0.13428">
        <ele>2069</ele>
        <time>2012-12-16T10:57:17Z</time>
      </trkpt>
      <trkpt lat="42.89614" lon="0.13429">
        <ele>2070</ele>
        <time>2012-12-16T10:57:19Z</time>
      </trkpt>
      <trkpt lat="42.89613" lon="0.13429">
        <ele>2070</ele>
        <time>2012-12-16T10:57:21Z</time>
      </trkpt>
      <trkpt lat="42.89611" lon="0.1343">
        <ele>2070</ele>
        <time>2012-12-16T10:57:23Z</time>
      </trkpt>
      <trkpt lat="42.8961" lon="0.13429">
        <ele>2070</ele>
        <time>2012-12-16T10:57:25Z</time>
      </trkpt>
      <trkpt lat="42.89608" lon="0.13428">
        <ele>2070</ele>
        <time>2012-12-16T10:57:27Z</time>
      </trkpt>
      <trkpt lat="42.89607" lon="0.13427">
        <ele>2071</ele>
        <time>2012-12-16T10:57:30Z</time>
      </trkpt>
      <trkpt lat="42.89606" lon="0.13425">
        <ele>2072</ele>
        <time>2012-12-16T10:57:33Z</time>
      </trkpt>
      <trkpt lat="42.89605" lon="0.13424">
        <ele>2072</ele>
        <time>2012-12-16T10:57:36Z</time>
      </trkpt>
      <trkpt lat="42.89603" lon="0.13422">
        <ele>2073</ele>
        <time>2012-12-16T10:57:39Z</time>
      </trkpt>
      <trkpt lat="42.89602" lon="0.13421">
        <ele>2073</ele>
        <time>2012-12-16T10:57:43Z</time>
      </trkpt>
      <trkpt lat="42.89601" lon="0.1342">
        <ele>2073</ele>
        <time>2012-12-16T10:57:46Z</time>
      </trkpt>
      <trkpt lat="42.896" lon="0.13419">
        <ele>2073</ele>
        <time>2012-12-16T10:57:49Z</time>
      </trkpt>
      <trkpt lat="42.89598" lon="0.13418">
        <ele>2073</ele>
        <time>2012-12-16T10:57:52Z</time>
      </trkpt>
      <trkpt lat="42.89597" lon="0.13416">
        <ele>2073</ele>
        <time>2012-12-16T10:57:55Z</time>
      </trkpt>
      <trkpt lat="42.89596" lon="0.13416">
        <ele>2074</ele>
        <time>2012-12-16T10:57:58Z</time>
      </trkpt>
      <trkpt lat="42.89594" lon="0.13415">
        <ele>2074</ele>
        <time>2012-12-16T10:58:01Z</time>
      </trkpt>
      <trkpt lat="42.89593" lon="0.13414">
        <ele>2074</ele>
        <time>2012-12-16T10:58:05Z</time>
      </trkpt>
      <trkpt lat="42.89592" lon="0.13413">
        <ele>2074</ele>
        <time>2012-12-16T10:58:08Z</time>
      </trkpt>
      <trkpt lat="42.8959" lon="0.13412">
        <ele>2075</ele>
        <time>2012-12-16T10:58:11Z</time>
      </trkpt>
      <trkpt lat="42.89589" lon="0.13411">
        <ele>2075</ele>
        <time>2012-12-16T10:58:15Z</time>
      </trkpt>
      <trkpt lat="42.89588" lon="0.1341">
        <ele>2076</ele>
        <time>2012-12-16T10:58:19Z</time>
      </trkpt>
      <trkpt lat="42.89587" lon="0.13408">
        <ele>2076</ele>
        <time>2012-12-16T10:58:22Z</time>
      </trkpt>
      <trkpt lat="42.89585" lon="0.13407">
        <ele>2076</ele>
        <time>2012-12-16T10:58:25Z</time>
      </trkpt>
      <trkpt lat="42.89584" lon="0.13406">
        <ele>2077</ele>
        <time>2012-12-16T10:58:28Z</time>
      </trkpt>
      <trkpt lat="42.89582" lon="0.13404">
        <ele>2078</ele>
        <time>2012-12-16T10:58:31Z</time>
      </trkpt>
      <trkpt lat="42.89581" lon="0.13403">
        <ele>2078</ele>
        <time>2012-12-16T10:58:34Z</time>
      </trkpt>
      <trkpt lat="42.8958" lon="0.13402">
        <ele>2078</ele>
        <time>2012-12-16T10:58:37Z</time>
      </trkpt>
      <trkpt lat="42.89579" lon="0.134">
        <ele>2078</ele>
        <time>2012-12-16T10:58:40Z</time>
      </trkpt>
      <trkpt lat="42.89577" lon="0.13399">
        <ele>2078</ele>
        <time>2012-12-16T10:58:43Z</time>
      </trkpt>
      <trkpt lat="42.89576" lon="0.13397">
        <ele>2079</ele>
        <time>2012-12-16T10:58:47Z</time>
      </trkpt>
      <trkpt lat="42.89575" lon="0.13396">
        <ele>2080</ele>
        <time>2012-12-16T10:58:51Z</time>
      </trkpt>
      <trkpt lat="42.89574" lon="0.13394">
        <ele>2080</ele>
        <time>2012-12-16T10:58:54Z</time>
      </trkpt>
      <trkpt lat="42.89573" lon="0.13392">
        <ele>2080</ele>
        <time>2012-12-16T10:58:57Z</time>
      </trkpt>
      <trkpt lat="42.89572" lon="0.1339">
        <ele>2081</ele>
        <time>2012-12-16T10:59:00Z</time>
      </trkpt>
      <trkpt lat="42.89572" lon="0.13388">
        <ele>2082</ele>
        <time>2012-12-16T10:59:03Z</time>
      </trkpt>
      <trkpt lat="42.89572" lon="0.13387">
        <ele>2082</ele>
        <time>2012-12-16T10:59:05Z</time>
      </trkpt>
      <trkpt lat="42.89571" lon="0.13385">
        <ele>2082</ele>
        <time>2012-12-16T10:59:08Z</time>
      </trkpt>
      <trkpt lat="42.89571" lon="0.13384">
        <ele>2082</ele>
        <time>2012-12-16T10:59:10Z</time>
      </trkpt>
      <trkpt lat="42.89571" lon="0.13382">
        <ele>2082</ele>
        <time>2012-12-16T10:59:13Z</time>
      </trkpt>
      <trkpt lat="42.89571" lon="0.1338">
        <ele>2083</ele>
        <time>2012-12-16T10:59:16Z</time>
      </trkpt>
      <trkpt lat="42.89571" lon="0.13378">
        <ele>2083</ele>
        <time>2012-12-16T10:59:18Z</time>
      </trkpt>
      <trkpt lat="42.8957" lon="0.13377">
        <ele>2084</ele>
        <time>2012-12-16T10:59:20Z</time>
      </trkpt>
      <trkpt lat="42.89569" lon="0.13375">
        <ele>2084</ele>
        <time>2012-12-16T10:59:22Z</time>
      </trkpt>
      <trkpt lat="42.89569" lon="0.13374">
        <ele>2085</ele>
        <time>2012-12-16T10:59:24Z</time>
      </trkpt>
      <trkpt lat="42.89568" lon="0.13372">
        <ele>2086</ele>
        <time>2012-12-16T10:59:28Z</time>
      </trkpt>
      <trkpt lat="42.89568" lon="0.1337">
        <ele>2086</ele>
        <time>2012-12-16T10:59:31Z</time>
      </trkpt>
      <trkpt lat="42.89567" lon="0.13368">
        <ele>2086</ele>
        <time>2012-12-16T10:59:34Z</time>
      </trkpt>
      <trkpt lat="42.89566" lon="0.13367">
        <ele>2087</ele>
        <time>2012-12-16T10:59:37Z</time>
      </trkpt>
      <trkpt lat="42.89564" lon="0.13365">
        <ele>2087</ele>
        <time>2012-12-16T10:59:40Z</time>
      </trkpt>
      <trkpt lat="42.89563" lon="0.13364">
        <ele>2088</ele>
        <time>2012-12-16T10:59:43Z</time>
      </trkpt>
      <trkpt lat="42.89562" lon="0.13362">
        <ele>2088</ele>
        <time>2012-12-16T10:59:46Z</time>
      </trkpt>
      <trkpt lat="42.89561" lon="0.13361">
        <ele>2089</ele>
        <time>2012-12-16T10:59:49Z</time>
      </trkpt>
      <trkpt lat="42.8956" lon="0.1336">
        <ele>2089</ele>
        <time>2012-12-16T10:59:51Z</time>
      </trkpt>
      <trkpt lat="42.89558" lon="0.13358">
        <ele>2090</ele>
        <time>2012-12-16T10:59:54Z</time>
      </trkpt>
      <trkpt lat="42.89557" lon="0.13358">
        <ele>2090</ele>
        <time>2012-12-16T10:59:56Z</time>
      </trkpt>
      <trkpt lat="42.89556" lon="0.13357">
        <ele>2090</ele>
        <time>2012-12-16T10:59:58Z</time>
      </trkpt>
      <trkpt lat="42.89554" lon="0.13355">
        <ele>2090</ele>
        <time>2012-12-16T11:00:00Z</time>
      </trkpt>
      <trkpt lat="42.89553" lon="0.13354">
        <ele>2090</ele>
        <time>2012-12-16T11:00:02Z</time>
      </trkpt>
      <trkpt lat="42.89552" lon="0.13353">
        <ele>2091</ele>
        <time>2012-12-16T11:00:04Z</time>
      </trkpt>
      <trkpt lat="42.8955" lon="0.13352">
        <ele>2091</ele>
        <time>2012-12-16T11:00:07Z</time>
      </trkpt>
      <trkpt lat="42.89549" lon="0.13352">
        <ele>2091</ele>
        <time>2012-12-16T11:00:10Z</time>
      </trkpt>
      <trkpt lat="42.89548" lon="0.13352">
        <ele>2091</ele>
        <time>2012-12-16T11:00:13Z</time>
      </trkpt>
      <trkpt lat="42.89546" lon="0.13351">
        <ele>2091</ele>
        <time>2012-12-16T11:00:16Z</time>
      </trkpt>
      <trkpt lat="42.89545" lon="0.1335">
        <ele>2092</ele>
        <time>2012-12-16T11:00:19Z</time>
      </trkpt>
      <trkpt lat="42.89544" lon="0.1335">
        <ele>2092</ele>
        <time>2012-12-16T11:00:21Z</time>
      </trkpt>
      <trkpt lat="42.89542" lon="0.13349">
        <ele>2092</ele>
        <time>2012-12-16T11:00:24Z</time>
      </trkpt>
      <trkpt lat="42.89541" lon="0.13349">
        <ele>2093</ele>
        <time>2012-12-16T11:00:26Z</time>
      </trkpt>
      <trkpt lat="42.89539" lon="0.13349">
        <ele>2093</ele>
        <time>2012-12-16T11:00:29Z</time>
      </trkpt>
      <trkpt lat="42.89537" lon="0.13349">
        <ele>2093</ele>
        <time>2012-12-16T11:00:32Z</time>
      </trkpt>
      <trkpt lat="42.89536" lon="0.13348">
        <ele>2093</ele>
        <time>2012-12-16T11:00:35Z</time>
      </trkpt>
      <trkpt lat="42.89534" lon="0.13348">
        <ele>2093</ele>
        <time>2012-12-16T11:00:38Z</time>
      </trkpt>
      <trkpt lat="42.89533" lon="0.13348">
        <ele>2093</ele>
        <time>2012-12-16T11:00:40Z</time>
      </trkpt>
      <trkpt lat="42.89532" lon="0.13348">
        <ele>2093</ele>
        <time>2012-12-16T11:00:43Z</time>
      </trkpt>
      <trkpt lat="42.89531" lon="0.13347">
        <ele>2094</ele>
        <time>2012-12-16T11:00:45Z</time>
      </trkpt>
      <trkpt lat="42.89529" lon="0.13346">
        <ele>2094</ele>
        <time>2012-12-16T11:00:47Z</time>
      </trkpt>
      <trkpt lat="42.89527" lon="0.13345">
        <ele>2095</ele>
        <time>2012-12-16T11:00:49Z</time>
      </trkpt>
      <trkpt lat="42.89526" lon="0.13344">
        <ele>2095</ele>
        <time>2012-12-16T11:00:51Z</time>
      </trkpt>
      <trkpt lat="42.89525" lon="0.13344">
        <ele>2096</ele>
        <time>2012-12-16T11:00:53Z</time>
      </trkpt>
      <trkpt lat="42.89523" lon="0.13343">
        <ele>2096</ele>
        <time>2012-12-16T11:00:55Z</time>
      </trkpt>
      <trkpt lat="42.89522" lon="0.13342">
        <ele>2096</ele>
        <time>2012-12-16T11:00:57Z</time>
      </trkpt>
      <trkpt lat="42.89521" lon="0.13342">
        <ele>2096</ele>
        <time>2012-12-16T11:01:00Z</time>
      </trkpt>
      <trkpt lat="42.8952" lon="0.13341">
        <ele>2096</ele>
        <time>2012-12-16T11:01:03Z</time>
      </trkpt>
      <trkpt lat="42.89519" lon="0.1334">
        <ele>2096</ele>
        <time>2012-12-16T11:01:06Z</time>
      </trkpt>
      <trkpt lat="42.89518" lon="0.13338">
        <ele>2096</ele>
        <time>2012-12-16T11:01:08Z</time>
      </trkpt>
      <trkpt lat="42.89516" lon="0.13338">
        <ele>2096</ele>
        <time>2012-12-16T11:01:11Z</time>
      </trkpt>
      <trkpt lat="42.89515" lon="0.13337">
        <ele>2096</ele>
        <time>2012-12-16T11:01:13Z</time>
      </trkpt>
      <trkpt lat="42.89513" lon="0.13336">
        <ele>2096</ele>
        <time>2012-12-16T11:01:15Z</time>
      </trkpt>
      <trkpt lat="42.89512" lon="0.13336">
        <ele>2096</ele>
        <time>2012-12-16T11:01:17Z</time>
      </trkpt>
      <trkpt lat="42.89511" lon="0.13337">
        <ele>2096</ele>
        <time>2012-12-16T11:01:19Z</time>
      </trkpt>
      <trkpt lat="42.8951" lon="0.13337">
        <ele>2096</ele>
        <time>2012-12-16T11:01:21Z</time>
      </trkpt>
      <trkpt lat="42.89508" lon="0.13338">
        <ele>2096</ele>
        <time>2012-12-16T11:01:23Z</time>
      </trkpt>
      <trkpt lat="42.89507" lon="0.13338">
        <ele>2096</ele>
        <time>2012-12-16T11:01:25Z</time>
      </trkpt>
      <trkpt lat="42.89505" lon="0.13338">
        <ele>2096</ele>
        <time>2012-12-16T11:01:28Z</time>
      </trkpt>
      <trkpt lat="42.89504" lon="0.13338">
        <ele>2096</ele>
        <time>2012-12-16T11:01:30Z</time>
      </trkpt>
      <trkpt lat="42.89503" lon="0.13338">
        <ele>2097</ele>
        <time>2012-12-16T11:01:33Z</time>
      </trkpt>
      <trkpt lat="42.89502" lon="0.13338">
        <ele>2098</ele>
        <time>2012-12-16T11:01:36Z</time>
      </trkpt>
      <trkpt lat="42.89501" lon="0.13337">
        <ele>2098</ele>
        <time>2012-12-16T11:01:40Z</time>
      </trkpt>
      <trkpt lat="42.89501" lon="0.13335">
        <ele>2099</ele>
        <time>2012-12-16T11:01:43Z</time>
      </trkpt>
      <trkpt lat="42.89502" lon="0.13333">
        <ele>2099</ele>
        <time>2012-12-16T11:01:45Z</time>
      </trkpt>
      <trkpt lat="42.89503" lon="0.13331">
        <ele>2099</ele>
        <time>2012-12-16T11:01:48Z</time>
      </trkpt>
      <trkpt lat="42.89504" lon="0.1333">
        <ele>2099</ele>
        <time>2012-12-16T11:01:52Z</time>
      </trkpt>
      <trkpt lat="42.89505" lon="0.13329">
        <ele>2099</ele>
        <time>2012-12-16T11:01:55Z</time>
      </trkpt>
      <trkpt lat="42.89506" lon="0.13327">
        <ele>2100</ele>
        <time>2012-12-16T11:01:58Z</time>
      </trkpt>
      <trkpt lat="42.89506" lon="0.13326">
        <ele>2101</ele>
        <time>2012-12-16T11:02:02Z</time>
      </trkpt>
      <trkpt lat="42.89507" lon="0.13324">
        <ele>2101</ele>
        <time>2012-12-16T11:02:06Z</time>
      </trkpt>
      <trkpt lat="42.89505" lon="0.13324">
        <ele>2102</ele>
        <time>2012-12-16T11:02:11Z</time>
      </trkpt>
      <trkpt lat="42.89504" lon="0.13324">
        <ele>2103</ele>
        <time>2012-12-16T11:02:15Z</time>
      </trkpt>
      <trkpt lat="42.89503" lon="0.13324">
        <ele>2103</ele>
        <time>2012-12-16T11:02:18Z</time>
      </trkpt>
      <trkpt lat="42.89502" lon="0.13323">
        <ele>2104</ele>
        <time>2012-12-16T11:02:20Z</time>
      </trkpt>
      <trkpt lat="42.895" lon="0.13323">
        <ele>2104</ele>
        <time>2012-12-16T11:02:22Z</time>
      </trkpt>
      <trkpt lat="42.89499" lon="0.13323">
        <ele>2104</ele>
        <time>2012-12-16T11:02:24Z</time>
      </trkpt>
      <trkpt lat="42.89497" lon="0.13323">
        <ele>2104</ele>
        <time>2012-12-16T11:02:26Z</time>
      </trkpt>
      <trkpt lat="42.89496" lon="0.13324">
        <ele>2104</ele>
        <time>2012-12-16T11:02:28Z</time>
      </trkpt>
      <trkpt lat="42.89495" lon="0.13324">
        <ele>2105</ele>
        <time>2012-12-16T11:02:30Z</time>
      </trkpt>
      <trkpt lat="42.89494" lon="0.13324">
        <ele>2105</ele>
        <time>2012-12-16T11:02:33Z</time>
      </trkpt>
      <trkpt lat="42.89492" lon="0.13323">
        <ele>2105</ele>
        <time>2012-12-16T11:02:36Z</time>
      </trkpt>
      <trkpt lat="42.89491" lon="0.13323">
        <ele>2106</ele>
        <time>2012-12-16T11:02:38Z</time>
      </trkpt>
      <trkpt lat="42.89489" lon="0.13323">
        <ele>2106</ele>
        <time>2012-12-16T11:02:41Z</time>
      </trkpt>
      <trkpt lat="42.89488" lon="0.13323">
        <ele>2106</ele>
        <time>2012-12-16T11:02:44Z</time>
      </trkpt>
      <trkpt lat="42.89486" lon="0.13323">
        <ele>2107</ele>
        <time>2012-12-16T11:02:47Z</time>
      </trkpt>
      <trkpt lat="42.89485" lon="0.13323">
        <ele>2107</ele>
        <time>2012-12-16T11:02:50Z</time>
      </trkpt>
      <trkpt lat="42.89483" lon="0.13323">
        <ele>2108</ele>
        <time>2012-12-16T11:02:53Z</time>
      </trkpt>
      <trkpt lat="42.89482" lon="0.13323">
        <ele>2108</ele>
        <time>2012-12-16T11:02:56Z</time>
      </trkpt>
      <trkpt lat="42.8948" lon="0.13324">
        <ele>2108</ele>
        <time>2012-12-16T11:02:59Z</time>
      </trkpt>
      <trkpt lat="42.89479" lon="0.13323">
        <ele>2109</ele>
        <time>2012-12-16T11:03:01Z</time>
      </trkpt>
      <trkpt lat="42.89478" lon="0.13323">
        <ele>2109</ele>
        <time>2012-12-16T11:03:04Z</time>
      </trkpt>
      <trkpt lat="42.89476" lon="0.13323">
        <ele>2109</ele>
        <time>2012-12-16T11:03:06Z</time>
      </trkpt>
      <trkpt lat="42.89475" lon="0.13323">
        <ele>2110</ele>
        <time>2012-12-16T11:03:09Z</time>
      </trkpt>
      <trkpt lat="42.89474" lon="0.13322">
        <ele>2110</ele>
        <time>2012-12-16T11:03:12Z</time>
      </trkpt>
      <trkpt lat="42.89473" lon="0.13321">
        <ele>2111</ele>
        <time>2012-12-16T11:03:15Z</time>
      </trkpt>
      <trkpt lat="42.89472" lon="0.1332">
        <ele>2111</ele>
        <time>2012-12-16T11:03:18Z</time>
      </trkpt>
      <trkpt lat="42.89471" lon="0.13319">
        <ele>2112</ele>
        <time>2012-12-16T11:03:22Z</time>
      </trkpt>
      <trkpt lat="42.89469" lon="0.13318">
        <ele>2112</ele>
        <time>2012-12-16T11:03:25Z</time>
      </trkpt>
      <trkpt lat="42.89468" lon="0.13317">
        <ele>2112</ele>
        <time>2012-12-16T11:03:29Z</time>
      </trkpt>
      <trkpt lat="42.89467" lon="0.13316">
        <ele>2113</ele>
        <time>2012-12-16T11:03:33Z</time>
      </trkpt>
      <trkpt lat="42.89465" lon="0.13315">
        <ele>2113</ele>
        <time>2012-12-16T11:03:36Z</time>
      </trkpt>
      <trkpt lat="42.89464" lon="0.13314">
        <ele>2114</ele>
        <time>2012-12-16T11:03:52Z</time>
      </trkpt>
      <trkpt lat="42.89463" lon="0.13313">
        <ele>2114</ele>
        <time>2012-12-16T11:03:54Z</time>
      </trkpt>
      <trkpt lat="42.89461" lon="0.13312">
        <ele>2114</ele>
        <time>2012-12-16T11:03:57Z</time>
      </trkpt>
      <trkpt lat="42.8946" lon="0.13312">
        <ele>2114</ele>
        <time>2012-12-16T11:03:59Z</time>
      </trkpt>
      <trkpt lat="42.89459" lon="0.13311">
        <ele>2114</ele>
        <time>2012-12-16T11:04:02Z</time>
      </trkpt>
      <trkpt lat="42.89457" lon="0.1331">
        <ele>2115</ele>
        <time>2012-12-16T11:04:05Z</time>
      </trkpt>
      <trkpt lat="42.89456" lon="0.13309">
        <ele>2115</ele>
        <time>2012-12-16T11:04:07Z</time>
      </trkpt>
      <trkpt lat="42.89454" lon="0.13308">
        <ele>2115</ele>
        <time>2012-12-16T11:04:10Z</time>
      </trkpt>
      <trkpt lat="42.89453" lon="0.13307">
        <ele>2116</ele>
        <time>2012-12-16T11:04:12Z</time>
      </trkpt>
      <trkpt lat="42.89452" lon="0.13306">
        <ele>2116</ele>
        <time>2012-12-16T11:04:14Z</time>
      </trkpt>
      <trkpt lat="42.8945" lon="0.13304">
        <ele>2116</ele>
        <time>2012-12-16T11:04:17Z</time>
      </trkpt>
      <trkpt lat="42.89449" lon="0.13303">
        <ele>2117</ele>
        <time>2012-12-16T11:04:19Z</time>
      </trkpt>
      <trkpt lat="42.89448" lon="0.13302">
        <ele>2117</ele>
        <time>2012-12-16T11:04:22Z</time>
      </trkpt>
      <trkpt lat="42.89447" lon="0.133">
        <ele>2118</ele>
        <time>2012-12-16T11:04:25Z</time>
      </trkpt>
      <trkpt lat="42.89445" lon="0.13298">
        <ele>2118</ele>
        <time>2012-12-16T11:04:28Z</time>
      </trkpt>
      <trkpt lat="42.89445" lon="0.13297">
        <ele>2118</ele>
        <time>2012-12-16T11:04:31Z</time>
      </trkpt>
      <trkpt lat="42.89444" lon="0.13295">
        <ele>2119</ele>
        <time>2012-12-16T11:04:33Z</time>
      </trkpt>
      <trkpt lat="42.89444" lon="0.13294">
        <ele>2119</ele>
        <time>2012-12-16T11:04:35Z</time>
      </trkpt>
      <trkpt lat="42.89443" lon="0.13292">
        <ele>2120</ele>
        <time>2012-12-16T11:04:37Z</time>
      </trkpt>
      <trkpt lat="42.89442" lon="0.13291">
        <ele>2120</ele>
        <time>2012-12-16T11:04:39Z</time>
      </trkpt>
      <trkpt lat="42.89442" lon="0.13289">
        <ele>2121</ele>
        <time>2012-12-16T11:04:42Z</time>
      </trkpt>
      <trkpt lat="42.89441" lon="0.13287">
        <ele>2121</ele>
        <time>2012-12-16T11:04:44Z</time>
      </trkpt>
      <trkpt lat="42.89441" lon="0.13285">
        <ele>2122</ele>
        <time>2012-12-16T11:04:47Z</time>
      </trkpt>
      <trkpt lat="42.89441" lon="0.13283">
        <ele>2123</ele>
        <time>2012-12-16T11:04:50Z</time>
      </trkpt>
      <trkpt lat="42.89441" lon="0.13282">
        <ele>2123</ele>
        <time>2012-12-16T11:04:52Z</time>
      </trkpt>
      <trkpt lat="42.89442" lon="0.1328">
        <ele>2123</ele>
        <time>2012-12-16T11:04:54Z</time>
      </trkpt>
      <trkpt lat="42.89442" lon="0.13278">
        <ele>2124</ele>
        <time>2012-12-16T11:04:56Z</time>
      </trkpt>
      <trkpt lat="42.89441" lon="0.13277">
        <ele>2124</ele>
        <time>2012-12-16T11:05:00Z</time>
      </trkpt>
      <trkpt lat="42.8944" lon="0.13275">
        <ele>2124</ele>
        <time>2012-12-16T11:05:03Z</time>
      </trkpt>
      <trkpt lat="42.89439" lon="0.13273">
        <ele>2125</ele>
        <time>2012-12-16T11:05:06Z</time>
      </trkpt>
      <trkpt lat="42.89438" lon="0.13272">
        <ele>2125</ele>
        <time>2012-12-16T11:05:09Z</time>
      </trkpt>
      <trkpt lat="42.89437" lon="0.13271">
        <ele>2125</ele>
        <time>2012-12-16T11:05:11Z</time>
      </trkpt>
      <trkpt lat="42.89435" lon="0.13271">
        <ele>2126</ele>
        <time>2012-12-16T11:05:14Z</time>
      </trkpt>
      <trkpt lat="42.89434" lon="0.1327">
        <ele>2126</ele>
        <time>2012-12-16T11:05:16Z</time>
      </trkpt>
      <trkpt lat="42.89433" lon="0.13269">
        <ele>2126</ele>
        <time>2012-12-16T11:05:18Z</time>
      </trkpt>
      <trkpt lat="42.89431" lon="0.13268">
        <ele>2126</ele>
        <time>2012-12-16T11:05:21Z</time>
      </trkpt>
      <trkpt lat="42.8943" lon="0.13266">
        <ele>2127</ele>
        <time>2012-12-16T11:05:24Z</time>
      </trkpt>
      <trkpt lat="42.89429" lon="0.13265">
        <ele>2127</ele>
        <time>2012-12-16T11:05:27Z</time>
      </trkpt>
      <trkpt lat="42.89427" lon="0.13264">
        <ele>2127</ele>
        <time>2012-12-16T11:05:30Z</time>
      </trkpt>
      <trkpt lat="42.89426" lon="0.13262">
        <ele>2128</ele>
        <time>2012-12-16T11:05:33Z</time>
      </trkpt>
      <trkpt lat="42.89425" lon="0.13261">
        <ele>2128</ele>
        <time>2012-12-16T11:05:36Z</time>
      </trkpt>
      <trkpt lat="42.89424" lon="0.13259">
        <ele>2129</ele>
        <time>2012-12-16T11:05:44Z</time>
      </trkpt>
      <trkpt lat="42.89425" lon="0.13259">
        <ele>2130</ele>
        <time>2012-12-16T11:06:00Z</time>
      </trkpt>
      <trkpt lat="42.89426" lon="0.13259">
        <ele>2130</ele>
        <time>2012-12-16T11:06:02Z</time>
      </trkpt>
      <trkpt lat="42.89428" lon="0.13259">
        <ele>2130</ele>
        <time>2012-12-16T11:06:04Z</time>
      </trkpt>
      <trkpt lat="42.89429" lon="0.13259">
        <ele>2130</ele>
        <time>2012-12-16T11:06:06Z</time>
      </trkpt>
      <trkpt lat="42.8943" lon="0.13259">
        <ele>2131</ele>
        <time>2012-12-16T11:06:08Z</time>
      </trkpt>
      <trkpt lat="42.89431" lon="0.13259">
        <ele>2132</ele>
        <time>2012-12-16T11:06:10Z</time>
      </trkpt>
      <trkpt lat="42.89433" lon="0.13258">
        <ele>2132</ele>
        <time>2012-12-16T11:06:12Z</time>
      </trkpt>
      <trkpt lat="42.89434" lon="0.13257">
        <ele>2132</ele>
        <time>2012-12-16T11:06:15Z</time>
      </trkpt>
      <trkpt lat="42.89436" lon="0.13257">
        <ele>2132</ele>
        <time>2012-12-16T11:06:17Z</time>
      </trkpt>
      <trkpt lat="42.89437" lon="0.13255">
        <ele>2133</ele>
        <time>2012-12-16T11:06:20Z</time>
      </trkpt>
      <trkpt lat="42.89439" lon="0.13254">
        <ele>2133</ele>
        <time>2012-12-16T11:06:23Z</time>
      </trkpt>
      <trkpt lat="42.8944" lon="0.13253">
        <ele>2134</ele>
        <time>2012-12-16T11:06:30Z</time>
      </trkpt>
      <trkpt lat="42.89438" lon="0.13253">
        <ele>2136</ele>
        <time>2012-12-16T11:06:33Z</time>
      </trkpt>
      <trkpt lat="42.89439" lon="0.13251">
        <ele>2136</ele>
        <time>2012-12-16T11:06:48Z</time>
      </trkpt>
      <trkpt lat="42.89439" lon="0.13249">
        <ele>2136</ele>
        <time>2012-12-16T11:06:50Z</time>
      </trkpt>
      <trkpt lat="42.89439" lon="0.13247">
        <ele>2136</ele>
        <time>2012-12-16T11:06:52Z</time>
      </trkpt>
      <trkpt lat="42.89439" lon="0.13246">
        <ele>2136</ele>
        <time>2012-12-16T11:06:54Z</time>
      </trkpt>
      <trkpt lat="42.89438" lon="0.13245">
        <ele>2136</ele>
        <time>2012-12-16T11:06:56Z</time>
      </trkpt>
      <trkpt lat="42.89437" lon="0.13244">
        <ele>2136</ele>
        <time>2012-12-16T11:06:58Z</time>
      </trkpt>
      <trkpt lat="42.89435" lon="0.13242">
        <ele>2136</ele>
        <time>2012-12-16T11:07:01Z</time>
      </trkpt>
      <trkpt lat="42.89434" lon="0.13241">
        <ele>2136</ele>
        <time>2012-12-16T11:07:04Z</time>
      </trkpt>
      <trkpt lat="42.89432" lon="0.1324">
        <ele>2136</ele>
        <time>2012-12-16T11:07:06Z</time>
      </trkpt>
      <trkpt lat="42.89431" lon="0.13239">
        <ele>2136</ele>
        <time>2012-12-16T11:07:09Z</time>
      </trkpt>
      <trkpt lat="42.8943" lon="0.13239">
        <ele>2136</ele>
        <time>2012-12-16T11:07:11Z</time>
      </trkpt>
      <trkpt lat="42.89429" lon="0.13238">
        <ele>2136</ele>
        <time>2012-12-16T11:07:13Z</time>
      </trkpt>
      <trkpt lat="42.89427" lon="0.13238">
        <ele>2136</ele>
        <time>2012-12-16T11:07:16Z</time>
      </trkpt>
      <trkpt lat="42.89426" lon="0.13238">
        <ele>2136</ele>
        <time>2012-12-16T11:07:18Z</time>
      </trkpt>
      <trkpt lat="42.89425" lon="0.13238">
        <ele>2136</ele>
        <time>2012-12-16T11:07:21Z</time>
      </trkpt>
      <trkpt lat="42.89423" lon="0.13237">
        <ele>2136</ele>
        <time>2012-12-16T11:07:23Z</time>
      </trkpt>
      <trkpt lat="42.89421" lon="0.13237">
        <ele>2136</ele>
        <time>2012-12-16T11:07:26Z</time>
      </trkpt>
      <trkpt lat="42.8942" lon="0.13237">
        <ele>2136</ele>
        <time>2012-12-16T11:07:28Z</time>
      </trkpt>
      <trkpt lat="42.89419" lon="0.13237">
        <ele>2136</ele>
        <time>2012-12-16T11:07:30Z</time>
      </trkpt>
      <trkpt lat="42.89418" lon="0.13237">
        <ele>2136</ele>
        <time>2012-12-16T11:07:32Z</time>
      </trkpt>
      <trkpt lat="42.89416" lon="0.13237">
        <ele>2136</ele>
        <time>2012-12-16T11:07:35Z</time>
      </trkpt>
      <trkpt lat="42.89415" lon="0.13237">
        <ele>2136</ele>
        <time>2012-12-16T11:07:37Z</time>
      </trkpt>
      <trkpt lat="42.89414" lon="0.13237">
        <ele>2137</ele>
        <time>2012-12-16T11:07:40Z</time>
      </trkpt>
      <trkpt lat="42.89412" lon="0.13237">
        <ele>2138</ele>
        <time>2012-12-16T11:07:42Z</time>
      </trkpt>
      <trkpt lat="42.89413" lon="0.13236">
        <ele>2140</ele>
        <time>2012-12-16T11:07:59Z</time>
      </trkpt>
      <trkpt lat="42.89414" lon="0.13234">
        <ele>2140</ele>
        <time>2012-12-16T11:08:02Z</time>
      </trkpt>
      <trkpt lat="42.89415" lon="0.13233">
        <ele>2141</ele>
        <time>2012-12-16T11:08:05Z</time>
      </trkpt>
      <trkpt lat="42.89416" lon="0.13231">
        <ele>2143</ele>
        <time>2012-12-16T11:08:20Z</time>
      </trkpt>
      <trkpt lat="42.89417" lon="0.1323">
        <ele>2143</ele>
        <time>2012-12-16T11:08:22Z</time>
      </trkpt>
      <trkpt lat="42.89418" lon="0.13229">
        <ele>2144</ele>
        <time>2012-12-16T11:08:25Z</time>
      </trkpt>
      <trkpt lat="42.8942" lon="0.13227">
        <ele>2145</ele>
        <time>2012-12-16T11:08:28Z</time>
      </trkpt>
      <trkpt lat="42.89421" lon="0.13226">
        <ele>2145</ele>
        <time>2012-12-16T11:08:31Z</time>
      </trkpt>
      <trkpt lat="42.89422" lon="0.13224">
        <ele>2146</ele>
        <time>2012-12-16T11:08:34Z</time>
      </trkpt>
      <trkpt lat="42.8942" lon="0.13224">
        <ele>2147</ele>
        <time>2012-12-16T11:08:49Z</time>
      </trkpt>
      <trkpt lat="42.89419" lon="0.13224">
        <ele>2147</ele>
        <time>2012-12-16T11:08:52Z</time>
      </trkpt>
      <trkpt lat="42.89418" lon="0.13224">
        <ele>2147</ele>
        <time>2012-12-16T11:08:54Z</time>
      </trkpt>
      <trkpt lat="42.89416" lon="0.13224">
        <ele>2147</ele>
        <time>2012-12-16T11:08:57Z</time>
      </trkpt>
      <trkpt lat="42.89415" lon="0.13224">
        <ele>2147</ele>
        <time>2012-12-16T11:08:59Z</time>
      </trkpt>
      <trkpt lat="42.89417" lon="0.13222">
        <ele>2149</ele>
        <time>2012-12-16T11:09:32Z</time>
      </trkpt>
      <trkpt lat="42.89418" lon="0.1322">
        <ele>2150</ele>
        <time>2012-12-16T11:09:35Z</time>
      </trkpt>
      <trkpt lat="42.89419" lon="0.13219">
        <ele>2150</ele>
        <time>2012-12-16T11:09:38Z</time>
      </trkpt>
      <trkpt lat="42.8942" lon="0.13218">
        <ele>2150</ele>
        <time>2012-12-16T11:09:40Z</time>
      </trkpt>
      <trkpt lat="42.89421" lon="0.13216">
        <ele>2151</ele>
        <time>2012-12-16T11:09:42Z</time>
      </trkpt>
      <trkpt lat="42.89423" lon="0.13215">
        <ele>2151</ele>
        <time>2012-12-16T11:09:44Z</time>
      </trkpt>
      <trkpt lat="42.89424" lon="0.13214">
        <ele>2152</ele>
        <time>2012-12-16T11:09:47Z</time>
      </trkpt>
      <trkpt lat="42.89425" lon="0.13213">
        <ele>2152</ele>
        <time>2012-12-16T11:09:49Z</time>
      </trkpt>
      <trkpt lat="42.89427" lon="0.13211">
        <ele>2153</ele>
        <time>2012-12-16T11:09:52Z</time>
      </trkpt>
      <trkpt lat="42.89428" lon="0.13209">
        <ele>2153</ele>
        <time>2012-12-16T11:09:54Z</time>
      </trkpt>
      <trkpt lat="42.89429" lon="0.13208">
        <ele>2153</ele>
        <time>2012-12-16T11:09:57Z</time>
      </trkpt>
      <trkpt lat="42.8943" lon="0.13206">
        <ele>2154</ele>
        <time>2012-12-16T11:10:00Z</time>
      </trkpt>
      <trkpt lat="42.8943" lon="0.13204">
        <ele>2154</ele>
        <time>2012-12-16T11:10:03Z</time>
      </trkpt>
      <trkpt lat="42.8943" lon="0.13203">
        <ele>2154</ele>
        <time>2012-12-16T11:10:05Z</time>
      </trkpt>
      <trkpt lat="42.89431" lon="0.13201">
        <ele>2154</ele>
        <time>2012-12-16T11:10:08Z</time>
      </trkpt>
      <trkpt lat="42.8943" lon="0.132">
        <ele>2154</ele>
        <time>2012-12-16T11:10:21Z</time>
      </trkpt>
      <trkpt lat="42.89428" lon="0.132">
        <ele>2154</ele>
        <time>2012-12-16T11:10:24Z</time>
      </trkpt>
      <trkpt lat="42.89427" lon="0.132">
        <ele>2154</ele>
        <time>2012-12-16T11:10:26Z</time>
      </trkpt>
      <trkpt lat="42.89426" lon="0.132">
        <ele>2154</ele>
        <time>2012-12-16T11:10:29Z</time>
      </trkpt>
      <trkpt lat="42.89424" lon="0.132">
        <ele>2155</ele>
        <time>2012-12-16T11:10:31Z</time>
      </trkpt>
      <trkpt lat="42.89423" lon="0.13199">
        <ele>2155</ele>
        <time>2012-12-16T11:10:34Z</time>
      </trkpt>
      <trkpt lat="42.89422" lon="0.13198">
        <ele>2155</ele>
        <time>2012-12-16T11:10:37Z</time>
      </trkpt>
      <trkpt lat="42.8942" lon="0.13197">
        <ele>2155</ele>
        <time>2012-12-16T11:10:40Z</time>
      </trkpt>
      <trkpt lat="42.89419" lon="0.13196">
        <ele>2156</ele>
        <time>2012-12-16T11:10:44Z</time>
      </trkpt>
      <trkpt lat="42.89418" lon="0.13195">
        <ele>2156</ele>
        <time>2012-12-16T11:10:47Z</time>
      </trkpt>
      <trkpt lat="42.89418" lon="0.13193">
        <ele>2156</ele>
        <time>2012-12-16T11:10:50Z</time>
      </trkpt>
      <trkpt lat="42.89418" lon="0.13192">
        <ele>2157</ele>
        <time>2012-12-16T11:10:53Z</time>
      </trkpt>
      <trkpt lat="42.89418" lon="0.1319">
        <ele>2158</ele>
        <time>2012-12-16T11:10:56Z</time>
      </trkpt>
      <trkpt lat="42.89418" lon="0.13188">
        <ele>2158</ele>
        <time>2012-12-16T11:10:58Z</time>
      </trkpt>
      <trkpt lat="42.89418" lon="0.13187">
        <ele>2159</ele>
        <time>2012-12-16T11:11:01Z</time>
      </trkpt>
      <trkpt lat="42.89418" lon="0.13185">
        <ele>2160</ele>
        <time>2012-12-16T11:11:16Z</time>
      </trkpt>
      <trkpt lat="42.89418" lon="0.13183">
        <ele>2161</ele>
        <time>2012-12-16T11:11:19Z</time>
      </trkpt>
      <trkpt lat="42.8942" lon="0.13183">
        <ele>2162</ele>
        <time>2012-12-16T11:11:24Z</time>
      </trkpt>
      <trkpt lat="42.89419" lon="0.13181">
        <ele>2163</ele>
        <time>2012-12-16T11:11:39Z</time>
      </trkpt>
      <trkpt lat="42.89418" lon="0.1318">
        <ele>2163</ele>
        <time>2012-12-16T11:11:42Z</time>
      </trkpt>
      <trkpt lat="42.89419" lon="0.13179">
        <ele>2164</ele>
        <time>2012-12-16T11:11:59Z</time>
      </trkpt>
      <trkpt lat="42.8942" lon="0.13179">
        <ele>2164</ele>
        <time>2012-12-16T11:12:02Z</time>
      </trkpt>
      <trkpt lat="42.89421" lon="0.13178">
        <ele>2165</ele>
        <time>2012-12-16T11:12:05Z</time>
      </trkpt>
      <trkpt lat="42.89421" lon="0.13176">
        <ele>2166</ele>
        <time>2012-12-16T11:12:08Z</time>
      </trkpt>
      <trkpt lat="42.8942" lon="0.13175">
        <ele>2167</ele>
        <time>2012-12-16T11:12:12Z</time>
      </trkpt>
      <trkpt lat="42.89418" lon="0.13174">
        <ele>2167</ele>
        <time>2012-12-16T11:12:15Z</time>
      </trkpt>
      <trkpt lat="42.89417" lon="0.13174">
        <ele>2168</ele>
        <time>2012-12-16T11:12:24Z</time>
      </trkpt>
      <trkpt lat="42.89416" lon="0.13173">
        <ele>2168</ele>
        <time>2012-12-16T11:12:26Z</time>
      </trkpt>
      <trkpt lat="42.89415" lon="0.13173">
        <ele>2168</ele>
        <time>2012-12-16T11:12:28Z</time>
      </trkpt>
      <trkpt lat="42.89413" lon="0.13172">
        <ele>2168</ele>
        <time>2012-12-16T11:12:30Z</time>
      </trkpt>
      <trkpt lat="42.89412" lon="0.13172">
        <ele>2169</ele>
        <time>2012-12-16T11:12:33Z</time>
      </trkpt>
      <trkpt lat="42.8941" lon="0.13171">
        <ele>2169</ele>
        <time>2012-12-16T11:12:36Z</time>
      </trkpt>
      <trkpt lat="42.89409" lon="0.13171">
        <ele>2170</ele>
        <time>2012-12-16T11:12:39Z</time>
      </trkpt>
      <trkpt lat="42.89408" lon="0.13171">
        <ele>2170</ele>
        <time>2012-12-16T11:12:42Z</time>
      </trkpt>
      <trkpt lat="42.89406" lon="0.1317">
        <ele>2170</ele>
        <time>2012-12-16T11:12:45Z</time>
      </trkpt>
      <trkpt lat="42.89405" lon="0.1317">
        <ele>2171</ele>
        <time>2012-12-16T11:12:48Z</time>
      </trkpt>
      <trkpt lat="42.89404" lon="0.13169">
        <ele>2171</ele>
        <time>2012-12-16T11:12:51Z</time>
      </trkpt>
      <trkpt lat="42.89403" lon="0.13169">
        <ele>2171</ele>
        <time>2012-12-16T11:12:54Z</time>
      </trkpt>
      <trkpt lat="42.89401" lon="0.13169">
        <ele>2171</ele>
        <time>2012-12-16T11:12:57Z</time>
      </trkpt>
      <trkpt lat="42.894" lon="0.13169">
        <ele>2171</ele>
        <time>2012-12-16T11:12:59Z</time>
      </trkpt>
      <trkpt lat="42.89399" lon="0.1317">
        <ele>2171</ele>
        <time>2012-12-16T11:13:02Z</time>
      </trkpt>
      <trkpt lat="42.89397" lon="0.13171">
        <ele>2172</ele>
        <time>2012-12-16T11:13:05Z</time>
      </trkpt>
      <trkpt lat="42.89397" lon="0.13169">
        <ele>2173</ele>
        <time>2012-12-16T11:13:21Z</time>
      </trkpt>
      <trkpt lat="42.89397" lon="0.13167">
        <ele>2173</ele>
        <time>2012-12-16T11:13:23Z</time>
      </trkpt>
      <trkpt lat="42.89398" lon="0.13165">
        <ele>2173</ele>
        <time>2012-12-16T11:13:26Z</time>
      </trkpt>
      <trkpt lat="42.894" lon="0.13163">
        <ele>2173</ele>
        <time>2012-12-16T11:13:29Z</time>
      </trkpt>
      <trkpt lat="42.89401" lon="0.13162">
        <ele>2173</ele>
        <time>2012-12-16T11:13:32Z</time>
      </trkpt>
      <trkpt lat="42.89402" lon="0.1316">
        <ele>2174</ele>
        <time>2012-12-16T11:13:35Z</time>
      </trkpt>
      <trkpt lat="42.89403" lon="0.13159">
        <ele>2174</ele>
        <time>2012-12-16T11:13:37Z</time>
      </trkpt>
      <trkpt lat="42.89404" lon="0.13157">
        <ele>2175</ele>
        <time>2012-12-16T11:13:40Z</time>
      </trkpt>
      <trkpt lat="42.89405" lon="0.13155">
        <ele>2175</ele>
        <time>2012-12-16T11:13:43Z</time>
      </trkpt>
      <trkpt lat="42.89407" lon="0.13153">
        <ele>2176</ele>
        <time>2012-12-16T11:13:46Z</time>
      </trkpt>
      <trkpt lat="42.89407" lon="0.13152">
        <ele>2177</ele>
        <time>2012-12-16T11:13:49Z</time>
      </trkpt>
      <trkpt lat="42.89408" lon="0.1315">
        <ele>2177</ele>
        <time>2012-12-16T11:13:52Z</time>
      </trkpt>
      <trkpt lat="42.8941" lon="0.13149">
        <ele>2177</ele>
        <time>2012-12-16T11:13:55Z</time>
      </trkpt>
      <trkpt lat="42.89411" lon="0.13147">
        <ele>2177</ele>
        <time>2012-12-16T11:13:58Z</time>
      </trkpt>
      <trkpt lat="42.89412" lon="0.13145">
        <ele>2178</ele>
        <time>2012-12-16T11:14:00Z</time>
      </trkpt>
      <trkpt lat="42.89413" lon="0.13144">
        <ele>2179</ele>
        <time>2012-12-16T11:14:03Z</time>
      </trkpt>
      <trkpt lat="42.89413" lon="0.13142">
        <ele>2179</ele>
        <time>2012-12-16T11:14:07Z</time>
      </trkpt>
      <trkpt lat="42.89412" lon="0.13142">
        <ele>2180</ele>
        <time>2012-12-16T11:14:11Z</time>
      </trkpt>
      <trkpt lat="42.89411" lon="0.13141">
        <ele>2180</ele>
        <time>2012-12-16T11:14:15Z</time>
      </trkpt>
      <trkpt lat="42.8941" lon="0.13141">
        <ele>2180</ele>
        <time>2012-12-16T11:14:17Z</time>
      </trkpt>
      <trkpt lat="42.89408" lon="0.1314">
        <ele>2180</ele>
        <time>2012-12-16T11:14:19Z</time>
      </trkpt>
      <trkpt lat="42.89407" lon="0.1314">
        <ele>2180</ele>
        <time>2012-12-16T11:14:22Z</time>
      </trkpt>
      <trkpt lat="42.89405" lon="0.1314">
        <ele>2180</ele>
        <time>2012-12-16T11:14:25Z</time>
      </trkpt>
      <trkpt lat="42.89403" lon="0.13139">
        <ele>2181</ele>
        <time>2012-12-16T11:14:28Z</time>
      </trkpt>
      <trkpt lat="42.89402" lon="0.13139">
        <ele>2181</ele>
        <time>2012-12-16T11:14:31Z</time>
      </trkpt>
      <trkpt lat="42.89401" lon="0.13139">
        <ele>2181</ele>
        <time>2012-12-16T11:14:34Z</time>
      </trkpt>
      <trkpt lat="42.894" lon="0.13138">
        <ele>2182</ele>
        <time>2012-12-16T11:14:37Z</time>
      </trkpt>
      <trkpt lat="42.89399" lon="0.13138">
        <ele>2183</ele>
        <time>2012-12-16T11:14:41Z</time>
      </trkpt>
      <trkpt lat="42.894" lon="0.13138">
        <ele>2184</ele>
        <time>2012-12-16T11:14:52Z</time>
      </trkpt>
      <trkpt lat="42.894" lon="0.13136">
        <ele>2184</ele>
        <time>2012-12-16T11:14:57Z</time>
      </trkpt>
      <trkpt lat="42.89402" lon="0.13135">
        <ele>2184</ele>
        <time>2012-12-16T11:15:00Z</time>
      </trkpt>
      <trkpt lat="42.89403" lon="0.13134">
        <ele>2184</ele>
        <time>2012-12-16T11:15:02Z</time>
      </trkpt>
      <trkpt lat="42.89404" lon="0.13132">
        <ele>2185</ele>
        <time>2012-12-16T11:15:06Z</time>
      </trkpt>
      <trkpt lat="42.89405" lon="0.13131">
        <ele>2185</ele>
        <time>2012-12-16T11:15:18Z</time>
      </trkpt>
      <trkpt lat="42.89407" lon="0.13129">
        <ele>2186</ele>
        <time>2012-12-16T11:15:21Z</time>
      </trkpt>
      <trkpt lat="42.89408" lon="0.13128">
        <ele>2186</ele>
        <time>2012-12-16T11:15:24Z</time>
      </trkpt>
      <trkpt lat="42.89409" lon="0.13127">
        <ele>2186</ele>
        <time>2012-12-16T11:15:26Z</time>
      </trkpt>
      <trkpt lat="42.89411" lon="0.13126">
        <ele>2186</ele>
        <time>2012-12-16T11:15:29Z</time>
      </trkpt>
      <trkpt lat="42.8941" lon="0.13125">
        <ele>2189</ele>
        <time>2012-12-16T11:15:56Z</time>
      </trkpt>
      <trkpt lat="42.89408" lon="0.13124">
        <ele>2189</ele>
        <time>2012-12-16T11:15:59Z</time>
      </trkpt>
      <trkpt lat="42.89407" lon="0.13123">
        <ele>2190</ele>
        <time>2012-12-16T11:16:12Z</time>
      </trkpt>
      <trkpt lat="42.89406" lon="0.13123">
        <ele>2190</ele>
        <time>2012-12-16T11:16:14Z</time>
      </trkpt>
      <trkpt lat="42.89404" lon="0.13122">
        <ele>2191</ele>
        <time>2012-12-16T11:16:16Z</time>
      </trkpt>
      <trkpt lat="42.89403" lon="0.13122">
        <ele>2191</ele>
        <time>2012-12-16T11:16:18Z</time>
      </trkpt>
      <trkpt lat="42.89402" lon="0.13122">
        <ele>2191</ele>
        <time>2012-12-16T11:16:20Z</time>
      </trkpt>
      <trkpt lat="42.894" lon="0.13121">
        <ele>2192</ele>
        <time>2012-12-16T11:16:22Z</time>
      </trkpt>
      <trkpt lat="42.89399" lon="0.13121">
        <ele>2192</ele>
        <time>2012-12-16T11:16:24Z</time>
      </trkpt>
      <trkpt lat="42.89397" lon="0.1312">
        <ele>2193</ele>
        <time>2012-12-16T11:16:27Z</time>
      </trkpt>
      <trkpt lat="42.89396" lon="0.1312">
        <ele>2193</ele>
        <time>2012-12-16T11:16:29Z</time>
      </trkpt>
      <trkpt lat="42.89394" lon="0.13119">
        <ele>2193</ele>
        <time>2012-12-16T11:16:31Z</time>
      </trkpt>
      <trkpt lat="42.89393" lon="0.13119">
        <ele>2193</ele>
        <time>2012-12-16T11:16:33Z</time>
      </trkpt>
      <trkpt lat="42.89392" lon="0.13117">
        <ele>2194</ele>
        <time>2012-12-16T11:16:36Z</time>
      </trkpt>
      <trkpt lat="42.8939" lon="0.13116">
        <ele>2194</ele>
        <time>2012-12-16T11:16:39Z</time>
      </trkpt>
      <trkpt lat="42.89389" lon="0.13115">
        <ele>2194</ele>
        <time>2012-12-16T11:16:41Z</time>
      </trkpt>
      <trkpt lat="42.89388" lon="0.13114">
        <ele>2195</ele>
        <time>2012-12-16T11:16:43Z</time>
      </trkpt>
      <trkpt lat="42.89386" lon="0.13113">
        <ele>2195</ele>
        <time>2012-12-16T11:16:45Z</time>
      </trkpt>
      <trkpt lat="42.89385" lon="0.13112">
        <ele>2196</ele>
        <time>2012-12-16T11:16:48Z</time>
      </trkpt>
      <trkpt lat="42.89384" lon="0.13111">
        <ele>2196</ele>
        <time>2012-12-16T11:16:50Z</time>
      </trkpt>
      <trkpt lat="42.89382" lon="0.1311">
        <ele>2197</ele>
        <time>2012-12-16T11:16:53Z</time>
      </trkpt>
      <trkpt lat="42.89381" lon="0.13108">
        <ele>2198</ele>
        <time>2012-12-16T11:16:56Z</time>
      </trkpt>
      <trkpt lat="42.89379" lon="0.13107">
        <ele>2198</ele>
        <time>2012-12-16T11:16:59Z</time>
      </trkpt>
      <trkpt lat="42.89378" lon="0.13106">
        <ele>2199</ele>
        <time>2012-12-16T11:17:01Z</time>
      </trkpt>
      <trkpt lat="42.89377" lon="0.13105">
        <ele>2199</ele>
        <time>2012-12-16T11:17:04Z</time>
      </trkpt>
      <trkpt lat="42.89376" lon="0.13105">
        <ele>2201</ele>
        <time>2012-12-16T11:17:23Z</time>
      </trkpt>
      <trkpt lat="42.89375" lon="0.13104">
        <ele>2201</ele>
        <time>2012-12-16T11:17:25Z</time>
      </trkpt>
      <trkpt lat="42.89373" lon="0.13103">
        <ele>2201</ele>
        <time>2012-12-16T11:17:28Z</time>
      </trkpt>
      <trkpt lat="42.89371" lon="0.13102">
        <ele>2202</ele>
        <time>2012-12-16T11:17:31Z</time>
      </trkpt>
      <trkpt lat="42.8937" lon="0.13102">
        <ele>2202</ele>
        <time>2012-12-16T11:17:33Z</time>
      </trkpt>
      <trkpt lat="42.89369" lon="0.13101">
        <ele>2203</ele>
        <time>2012-12-16T11:17:36Z</time>
      </trkpt>
      <trkpt lat="42.89368" lon="0.13101">
        <ele>2203</ele>
        <time>2012-12-16T11:17:38Z</time>
      </trkpt>
      <trkpt lat="42.89366" lon="0.13101">
        <ele>2204</ele>
        <time>2012-12-16T11:17:40Z</time>
      </trkpt>
      <trkpt lat="42.89366" lon="0.13099">
        <ele>2205</ele>
        <time>2012-12-16T11:17:44Z</time>
      </trkpt>
      <trkpt lat="42.89367" lon="0.13097">
        <ele>2205</ele>
        <time>2012-12-16T11:17:47Z</time>
      </trkpt>
      <trkpt lat="42.89367" lon="0.13095">
        <ele>2206</ele>
        <time>2012-12-16T11:17:49Z</time>
      </trkpt>
      <trkpt lat="42.89368" lon="0.13094">
        <ele>2206</ele>
        <time>2012-12-16T11:17:51Z</time>
      </trkpt>
      <trkpt lat="42.89366" lon="0.13092">
        <ele>2207</ele>
        <time>2012-12-16T11:17:55Z</time>
      </trkpt>
      <trkpt lat="42.89365" lon="0.13092">
        <ele>2207</ele>
        <time>2012-12-16T11:17:57Z</time>
      </trkpt>
      <trkpt lat="42.89364" lon="0.13091">
        <ele>2207</ele>
        <time>2012-12-16T11:18:00Z</time>
      </trkpt>
      <trkpt lat="42.89362" lon="0.13091">
        <ele>2208</ele>
        <time>2012-12-16T11:18:03Z</time>
      </trkpt>
      <trkpt lat="42.89361" lon="0.1309">
        <ele>2208</ele>
        <time>2012-12-16T11:18:05Z</time>
      </trkpt>
      <trkpt lat="42.8936" lon="0.1309">
        <ele>2209</ele>
        <time>2012-12-16T11:18:08Z</time>
      </trkpt>
      <trkpt lat="42.89358" lon="0.13089">
        <ele>2209</ele>
        <time>2012-12-16T11:18:11Z</time>
      </trkpt>
      <trkpt lat="42.89358" lon="0.13087">
        <ele>2210</ele>
        <time>2012-12-16T11:18:16Z</time>
      </trkpt>
      <trkpt lat="42.89359" lon="0.13085">
        <ele>2210</ele>
        <time>2012-12-16T11:18:19Z</time>
      </trkpt>
      <trkpt lat="42.8936" lon="0.13084">
        <ele>2211</ele>
        <time>2012-12-16T11:18:22Z</time>
      </trkpt>
      <trkpt lat="42.89361" lon="0.13082">
        <ele>2211</ele>
        <time>2012-12-16T11:18:26Z</time>
      </trkpt>
      <trkpt lat="42.89363" lon="0.1308">
        <ele>2211</ele>
        <time>2012-12-16T11:18:29Z</time>
      </trkpt>
      <trkpt lat="42.89364" lon="0.13079">
        <ele>2211</ele>
        <time>2012-12-16T11:18:32Z</time>
      </trkpt>
      <trkpt lat="42.89365" lon="0.13078">
        <ele>2211</ele>
        <time>2012-12-16T11:18:35Z</time>
      </trkpt>
      <trkpt lat="42.89366" lon="0.13077">
        <ele>2212</ele>
        <time>2012-12-16T11:18:38Z</time>
      </trkpt>
      <trkpt lat="42.89368" lon="0.13076">
        <ele>2212</ele>
        <time>2012-12-16T11:18:40Z</time>
      </trkpt>
      <trkpt lat="42.89369" lon="0.13076">
        <ele>2212</ele>
        <time>2012-12-16T11:18:42Z</time>
      </trkpt>
      <trkpt lat="42.8937" lon="0.13075">
        <ele>2212</ele>
        <time>2012-12-16T11:18:44Z</time>
      </trkpt>
      <trkpt lat="42.89371" lon="0.13075">
        <ele>2212</ele>
        <time>2012-12-16T11:18:46Z</time>
      </trkpt>
      <trkpt lat="42.89373" lon="0.13075">
        <ele>2212</ele>
        <time>2012-12-16T11:18:48Z</time>
      </trkpt>
      <trkpt lat="42.89371" lon="0.13073">
        <ele>2212</ele>
        <time>2012-12-16T11:19:05Z</time>
      </trkpt>
      <trkpt lat="42.8937" lon="0.13072">
        <ele>2213</ele>
        <time>2012-12-16T11:19:08Z</time>
      </trkpt>
      <trkpt lat="42.89368" lon="0.13071">
        <ele>2213</ele>
        <time>2012-12-16T11:19:11Z</time>
      </trkpt>
      <trkpt lat="42.89367" lon="0.1307">
        <ele>2214</ele>
        <time>2012-12-16T11:19:14Z</time>
      </trkpt>
      <trkpt lat="42.89365" lon="0.13069">
        <ele>2214</ele>
        <time>2012-12-16T11:19:17Z</time>
      </trkpt>
      <trkpt lat="42.89364" lon="0.13069">
        <ele>2215</ele>
        <time>2012-12-16T11:19:20Z</time>
      </trkpt>
      <trkpt lat="42.89363" lon="0.13068">
        <ele>2215</ele>
        <time>2012-12-16T11:19:24Z</time>
      </trkpt>
      <trkpt lat="42.89361" lon="0.13067">
        <ele>2215</ele>
        <time>2012-12-16T11:19:27Z</time>
      </trkpt>
      <trkpt lat="42.8936" lon="0.13066">
        <ele>2216</ele>
        <time>2012-12-16T11:19:30Z</time>
      </trkpt>
      <trkpt lat="42.89358" lon="0.13066">
        <ele>2216</ele>
        <time>2012-12-16T11:19:33Z</time>
      </trkpt>
      <trkpt lat="42.89357" lon="0.13065">
        <ele>2216</ele>
        <time>2012-12-16T11:19:36Z</time>
      </trkpt>
      <trkpt lat="42.89355" lon="0.13064">
        <ele>2217</ele>
        <time>2012-12-16T11:19:39Z</time>
      </trkpt>
      <trkpt lat="42.89354" lon="0.13063">
        <ele>2217</ele>
        <time>2012-12-16T11:19:42Z</time>
      </trkpt>
      <trkpt lat="42.89352" lon="0.13062">
        <ele>2218</ele>
        <time>2012-12-16T11:19:45Z</time>
      </trkpt>
      <trkpt lat="42.89351" lon="0.1306">
        <ele>2218</ele>
        <time>2012-12-16T11:19:48Z</time>
      </trkpt>
      <trkpt lat="42.8935" lon="0.13059">
        <ele>2219</ele>
        <time>2012-12-16T11:19:51Z</time>
      </trkpt>
      <trkpt lat="42.89349" lon="0.13057">
        <ele>2219</ele>
        <time>2012-12-16T11:19:54Z</time>
      </trkpt>
      <trkpt lat="42.89347" lon="0.13056">
        <ele>2220</ele>
        <time>2012-12-16T11:19:57Z</time>
      </trkpt>
      <trkpt lat="42.89346" lon="0.13054">
        <ele>2220</ele>
        <time>2012-12-16T11:20:00Z</time>
      </trkpt>
      <trkpt lat="42.89345" lon="0.13053">
        <ele>2221</ele>
        <time>2012-12-16T11:20:02Z</time>
      </trkpt>
      <trkpt lat="42.89344" lon="0.13051">
        <ele>2222</ele>
        <time>2012-12-16T11:20:05Z</time>
      </trkpt>
      <trkpt lat="42.89343" lon="0.1305">
        <ele>2222</ele>
        <time>2012-12-16T11:20:08Z</time>
      </trkpt>
      <trkpt lat="42.89342" lon="0.13048">
        <ele>2223</ele>
        <time>2012-12-16T11:20:11Z</time>
      </trkpt>
      <trkpt lat="42.8934" lon="0.13046">
        <ele>2223</ele>
        <time>2012-12-16T11:20:14Z</time>
      </trkpt>
      <trkpt lat="42.89339" lon="0.13045">
        <ele>2224</ele>
        <time>2012-12-16T11:20:17Z</time>
      </trkpt>
      <trkpt lat="42.89338" lon="0.13043">
        <ele>2224</ele>
        <time>2012-12-16T11:20:20Z</time>
      </trkpt>
      <trkpt lat="42.89336" lon="0.13042">
        <ele>2225</ele>
        <time>2012-12-16T11:20:49Z</time>
      </trkpt>
      <trkpt lat="42.89335" lon="0.1304">
        <ele>2225</ele>
        <time>2012-12-16T11:20:52Z</time>
      </trkpt>
      <trkpt lat="42.89334" lon="0.13039">
        <ele>2225</ele>
        <time>2012-12-16T11:20:54Z</time>
      </trkpt>
      <trkpt lat="42.89332" lon="0.13037">
        <ele>2225</ele>
        <time>2012-12-16T11:20:57Z</time>
      </trkpt>
      <trkpt lat="42.89331" lon="0.13036">
        <ele>2225</ele>
        <time>2012-12-16T11:21:00Z</time>
      </trkpt>
      <trkpt lat="42.8933" lon="0.13036">
        <ele>2225</ele>
        <time>2012-12-16T11:21:02Z</time>
      </trkpt>
      <trkpt lat="42.89328" lon="0.13034">
        <ele>2225</ele>
        <time>2012-12-16T11:21:05Z</time>
      </trkpt>
      <trkpt lat="42.89327" lon="0.13034">
        <ele>2226</ele>
        <time>2012-12-16T11:21:07Z</time>
      </trkpt>
      <trkpt lat="42.89326" lon="0.13033">
        <ele>2226</ele>
        <time>2012-12-16T11:21:09Z</time>
      </trkpt>
      <trkpt lat="42.89324" lon="0.13032">
        <ele>2227</ele>
        <time>2012-12-16T11:21:12Z</time>
      </trkpt>
      <trkpt lat="42.89323" lon="0.13031">
        <ele>2227</ele>
        <time>2012-12-16T11:21:15Z</time>
      </trkpt>
      <trkpt lat="42.89321" lon="0.1303">
        <ele>2228</ele>
        <time>2012-12-16T11:21:18Z</time>
      </trkpt>
      <trkpt lat="42.8932" lon="0.13029">
        <ele>2228</ele>
        <time>2012-12-16T11:21:20Z</time>
      </trkpt>
      <trkpt lat="42.89318" lon="0.13028">
        <ele>2229</ele>
        <time>2012-12-16T11:21:23Z</time>
      </trkpt>
      <trkpt lat="42.89317" lon="0.13028">
        <ele>2229</ele>
        <time>2012-12-16T11:21:25Z</time>
      </trkpt>
      <trkpt lat="42.89316" lon="0.13027">
        <ele>2229</ele>
        <time>2012-12-16T11:21:27Z</time>
      </trkpt>
      <trkpt lat="42.89315" lon="0.13026">
        <ele>2229</ele>
        <time>2012-12-16T11:21:29Z</time>
      </trkpt>
      <trkpt lat="42.89313" lon="0.13025">
        <ele>2230</ele>
        <time>2012-12-16T11:21:32Z</time>
      </trkpt>
      <trkpt lat="42.89312" lon="0.13025">
        <ele>2230</ele>
        <time>2012-12-16T11:21:35Z</time>
      </trkpt>
      <trkpt lat="42.8931" lon="0.13025">
        <ele>2231</ele>
        <time>2012-12-16T11:21:38Z</time>
      </trkpt>
      <trkpt lat="42.89309" lon="0.13024">
        <ele>2231</ele>
        <time>2012-12-16T11:21:40Z</time>
      </trkpt>
      <trkpt lat="42.89307" lon="0.13024">
        <ele>2232</ele>
        <time>2012-12-16T11:21:43Z</time>
      </trkpt>
      <trkpt lat="42.89306" lon="0.13024">
        <ele>2232</ele>
        <time>2012-12-16T11:21:45Z</time>
      </trkpt>
      <trkpt lat="42.89305" lon="0.13023">
        <ele>2233</ele>
        <time>2012-12-16T11:21:47Z</time>
      </trkpt>
      <trkpt lat="42.89304" lon="0.13023">
        <ele>2233</ele>
        <time>2012-12-16T11:21:49Z</time>
      </trkpt>
      <trkpt lat="42.89302" lon="0.13023">
        <ele>2233</ele>
        <time>2012-12-16T11:21:51Z</time>
      </trkpt>
      <trkpt lat="42.89301" lon="0.13023">
        <ele>2234</ele>
        <time>2012-12-16T11:21:53Z</time>
      </trkpt>
      <trkpt lat="42.893" lon="0.13022">
        <ele>2234</ele>
        <time>2012-12-16T11:21:55Z</time>
      </trkpt>
      <trkpt lat="42.89299" lon="0.13022">
        <ele>2235</ele>
        <time>2012-12-16T11:21:57Z</time>
      </trkpt>
      <trkpt lat="42.89297" lon="0.13022">
        <ele>2235</ele>
        <time>2012-12-16T11:21:59Z</time>
      </trkpt>
      <trkpt lat="42.89296" lon="0.13022">
        <ele>2235</ele>
        <time>2012-12-16T11:22:01Z</time>
      </trkpt>
      <trkpt lat="42.89295" lon="0.13021">
        <ele>2236</ele>
        <time>2012-12-16T11:22:03Z</time>
      </trkpt>
      <trkpt lat="42.89294" lon="0.13021">
        <ele>2236</ele>
        <time>2012-12-16T11:22:05Z</time>
      </trkpt>
      <trkpt lat="42.89293" lon="0.13021">
        <ele>2236</ele>
        <time>2012-12-16T11:22:07Z</time>
      </trkpt>
      <trkpt lat="42.89291" lon="0.13021">
        <ele>2237</ele>
        <time>2012-12-16T11:22:09Z</time>
      </trkpt>
      <trkpt lat="42.8929" lon="0.1302">
        <ele>2237</ele>
        <time>2012-12-16T11:22:11Z</time>
      </trkpt>
      <trkpt lat="42.89289" lon="0.1302">
        <ele>2237</ele>
        <time>2012-12-16T11:22:13Z</time>
      </trkpt>
      <trkpt lat="42.89287" lon="0.1302">
        <ele>2237</ele>
        <time>2012-12-16T11:22:15Z</time>
      </trkpt>
      <trkpt lat="42.89286" lon="0.13019">
        <ele>2238</ele>
        <time>2012-12-16T11:22:17Z</time>
      </trkpt>
      <trkpt lat="42.89284" lon="0.13019">
        <ele>2238</ele>
        <time>2012-12-16T11:22:19Z</time>
      </trkpt>
      <trkpt lat="42.89283" lon="0.13018">
        <ele>2238</ele>
        <time>2012-12-16T11:22:21Z</time>
      </trkpt>
      <trkpt lat="42.89282" lon="0.13018">
        <ele>2239</ele>
        <time>2012-12-16T11:22:23Z</time>
      </trkpt>
      <trkpt lat="42.89281" lon="0.13018">
        <ele>2239</ele>
        <time>2012-12-16T11:22:26Z</time>
      </trkpt>
      <trkpt lat="42.89279" lon="0.13017">
        <ele>2240</ele>
        <time>2012-12-16T11:22:29Z</time>
      </trkpt>
      <trkpt lat="42.89278" lon="0.13017">
        <ele>2241</ele>
        <time>2012-12-16T11:22:32Z</time>
      </trkpt>
      <trkpt lat="42.89277" lon="0.13017">
        <ele>2241</ele>
        <time>2012-12-16T11:22:34Z</time>
      </trkpt>
      <trkpt lat="42.89275" lon="0.13017">
        <ele>2242</ele>
        <time>2012-12-16T11:22:37Z</time>
      </trkpt>
      <trkpt lat="42.89274" lon="0.13016">
        <ele>2242</ele>
        <time>2012-12-16T11:22:40Z</time>
      </trkpt>
      <trkpt lat="42.89272" lon="0.13016">
        <ele>2243</ele>
        <time>2012-12-16T11:22:43Z</time>
      </trkpt>
      <trkpt lat="42.89271" lon="0.13015">
        <ele>2243</ele>
        <time>2012-12-16T11:22:46Z</time>
      </trkpt>
      <trkpt lat="42.89269" lon="0.13015">
        <ele>2244</ele>
        <time>2012-12-16T11:22:49Z</time>
      </trkpt>
      <trkpt lat="42.89268" lon="0.13015">
        <ele>2244</ele>
        <time>2012-12-16T11:22:51Z</time>
      </trkpt>
      <trkpt lat="42.89267" lon="0.13014">
        <ele>2245</ele>
        <time>2012-12-16T11:22:54Z</time>
      </trkpt>
      <trkpt lat="42.89265" lon="0.13014">
        <ele>2245</ele>
        <time>2012-12-16T11:22:57Z</time>
      </trkpt>
      <trkpt lat="42.89264" lon="0.13013">
        <ele>2246</ele>
        <time>2012-12-16T11:23:00Z</time>
      </trkpt>
      <trkpt lat="42.89262" lon="0.13013">
        <ele>2247</ele>
        <time>2012-12-16T11:23:22Z</time>
      </trkpt>
      <trkpt lat="42.89261" lon="0.13013">
        <ele>2247</ele>
        <time>2012-12-16T11:23:24Z</time>
      </trkpt>
      <trkpt lat="42.8926" lon="0.13013">
        <ele>2247</ele>
        <time>2012-12-16T11:23:26Z</time>
      </trkpt>
      <trkpt lat="42.89259" lon="0.13012">
        <ele>2247</ele>
        <time>2012-12-16T11:23:28Z</time>
      </trkpt>
      <trkpt lat="42.89257" lon="0.13011">
        <ele>2247</ele>
        <time>2012-12-16T11:23:30Z</time>
      </trkpt>
      <trkpt lat="42.89256" lon="0.13011">
        <ele>2247</ele>
        <time>2012-12-16T11:23:32Z</time>
      </trkpt>
      <trkpt lat="42.89255" lon="0.13011">
        <ele>2247</ele>
        <time>2012-12-16T11:23:34Z</time>
      </trkpt>
      <trkpt lat="42.89254" lon="0.13011">
        <ele>2247</ele>
        <time>2012-12-16T11:23:36Z</time>
      </trkpt>
      <trkpt lat="42.89252" lon="0.13011">
        <ele>2247</ele>
        <time>2012-12-16T11:23:38Z</time>
      </trkpt>
      <trkpt lat="42.89251" lon="0.13011">
        <ele>2247</ele>
        <time>2012-12-16T11:23:40Z</time>
      </trkpt>
      <trkpt lat="42.89249" lon="0.13011">
        <ele>2247</ele>
        <time>2012-12-16T11:23:43Z</time>
      </trkpt>
      <trkpt lat="42.89248" lon="0.13011">
        <ele>2247</ele>
        <time>2012-12-16T11:23:45Z</time>
      </trkpt>
      <trkpt lat="42.89247" lon="0.13011">
        <ele>2247</ele>
        <time>2012-12-16T11:23:48Z</time>
      </trkpt>
      <trkpt lat="42.89246" lon="0.13011">
        <ele>2248</ele>
        <time>2012-12-16T11:23:50Z</time>
      </trkpt>
      <trkpt lat="42.89244" lon="0.13011">
        <ele>2248</ele>
        <time>2012-12-16T11:23:52Z</time>
      </trkpt>
      <trkpt lat="42.89243" lon="0.13011">
        <ele>2248</ele>
        <time>2012-12-16T11:23:55Z</time>
      </trkpt>
      <trkpt lat="42.89241" lon="0.13012">
        <ele>2249</ele>
        <time>2012-12-16T11:23:57Z</time>
      </trkpt>
      <trkpt lat="42.8924" lon="0.13012">
        <ele>2249</ele>
        <time>2012-12-16T11:23:59Z</time>
      </trkpt>
      <trkpt lat="42.89239" lon="0.13012">
        <ele>2250</ele>
        <time>2012-12-16T11:24:01Z</time>
      </trkpt>
      <trkpt lat="42.89238" lon="0.13012">
        <ele>2250</ele>
        <time>2012-12-16T11:24:03Z</time>
      </trkpt>
      <trkpt lat="42.89239" lon="0.13012">
        <ele>2250</ele>
        <time>2012-12-16T11:24:19Z</time>
      </trkpt>
      <trkpt lat="42.8924" lon="0.1301">
        <ele>2250</ele>
        <time>2012-12-16T11:24:21Z</time>
      </trkpt>
      <trkpt lat="42.89241" lon="0.13009">
        <ele>2250</ele>
        <time>2012-12-16T11:24:24Z</time>
      </trkpt>
      <trkpt lat="42.89242" lon="0.13007">
        <ele>2250</ele>
        <time>2012-12-16T11:24:27Z</time>
      </trkpt>
      <trkpt lat="42.89243" lon="0.13005">
        <ele>2250</ele>
        <time>2012-12-16T11:24:30Z</time>
      </trkpt>
      <trkpt lat="42.89245" lon="0.13003">
        <ele>2250</ele>
        <time>2012-12-16T11:24:33Z</time>
      </trkpt>
      <trkpt lat="42.89246" lon="0.13002">
        <ele>2250</ele>
        <time>2012-12-16T11:24:36Z</time>
      </trkpt>
      <trkpt lat="42.89247" lon="0.13001">
        <ele>2250</ele>
        <time>2012-12-16T11:24:38Z</time>
      </trkpt>
      <trkpt lat="42.89248" lon="0.12999">
        <ele>2250</ele>
        <time>2012-12-16T11:24:41Z</time>
      </trkpt>
      <trkpt lat="42.89247" lon="0.12998">
        <ele>2251</ele>
        <time>2012-12-16T11:24:52Z</time>
      </trkpt>
      <trkpt lat="42.89246" lon="0.12999">
        <ele>2251</ele>
        <time>2012-12-16T11:24:54Z</time>
      </trkpt>
      <trkpt lat="42.89245" lon="0.12999">
        <ele>2252</ele>
        <time>2012-12-16T11:24:56Z</time>
      </trkpt>
      <trkpt lat="42.89243" lon="0.13">
        <ele>2252</ele>
        <time>2012-12-16T11:24:58Z</time>
      </trkpt>
      <trkpt lat="42.89242" lon="0.13">
        <ele>2252</ele>
        <time>2012-12-16T11:25:00Z</time>
      </trkpt>
      <trkpt lat="42.89241" lon="0.13">
        <ele>2252</ele>
        <time>2012-12-16T11:25:02Z</time>
      </trkpt>
      <trkpt lat="42.8924" lon="0.13">
        <ele>2253</ele>
        <time>2012-12-16T11:25:04Z</time>
      </trkpt>
      <trkpt lat="42.89238" lon="0.13">
        <ele>2253</ele>
        <time>2012-12-16T11:25:06Z</time>
      </trkpt>
      <trkpt lat="42.89237" lon="0.13001">
        <ele>2253</ele>
        <time>2012-12-16T11:25:08Z</time>
      </trkpt>
      <trkpt lat="42.89236" lon="0.13001">
        <ele>2253</ele>
        <time>2012-12-16T11:25:10Z</time>
      </trkpt>
      <trkpt lat="42.89234" lon="0.13001">
        <ele>2253</ele>
        <time>2012-12-16T11:25:12Z</time>
      </trkpt>
      <trkpt lat="42.89233" lon="0.13002">
        <ele>2253</ele>
        <time>2012-12-16T11:25:14Z</time>
      </trkpt>
      <trkpt lat="42.89232" lon="0.13002">
        <ele>2254</ele>
        <time>2012-12-16T11:25:16Z</time>
      </trkpt>
      <trkpt lat="42.8923" lon="0.13002">
        <ele>2254</ele>
        <time>2012-12-16T11:25:18Z</time>
      </trkpt>
      <trkpt lat="42.89229" lon="0.13002">
        <ele>2254</ele>
        <time>2012-12-16T11:25:20Z</time>
      </trkpt>
      <trkpt lat="42.89228" lon="0.13003">
        <ele>2255</ele>
        <time>2012-12-16T11:25:23Z</time>
      </trkpt>
      <trkpt lat="42.89227" lon="0.13003">
        <ele>2255</ele>
        <time>2012-12-16T11:25:25Z</time>
      </trkpt>
      <trkpt lat="42.89225" lon="0.13004">
        <ele>2255</ele>
        <time>2012-12-16T11:25:28Z</time>
      </trkpt>
      <trkpt lat="42.89227" lon="0.13002">
        <ele>2256</ele>
        <time>2012-12-16T11:25:46Z</time>
      </trkpt>
      <trkpt lat="42.89228" lon="0.13001">
        <ele>2256</ele>
        <time>2012-12-16T11:25:48Z</time>
      </trkpt>
      <trkpt lat="42.89229" lon="0.13">
        <ele>2256</ele>
        <time>2012-12-16T11:25:50Z</time>
      </trkpt>
      <trkpt lat="42.8923" lon="0.12998">
        <ele>2256</ele>
        <time>2012-12-16T11:25:53Z</time>
      </trkpt>
      <trkpt lat="42.8923" lon="0.12996">
        <ele>2256</ele>
        <time>2012-12-16T11:25:55Z</time>
      </trkpt>
      <trkpt lat="42.89231" lon="0.12995">
        <ele>2256</ele>
        <time>2012-12-16T11:25:57Z</time>
      </trkpt>
      <trkpt lat="42.89232" lon="0.12993">
        <ele>2256</ele>
        <time>2012-12-16T11:25:59Z</time>
      </trkpt>
      <trkpt lat="42.89233" lon="0.12991">
        <ele>2256</ele>
        <time>2012-12-16T11:26:01Z</time>
      </trkpt>
      <trkpt lat="42.89234" lon="0.1299">
        <ele>2256</ele>
        <time>2012-12-16T11:26:03Z</time>
      </trkpt>
      <trkpt lat="42.89235" lon="0.12989">
        <ele>2256</ele>
        <time>2012-12-16T11:26:05Z</time>
      </trkpt>
      <trkpt lat="42.89236" lon="0.12987">
        <ele>2256</ele>
        <time>2012-12-16T11:26:08Z</time>
      </trkpt>
      <trkpt lat="42.89237" lon="0.12985">
        <ele>2256</ele>
        <time>2012-12-16T11:26:11Z</time>
      </trkpt>
      <trkpt lat="42.89238" lon="0.12983">
        <ele>2256</ele>
        <time>2012-12-16T11:26:13Z</time>
      </trkpt>
      <trkpt lat="42.8924" lon="0.12982">
        <ele>2256</ele>
        <time>2012-12-16T11:26:16Z</time>
      </trkpt>
      <trkpt lat="42.89241" lon="0.1298">
        <ele>2256</ele>
        <time>2012-12-16T11:26:18Z</time>
      </trkpt>
      <trkpt lat="42.89243" lon="0.12979">
        <ele>2256</ele>
        <time>2012-12-16T11:26:21Z</time>
      </trkpt>
      <trkpt lat="42.89244" lon="0.12978">
        <ele>2256</ele>
        <time>2012-12-16T11:26:24Z</time>
      </trkpt>
      <trkpt lat="42.89246" lon="0.12977">
        <ele>2256</ele>
        <time>2012-12-16T11:26:27Z</time>
      </trkpt>
      <trkpt lat="42.89247" lon="0.12976">
        <ele>2256</ele>
        <time>2012-12-16T11:26:30Z</time>
      </trkpt>
      <trkpt lat="42.89249" lon="0.12975">
        <ele>2256</ele>
        <time>2012-12-16T11:26:33Z</time>
      </trkpt>
      <trkpt lat="42.8925" lon="0.12974">
        <ele>2256</ele>
        <time>2012-12-16T11:26:35Z</time>
      </trkpt>
      <trkpt lat="42.89251" lon="0.12973">
        <ele>2257</ele>
        <time>2012-12-16T11:26:37Z</time>
      </trkpt>
      <trkpt lat="42.89252" lon="0.12973">
        <ele>2257</ele>
        <time>2012-12-16T11:26:39Z</time>
      </trkpt>
      <trkpt lat="42.89254" lon="0.12972">
        <ele>2258</ele>
        <time>2012-12-16T11:26:42Z</time>
      </trkpt>
      <trkpt lat="42.89256" lon="0.12972">
        <ele>2258</ele>
        <time>2012-12-16T11:26:45Z</time>
      </trkpt>
      <trkpt lat="42.89257" lon="0.12971">
        <ele>2259</ele>
        <time>2012-12-16T11:26:48Z</time>
      </trkpt>
      <trkpt lat="42.89258" lon="0.12971">
        <ele>2259</ele>
        <time>2012-12-16T11:26:50Z</time>
      </trkpt>
      <trkpt lat="42.8926" lon="0.1297">
        <ele>2259</ele>
        <time>2012-12-16T11:26:53Z</time>
      </trkpt>
      <trkpt lat="42.89261" lon="0.1297">
        <ele>2260</ele>
        <time>2012-12-16T11:26:56Z</time>
      </trkpt>
      <trkpt lat="42.89261" lon="0.12968">
        <ele>2262</ele>
        <time>2012-12-16T11:27:20Z</time>
      </trkpt>
      <trkpt lat="42.8926" lon="0.12967">
        <ele>2263</ele>
        <time>2012-12-16T11:27:24Z</time>
      </trkpt>
      <trkpt lat="42.89258" lon="0.12966">
        <ele>2264</ele>
        <time>2012-12-16T11:27:28Z</time>
      </trkpt>
      <trkpt lat="42.89257" lon="0.12965">
        <ele>2264</ele>
        <time>2012-12-16T11:27:31Z</time>
      </trkpt>
      <trkpt lat="42.89256" lon="0.12964">
        <ele>2265</ele>
        <time>2012-12-16T11:27:34Z</time>
      </trkpt>
      <trkpt lat="42.89254" lon="0.12963">
        <ele>2265</ele>
        <time>2012-12-16T11:27:37Z</time>
      </trkpt>
      <trkpt lat="42.89253" lon="0.12963">
        <ele>2266</ele>
        <time>2012-12-16T11:27:39Z</time>
      </trkpt>
      <trkpt lat="42.89252" lon="0.12962">
        <ele>2266</ele>
        <time>2012-12-16T11:27:41Z</time>
      </trkpt>
      <trkpt lat="42.89251" lon="0.12962">
        <ele>2266</ele>
        <time>2012-12-16T11:27:43Z</time>
      </trkpt>
      <trkpt lat="42.89249" lon="0.12961">
        <ele>2266</ele>
        <time>2012-12-16T11:27:45Z</time>
      </trkpt>
      <trkpt lat="42.89248" lon="0.1296">
        <ele>2267</ele>
        <time>2012-12-16T11:27:48Z</time>
      </trkpt>
      <trkpt lat="42.89246" lon="0.1296">
        <ele>2267</ele>
        <time>2012-12-16T11:27:50Z</time>
      </trkpt>
      <trkpt lat="42.89245" lon="0.12959">
        <ele>2269</ele>
        <time>2012-12-16T11:28:10Z</time>
      </trkpt>
      <trkpt lat="42.89244" lon="0.12958">
        <ele>2269</ele>
        <time>2012-12-16T11:28:13Z</time>
      </trkpt>
      <trkpt lat="42.89243" lon="0.12957">
        <ele>2269</ele>
        <time>2012-12-16T11:28:15Z</time>
      </trkpt>
      <trkpt lat="42.89241" lon="0.12957">
        <ele>2269</ele>
        <time>2012-12-16T11:28:17Z</time>
      </trkpt>
      <trkpt lat="42.8924" lon="0.12957">
        <ele>2269</ele>
        <time>2012-12-16T11:28:19Z</time>
      </trkpt>
      <trkpt lat="42.89239" lon="0.12956">
        <ele>2269</ele>
        <time>2012-12-16T11:28:22Z</time>
      </trkpt>
      <trkpt lat="42.89237" lon="0.12956">
        <ele>2270</ele>
        <time>2012-12-16T11:28:25Z</time>
      </trkpt>
      <trkpt lat="42.89236" lon="0.12956">
        <ele>2270</ele>
        <time>2012-12-16T11:28:27Z</time>
      </trkpt>
      <trkpt lat="42.89235" lon="0.12955">
        <ele>2271</ele>
        <time>2012-12-16T11:28:29Z</time>
      </trkpt>
      <trkpt lat="42.89233" lon="0.12955">
        <ele>2271</ele>
        <time>2012-12-16T11:28:31Z</time>
      </trkpt>
      <trkpt lat="42.89232" lon="0.12955">
        <ele>2272</ele>
        <time>2012-12-16T11:28:33Z</time>
      </trkpt>
      <trkpt lat="42.89231" lon="0.12955">
        <ele>2272</ele>
        <time>2012-12-16T11:28:35Z</time>
      </trkpt>
      <trkpt lat="42.8923" lon="0.12955">
        <ele>2272</ele>
        <time>2012-12-16T11:28:37Z</time>
      </trkpt>
      <trkpt lat="42.89228" lon="0.12955">
        <ele>2273</ele>
        <time>2012-12-16T11:28:39Z</time>
      </trkpt>
      <trkpt lat="42.89227" lon="0.12956">
        <ele>2273</ele>
        <time>2012-12-16T11:28:41Z</time>
      </trkpt>
      <trkpt lat="42.89226" lon="0.12956">
        <ele>2274</ele>
        <time>2012-12-16T11:28:43Z</time>
      </trkpt>
      <trkpt lat="42.89224" lon="0.12956">
        <ele>2274</ele>
        <time>2012-12-16T11:28:45Z</time>
      </trkpt>
      <trkpt lat="42.89223" lon="0.12956">
        <ele>2275</ele>
        <time>2012-12-16T11:28:48Z</time>
      </trkpt>
      <trkpt lat="42.89222" lon="0.12957">
        <ele>2275</ele>
        <time>2012-12-16T11:28:50Z</time>
      </trkpt>
      <trkpt lat="42.8922" lon="0.12957">
        <ele>2276</ele>
        <time>2012-12-16T11:28:52Z</time>
      </trkpt>
      <trkpt lat="42.89219" lon="0.12958">
        <ele>2276</ele>
        <time>2012-12-16T11:28:54Z</time>
      </trkpt>
      <trkpt lat="42.89218" lon="0.12958">
        <ele>2277</ele>
        <time>2012-12-16T11:28:56Z</time>
      </trkpt>
      <trkpt lat="42.89216" lon="0.12959">
        <ele>2277</ele>
        <time>2012-12-16T11:28:59Z</time>
      </trkpt>
      <trkpt lat="42.89215" lon="0.12959">
        <ele>2278</ele>
        <time>2012-12-16T11:29:02Z</time>
      </trkpt>
      <trkpt lat="42.89214" lon="0.1296">
        <ele>2278</ele>
        <time>2012-12-16T11:29:04Z</time>
      </trkpt>
      <trkpt lat="42.89212" lon="0.1296">
        <ele>2279</ele>
        <time>2012-12-16T11:29:07Z</time>
      </trkpt>
      <trkpt lat="42.89211" lon="0.1296">
        <ele>2280</ele>
        <time>2012-12-16T11:29:10Z</time>
      </trkpt>
      <trkpt lat="42.89209" lon="0.1296">
        <ele>2281</ele>
        <time>2012-12-16T11:29:13Z</time>
      </trkpt>
      <trkpt lat="42.89208" lon="0.12961">
        <ele>2281</ele>
        <time>2012-12-16T11:29:15Z</time>
      </trkpt>
      <trkpt lat="42.89207" lon="0.12961">
        <ele>2281</ele>
        <time>2012-12-16T11:29:17Z</time>
      </trkpt>
      <trkpt lat="42.89206" lon="0.12962">
        <ele>2282</ele>
        <time>2012-12-16T11:29:20Z</time>
      </trkpt>
      <trkpt lat="42.89204" lon="0.12964">
        <ele>2284</ele>
        <time>2012-12-16T11:29:30Z</time>
      </trkpt>
      <trkpt lat="42.89202" lon="0.12965">
        <ele>2284</ele>
        <time>2012-12-16T11:29:33Z</time>
      </trkpt>
      <trkpt lat="42.89201" lon="0.12965">
        <ele>2284</ele>
        <time>2012-12-16T11:29:36Z</time>
      </trkpt>
      <trkpt lat="42.892" lon="0.12963">
        <ele>2285</ele>
        <time>2012-12-16T11:29:39Z</time>
      </trkpt>
      <trkpt lat="42.892" lon="0.12961">
        <ele>2286</ele>
        <time>2012-12-16T11:29:41Z</time>
      </trkpt>
      <trkpt lat="42.892" lon="0.1296">
        <ele>2286</ele>
        <time>2012-12-16T11:29:43Z</time>
      </trkpt>
      <trkpt lat="42.892" lon="0.12958">
        <ele>2286</ele>
        <time>2012-12-16T11:29:45Z</time>
      </trkpt>
      <trkpt lat="42.89201" lon="0.12957">
        <ele>2286</ele>
        <time>2012-12-16T11:29:47Z</time>
      </trkpt>
      <trkpt lat="42.89201" lon="0.12955">
        <ele>2286</ele>
        <time>2012-12-16T11:29:50Z</time>
      </trkpt>
      <trkpt lat="42.89202" lon="0.12953">
        <ele>2286</ele>
        <time>2012-12-16T11:29:53Z</time>
      </trkpt>
      <trkpt lat="42.89202" lon="0.12951">
        <ele>2286</ele>
        <time>2012-12-16T11:29:55Z</time>
      </trkpt>
      <trkpt lat="42.89203" lon="0.12949">
        <ele>2286</ele>
        <time>2012-12-16T11:29:58Z</time>
      </trkpt>
      <trkpt lat="42.89203" lon="0.12948">
        <ele>2287</ele>
        <time>2012-12-16T11:30:01Z</time>
      </trkpt>
      <trkpt lat="42.89204" lon="0.12946">
        <ele>2287</ele>
        <time>2012-12-16T11:30:04Z</time>
      </trkpt>
      <trkpt lat="42.89205" lon="0.12945">
        <ele>2288</ele>
        <time>2012-12-16T11:30:08Z</time>
      </trkpt>
      <trkpt lat="42.89206" lon="0.12943">
        <ele>2288</ele>
        <time>2012-12-16T11:30:11Z</time>
      </trkpt>
      <trkpt lat="42.89206" lon="0.12941">
        <ele>2288</ele>
        <time>2012-12-16T11:30:14Z</time>
      </trkpt>
      <trkpt lat="42.89207" lon="0.1294">
        <ele>2288</ele>
        <time>2012-12-16T11:30:17Z</time>
      </trkpt>
      <trkpt lat="42.89209" lon="0.12938">
        <ele>2288</ele>
        <time>2012-12-16T11:30:20Z</time>
      </trkpt>
      <trkpt lat="42.89209" lon="0.12937">
        <ele>2288</ele>
        <time>2012-12-16T11:30:25Z</time>
      </trkpt>
      <trkpt lat="42.89208" lon="0.12937">
        <ele>2288</ele>
        <time>2012-12-16T11:30:36Z</time>
      </trkpt>
      <trkpt lat="42.89206" lon="0.12937">
        <ele>2288</ele>
        <time>2012-12-16T11:30:39Z</time>
      </trkpt>
      <trkpt lat="42.89205" lon="0.12937">
        <ele>2289</ele>
        <time>2012-12-16T11:30:42Z</time>
      </trkpt>
      <trkpt lat="42.89204" lon="0.12938">
        <ele>2289</ele>
        <time>2012-12-16T11:30:44Z</time>
      </trkpt>
      <trkpt lat="42.89202" lon="0.12939">
        <ele>2289</ele>
        <time>2012-12-16T11:30:47Z</time>
      </trkpt>
      <trkpt lat="42.89201" lon="0.1294">
        <ele>2289</ele>
        <time>2012-12-16T11:30:49Z</time>
      </trkpt>
      <trkpt lat="42.892" lon="0.12941">
        <ele>2289</ele>
        <time>2012-12-16T11:30:51Z</time>
      </trkpt>
      <trkpt lat="42.89199" lon="0.12942">
        <ele>2289</ele>
        <time>2012-12-16T11:30:53Z</time>
      </trkpt>
      <trkpt lat="42.89198" lon="0.12943">
        <ele>2289</ele>
        <time>2012-12-16T11:30:55Z</time>
      </trkpt>
      <trkpt lat="42.89196" lon="0.12944">
        <ele>2289</ele>
        <time>2012-12-16T11:30:57Z</time>
      </trkpt>
      <trkpt lat="42.89195" lon="0.12944">
        <ele>2290</ele>
        <time>2012-12-16T11:30:59Z</time>
      </trkpt>
      <trkpt lat="42.89193" lon="0.12945">
        <ele>2290</ele>
        <time>2012-12-16T11:31:02Z</time>
      </trkpt>
      <trkpt lat="42.89192" lon="0.12947">
        <ele>2290</ele>
        <time>2012-12-16T11:31:05Z</time>
      </trkpt>
      <trkpt lat="42.89191" lon="0.12948">
        <ele>2291</ele>
        <time>2012-12-16T11:31:08Z</time>
      </trkpt>
      <trkpt lat="42.8919" lon="0.1295">
        <ele>2291</ele>
        <time>2012-12-16T11:31:11Z</time>
      </trkpt>
      <trkpt lat="42.89188" lon="0.12951">
        <ele>2292</ele>
        <time>2012-12-16T11:31:14Z</time>
      </trkpt>
      <trkpt lat="42.89187" lon="0.12953">
        <ele>2292</ele>
        <time>2012-12-16T11:31:17Z</time>
      </trkpt>
      <trkpt lat="42.89186" lon="0.12954">
        <ele>2293</ele>
        <time>2012-12-16T11:31:20Z</time>
      </trkpt>
      <trkpt lat="42.89184" lon="0.12956">
        <ele>2293</ele>
        <time>2012-12-16T11:31:23Z</time>
      </trkpt>
      <trkpt lat="42.89183" lon="0.12957">
        <ele>2294</ele>
        <time>2012-12-16T11:31:25Z</time>
      </trkpt>
      <trkpt lat="42.89182" lon="0.12958">
        <ele>2294</ele>
        <time>2012-12-16T11:31:27Z</time>
      </trkpt>
      <trkpt lat="42.8918" lon="0.12959">
        <ele>2294</ele>
        <time>2012-12-16T11:31:30Z</time>
      </trkpt>
      <trkpt lat="42.8918" lon="0.12958">
        <ele>2294</ele>
        <time>2012-12-16T11:31:31Z</time>
      </trkpt>
      <trkpt lat="42.89179" lon="0.12958">
        <ele>2294</ele>
        <time>2012-12-16T11:31:33Z</time>
      </trkpt>
      <trkpt lat="42.89178" lon="0.12959">
        <ele>2294</ele>
        <time>2012-12-16T11:31:35Z</time>
      </trkpt>
      <trkpt lat="42.89177" lon="0.12961">
        <ele>2294</ele>
        <time>2012-12-16T11:31:37Z</time>
      </trkpt>
      <trkpt lat="42.89175" lon="0.12961">
        <ele>2294</ele>
        <time>2012-12-16T11:31:40Z</time>
      </trkpt>
      <trkpt lat="42.89173" lon="0.12962">
        <ele>2294</ele>
        <time>2012-12-16T11:31:42Z</time>
      </trkpt>
      <trkpt lat="42.89172" lon="0.12962">
        <ele>2294</ele>
        <time>2012-12-16T11:31:44Z</time>
      </trkpt>
      <trkpt lat="42.8917" lon="0.12962">
        <ele>2294</ele>
        <time>2012-12-16T11:31:46Z</time>
      </trkpt>
      <trkpt lat="42.89169" lon="0.12962">
        <ele>2294</ele>
        <time>2012-12-16T11:31:48Z</time>
      </trkpt>
      <trkpt lat="42.89167" lon="0.12961">
        <ele>2295</ele>
        <time>2012-12-16T11:31:50Z</time>
      </trkpt>
      <trkpt lat="42.89166" lon="0.12961">
        <ele>2295</ele>
        <time>2012-12-16T11:31:52Z</time>
      </trkpt>
      <trkpt lat="42.89165" lon="0.12961">
        <ele>2295</ele>
        <time>2012-12-16T11:31:54Z</time>
      </trkpt>
      <trkpt lat="42.89163" lon="0.1296">
        <ele>2295</ele>
        <time>2012-12-16T11:31:57Z</time>
      </trkpt>
      <trkpt lat="42.89162" lon="0.12958">
        <ele>2295</ele>
        <time>2012-12-16T11:32:03Z</time>
      </trkpt>
      <trkpt lat="42.89162" lon="0.12957">
        <ele>2296</ele>
        <time>2012-12-16T11:32:06Z</time>
      </trkpt>
      <trkpt lat="42.89162" lon="0.12955">
        <ele>2296</ele>
        <time>2012-12-16T11:32:09Z</time>
      </trkpt>
      <trkpt lat="42.89162" lon="0.12953">
        <ele>2297</ele>
        <time>2012-12-16T11:32:12Z</time>
      </trkpt>
      <trkpt lat="42.89162" lon="0.12951">
        <ele>2297</ele>
        <time>2012-12-16T11:32:14Z</time>
      </trkpt>
      <trkpt lat="42.89162" lon="0.12949">
        <ele>2297</ele>
        <time>2012-12-16T11:32:16Z</time>
      </trkpt>
      <trkpt lat="42.89161" lon="0.12948">
        <ele>2298</ele>
        <time>2012-12-16T11:32:19Z</time>
      </trkpt>
      <trkpt lat="42.89159" lon="0.12947">
        <ele>2298</ele>
        <time>2012-12-16T11:32:22Z</time>
      </trkpt>
      <trkpt lat="42.89158" lon="0.12947">
        <ele>2298</ele>
        <time>2012-12-16T11:32:25Z</time>
      </trkpt>
      <trkpt lat="42.89156" lon="0.12946">
        <ele>2299</ele>
        <time>2012-12-16T11:32:29Z</time>
      </trkpt>
      <trkpt lat="42.89156" lon="0.12944">
        <ele>2299</ele>
        <time>2012-12-16T11:32:32Z</time>
      </trkpt>
      <trkpt lat="42.89156" lon="0.12942">
        <ele>2300</ele>
        <time>2012-12-16T11:32:35Z</time>
      </trkpt>
      <trkpt lat="42.89156" lon="0.12941">
        <ele>2300</ele>
        <time>2012-12-16T11:32:37Z</time>
      </trkpt>
      <trkpt lat="42.89156" lon="0.12939">
        <ele>2300</ele>
        <time>2012-12-16T11:32:40Z</time>
      </trkpt>
      <trkpt lat="42.89156" lon="0.12937">
        <ele>2300</ele>
        <time>2012-12-16T11:32:43Z</time>
      </trkpt>
      <trkpt lat="42.89155" lon="0.12935">
        <ele>2301</ele>
        <time>2012-12-16T11:32:46Z</time>
      </trkpt>
      <trkpt lat="42.89154" lon="0.12934">
        <ele>2301</ele>
        <time>2012-12-16T11:32:49Z</time>
      </trkpt>
      <trkpt lat="42.89153" lon="0.12932">
        <ele>2302</ele>
        <time>2012-12-16T11:33:28Z</time>
      </trkpt>
      <trkpt lat="42.89152" lon="0.1293">
        <ele>2302</ele>
        <time>2012-12-16T11:33:30Z</time>
      </trkpt>
      <trkpt lat="42.89151" lon="0.12928">
        <ele>2303</ele>
        <time>2012-12-16T11:33:33Z</time>
      </trkpt>
      <trkpt lat="42.8915" lon="0.12927">
        <ele>2304</ele>
        <time>2012-12-16T11:33:36Z</time>
      </trkpt>
      <trkpt lat="42.89149" lon="0.12925">
        <ele>2304</ele>
        <time>2012-12-16T11:33:38Z</time>
      </trkpt>
      <trkpt lat="42.89148" lon="0.12923">
        <ele>2305</ele>
        <time>2012-12-16T11:33:41Z</time>
      </trkpt>
      <trkpt lat="42.89147" lon="0.12922">
        <ele>2306</ele>
        <time>2012-12-16T11:33:44Z</time>
      </trkpt>
      <trkpt lat="42.89146" lon="0.1292">
        <ele>2306</ele>
        <time>2012-12-16T11:33:47Z</time>
      </trkpt>
      <trkpt lat="42.89145" lon="0.12918">
        <ele>2307</ele>
        <time>2012-12-16T11:33:50Z</time>
      </trkpt>
      <trkpt lat="42.89144" lon="0.12916">
        <ele>2307</ele>
        <time>2012-12-16T11:33:53Z</time>
      </trkpt>
      <trkpt lat="42.89143" lon="0.12914">
        <ele>2307</ele>
        <time>2012-12-16T11:33:56Z</time>
      </trkpt>
      <trkpt lat="42.89142" lon="0.12912">
        <ele>2307</ele>
        <time>2012-12-16T11:33:59Z</time>
      </trkpt>
      <trkpt lat="42.89143" lon="0.12911">
        <ele>2308</ele>
        <time>2012-12-16T11:34:16Z</time>
      </trkpt>
      <trkpt lat="42.89143" lon="0.1291">
        <ele>2308</ele>
        <time>2012-12-16T11:34:41Z</time>
      </trkpt>
      <trkpt lat="42.89145" lon="0.12909">
        <ele>2308</ele>
        <time>2012-12-16T11:34:47Z</time>
      </trkpt>
      <trkpt lat="42.89146" lon="0.12909">
        <ele>2308</ele>
        <time>2012-12-16T11:34:50Z</time>
      </trkpt>
      <trkpt lat="42.89146" lon="0.12907">
        <ele>2308</ele>
        <time>2012-12-16T11:35:01Z</time>
      </trkpt>
      <trkpt lat="42.89144" lon="0.12906">
        <ele>2308</ele>
        <time>2012-12-16T11:35:04Z</time>
      </trkpt>
      <trkpt lat="42.89143" lon="0.12904">
        <ele>2308</ele>
        <time>2012-12-16T11:35:10Z</time>
      </trkpt>
      <trkpt lat="42.89141" lon="0.12903">
        <ele>2308</ele>
        <time>2012-12-16T11:36:13Z</time>
      </trkpt>
      <trkpt lat="42.8914" lon="0.12903">
        <ele>2308</ele>
        <time>2012-12-16T11:36:15Z</time>
      </trkpt>
      <trkpt lat="42.89139" lon="0.12902">
        <ele>2308</ele>
        <time>2012-12-16T11:36:18Z</time>
      </trkpt>
      <trkpt lat="42.89138" lon="0.12902">
        <ele>2308</ele>
        <time>2012-12-16T11:36:21Z</time>
      </trkpt>
      <trkpt lat="42.89139" lon="0.129">
        <ele>2308</ele>
        <time>2012-12-16T11:36:50Z</time>
      </trkpt>
      <trkpt lat="42.8914" lon="0.12899">
        <ele>2308</ele>
        <time>2012-12-16T11:36:53Z</time>
      </trkpt>
      <trkpt lat="42.89137" lon="0.12899">
        <ele>2308</ele>
        <time>2012-12-16T11:36:55Z</time>
      </trkpt>
      <trkpt lat="42.89136" lon="0.12899">
        <ele>2309</ele>
        <time>2012-12-16T11:37:04Z</time>
      </trkpt>
      <trkpt lat="42.89137" lon="0.129">
        <ele>2309</ele>
        <time>2012-12-16T11:37:44Z</time>
      </trkpt>
      <trkpt lat="42.89136" lon="0.129">
        <ele>2309</ele>
        <time>2012-12-16T11:37:59Z</time>
      </trkpt>
      <trkpt lat="42.89135" lon="0.129">
        <ele>2309</ele>
        <time>2012-12-16T11:38:01Z</time>
      </trkpt>
      <trkpt lat="42.89134" lon="0.129">
        <ele>2309</ele>
        <time>2012-12-16T11:38:03Z</time>
      </trkpt>
      <trkpt lat="42.89132" lon="0.12901">
        <ele>2309</ele>
        <time>2012-12-16T11:38:06Z</time>
      </trkpt>
      <trkpt lat="42.89131" lon="0.12902">
        <ele>2309</ele>
        <time>2012-12-16T11:38:09Z</time>
      </trkpt>
      <trkpt lat="42.8913" lon="0.12902">
        <ele>2309</ele>
        <time>2012-12-16T11:38:11Z</time>
      </trkpt>
      <trkpt lat="42.89129" lon="0.12903">
        <ele>2309</ele>
        <time>2012-12-16T11:38:13Z</time>
      </trkpt>
      <trkpt lat="42.89127" lon="0.12904">
        <ele>2309</ele>
        <time>2012-12-16T11:38:15Z</time>
      </trkpt>
      <trkpt lat="42.89126" lon="0.12905">
        <ele>2310</ele>
        <time>2012-12-16T11:38:20Z</time>
      </trkpt>
      <trkpt lat="42.89125" lon="0.12905">
        <ele>2310</ele>
        <time>2012-12-16T11:38:22Z</time>
      </trkpt>
      <trkpt lat="42.89123" lon="0.12906">
        <ele>2310</ele>
        <time>2012-12-16T11:38:24Z</time>
      </trkpt>
      <trkpt lat="42.89122" lon="0.12907">
        <ele>2311</ele>
        <time>2012-12-16T11:38:26Z</time>
      </trkpt>
      <trkpt lat="42.89121" lon="0.12907">
        <ele>2311</ele>
        <time>2012-12-16T11:38:29Z</time>
      </trkpt>
      <trkpt lat="42.89119" lon="0.12907">
        <ele>2311</ele>
        <time>2012-12-16T11:38:32Z</time>
      </trkpt>
      <trkpt lat="42.89118" lon="0.12906">
        <ele>2312</ele>
        <time>2012-12-16T11:38:35Z</time>
      </trkpt>
      <trkpt lat="42.89117" lon="0.12905">
        <ele>2312</ele>
        <time>2012-12-16T11:38:38Z</time>
      </trkpt>
      <trkpt lat="42.89115" lon="0.12904">
        <ele>2313</ele>
        <time>2012-12-16T11:38:41Z</time>
      </trkpt>
      <trkpt lat="42.89114" lon="0.12904">
        <ele>2314</ele>
        <time>2012-12-16T11:38:44Z</time>
      </trkpt>
      <trkpt lat="42.89113" lon="0.12904">
        <ele>2314</ele>
        <time>2012-12-16T11:38:47Z</time>
      </trkpt>
      <trkpt lat="42.89111" lon="0.12904">
        <ele>2314</ele>
        <time>2012-12-16T11:38:50Z</time>
      </trkpt>
      <trkpt lat="42.8911" lon="0.12904">
        <ele>2314</ele>
        <time>2012-12-16T11:38:53Z</time>
      </trkpt>
      <trkpt lat="42.89109" lon="0.12903">
        <ele>2315</ele>
        <time>2012-12-16T11:38:55Z</time>
      </trkpt>
      <trkpt lat="42.89107" lon="0.12903">
        <ele>2316</ele>
        <time>2012-12-16T11:38:59Z</time>
      </trkpt>
      <trkpt lat="42.89106" lon="0.12903">
        <ele>2316</ele>
        <time>2012-12-16T11:39:04Z</time>
      </trkpt>
      <trkpt lat="42.89104" lon="0.12903">
        <ele>2316</ele>
        <time>2012-12-16T11:39:07Z</time>
      </trkpt>
      <trkpt lat="42.89103" lon="0.12903">
        <ele>2316</ele>
        <time>2012-12-16T11:39:10Z</time>
      </trkpt>
      <trkpt lat="42.89102" lon="0.12904">
        <ele>2317</ele>
        <time>2012-12-16T11:39:27Z</time>
      </trkpt>
      <trkpt lat="42.891" lon="0.12905">
        <ele>2317</ele>
        <time>2012-12-16T11:39:30Z</time>
      </trkpt>
      <trkpt lat="42.89099" lon="0.12905">
        <ele>2317</ele>
        <time>2012-12-16T11:39:32Z</time>
      </trkpt>
      <trkpt lat="42.89097" lon="0.12905">
        <ele>2317</ele>
        <time>2012-12-16T11:39:34Z</time>
      </trkpt>
      <trkpt lat="42.89096" lon="0.12905">
        <ele>2317</ele>
        <time>2012-12-16T11:39:37Z</time>
      </trkpt>
      <trkpt lat="42.89094" lon="0.12904">
        <ele>2317</ele>
        <time>2012-12-16T11:39:40Z</time>
      </trkpt>
      <trkpt lat="42.89093" lon="0.12903">
        <ele>2318</ele>
        <time>2012-12-16T11:39:42Z</time>
      </trkpt>
      <trkpt lat="42.89092" lon="0.12902">
        <ele>2318</ele>
        <time>2012-12-16T11:39:44Z</time>
      </trkpt>
      <trkpt lat="42.8909" lon="0.12901">
        <ele>2318</ele>
        <time>2012-12-16T11:39:46Z</time>
      </trkpt>
      <trkpt lat="42.89089" lon="0.12901">
        <ele>2318</ele>
        <time>2012-12-16T11:39:48Z</time>
      </trkpt>
      <trkpt lat="42.89087" lon="0.129">
        <ele>2318</ele>
        <time>2012-12-16T11:39:50Z</time>
      </trkpt>
      <trkpt lat="42.89085" lon="0.129">
        <ele>2318</ele>
        <time>2012-12-16T11:39:52Z</time>
      </trkpt>
      <trkpt lat="42.89083" lon="0.129">
        <ele>2318</ele>
        <time>2012-12-16T11:39:54Z</time>
      </trkpt>
      <trkpt lat="42.89081" lon="0.12901">
        <ele>2318</ele>
        <time>2012-12-16T11:39:56Z</time>
      </trkpt>
      <trkpt lat="42.8908" lon="0.12902">
        <ele>2318</ele>
        <time>2012-12-16T11:39:58Z</time>
      </trkpt>
      <trkpt lat="42.89078" lon="0.12903">
        <ele>2318</ele>
        <time>2012-12-16T11:40:01Z</time>
      </trkpt>
      <trkpt lat="42.89076" lon="0.12903">
        <ele>2318</ele>
        <time>2012-12-16T11:40:03Z</time>
      </trkpt>
      <trkpt lat="42.89075" lon="0.12904">
        <ele>2318</ele>
        <time>2012-12-16T11:40:05Z</time>
      </trkpt>
      <trkpt lat="42.89073" lon="0.12905">
        <ele>2318</ele>
        <time>2012-12-16T11:40:07Z</time>
      </trkpt>
      <trkpt lat="42.89072" lon="0.12906">
        <ele>2318</ele>
        <time>2012-12-16T11:40:09Z</time>
      </trkpt>
      <trkpt lat="42.8907" lon="0.12907">
        <ele>2318</ele>
        <time>2012-12-16T11:40:11Z</time>
      </trkpt>
      <trkpt lat="42.89069" lon="0.12908">
        <ele>2319</ele>
        <time>2012-12-16T11:40:13Z</time>
      </trkpt>
      <trkpt lat="42.89068" lon="0.12909">
        <ele>2319</ele>
        <time>2012-12-16T11:40:15Z</time>
      </trkpt>
      <trkpt lat="42.89066" lon="0.12909">
        <ele>2319</ele>
        <time>2012-12-16T11:40:18Z</time>
      </trkpt>
      <trkpt lat="42.89065" lon="0.1291">
        <ele>2319</ele>
        <time>2012-12-16T11:40:20Z</time>
      </trkpt>
      <trkpt lat="42.89064" lon="0.1291">
        <ele>2319</ele>
        <time>2012-12-16T11:40:23Z</time>
      </trkpt>
      <trkpt lat="42.89062" lon="0.12911">
        <ele>2319</ele>
        <time>2012-12-16T11:40:26Z</time>
      </trkpt>
      <trkpt lat="42.89061" lon="0.12912">
        <ele>2320</ele>
        <time>2012-12-16T11:40:29Z</time>
      </trkpt>
      <trkpt lat="42.8906" lon="0.12912">
        <ele>2320</ele>
        <time>2012-12-16T11:40:31Z</time>
      </trkpt>
      <trkpt lat="42.89058" lon="0.12913">
        <ele>2321</ele>
        <time>2012-12-16T11:40:35Z</time>
      </trkpt>
      <trkpt lat="42.89057" lon="0.12913">
        <ele>2321</ele>
        <time>2012-12-16T11:40:38Z</time>
      </trkpt>
      <trkpt lat="42.89056" lon="0.12913">
        <ele>2322</ele>
        <time>2012-12-16T11:40:41Z</time>
      </trkpt>
      <trkpt lat="42.89055" lon="0.12911">
        <ele>2322</ele>
        <time>2012-12-16T11:40:44Z</time>
      </trkpt>
      <trkpt lat="42.89054" lon="0.1291">
        <ele>2322</ele>
        <time>2012-12-16T11:40:46Z</time>
      </trkpt>
      <trkpt lat="42.89054" lon="0.12908">
        <ele>2322</ele>
        <time>2012-12-16T11:40:49Z</time>
      </trkpt>
      <trkpt lat="42.89054" lon="0.12906">
        <ele>2322</ele>
        <time>2012-12-16T11:40:52Z</time>
      </trkpt>
      <trkpt lat="42.89054" lon="0.12904">
        <ele>2322</ele>
        <time>2012-12-16T11:40:54Z</time>
      </trkpt>
      <trkpt lat="42.89054" lon="0.12902">
        <ele>2323</ele>
        <time>2012-12-16T11:40:57Z</time>
      </trkpt>
      <trkpt lat="42.89055" lon="0.129">
        <ele>2323</ele>
        <time>2012-12-16T11:41:00Z</time>
      </trkpt>
      <trkpt lat="42.89056" lon="0.12899">
        <ele>2324</ele>
        <time>2012-12-16T11:41:03Z</time>
      </trkpt>
      <trkpt lat="42.89057" lon="0.12897">
        <ele>2324</ele>
        <time>2012-12-16T11:41:06Z</time>
      </trkpt>
      <trkpt lat="42.89058" lon="0.12895">
        <ele>2325</ele>
        <time>2012-12-16T11:41:09Z</time>
      </trkpt>
      <trkpt lat="42.89059" lon="0.12893">
        <ele>2326</ele>
        <time>2012-12-16T11:41:16Z</time>
      </trkpt>
      <trkpt lat="42.89061" lon="0.12892">
        <ele>2326</ele>
        <time>2012-12-16T11:41:21Z</time>
      </trkpt>
      <trkpt lat="42.89059" lon="0.12892">
        <ele>2328</ele>
        <time>2012-12-16T11:41:27Z</time>
      </trkpt>
      <trkpt lat="42.89058" lon="0.12893">
        <ele>2328</ele>
        <time>2012-12-16T11:41:30Z</time>
      </trkpt>
      <trkpt lat="42.89056" lon="0.12894">
        <ele>2328</ele>
        <time>2012-12-16T11:41:32Z</time>
      </trkpt>
      <trkpt lat="42.89054" lon="0.12895">
        <ele>2328</ele>
        <time>2012-12-16T11:41:34Z</time>
      </trkpt>
      <trkpt lat="42.89053" lon="0.12896">
        <ele>2328</ele>
        <time>2012-12-16T11:41:36Z</time>
      </trkpt>
      <trkpt lat="42.89051" lon="0.12898">
        <ele>2328</ele>
        <time>2012-12-16T11:41:38Z</time>
      </trkpt>
      <trkpt lat="42.8905" lon="0.12899">
        <ele>2328</ele>
        <time>2012-12-16T11:41:40Z</time>
      </trkpt>
      <trkpt lat="42.89049" lon="0.12899">
        <ele>2328</ele>
        <time>2012-12-16T11:41:42Z</time>
      </trkpt>
      <trkpt lat="42.89048" lon="0.129">
        <ele>2328</ele>
        <time>2012-12-16T11:41:44Z</time>
      </trkpt>
      <trkpt lat="42.89046" lon="0.12901">
        <ele>2328</ele>
        <time>2012-12-16T11:41:47Z</time>
      </trkpt>
      <trkpt lat="42.89045" lon="0.12902">
        <ele>2328</ele>
        <time>2012-12-16T11:41:50Z</time>
      </trkpt>
      <trkpt lat="42.89043" lon="0.12903">
        <ele>2329</ele>
        <time>2012-12-16T11:41:54Z</time>
      </trkpt>
      <trkpt lat="42.89042" lon="0.12904">
        <ele>2329</ele>
        <time>2012-12-16T11:41:57Z</time>
      </trkpt>
      <trkpt lat="42.89041" lon="0.12905">
        <ele>2329</ele>
        <time>2012-12-16T11:42:00Z</time>
      </trkpt>
      <trkpt lat="42.8904" lon="0.12906">
        <ele>2330</ele>
        <time>2012-12-16T11:42:02Z</time>
      </trkpt>
      <trkpt lat="42.89038" lon="0.12907">
        <ele>2330</ele>
        <time>2012-12-16T11:42:05Z</time>
      </trkpt>
      <trkpt lat="42.89037" lon="0.12907">
        <ele>2330</ele>
        <time>2012-12-16T11:42:07Z</time>
      </trkpt>
      <trkpt lat="42.89035" lon="0.12907">
        <ele>2330</ele>
        <time>2012-12-16T11:42:09Z</time>
      </trkpt>
      <trkpt lat="42.89034" lon="0.12908">
        <ele>2330</ele>
        <time>2012-12-16T11:42:12Z</time>
      </trkpt>
      <trkpt lat="42.89033" lon="0.12909">
        <ele>2330</ele>
        <time>2012-12-16T11:42:14Z</time>
      </trkpt>
      <trkpt lat="42.89031" lon="0.1291">
        <ele>2331</ele>
        <time>2012-12-16T11:42:17Z</time>
      </trkpt>
      <trkpt lat="42.8903" lon="0.12911">
        <ele>2332</ele>
        <time>2012-12-16T11:42:28Z</time>
      </trkpt>
      <trkpt lat="42.89029" lon="0.12913">
        <ele>2332</ele>
        <time>2012-12-16T11:42:31Z</time>
      </trkpt>
      <trkpt lat="42.89028" lon="0.12914">
        <ele>2332</ele>
        <time>2012-12-16T11:42:34Z</time>
      </trkpt>
      <trkpt lat="42.89027" lon="0.12915">
        <ele>2332</ele>
        <time>2012-12-16T11:42:38Z</time>
      </trkpt>
      <trkpt lat="42.89025" lon="0.12915">
        <ele>2332</ele>
        <time>2012-12-16T11:42:43Z</time>
      </trkpt>
      <trkpt lat="42.89025" lon="0.12913">
        <ele>2333</ele>
        <time>2012-12-16T11:42:47Z</time>
      </trkpt>
      <trkpt lat="42.89025" lon="0.12912">
        <ele>2333</ele>
        <time>2012-12-16T11:42:50Z</time>
      </trkpt>
      <trkpt lat="42.89025" lon="0.1291">
        <ele>2333</ele>
        <time>2012-12-16T11:42:53Z</time>
      </trkpt>
      <trkpt lat="42.89026" lon="0.12909">
        <ele>2334</ele>
        <time>2012-12-16T11:42:56Z</time>
      </trkpt>
      <trkpt lat="42.89027" lon="0.12907">
        <ele>2334</ele>
        <time>2012-12-16T11:42:59Z</time>
      </trkpt>
      <trkpt lat="42.89027" lon="0.12905">
        <ele>2334</ele>
        <time>2012-12-16T11:43:02Z</time>
      </trkpt>
      <trkpt lat="42.89028" lon="0.12904">
        <ele>2335</ele>
        <time>2012-12-16T11:43:06Z</time>
      </trkpt>
      <trkpt lat="42.89029" lon="0.12902">
        <ele>2336</ele>
        <time>2012-12-16T11:43:18Z</time>
      </trkpt>
      <trkpt lat="42.8903" lon="0.129">
        <ele>2337</ele>
        <time>2012-12-16T11:43:21Z</time>
      </trkpt>
      <trkpt lat="42.89029" lon="0.12901">
        <ele>2337</ele>
        <time>2012-12-16T11:43:31Z</time>
      </trkpt>
      <trkpt lat="42.89028" lon="0.12902">
        <ele>2337</ele>
        <time>2012-12-16T11:43:36Z</time>
      </trkpt>
      <trkpt lat="42.89026" lon="0.12903">
        <ele>2337</ele>
        <time>2012-12-16T11:43:39Z</time>
      </trkpt>
      <trkpt lat="42.89025" lon="0.12903">
        <ele>2337</ele>
        <time>2012-12-16T11:43:41Z</time>
      </trkpt>
      <trkpt lat="42.89024" lon="0.12904">
        <ele>2337</ele>
        <time>2012-12-16T11:43:43Z</time>
      </trkpt>
      <trkpt lat="42.89022" lon="0.12904">
        <ele>2337</ele>
        <time>2012-12-16T11:43:45Z</time>
      </trkpt>
      <trkpt lat="42.89021" lon="0.12905">
        <ele>2337</ele>
        <time>2012-12-16T11:43:47Z</time>
      </trkpt>
      <trkpt lat="42.8902" lon="0.12905">
        <ele>2337</ele>
        <time>2012-12-16T11:43:49Z</time>
      </trkpt>
      <trkpt lat="42.89019" lon="0.12906">
        <ele>2337</ele>
        <time>2012-12-16T11:43:51Z</time>
      </trkpt>
      <trkpt lat="42.89017" lon="0.12908">
        <ele>2337</ele>
        <time>2012-12-16T11:43:54Z</time>
      </trkpt>
      <trkpt lat="42.89016" lon="0.12909">
        <ele>2337</ele>
        <time>2012-12-16T11:43:57Z</time>
      </trkpt>
      <trkpt lat="42.89015" lon="0.1291">
        <ele>2337</ele>
        <time>2012-12-16T11:44:00Z</time>
      </trkpt>
      <trkpt lat="42.89013" lon="0.12911">
        <ele>2338</ele>
        <time>2012-12-16T11:44:04Z</time>
      </trkpt>
      <trkpt lat="42.89012" lon="0.12912">
        <ele>2338</ele>
        <time>2012-12-16T11:44:07Z</time>
      </trkpt>
      <trkpt lat="42.89011" lon="0.12913">
        <ele>2339</ele>
        <time>2012-12-16T11:44:13Z</time>
      </trkpt>
      <trkpt lat="42.8901" lon="0.12915">
        <ele>2340</ele>
        <time>2012-12-16T11:44:20Z</time>
      </trkpt>
      <trkpt lat="42.89009" lon="0.12917">
        <ele>2340</ele>
        <time>2012-12-16T11:44:22Z</time>
      </trkpt>
      <trkpt lat="42.89009" lon="0.12918">
        <ele>2341</ele>
        <time>2012-12-16T11:44:24Z</time>
      </trkpt>
      <trkpt lat="42.89008" lon="0.1292">
        <ele>2342</ele>
        <time>2012-12-16T11:44:27Z</time>
      </trkpt>
      <trkpt lat="42.89008" lon="0.12922">
        <ele>2343</ele>
        <time>2012-12-16T11:44:30Z</time>
      </trkpt>
      <trkpt lat="42.89007" lon="0.12923">
        <ele>2344</ele>
        <time>2012-12-16T11:44:33Z</time>
      </trkpt>
      <trkpt lat="42.89007" lon="0.12925">
        <ele>2347</ele>
        <time>2012-12-16T11:44:49Z</time>
      </trkpt>
      <trkpt lat="42.89006" lon="0.12925">
        <ele>2348</ele>
        <time>2012-12-16T11:45:03Z</time>
      </trkpt>
      <trkpt lat="42.89004" lon="0.12925">
        <ele>2348</ele>
        <time>2012-12-16T11:45:06Z</time>
      </trkpt>
      <trkpt lat="42.89003" lon="0.12926">
        <ele>2348</ele>
        <time>2012-12-16T11:45:08Z</time>
      </trkpt>
      <trkpt lat="42.89001" lon="0.12926">
        <ele>2349</ele>
        <time>2012-12-16T11:45:11Z</time>
      </trkpt>
      <trkpt lat="42.89" lon="0.12927">
        <ele>2349</ele>
        <time>2012-12-16T11:45:13Z</time>
      </trkpt>
      <trkpt lat="42.88999" lon="0.12927">
        <ele>2349</ele>
        <time>2012-12-16T11:45:15Z</time>
      </trkpt>
      <trkpt lat="42.88998" lon="0.12928">
        <ele>2349</ele>
        <time>2012-12-16T11:45:17Z</time>
      </trkpt>
      <trkpt lat="42.88996" lon="0.12928">
        <ele>2349</ele>
        <time>2012-12-16T11:45:19Z</time>
      </trkpt>
      <trkpt lat="42.88995" lon="0.12929">
        <ele>2349</ele>
        <time>2012-12-16T11:45:21Z</time>
      </trkpt>
      <trkpt lat="42.88993" lon="0.1293">
        <ele>2349</ele>
        <time>2012-12-16T11:45:23Z</time>
      </trkpt>
      <trkpt lat="42.88992" lon="0.1293">
        <ele>2350</ele>
        <time>2012-12-16T11:45:25Z</time>
      </trkpt>
      <trkpt lat="42.88991" lon="0.12931">
        <ele>2350</ele>
        <time>2012-12-16T11:45:27Z</time>
      </trkpt>
      <trkpt lat="42.8899" lon="0.12932">
        <ele>2350</ele>
        <time>2012-12-16T11:45:30Z</time>
      </trkpt>
      <trkpt lat="42.88988" lon="0.12932">
        <ele>2350</ele>
        <time>2012-12-16T11:45:32Z</time>
      </trkpt>
      <trkpt lat="42.88987" lon="0.12932">
        <ele>2350</ele>
        <time>2012-12-16T11:45:34Z</time>
      </trkpt>
      <trkpt lat="42.88986" lon="0.12932">
        <ele>2350</ele>
        <time>2012-12-16T11:45:36Z</time>
      </trkpt>
      <trkpt lat="42.88985" lon="0.12932">
        <ele>2350</ele>
        <time>2012-12-16T11:45:38Z</time>
      </trkpt>
      <trkpt lat="42.88983" lon="0.12932">
        <ele>2350</ele>
        <time>2012-12-16T11:45:43Z</time>
      </trkpt>
      <trkpt lat="42.88981" lon="0.12932">
        <ele>2350</ele>
        <time>2012-12-16T11:45:50Z</time>
      </trkpt>
      <trkpt lat="42.8898" lon="0.12932">
        <ele>2350</ele>
        <time>2012-12-16T11:45:52Z</time>
      </trkpt>
      <trkpt lat="42.88979" lon="0.12931">
        <ele>2350</ele>
        <time>2012-12-16T11:45:54Z</time>
      </trkpt>
      <trkpt lat="42.88977" lon="0.12932">
        <ele>2350</ele>
        <time>2012-12-16T11:45:56Z</time>
      </trkpt>
      <trkpt lat="42.88975" lon="0.12932">
        <ele>2350</ele>
        <time>2012-12-16T11:45:58Z</time>
      </trkpt>
      <trkpt lat="42.88973" lon="0.12932">
        <ele>2350</ele>
        <time>2012-12-16T11:46:00Z</time>
      </trkpt>
      <trkpt lat="42.88971" lon="0.12932">
        <ele>2350</ele>
        <time>2012-12-16T11:46:02Z</time>
      </trkpt>
      <trkpt lat="42.88969" lon="0.12932">
        <ele>2350</ele>
        <time>2012-12-16T11:46:04Z</time>
      </trkpt>
      <trkpt lat="42.88968" lon="0.12933">
        <ele>2350</ele>
        <time>2012-12-16T11:46:06Z</time>
      </trkpt>
      <trkpt lat="42.88967" lon="0.12934">
        <ele>2350</ele>
        <time>2012-12-16T11:46:09Z</time>
      </trkpt>
      <trkpt lat="42.88965" lon="0.12934">
        <ele>2350</ele>
        <time>2012-12-16T11:46:12Z</time>
      </trkpt>
      <trkpt lat="42.88963" lon="0.12935">
        <ele>2351</ele>
        <time>2012-12-16T11:46:15Z</time>
      </trkpt>
      <trkpt lat="42.88962" lon="0.12936">
        <ele>2351</ele>
        <time>2012-12-16T11:46:17Z</time>
      </trkpt>
      <trkpt lat="42.88961" lon="0.12937">
        <ele>2352</ele>
        <time>2012-12-16T11:46:19Z</time>
      </trkpt>
      <trkpt lat="42.8896" lon="0.12938">
        <ele>2352</ele>
        <time>2012-12-16T11:46:21Z</time>
      </trkpt>
      <trkpt lat="42.88958" lon="0.12938">
        <ele>2353</ele>
        <time>2012-12-16T11:46:23Z</time>
      </trkpt>
      <trkpt lat="42.88957" lon="0.12939">
        <ele>2353</ele>
        <time>2012-12-16T11:46:26Z</time>
      </trkpt>
      <trkpt lat="42.88956" lon="0.1294">
        <ele>2355</ele>
        <time>2012-12-16T11:46:34Z</time>
      </trkpt>
      <trkpt lat="42.88954" lon="0.1294">
        <ele>2355</ele>
        <time>2012-12-16T11:46:36Z</time>
      </trkpt>
      <trkpt lat="42.88953" lon="0.12941">
        <ele>2355</ele>
        <time>2012-12-16T11:46:38Z</time>
      </trkpt>
      <trkpt lat="42.88951" lon="0.12942">
        <ele>2355</ele>
        <time>2012-12-16T11:46:41Z</time>
      </trkpt>
      <trkpt lat="42.8895" lon="0.12944">
        <ele>2355</ele>
        <time>2012-12-16T11:46:44Z</time>
      </trkpt>
      <trkpt lat="42.88948" lon="0.12946">
        <ele>2356</ele>
        <time>2012-12-16T11:46:47Z</time>
      </trkpt>
      <trkpt lat="42.88947" lon="0.12947">
        <ele>2356</ele>
        <time>2012-12-16T11:46:50Z</time>
      </trkpt>
      <trkpt lat="42.88946" lon="0.12949">
        <ele>2356</ele>
        <time>2012-12-16T11:46:53Z</time>
      </trkpt>
      <trkpt lat="42.88945" lon="0.1295">
        <ele>2356</ele>
        <time>2012-12-16T11:46:55Z</time>
      </trkpt>
      <trkpt lat="42.88944" lon="0.12953">
        <ele>2356</ele>
        <time>2012-12-16T11:46:58Z</time>
      </trkpt>
      <trkpt lat="42.88943" lon="0.12954">
        <ele>2356</ele>
        <time>2012-12-16T11:47:01Z</time>
      </trkpt>
      <trkpt lat="42.88943" lon="0.12956">
        <ele>2356</ele>
        <time>2012-12-16T11:47:04Z</time>
      </trkpt>
      <trkpt lat="42.88942" lon="0.12957">
        <ele>2356</ele>
        <time>2012-12-16T11:47:07Z</time>
      </trkpt>
      <trkpt lat="42.88942" lon="0.12959">
        <ele>2356</ele>
        <time>2012-12-16T11:47:11Z</time>
      </trkpt>
      <trkpt lat="42.8894" lon="0.12958">
        <ele>2357</ele>
        <time>2012-12-16T11:47:18Z</time>
      </trkpt>
      <trkpt lat="42.8894" lon="0.12956">
        <ele>2357</ele>
        <time>2012-12-16T11:47:21Z</time>
      </trkpt>
      <trkpt lat="42.88939" lon="0.12954">
        <ele>2358</ele>
        <time>2012-12-16T11:47:25Z</time>
      </trkpt>
      <trkpt lat="42.88938" lon="0.12952">
        <ele>2358</ele>
        <time>2012-12-16T11:47:28Z</time>
      </trkpt>
      <trkpt lat="42.88937" lon="0.12952">
        <ele>2358</ele>
        <time>2012-12-16T11:47:32Z</time>
      </trkpt>
      <trkpt lat="42.88936" lon="0.12952">
        <ele>2358</ele>
        <time>2012-12-16T11:47:35Z</time>
      </trkpt>
      <trkpt lat="42.88935" lon="0.12954">
        <ele>2358</ele>
        <time>2012-12-16T11:47:38Z</time>
      </trkpt>
      <trkpt lat="42.88934" lon="0.12955">
        <ele>2359</ele>
        <time>2012-12-16T11:47:41Z</time>
      </trkpt>
      <trkpt lat="42.88933" lon="0.12957">
        <ele>2359</ele>
        <time>2012-12-16T11:47:43Z</time>
      </trkpt>
      <trkpt lat="42.88932" lon="0.12958">
        <ele>2361</ele>
        <time>2012-12-16T11:48:01Z</time>
      </trkpt>
      <trkpt lat="42.88931" lon="0.12959">
        <ele>2361</ele>
        <time>2012-12-16T11:48:04Z</time>
      </trkpt>
      <trkpt lat="42.8893" lon="0.12958">
        <ele>2361</ele>
        <time>2012-12-16T11:48:08Z</time>
      </trkpt>
      <trkpt lat="42.88928" lon="0.12956">
        <ele>2361</ele>
        <time>2012-12-16T11:48:12Z</time>
      </trkpt>
      <trkpt lat="42.88927" lon="0.12955">
        <ele>2361</ele>
        <time>2012-12-16T11:48:16Z</time>
      </trkpt>
      <trkpt lat="42.88926" lon="0.12955">
        <ele>2361</ele>
        <time>2012-12-16T11:48:19Z</time>
      </trkpt>
      <trkpt lat="42.88924" lon="0.12956">
        <ele>2361</ele>
        <time>2012-12-16T11:48:22Z</time>
      </trkpt>
      <trkpt lat="42.88923" lon="0.12956">
        <ele>2361</ele>
        <time>2012-12-16T11:48:24Z</time>
      </trkpt>
      <trkpt lat="42.88921" lon="0.12957">
        <ele>2361</ele>
        <time>2012-12-16T11:48:27Z</time>
      </trkpt>
      <trkpt lat="42.8892" lon="0.12958">
        <ele>2361</ele>
        <time>2012-12-16T11:48:30Z</time>
      </trkpt>
      <trkpt lat="42.88918" lon="0.12959">
        <ele>2361</ele>
        <time>2012-12-16T11:48:33Z</time>
      </trkpt>
      <trkpt lat="42.88917" lon="0.12959">
        <ele>2362</ele>
        <time>2012-12-16T11:48:36Z</time>
      </trkpt>
      <trkpt lat="42.88916" lon="0.12958">
        <ele>2362</ele>
        <time>2012-12-16T11:48:39Z</time>
      </trkpt>
      <trkpt lat="42.88914" lon="0.12958">
        <ele>2362</ele>
        <time>2012-12-16T11:48:42Z</time>
      </trkpt>
      <trkpt lat="42.88913" lon="0.12958">
        <ele>2362</ele>
        <time>2012-12-16T11:48:45Z</time>
      </trkpt>
      <trkpt lat="42.88911" lon="0.12957">
        <ele>2362</ele>
        <time>2012-12-16T11:48:47Z</time>
      </trkpt>
      <trkpt lat="42.8891" lon="0.12957">
        <ele>2362</ele>
        <time>2012-12-16T11:48:49Z</time>
      </trkpt>
      <trkpt lat="42.88909" lon="0.12956">
        <ele>2364</ele>
        <time>2012-12-16T11:48:55Z</time>
      </trkpt>
      <trkpt lat="42.88908" lon="0.12957">
        <ele>2364</ele>
        <time>2012-12-16T11:49:06Z</time>
      </trkpt>
      <trkpt lat="42.88907" lon="0.12958">
        <ele>2364</ele>
        <time>2012-12-16T11:49:08Z</time>
      </trkpt>
      <trkpt lat="42.88907" lon="0.1296">
        <ele>2364</ele>
        <time>2012-12-16T11:49:10Z</time>
      </trkpt>
      <trkpt lat="42.88907" lon="0.12961">
        <ele>2364</ele>
        <time>2012-12-16T11:49:13Z</time>
      </trkpt>
      <trkpt lat="42.88906" lon="0.12963">
        <ele>2364</ele>
        <time>2012-12-16T11:49:16Z</time>
      </trkpt>
      <trkpt lat="42.88905" lon="0.12964">
        <ele>2364</ele>
        <time>2012-12-16T11:49:20Z</time>
      </trkpt>
      <trkpt lat="42.88903" lon="0.12963">
        <ele>2364</ele>
        <time>2012-12-16T11:49:23Z</time>
      </trkpt>
      <trkpt lat="42.88902" lon="0.12962">
        <ele>2364</ele>
        <time>2012-12-16T11:49:25Z</time>
      </trkpt>
      <trkpt lat="42.88901" lon="0.12961">
        <ele>2364</ele>
        <time>2012-12-16T11:49:28Z</time>
      </trkpt>
      <trkpt lat="42.889" lon="0.12961">
        <ele>2364</ele>
        <time>2012-12-16T11:49:31Z</time>
      </trkpt>
      <trkpt lat="42.88898" lon="0.1296">
        <ele>2364</ele>
        <time>2012-12-16T11:49:34Z</time>
      </trkpt>
      <trkpt lat="42.88897" lon="0.12961">
        <ele>2364</ele>
        <time>2012-12-16T11:49:37Z</time>
      </trkpt>
      <trkpt lat="42.88896" lon="0.12963">
        <ele>2366</ele>
        <time>2012-12-16T11:49:40Z</time>
      </trkpt>
      <trkpt lat="42.88895" lon="0.12965">
        <ele>2366</ele>
        <time>2012-12-16T11:49:42Z</time>
      </trkpt>
      <trkpt lat="42.88895" lon="0.12966">
        <ele>2367</ele>
        <time>2012-12-16T11:49:44Z</time>
      </trkpt>
      <trkpt lat="42.88895" lon="0.12968">
        <ele>2367</ele>
        <time>2012-12-16T11:49:46Z</time>
      </trkpt>
      <trkpt lat="42.88895" lon="0.12969">
        <ele>2368</ele>
        <time>2012-12-16T11:49:48Z</time>
      </trkpt>
      <trkpt lat="42.88894" lon="0.12969">
        <ele>2369</ele>
        <time>2012-12-16T11:49:55Z</time>
      </trkpt>
      <trkpt lat="42.88893" lon="0.12969">
        <ele>2369</ele>
        <time>2012-12-16T11:49:57Z</time>
      </trkpt>
      <trkpt lat="42.88891" lon="0.12968">
        <ele>2371</ele>
        <time>2012-12-16T11:50:05Z</time>
      </trkpt>
      <trkpt lat="42.8889" lon="0.12967">
        <ele>2375</ele>
        <time>2012-12-16T11:50:11Z</time>
      </trkpt>
      <trkpt lat="42.88889" lon="0.12967">
        <ele>2376</ele>
        <time>2012-12-16T11:50:18Z</time>
      </trkpt>
      <trkpt lat="42.88887" lon="0.12966">
        <ele>2376</ele>
        <time>2012-12-16T11:50:21Z</time>
      </trkpt>
      <trkpt lat="42.88886" lon="0.12966">
        <ele>2376</ele>
        <time>2012-12-16T11:50:25Z</time>
      </trkpt>
      <trkpt lat="42.88885" lon="0.12964">
        <ele>2377</ele>
        <time>2012-12-16T11:50:30Z</time>
      </trkpt>
      <trkpt lat="42.88885" lon="0.12962">
        <ele>2378</ele>
        <time>2012-12-16T11:50:32Z</time>
      </trkpt>
      <trkpt lat="42.88885" lon="0.1296">
        <ele>2378</ele>
        <time>2012-12-16T11:50:35Z</time>
      </trkpt>
      <trkpt lat="42.88885" lon="0.12958">
        <ele>2378</ele>
        <time>2012-12-16T11:50:37Z</time>
      </trkpt>
      <trkpt lat="42.88885" lon="0.12957">
        <ele>2378</ele>
        <time>2012-12-16T11:50:39Z</time>
      </trkpt>
      <trkpt lat="42.88885" lon="0.12955">
        <ele>2378</ele>
        <time>2012-12-16T11:50:41Z</time>
      </trkpt>
      <trkpt lat="42.88886" lon="0.12954">
        <ele>2378</ele>
        <time>2012-12-16T11:50:43Z</time>
      </trkpt>
      <trkpt lat="42.88887" lon="0.12952">
        <ele>2378</ele>
        <time>2012-12-16T11:50:46Z</time>
      </trkpt>
      <trkpt lat="42.88887" lon="0.1295">
        <ele>2378</ele>
        <time>2012-12-16T11:50:49Z</time>
      </trkpt>
      <trkpt lat="42.88886" lon="0.12951">
        <ele>2378</ele>
        <time>2012-12-16T11:51:01Z</time>
      </trkpt>
      <trkpt lat="42.88884" lon="0.12953">
        <ele>2378</ele>
        <time>2012-12-16T11:51:04Z</time>
      </trkpt>
      <trkpt lat="42.88883" lon="0.12954">
        <ele>2378</ele>
        <time>2012-12-16T11:51:07Z</time>
      </trkpt>
      <trkpt lat="42.88882" lon="0.12956">
        <ele>2378</ele>
        <time>2012-12-16T11:51:09Z</time>
      </trkpt>
      <trkpt lat="42.88881" lon="0.12957">
        <ele>2378</ele>
        <time>2012-12-16T11:51:11Z</time>
      </trkpt>
      <trkpt lat="42.8888" lon="0.12959">
        <ele>2378</ele>
        <time>2012-12-16T11:51:13Z</time>
      </trkpt>
      <trkpt lat="42.88879" lon="0.12961">
        <ele>2378</ele>
        <time>2012-12-16T11:51:15Z</time>
      </trkpt>
      <trkpt lat="42.88879" lon="0.12962">
        <ele>2378</ele>
        <time>2012-12-16T11:51:17Z</time>
      </trkpt>
      <trkpt lat="42.88878" lon="0.12964">
        <ele>2378</ele>
        <time>2012-12-16T11:51:19Z</time>
      </trkpt>
      <trkpt lat="42.88878" lon="0.12966">
        <ele>2378</ele>
        <time>2012-12-16T11:51:21Z</time>
      </trkpt>
      <trkpt lat="42.88878" lon="0.12968">
        <ele>2378</ele>
        <time>2012-12-16T11:51:23Z</time>
      </trkpt>
      <trkpt lat="42.88877" lon="0.12969">
        <ele>2378</ele>
        <time>2012-12-16T11:51:25Z</time>
      </trkpt>
      <trkpt lat="42.88877" lon="0.12971">
        <ele>2378</ele>
        <time>2012-12-16T11:51:27Z</time>
      </trkpt>
      <trkpt lat="42.88877" lon="0.12973">
        <ele>2378</ele>
        <time>2012-12-16T11:51:29Z</time>
      </trkpt>
      <trkpt lat="42.88877" lon="0.12975">
        <ele>2378</ele>
        <time>2012-12-16T11:51:31Z</time>
      </trkpt>
      <trkpt lat="42.88877" lon="0.12976">
        <ele>2378</ele>
        <time>2012-12-16T11:51:33Z</time>
      </trkpt>
      <trkpt lat="42.88877" lon="0.12978">
        <ele>2378</ele>
        <time>2012-12-16T11:51:35Z</time>
      </trkpt>
      <trkpt lat="42.88876" lon="0.12979">
        <ele>2379</ele>
        <time>2012-12-16T11:51:42Z</time>
      </trkpt>
      <trkpt lat="42.88874" lon="0.12978">
        <ele>2379</ele>
        <time>2012-12-16T11:51:44Z</time>
      </trkpt>
      <trkpt lat="42.88873" lon="0.12977">
        <ele>2379</ele>
        <time>2012-12-16T11:51:47Z</time>
      </trkpt>
      <trkpt lat="42.88871" lon="0.12978">
        <ele>2380</ele>
        <time>2012-12-16T11:51:50Z</time>
      </trkpt>
      <trkpt lat="42.8887" lon="0.12978">
        <ele>2380</ele>
        <time>2012-12-16T11:51:55Z</time>
      </trkpt>
      <trkpt lat="42.88869" lon="0.12978">
        <ele>2380</ele>
        <time>2012-12-16T11:51:58Z</time>
      </trkpt>
      <trkpt lat="42.88868" lon="0.12979">
        <ele>2380</ele>
        <time>2012-12-16T11:52:19Z</time>
      </trkpt>
      <trkpt lat="42.88869" lon="0.12981">
        <ele>2380</ele>
        <time>2012-12-16T11:52:21Z</time>
      </trkpt>
      <trkpt lat="42.88869" lon="0.12982">
        <ele>2380</ele>
        <time>2012-12-16T11:52:23Z</time>
      </trkpt>
      <trkpt lat="42.88869" lon="0.12984">
        <ele>2381</ele>
        <time>2012-12-16T11:52:25Z</time>
      </trkpt>
      <trkpt lat="42.88869" lon="0.12986">
        <ele>2381</ele>
        <time>2012-12-16T11:52:27Z</time>
      </trkpt>
      <trkpt lat="42.88868" lon="0.12987">
        <ele>2381</ele>
        <time>2012-12-16T11:52:30Z</time>
      </trkpt>
      <trkpt lat="42.88868" lon="0.12989">
        <ele>2382</ele>
        <time>2012-12-16T11:52:32Z</time>
      </trkpt>
      <trkpt lat="42.88867" lon="0.1299">
        <ele>2382</ele>
        <time>2012-12-16T11:52:34Z</time>
      </trkpt>
      <trkpt lat="42.88866" lon="0.12992">
        <ele>2383</ele>
        <time>2012-12-16T11:52:36Z</time>
      </trkpt>
      <trkpt lat="42.88866" lon="0.12993">
        <ele>2383</ele>
        <time>2012-12-16T11:52:38Z</time>
      </trkpt>
      <trkpt lat="42.88866" lon="0.12995">
        <ele>2384</ele>
        <time>2012-12-16T11:52:40Z</time>
      </trkpt>
      <trkpt lat="42.88866" lon="0.12997">
        <ele>2384</ele>
        <time>2012-12-16T11:52:42Z</time>
      </trkpt>
      <trkpt lat="42.88866" lon="0.12999">
        <ele>2384</ele>
        <time>2012-12-16T11:52:44Z</time>
      </trkpt>
      <trkpt lat="42.88865" lon="0.13">
        <ele>2385</ele>
        <time>2012-12-16T11:52:46Z</time>
      </trkpt>
      <trkpt lat="42.88865" lon="0.13002">
        <ele>2385</ele>
        <time>2012-12-16T11:52:48Z</time>
      </trkpt>
      <trkpt lat="42.88866" lon="0.13004">
        <ele>2385</ele>
        <time>2012-12-16T11:52:50Z</time>
      </trkpt>
      <trkpt lat="42.88866" lon="0.13006">
        <ele>2386</ele>
        <time>2012-12-16T11:52:52Z</time>
      </trkpt>
      <trkpt lat="42.88866" lon="0.13008">
        <ele>2386</ele>
        <time>2012-12-16T11:52:54Z</time>
      </trkpt>
      <trkpt lat="42.88866" lon="0.1301">
        <ele>2387</ele>
        <time>2012-12-16T11:52:56Z</time>
      </trkpt>
      <trkpt lat="42.88867" lon="0.13012">
        <ele>2387</ele>
        <time>2012-12-16T11:52:58Z</time>
      </trkpt>
      <trkpt lat="42.88867" lon="0.13013">
        <ele>2387</ele>
        <time>2012-12-16T11:53:00Z</time>
      </trkpt>
      <trkpt lat="42.88868" lon="0.13015">
        <ele>2388</ele>
        <time>2012-12-16T11:53:02Z</time>
      </trkpt>
      <trkpt lat="42.88866" lon="0.13013">
        <ele>2388</ele>
        <time>2012-12-16T11:53:15Z</time>
      </trkpt>
      <trkpt lat="42.88865" lon="0.13012">
        <ele>2388</ele>
        <time>2012-12-16T11:53:18Z</time>
      </trkpt>
      <trkpt lat="42.88863" lon="0.1301">
        <ele>2388</ele>
        <time>2012-12-16T11:53:21Z</time>
      </trkpt>
      <trkpt lat="42.88862" lon="0.13009">
        <ele>2388</ele>
        <time>2012-12-16T11:53:23Z</time>
      </trkpt>
      <trkpt lat="42.8886" lon="0.13007">
        <ele>2388</ele>
        <time>2012-12-16T11:53:26Z</time>
      </trkpt>
      <trkpt lat="42.88859" lon="0.13005">
        <ele>2388</ele>
        <time>2012-12-16T11:53:29Z</time>
      </trkpt>
      <trkpt lat="42.88859" lon="0.13007">
        <ele>2389</ele>
        <time>2012-12-16T11:53:35Z</time>
      </trkpt>
      <trkpt lat="42.8886" lon="0.13009">
        <ele>2389</ele>
        <time>2012-12-16T11:53:37Z</time>
      </trkpt>
      <trkpt lat="42.8886" lon="0.13011">
        <ele>2389</ele>
        <time>2012-12-16T11:53:39Z</time>
      </trkpt>
      <trkpt lat="42.8886" lon="0.13013">
        <ele>2389</ele>
        <time>2012-12-16T11:53:41Z</time>
      </trkpt>
      <trkpt lat="42.8886" lon="0.13015">
        <ele>2389</ele>
        <time>2012-12-16T11:53:43Z</time>
      </trkpt>
      <trkpt lat="42.88861" lon="0.13017">
        <ele>2389</ele>
        <time>2012-12-16T11:53:45Z</time>
      </trkpt>
      <trkpt lat="42.88861" lon="0.13018">
        <ele>2389</ele>
        <time>2012-12-16T11:53:47Z</time>
      </trkpt>
      <trkpt lat="42.88861" lon="0.1302">
        <ele>2390</ele>
        <time>2012-12-16T11:53:49Z</time>
      </trkpt>
      <trkpt lat="42.88862" lon="0.13022">
        <ele>2390</ele>
        <time>2012-12-16T11:53:51Z</time>
      </trkpt>
      <trkpt lat="42.88862" lon="0.13023">
        <ele>2391</ele>
        <time>2012-12-16T11:54:06Z</time>
      </trkpt>
      <trkpt lat="42.88863" lon="0.13025">
        <ele>2391</ele>
        <time>2012-12-16T11:54:08Z</time>
      </trkpt>
      <trkpt lat="42.88864" lon="0.13026">
        <ele>2391</ele>
        <time>2012-12-16T11:54:10Z</time>
      </trkpt>
      <trkpt lat="42.88865" lon="0.13028">
        <ele>2392</ele>
        <time>2012-12-16T11:54:12Z</time>
      </trkpt>
      <trkpt lat="42.88866" lon="0.13029">
        <ele>2392</ele>
        <time>2012-12-16T11:54:14Z</time>
      </trkpt>
      <trkpt lat="42.88867" lon="0.13031">
        <ele>2393</ele>
        <time>2012-12-16T11:54:16Z</time>
      </trkpt>
      <trkpt lat="42.88865" lon="0.13031">
        <ele>2394</ele>
        <time>2012-12-16T11:54:25Z</time>
      </trkpt>
      <trkpt lat="42.88864" lon="0.1303">
        <ele>2394</ele>
        <time>2012-12-16T11:54:27Z</time>
      </trkpt>
      <trkpt lat="42.88862" lon="0.1303">
        <ele>2394</ele>
        <time>2012-12-16T11:54:29Z</time>
      </trkpt>
      <trkpt lat="42.88861" lon="0.1303">
        <ele>2394</ele>
        <time>2012-12-16T11:54:31Z</time>
      </trkpt>
      <trkpt lat="42.88859" lon="0.13029">
        <ele>2394</ele>
        <time>2012-12-16T11:54:33Z</time>
      </trkpt>
      <trkpt lat="42.88858" lon="0.13029">
        <ele>2394</ele>
        <time>2012-12-16T11:54:35Z</time>
      </trkpt>
      <trkpt lat="42.88857" lon="0.13029">
        <ele>2395</ele>
        <time>2012-12-16T11:54:37Z</time>
      </trkpt>
      <trkpt lat="42.88855" lon="0.1303">
        <ele>2395</ele>
        <time>2012-12-16T11:54:39Z</time>
      </trkpt>
      <trkpt lat="42.88855" lon="0.13032">
        <ele>2395</ele>
        <time>2012-12-16T11:54:42Z</time>
      </trkpt>
      <trkpt lat="42.88854" lon="0.13034">
        <ele>2395</ele>
        <time>2012-12-16T11:54:44Z</time>
      </trkpt>
      <trkpt lat="42.88855" lon="0.13035">
        <ele>2396</ele>
        <time>2012-12-16T11:54:46Z</time>
      </trkpt>
      <trkpt lat="42.88855" lon="0.13037">
        <ele>2396</ele>
        <time>2012-12-16T11:54:48Z</time>
      </trkpt>
      <trkpt lat="42.88855" lon="0.13038">
        <ele>2396</ele>
        <time>2012-12-16T11:54:51Z</time>
      </trkpt>
      <trkpt lat="42.88855" lon="0.13041">
        <ele>2397</ele>
        <time>2012-12-16T11:54:54Z</time>
      </trkpt>
      <trkpt lat="42.88855" lon="0.13043">
        <ele>2397</ele>
        <time>2012-12-16T11:54:56Z</time>
      </trkpt>
      <trkpt lat="42.88855" lon="0.13044">
        <ele>2398</ele>
        <time>2012-12-16T11:54:58Z</time>
      </trkpt>
      <trkpt lat="42.88855" lon="0.13046">
        <ele>2398</ele>
        <time>2012-12-16T11:55:21Z</time>
      </trkpt>
      <trkpt lat="42.88855" lon="0.13048">
        <ele>2398</ele>
        <time>2012-12-16T11:55:23Z</time>
      </trkpt>
      <trkpt lat="42.88856" lon="0.1305">
        <ele>2399</ele>
        <time>2012-12-16T11:55:28Z</time>
      </trkpt>
      <trkpt lat="42.88857" lon="0.13052">
        <ele>2399</ele>
        <time>2012-12-16T11:55:30Z</time>
      </trkpt>
      <trkpt lat="42.88857" lon="0.13053">
        <ele>2399</ele>
        <time>2012-12-16T11:55:32Z</time>
      </trkpt>
      <trkpt lat="42.88857" lon="0.13056">
        <ele>2399</ele>
        <time>2012-12-16T11:55:34Z</time>
      </trkpt>
      <trkpt lat="42.88857" lon="0.13058">
        <ele>2399</ele>
        <time>2012-12-16T11:55:36Z</time>
      </trkpt>
      <trkpt lat="42.88858" lon="0.13059">
        <ele>2399</ele>
        <time>2012-12-16T11:55:38Z</time>
      </trkpt>
      <trkpt lat="42.88858" lon="0.13062">
        <ele>2399</ele>
        <time>2012-12-16T11:55:40Z</time>
      </trkpt>
      <trkpt lat="42.88858" lon="0.13064">
        <ele>2400</ele>
        <time>2012-12-16T11:55:42Z</time>
      </trkpt>
      <trkpt lat="42.88858" lon="0.13066">
        <ele>2400</ele>
        <time>2012-12-16T11:55:44Z</time>
      </trkpt>
      <trkpt lat="42.88859" lon="0.13068">
        <ele>2400</ele>
        <time>2012-12-16T11:55:48Z</time>
      </trkpt>
      <trkpt lat="42.88859" lon="0.13069">
        <ele>2401</ele>
        <time>2012-12-16T11:56:39Z</time>
      </trkpt>
      <trkpt lat="42.88858" lon="0.13071">
        <ele>2401</ele>
        <time>2012-12-16T11:56:49Z</time>
      </trkpt>
      <trkpt lat="42.88857" lon="0.13072">
        <ele>2401</ele>
        <time>2012-12-16T11:56:53Z</time>
      </trkpt>
      <trkpt lat="42.88858" lon="0.13074">
        <ele>2401</ele>
        <time>2012-12-16T11:58:43Z</time>
      </trkpt>
      <trkpt lat="42.88859" lon="0.13074">
        <ele>2401</ele>
        <time>2012-12-16T11:59:59Z</time>
      </trkpt>
      <trkpt lat="42.88858" lon="0.13074">
        <ele>2401</ele>
        <time>2012-12-16T12:00:06Z</time>
      </trkpt>
    </trkseg>
  </trk>
</gpx>